<?xml version="1.0" encoding="UTF-8" standalone="no" ?>
<gpx xmlns="http://www.topografix.com/GPX/1/1" xmlns:xsi="http://www.w3.org/2001/XMLSchema-instance" xsi:schemaLocation="http://www.topografix.com/GPX/1/1 http://www.topografix.com/GPX/1/1/gpx.xsd" version="1.1" creator="VisuGPX - https://www.visugpx.com">
  <metadata>
    <name>St Pierre des Echaubrognes</name>
    <desc><![CDATA[St pierre greg]]></desc>
  </metadata>
  <trk>
    <name><![CDATA[St Pierre des Echaubrognes_1]]></name>
    <trkseg>
      <trkpt lat="46.98985" lon="-0.74312">
        <ele>146.66093444824</ele>
        <time>2016-06-08T12:48:26.000Z</time>
      </trkpt>
      <trkpt lat="46.98984" lon="-0.74314">
        <ele>147.73675537109</ele>
        <time>2016-06-08T12:48:47.000Z</time>
      </trkpt>
      <trkpt lat="46.98981" lon="-0.74316">
        <ele>148.01348876953</ele>
        <time>2016-06-08T12:48:51.000Z</time>
      </trkpt>
      <trkpt lat="46.98978" lon="-0.74316">
        <ele>150.03633117676</ele>
        <time>2016-06-08T12:48:55.000Z</time>
      </trkpt>
      <trkpt lat="46.98977" lon="-0.74314">
        <ele>151.2631072998</ele>
        <time>2016-06-08T12:48:57.000Z</time>
      </trkpt>
      <trkpt lat="46.98974" lon="-0.7431">
        <ele>151.34928894043</ele>
        <time>2016-06-08T12:49:01.000Z</time>
      </trkpt>
      <trkpt lat="46.98971" lon="-0.74308">
        <ele>152.68937683105</ele>
        <time>2016-06-08T12:49:03.000Z</time>
      </trkpt>
      <trkpt lat="46.98971" lon="-0.74306">
        <ele>152.89694213867</ele>
        <time>2016-06-08T12:49:06.000Z</time>
      </trkpt>
      <trkpt lat="46.98971" lon="-0.74304">
        <ele>152.43997192383</ele>
        <time>2016-06-08T12:49:08.000Z</time>
      </trkpt>
      <trkpt lat="46.98969" lon="-0.74303">
        <ele>151.75624084473</ele>
        <time>2016-06-08T12:49:10.000Z</time>
      </trkpt>
      <trkpt lat="46.98967" lon="-0.74297">
        <ele>151.41148376465</ele>
        <time>2016-06-08T12:49:13.000Z</time>
      </trkpt>
      <trkpt lat="46.98965" lon="-0.74289">
        <ele>151.87750244141</ele>
        <time>2016-06-08T12:49:16.000Z</time>
      </trkpt>
      <trkpt lat="46.98964" lon="-0.74286">
        <ele>152.28961181641</ele>
        <time>2016-06-08T12:49:18.000Z</time>
      </trkpt>
      <trkpt lat="46.98961" lon="-0.74277">
        <ele>152.38960266113</ele>
        <time>2016-06-08T12:49:21.000Z</time>
      </trkpt>
      <trkpt lat="46.98957" lon="-0.7427">
        <ele>152.45761108398</ele>
        <time>2016-06-08T12:49:24.000Z</time>
      </trkpt>
      <trkpt lat="46.98956" lon="-0.74266">
        <ele>153.27536010742</ele>
        <time>2016-06-08T12:49:26.000Z</time>
      </trkpt>
      <trkpt lat="46.98954" lon="-0.74262">
        <ele>152.86337280273</ele>
        <time>2016-06-08T12:49:29.000Z</time>
      </trkpt>
      <trkpt lat="46.98951" lon="-0.74255">
        <ele>152.7688293457</ele>
        <time>2016-06-08T12:49:32.000Z</time>
      </trkpt>
      <trkpt lat="46.98949" lon="-0.7425">
        <ele>154.02261352539</ele>
        <time>2016-06-08T12:49:34.000Z</time>
      </trkpt>
      <trkpt lat="46.98948" lon="-0.74244">
        <ele>153.87928771973</ele>
        <time>2016-06-08T12:49:36.000Z</time>
      </trkpt>
      <trkpt lat="46.98945" lon="-0.74238">
        <ele>153.52938842773</ele>
        <time>2016-06-08T12:49:39.000Z</time>
      </trkpt>
      <trkpt lat="46.98944" lon="-0.74233">
        <ele>153.50082397461</ele>
        <time>2016-06-08T12:49:42.000Z</time>
      </trkpt>
      <trkpt lat="46.98942" lon="-0.74231">
        <ele>153.82731628418</ele>
        <time>2016-06-08T12:49:45.000Z</time>
      </trkpt>
      <trkpt lat="46.9894" lon="-0.74227">
        <ele>154.25131225586</ele>
        <time>2016-06-08T12:49:48.000Z</time>
      </trkpt>
      <trkpt lat="46.98939" lon="-0.74224">
        <ele>154.4693145752</ele>
        <time>2016-06-08T12:49:50.000Z</time>
      </trkpt>
      <trkpt lat="46.98937" lon="-0.74222">
        <ele>156.05548095703</ele>
        <time>2016-06-08T12:49:52.000Z</time>
      </trkpt>
      <trkpt lat="46.98934" lon="-0.74219">
        <ele>158.36743164062</ele>
        <time>2016-06-08T12:49:54.000Z</time>
      </trkpt>
      <trkpt lat="46.9893" lon="-0.74213">
        <ele>159.90510559082</ele>
        <time>2016-06-08T12:49:57.000Z</time>
      </trkpt>
      <trkpt lat="46.98928" lon="-0.74204">
        <ele>160.84226989746</ele>
        <time>2016-06-08T12:50:00.000Z</time>
      </trkpt>
      <trkpt lat="46.98925" lon="-0.74196">
        <ele>161.02592468262</ele>
        <time>2016-06-08T12:50:04.000Z</time>
      </trkpt>
      <trkpt lat="46.98924" lon="-0.74191">
        <ele>160.38311767578</ele>
        <time>2016-06-08T12:50:06.000Z</time>
      </trkpt>
      <trkpt lat="46.98921" lon="-0.74182">
        <ele>160.30856323242</ele>
        <time>2016-06-08T12:50:09.000Z</time>
      </trkpt>
      <trkpt lat="46.98919" lon="-0.74179">
        <ele>160.55082702637</ele>
        <time>2016-06-08T12:50:11.000Z</time>
      </trkpt>
      <trkpt lat="46.98917" lon="-0.74175">
        <ele>161.26136779785</ele>
        <time>2016-06-08T12:50:14.000Z</time>
      </trkpt>
      <trkpt lat="46.98915" lon="-0.74172">
        <ele>162.1704864502</ele>
        <time>2016-06-08T12:50:16.000Z</time>
      </trkpt>
      <trkpt lat="46.98913" lon="-0.74169">
        <ele>162.84948730469</ele>
        <time>2016-06-08T12:50:18.000Z</time>
      </trkpt>
      <trkpt lat="46.9891" lon="-0.74163">
        <ele>163.05554199219</ele>
        <time>2016-06-08T12:50:21.000Z</time>
      </trkpt>
      <trkpt lat="46.98907" lon="-0.74161">
        <ele>164.20376586914</ele>
        <time>2016-06-08T12:50:24.000Z</time>
      </trkpt>
      <trkpt lat="46.98903" lon="-0.74156">
        <ele>165.64100646973</ele>
        <time>2016-06-08T12:50:27.000Z</time>
      </trkpt>
      <trkpt lat="46.98902" lon="-0.74154">
        <ele>165.96640014648</ele>
        <time>2016-06-08T12:50:29.000Z</time>
      </trkpt>
      <trkpt lat="46.989" lon="-0.74148">
        <ele>164.73834228516</ele>
        <time>2016-06-08T12:50:31.000Z</time>
      </trkpt>
      <trkpt lat="46.98896" lon="-0.74145">
        <ele>162.91293334961</ele>
        <time>2016-06-08T12:50:34.000Z</time>
      </trkpt>
      <trkpt lat="46.98894" lon="-0.74144">
        <ele>161.95948791504</ele>
        <time>2016-06-08T12:50:37.000Z</time>
      </trkpt>
      <trkpt lat="46.98892" lon="-0.74143">
        <ele>161.81889343262</ele>
        <time>2016-06-08T12:50:39.000Z</time>
      </trkpt>
      <trkpt lat="46.98889" lon="-0.74141">
        <ele>160.18632507324</ele>
        <time>2016-06-08T12:50:43.000Z</time>
      </trkpt>
      <trkpt lat="46.98886" lon="-0.74139">
        <ele>158.23822021484</ele>
        <time>2016-06-08T12:50:46.000Z</time>
      </trkpt>
      <trkpt lat="46.98884" lon="-0.74138">
        <ele>157.72010803223</ele>
        <time>2016-06-08T12:50:48.000Z</time>
      </trkpt>
      <trkpt lat="46.9888" lon="-0.74138">
        <ele>157.31549072266</ele>
        <time>2016-06-08T12:50:51.000Z</time>
      </trkpt>
      <trkpt lat="46.98877" lon="-0.74136">
        <ele>158.26116943359</ele>
        <time>2016-06-08T12:50:54.000Z</time>
      </trkpt>
      <trkpt lat="46.98872" lon="-0.74131">
        <ele>162.29972839355</ele>
        <time>2016-06-08T12:51:00.000Z</time>
      </trkpt>
      <trkpt lat="46.98871" lon="-0.74126">
        <ele>163.20715332031</ele>
        <time>2016-06-08T12:51:02.000Z</time>
      </trkpt>
      <trkpt lat="46.9887" lon="-0.74121">
        <ele>164.39593505859</ele>
        <time>2016-06-08T12:51:05.000Z</time>
      </trkpt>
      <trkpt lat="46.9887" lon="-0.74116">
        <ele>164.31909179688</ele>
        <time>2016-06-08T12:51:08.000Z</time>
      </trkpt>
      <trkpt lat="46.9887" lon="-0.74111">
        <ele>164.20648193359</ele>
        <time>2016-06-08T12:51:10.000Z</time>
      </trkpt>
      <trkpt lat="46.9887" lon="-0.74103">
        <ele>164.09185791016</ele>
        <time>2016-06-08T12:51:13.000Z</time>
      </trkpt>
      <trkpt lat="46.98871" lon="-0.74094">
        <ele>162.84652709961</ele>
        <time>2016-06-08T12:51:16.000Z</time>
      </trkpt>
      <trkpt lat="46.98872" lon="-0.74087">
        <ele>161.47427368164</ele>
        <time>2016-06-08T12:51:19.000Z</time>
      </trkpt>
      <trkpt lat="46.98873" lon="-0.74082">
        <ele>160.2272644043</ele>
        <time>2016-06-08T12:51:21.000Z</time>
      </trkpt>
      <trkpt lat="46.98874" lon="-0.74075">
        <ele>158.23187255859</ele>
        <time>2016-06-08T12:51:24.000Z</time>
      </trkpt>
      <trkpt lat="46.98874" lon="-0.74071">
        <ele>157.58963012695</ele>
        <time>2016-06-08T12:51:26.000Z</time>
      </trkpt>
      <trkpt lat="46.98875" lon="-0.74065">
        <ele>156.88888549805</ele>
        <time>2016-06-08T12:51:28.000Z</time>
      </trkpt>
      <trkpt lat="46.98875" lon="-0.74055">
        <ele>153.80352783203</ele>
        <time>2016-06-08T12:51:31.000Z</time>
      </trkpt>
      <trkpt lat="46.98875" lon="-0.74049">
        <ele>152.609375</ele>
        <time>2016-06-08T12:51:35.000Z</time>
      </trkpt>
      <trkpt lat="46.98875" lon="-0.74041">
        <ele>151.4778137207</ele>
        <time>2016-06-08T12:51:38.000Z</time>
      </trkpt>
      <trkpt lat="46.98876" lon="-0.74035">
        <ele>150.25434875488</ele>
        <time>2016-06-08T12:51:41.000Z</time>
      </trkpt>
      <trkpt lat="46.98876" lon="-0.74027">
        <ele>150.32054138184</ele>
        <time>2016-06-08T12:51:45.000Z</time>
      </trkpt>
      <trkpt lat="46.98876" lon="-0.74019">
        <ele>151.02629089355</ele>
        <time>2016-06-08T12:51:48.000Z</time>
      </trkpt>
      <trkpt lat="46.98875" lon="-0.74017">
        <ele>153.04615783691</ele>
        <time>2016-06-08T12:51:51.000Z</time>
      </trkpt>
      <trkpt lat="46.98873" lon="-0.74013">
        <ele>155.64447021484</ele>
        <time>2016-06-08T12:51:53.000Z</time>
      </trkpt>
      <trkpt lat="46.98873" lon="-0.74009">
        <ele>156.30191040039</ele>
        <time>2016-06-08T12:51:55.000Z</time>
      </trkpt>
      <trkpt lat="46.98874" lon="-0.74002">
        <ele>156.09225463867</ele>
        <time>2016-06-08T12:51:58.000Z</time>
      </trkpt>
      <trkpt lat="46.98873" lon="-0.73999">
        <ele>156.44976806641</ele>
        <time>2016-06-08T12:52:00.000Z</time>
      </trkpt>
      <trkpt lat="46.98873" lon="-0.73997">
        <ele>157.03594970703</ele>
        <time>2016-06-08T12:52:10.000Z</time>
      </trkpt>
      <trkpt lat="46.98872" lon="-0.73995">
        <ele>157.36186218262</ele>
        <time>2016-06-08T12:52:14.000Z</time>
      </trkpt>
      <trkpt lat="46.9887" lon="-0.7399">
        <ele>157.6201171875</ele>
        <time>2016-06-08T12:52:16.000Z</time>
      </trkpt>
      <trkpt lat="46.98869" lon="-0.73982">
        <ele>157.22630310059</ele>
        <time>2016-06-08T12:52:18.000Z</time>
      </trkpt>
      <trkpt lat="46.98867" lon="-0.73972">
        <ele>157.44445800781</ele>
        <time>2016-06-08T12:52:20.000Z</time>
      </trkpt>
      <trkpt lat="46.98864" lon="-0.73965">
        <ele>159.28227233887</ele>
        <time>2016-06-08T12:52:23.000Z</time>
      </trkpt>
      <trkpt lat="46.98863" lon="-0.73955">
        <ele>159.52294921875</ele>
        <time>2016-06-08T12:52:26.000Z</time>
      </trkpt>
      <trkpt lat="46.98862" lon="-0.73947">
        <ele>158.90208435059</ele>
        <time>2016-06-08T12:52:28.000Z</time>
      </trkpt>
      <trkpt lat="46.98861" lon="-0.7394">
        <ele>158.27183532715</ele>
        <time>2016-06-08T12:52:31.000Z</time>
      </trkpt>
      <trkpt lat="46.9886" lon="-0.73935">
        <ele>158.24980163574</ele>
        <time>2016-06-08T12:52:33.000Z</time>
      </trkpt>
      <trkpt lat="46.98859" lon="-0.7393">
        <ele>157.8035736084</ele>
        <time>2016-06-08T12:52:36.000Z</time>
      </trkpt>
      <trkpt lat="46.98856" lon="-0.73924">
        <ele>157.91583251953</ele>
        <time>2016-06-08T12:52:38.000Z</time>
      </trkpt>
      <trkpt lat="46.98853" lon="-0.73919">
        <ele>158.17097473145</ele>
        <time>2016-06-08T12:52:42.000Z</time>
      </trkpt>
      <trkpt lat="46.98849" lon="-0.73912">
        <ele>160.33305358887</ele>
        <time>2016-06-08T12:52:45.000Z</time>
      </trkpt>
      <trkpt lat="46.98844" lon="-0.73905">
        <ele>163.38607788086</ele>
        <time>2016-06-08T12:52:47.000Z</time>
      </trkpt>
      <trkpt lat="46.98842" lon="-0.73901">
        <ele>164.36065673828</ele>
        <time>2016-06-08T12:52:49.000Z</time>
      </trkpt>
      <trkpt lat="46.98839" lon="-0.73896">
        <ele>162.91958618164</ele>
        <time>2016-06-08T12:52:52.000Z</time>
      </trkpt>
      <trkpt lat="46.98838" lon="-0.73893">
        <ele>161.30815124512</ele>
        <time>2016-06-08T12:52:54.000Z</time>
      </trkpt>
      <trkpt lat="46.98835" lon="-0.73889">
        <ele>158.36387634277</ele>
        <time>2016-06-08T12:52:57.000Z</time>
      </trkpt>
      <trkpt lat="46.98832" lon="-0.73886">
        <ele>159.2449798584</ele>
        <time>2016-06-08T12:53:00.000Z</time>
      </trkpt>
      <trkpt lat="46.9883" lon="-0.73886">
        <ele>159.53826904297</ele>
        <time>2016-06-08T12:53:02.000Z</time>
      </trkpt>
      <trkpt lat="46.98829" lon="-0.73886">
        <ele>158.53540039062</ele>
        <time>2016-06-08T12:53:04.000Z</time>
      </trkpt>
      <trkpt lat="46.98825" lon="-0.73884">
        <ele>156.47410583496</ele>
        <time>2016-06-08T12:53:07.000Z</time>
      </trkpt>
      <trkpt lat="46.98823" lon="-0.73883">
        <ele>156.70991516113</ele>
        <time>2016-06-08T12:53:09.000Z</time>
      </trkpt>
      <trkpt lat="46.98818" lon="-0.7388">
        <ele>159.14111328125</ele>
        <time>2016-06-08T12:53:12.000Z</time>
      </trkpt>
      <trkpt lat="46.98814" lon="-0.73875">
        <ele>161.08926391602</ele>
        <time>2016-06-08T12:53:14.000Z</time>
      </trkpt>
      <trkpt lat="46.9881" lon="-0.73872">
        <ele>160.23794555664</ele>
        <time>2016-06-08T12:53:17.000Z</time>
      </trkpt>
      <trkpt lat="46.98808" lon="-0.73871">
        <ele>160.71893310547</ele>
        <time>2016-06-08T12:53:19.000Z</time>
      </trkpt>
      <trkpt lat="46.98805" lon="-0.73869">
        <ele>161.64219665527</ele>
        <time>2016-06-08T12:53:22.000Z</time>
      </trkpt>
      <trkpt lat="46.98803" lon="-0.73867">
        <ele>161.00199890137</ele>
        <time>2016-06-08T12:53:24.000Z</time>
      </trkpt>
      <trkpt lat="46.98799" lon="-0.73863">
        <ele>159.90963745117</ele>
        <time>2016-06-08T12:53:27.000Z</time>
      </trkpt>
      <trkpt lat="46.98796" lon="-0.73858">
        <ele>160.84234619141</ele>
        <time>2016-06-08T12:53:29.000Z</time>
      </trkpt>
      <trkpt lat="46.98792" lon="-0.73853">
        <ele>161.89584350586</ele>
        <time>2016-06-08T12:53:32.000Z</time>
      </trkpt>
      <trkpt lat="46.9879" lon="-0.73849">
        <ele>161.97866821289</ele>
        <time>2016-06-08T12:53:34.000Z</time>
      </trkpt>
      <trkpt lat="46.98788" lon="-0.73846">
        <ele>160.97790527344</ele>
        <time>2016-06-08T12:53:37.000Z</time>
      </trkpt>
      <trkpt lat="46.98783" lon="-0.73838">
        <ele>159.21714782715</ele>
        <time>2016-06-08T12:53:40.000Z</time>
      </trkpt>
      <trkpt lat="46.98779" lon="-0.73836">
        <ele>161.01750183105</ele>
        <time>2016-06-08T12:53:43.000Z</time>
      </trkpt>
      <trkpt lat="46.98775" lon="-0.73833">
        <ele>161.47415161133</ele>
        <time>2016-06-08T12:53:46.000Z</time>
      </trkpt>
      <trkpt lat="46.98774" lon="-0.73833">
        <ele>161.0629119873</ele>
        <time>2016-06-08T12:53:48.000Z</time>
      </trkpt>
      <trkpt lat="46.9877" lon="-0.73827">
        <ele>159.25057983398</ele>
        <time>2016-06-08T12:53:51.000Z</time>
      </trkpt>
      <trkpt lat="46.98768" lon="-0.73825">
        <ele>159.03416442871</ele>
        <time>2016-06-08T12:53:53.000Z</time>
      </trkpt>
      <trkpt lat="46.98764" lon="-0.73823">
        <ele>158.69950866699</ele>
        <time>2016-06-08T12:53:56.000Z</time>
      </trkpt>
      <trkpt lat="46.98763" lon="-0.73821">
        <ele>158.47442626953</ele>
        <time>2016-06-08T12:53:58.000Z</time>
      </trkpt>
      <trkpt lat="46.9876" lon="-0.73817">
        <ele>159.18869018555</ele>
        <time>2016-06-08T12:54:00.000Z</time>
      </trkpt>
      <trkpt lat="46.98758" lon="-0.7381">
        <ele>158.5210723877</ele>
        <time>2016-06-08T12:54:02.000Z</time>
      </trkpt>
      <trkpt lat="46.98756" lon="-0.73806">
        <ele>157.13650512695</ele>
        <time>2016-06-08T12:54:05.000Z</time>
      </trkpt>
      <trkpt lat="46.98753" lon="-0.73802">
        <ele>156.85020446777</ele>
        <time>2016-06-08T12:54:08.000Z</time>
      </trkpt>
      <trkpt lat="46.9875" lon="-0.738">
        <ele>158.04312133789</ele>
        <time>2016-06-08T12:54:11.000Z</time>
      </trkpt>
      <trkpt lat="46.98747" lon="-0.73797">
        <ele>158.50411987305</ele>
        <time>2016-06-08T12:54:13.000Z</time>
      </trkpt>
      <trkpt lat="46.98745" lon="-0.73794">
        <ele>159.17149353027</ele>
        <time>2016-06-08T12:54:16.000Z</time>
      </trkpt>
      <trkpt lat="46.98742" lon="-0.73789">
        <ele>159.79675292969</ele>
        <time>2016-06-08T12:54:18.000Z</time>
      </trkpt>
      <trkpt lat="46.98738" lon="-0.73784">
        <ele>159.68084716797</ele>
        <time>2016-06-08T12:54:21.000Z</time>
      </trkpt>
      <trkpt lat="46.98736" lon="-0.7378">
        <ele>159.84262084961</ele>
        <time>2016-06-08T12:54:23.000Z</time>
      </trkpt>
      <trkpt lat="46.98734" lon="-0.73775">
        <ele>160.34902954102</ele>
        <time>2016-06-08T12:54:25.000Z</time>
      </trkpt>
      <trkpt lat="46.9873" lon="-0.73767">
        <ele>161.51786804199</ele>
        <time>2016-06-08T12:54:28.000Z</time>
      </trkpt>
      <trkpt lat="46.98729" lon="-0.73764">
        <ele>160.96391296387</ele>
        <time>2016-06-08T12:54:30.000Z</time>
      </trkpt>
      <trkpt lat="46.98727" lon="-0.7376">
        <ele>159.46813964844</ele>
        <time>2016-06-08T12:54:32.000Z</time>
      </trkpt>
      <trkpt lat="46.98725" lon="-0.73754">
        <ele>157.73937988281</ele>
        <time>2016-06-08T12:54:35.000Z</time>
      </trkpt>
      <trkpt lat="46.98723" lon="-0.7375">
        <ele>157.31465148926</ele>
        <time>2016-06-08T12:54:38.000Z</time>
      </trkpt>
      <trkpt lat="46.98721" lon="-0.73745">
        <ele>157.36277770996</ele>
        <time>2016-06-08T12:54:41.000Z</time>
      </trkpt>
      <trkpt lat="46.98717" lon="-0.73743">
        <ele>158.5838470459</ele>
        <time>2016-06-08T12:54:44.000Z</time>
      </trkpt>
      <trkpt lat="46.98715" lon="-0.73739">
        <ele>159.2073059082</ele>
        <time>2016-06-08T12:54:47.000Z</time>
      </trkpt>
      <trkpt lat="46.98713" lon="-0.73735">
        <ele>159.10270690918</ele>
        <time>2016-06-08T12:54:50.000Z</time>
      </trkpt>
      <trkpt lat="46.9871" lon="-0.73729">
        <ele>158.6884765625</ele>
        <time>2016-06-08T12:54:53.000Z</time>
      </trkpt>
      <trkpt lat="46.98708" lon="-0.73721">
        <ele>156.01332092285</ele>
        <time>2016-06-08T12:54:56.000Z</time>
      </trkpt>
      <trkpt lat="46.98706" lon="-0.73716">
        <ele>153.49621582031</ele>
        <time>2016-06-08T12:54:58.000Z</time>
      </trkpt>
      <trkpt lat="46.98705" lon="-0.73712">
        <ele>151.85278320312</ele>
        <time>2016-06-08T12:55:00.000Z</time>
      </trkpt>
      <trkpt lat="46.98702" lon="-0.73709">
        <ele>153.84449768066</ele>
        <time>2016-06-08T12:55:03.000Z</time>
      </trkpt>
      <trkpt lat="46.987" lon="-0.73704">
        <ele>154.91012573242</ele>
        <time>2016-06-08T12:55:05.000Z</time>
      </trkpt>
      <trkpt lat="46.98698" lon="-0.73701">
        <ele>154.47532653809</ele>
        <time>2016-06-08T12:55:07.000Z</time>
      </trkpt>
      <trkpt lat="46.98697" lon="-0.73697">
        <ele>153.55450439453</ele>
        <time>2016-06-08T12:55:10.000Z</time>
      </trkpt>
      <trkpt lat="46.98694" lon="-0.73693">
        <ele>153.90147399902</ele>
        <time>2016-06-08T12:55:13.000Z</time>
      </trkpt>
      <trkpt lat="46.98691" lon="-0.73689">
        <ele>155.48484802246</ele>
        <time>2016-06-08T12:55:16.000Z</time>
      </trkpt>
      <trkpt lat="46.98687" lon="-0.73688">
        <ele>157.93421936035</ele>
        <time>2016-06-08T12:55:18.000Z</time>
      </trkpt>
      <trkpt lat="46.98684" lon="-0.73685">
        <ele>159.63470458984</ele>
        <time>2016-06-08T12:55:21.000Z</time>
      </trkpt>
      <trkpt lat="46.98682" lon="-0.73679">
        <ele>161.15118408203</ele>
        <time>2016-06-08T12:55:24.000Z</time>
      </trkpt>
      <trkpt lat="46.98679" lon="-0.73671">
        <ele>159.43890380859</ele>
        <time>2016-06-08T12:55:27.000Z</time>
      </trkpt>
      <trkpt lat="46.98676" lon="-0.73665">
        <ele>155.93846130371</ele>
        <time>2016-06-08T12:55:30.000Z</time>
      </trkpt>
      <trkpt lat="46.98674" lon="-0.73661">
        <ele>153.99200439453</ele>
        <time>2016-06-08T12:55:33.000Z</time>
      </trkpt>
      <trkpt lat="46.98673" lon="-0.73657">
        <ele>153.77014160156</ele>
        <time>2016-06-08T12:55:35.000Z</time>
      </trkpt>
      <trkpt lat="46.98671" lon="-0.73653">
        <ele>154.19873046875</ele>
        <time>2016-06-08T12:55:37.000Z</time>
      </trkpt>
      <trkpt lat="46.9867" lon="-0.73648">
        <ele>154.43531799316</ele>
        <time>2016-06-08T12:55:39.000Z</time>
      </trkpt>
      <trkpt lat="46.98669" lon="-0.73643">
        <ele>152.95497131348</ele>
        <time>2016-06-08T12:55:42.000Z</time>
      </trkpt>
      <trkpt lat="46.98666" lon="-0.73639">
        <ele>153.45268249512</ele>
        <time>2016-06-08T12:55:45.000Z</time>
      </trkpt>
      <trkpt lat="46.98662" lon="-0.73636">
        <ele>156.66984558105</ele>
        <time>2016-06-08T12:55:48.000Z</time>
      </trkpt>
      <trkpt lat="46.9866" lon="-0.73632">
        <ele>158.07580566406</ele>
        <time>2016-06-08T12:55:50.000Z</time>
      </trkpt>
      <trkpt lat="46.98655" lon="-0.73627">
        <ele>160.70040893555</ele>
        <time>2016-06-08T12:55:53.000Z</time>
      </trkpt>
      <trkpt lat="46.98653" lon="-0.73625">
        <ele>161.75975036621</ele>
        <time>2016-06-08T12:55:56.000Z</time>
      </trkpt>
      <trkpt lat="46.9865" lon="-0.73622">
        <ele>160.78350830078</ele>
        <time>2016-06-08T12:55:59.000Z</time>
      </trkpt>
      <trkpt lat="46.98649" lon="-0.73619">
        <ele>159.85577392578</ele>
        <time>2016-06-08T12:56:01.000Z</time>
      </trkpt>
      <trkpt lat="46.98646" lon="-0.73618">
        <ele>162.15272521973</ele>
        <time>2016-06-08T12:56:04.000Z</time>
      </trkpt>
      <trkpt lat="46.98644" lon="-0.73615">
        <ele>162.97080993652</ele>
        <time>2016-06-08T12:56:06.000Z</time>
      </trkpt>
      <trkpt lat="46.98642" lon="-0.73605">
        <ele>162.09379577637</ele>
        <time>2016-06-08T12:56:09.000Z</time>
      </trkpt>
      <trkpt lat="46.9864" lon="-0.73599">
        <ele>162.07014465332</ele>
        <time>2016-06-08T12:56:11.000Z</time>
      </trkpt>
      <trkpt lat="46.98638" lon="-0.73594">
        <ele>162.52214050293</ele>
        <time>2016-06-08T12:56:14.000Z</time>
      </trkpt>
      <trkpt lat="46.98637" lon="-0.73592">
        <ele>162.36242675781</ele>
        <time>2016-06-08T12:56:16.000Z</time>
      </trkpt>
      <trkpt lat="46.98634" lon="-0.73589">
        <ele>163.22233581543</ele>
        <time>2016-06-08T12:56:19.000Z</time>
      </trkpt>
      <trkpt lat="46.98632" lon="-0.73586">
        <ele>164.48777770996</ele>
        <time>2016-06-08T12:56:21.000Z</time>
      </trkpt>
      <trkpt lat="46.98629" lon="-0.73581">
        <ele>165.00637817383</ele>
        <time>2016-06-08T12:56:24.000Z</time>
      </trkpt>
      <trkpt lat="46.98625" lon="-0.73578">
        <ele>165.86215209961</ele>
        <time>2016-06-08T12:56:27.000Z</time>
      </trkpt>
      <trkpt lat="46.98624" lon="-0.73576">
        <ele>166.93675231934</ele>
        <time>2016-06-08T12:56:29.000Z</time>
      </trkpt>
      <trkpt lat="46.98622" lon="-0.7357">
        <ele>165.76741027832</ele>
        <time>2016-06-08T12:56:32.000Z</time>
      </trkpt>
      <trkpt lat="46.98621" lon="-0.73564">
        <ele>163.93948364258</ele>
        <time>2016-06-08T12:56:34.000Z</time>
      </trkpt>
      <trkpt lat="46.9862" lon="-0.73561">
        <ele>163.05137634277</ele>
        <time>2016-06-08T12:56:36.000Z</time>
      </trkpt>
      <trkpt lat="46.98618" lon="-0.73558">
        <ele>162.33670043945</ele>
        <time>2016-06-08T12:56:38.000Z</time>
      </trkpt>
      <trkpt lat="46.98616" lon="-0.73552">
        <ele>161.69564819336</ele>
        <time>2016-06-08T12:56:41.000Z</time>
      </trkpt>
      <trkpt lat="46.98615" lon="-0.7355">
        <ele>161.50263977051</ele>
        <time>2016-06-08T12:56:43.000Z</time>
      </trkpt>
      <trkpt lat="46.98612" lon="-0.73546">
        <ele>161.4732208252</ele>
        <time>2016-06-08T12:56:46.000Z</time>
      </trkpt>
      <trkpt lat="46.9861" lon="-0.7354">
        <ele>161.63006591797</ele>
        <time>2016-06-08T12:56:49.000Z</time>
      </trkpt>
      <trkpt lat="46.98606" lon="-0.73536">
        <ele>160.34832763672</ele>
        <time>2016-06-08T12:56:52.000Z</time>
      </trkpt>
      <trkpt lat="46.98603" lon="-0.73533">
        <ele>161.97839355469</ele>
        <time>2016-06-08T12:56:55.000Z</time>
      </trkpt>
      <trkpt lat="46.98602" lon="-0.73531">
        <ele>162.41845703125</ele>
        <time>2016-06-08T12:56:57.000Z</time>
      </trkpt>
      <trkpt lat="46.98598" lon="-0.73526">
        <ele>164.37387084961</ele>
        <time>2016-06-08T12:57:00.000Z</time>
      </trkpt>
      <trkpt lat="46.98594" lon="-0.73522">
        <ele>167.15921020508</ele>
        <time>2016-06-08T12:57:03.000Z</time>
      </trkpt>
      <trkpt lat="46.98592" lon="-0.73518">
        <ele>168.24713134766</ele>
        <time>2016-06-08T12:57:05.000Z</time>
      </trkpt>
      <trkpt lat="46.9859" lon="-0.73514">
        <ele>167.91975402832</ele>
        <time>2016-06-08T12:57:08.000Z</time>
      </trkpt>
      <trkpt lat="46.98589" lon="-0.7351">
        <ele>169.15863037109</ele>
        <time>2016-06-08T12:57:10.000Z</time>
      </trkpt>
      <trkpt lat="46.98587" lon="-0.73506">
        <ele>170.85432434082</ele>
        <time>2016-06-08T12:57:12.000Z</time>
      </trkpt>
      <trkpt lat="46.98584" lon="-0.735">
        <ele>171.10847473145</ele>
        <time>2016-06-08T12:57:15.000Z</time>
      </trkpt>
      <trkpt lat="46.98581" lon="-0.73495">
        <ele>172.48913574219</ele>
        <time>2016-06-08T12:57:18.000Z</time>
      </trkpt>
      <trkpt lat="46.98579" lon="-0.73491">
        <ele>172.32353210449</ele>
        <time>2016-06-08T12:57:20.000Z</time>
      </trkpt>
      <trkpt lat="46.98578" lon="-0.73486">
        <ele>171.50114440918</ele>
        <time>2016-06-08T12:57:22.000Z</time>
      </trkpt>
      <trkpt lat="46.98576" lon="-0.73478">
        <ele>170.23959350586</ele>
        <time>2016-06-08T12:57:25.000Z</time>
      </trkpt>
      <trkpt lat="46.98574" lon="-0.73474">
        <ele>169.42144775391</ele>
        <time>2016-06-08T12:57:27.000Z</time>
      </trkpt>
      <trkpt lat="46.98572" lon="-0.73466">
        <ele>167.78219604492</ele>
        <time>2016-06-08T12:57:30.000Z</time>
      </trkpt>
      <trkpt lat="46.98571" lon="-0.73462">
        <ele>167.84819030762</ele>
        <time>2016-06-08T12:57:32.000Z</time>
      </trkpt>
      <trkpt lat="46.98568" lon="-0.73457">
        <ele>168.60171508789</ele>
        <time>2016-06-08T12:57:35.000Z</time>
      </trkpt>
      <trkpt lat="46.98565" lon="-0.73453">
        <ele>169.52043151855</ele>
        <time>2016-06-08T12:57:38.000Z</time>
      </trkpt>
      <trkpt lat="46.98563" lon="-0.73446">
        <ele>170.24456787109</ele>
        <time>2016-06-08T12:57:41.000Z</time>
      </trkpt>
      <trkpt lat="46.98561" lon="-0.73442">
        <ele>170.81144714355</ele>
        <time>2016-06-08T12:57:43.000Z</time>
      </trkpt>
      <trkpt lat="46.9856" lon="-0.73437">
        <ele>170.99661254883</ele>
        <time>2016-06-08T12:57:46.000Z</time>
      </trkpt>
      <trkpt lat="46.98558" lon="-0.73433">
        <ele>171.96253967285</ele>
        <time>2016-06-08T12:57:48.000Z</time>
      </trkpt>
      <trkpt lat="46.98556" lon="-0.73427">
        <ele>174.38697814941</ele>
        <time>2016-06-08T12:57:51.000Z</time>
      </trkpt>
      <trkpt lat="46.98554" lon="-0.73423">
        <ele>175.22927856445</ele>
        <time>2016-06-08T12:57:55.000Z</time>
      </trkpt>
      <trkpt lat="46.98553" lon="-0.7342">
        <ele>176.64976501465</ele>
        <time>2016-06-08T12:57:57.000Z</time>
      </trkpt>
      <trkpt lat="46.9855" lon="-0.73415">
        <ele>177.14245605469</ele>
        <time>2016-06-08T12:58:00.000Z</time>
      </trkpt>
      <trkpt lat="46.98549" lon="-0.73407">
        <ele>176.52252197266</ele>
        <time>2016-06-08T12:58:03.000Z</time>
      </trkpt>
      <trkpt lat="46.98549" lon="-0.73403">
        <ele>175.46481323242</ele>
        <time>2016-06-08T12:58:05.000Z</time>
      </trkpt>
      <trkpt lat="46.98547" lon="-0.73396">
        <ele>174.35069274902</ele>
        <time>2016-06-08T12:58:08.000Z</time>
      </trkpt>
      <trkpt lat="46.98547" lon="-0.73393">
        <ele>173.64331054688</ele>
        <time>2016-06-08T12:58:10.000Z</time>
      </trkpt>
      <trkpt lat="46.98546" lon="-0.73387">
        <ele>172.74240112305</ele>
        <time>2016-06-08T12:58:13.000Z</time>
      </trkpt>
      <trkpt lat="46.98545" lon="-0.73379">
        <ele>172.16014099121</ele>
        <time>2016-06-08T12:58:16.000Z</time>
      </trkpt>
      <trkpt lat="46.98544" lon="-0.73372">
        <ele>173.23617553711</ele>
        <time>2016-06-08T12:58:19.000Z</time>
      </trkpt>
      <trkpt lat="46.98542" lon="-0.73368">
        <ele>175.06153869629</ele>
        <time>2016-06-08T12:58:22.000Z</time>
      </trkpt>
      <trkpt lat="46.9854" lon="-0.73364">
        <ele>174.95935058594</ele>
        <time>2016-06-08T12:58:24.000Z</time>
      </trkpt>
      <trkpt lat="46.98539" lon="-0.7336">
        <ele>174.6483001709</ele>
        <time>2016-06-08T12:58:27.000Z</time>
      </trkpt>
      <trkpt lat="46.98537" lon="-0.73356">
        <ele>175.48004150391</ele>
        <time>2016-06-08T12:58:29.000Z</time>
      </trkpt>
      <trkpt lat="46.98535" lon="-0.73348">
        <ele>175.50469970703</ele>
        <time>2016-06-08T12:58:32.000Z</time>
      </trkpt>
      <trkpt lat="46.98534" lon="-0.73345">
        <ele>175.71109008789</ele>
        <time>2016-06-08T12:58:34.000Z</time>
      </trkpt>
      <trkpt lat="46.98533" lon="-0.73338">
        <ele>175.5149230957</ele>
        <time>2016-06-08T12:58:37.000Z</time>
      </trkpt>
      <trkpt lat="46.98531" lon="-0.73333">
        <ele>176.45843505859</ele>
        <time>2016-06-08T12:58:40.000Z</time>
      </trkpt>
      <trkpt lat="46.9853" lon="-0.73328">
        <ele>177.45036315918</ele>
        <time>2016-06-08T12:58:43.000Z</time>
      </trkpt>
      <trkpt lat="46.98528" lon="-0.73323">
        <ele>178.94351196289</ele>
        <time>2016-06-08T12:58:47.000Z</time>
      </trkpt>
      <trkpt lat="46.98526" lon="-0.73313">
        <ele>180.1848449707</ele>
        <time>2016-06-08T12:58:50.000Z</time>
      </trkpt>
      <trkpt lat="46.98525" lon="-0.73308">
        <ele>180.45780944824</ele>
        <time>2016-06-08T12:58:52.000Z</time>
      </trkpt>
      <trkpt lat="46.98524" lon="-0.73301">
        <ele>180.18179321289</ele>
        <time>2016-06-08T12:58:55.000Z</time>
      </trkpt>
      <trkpt lat="46.98523" lon="-0.73297">
        <ele>180.05403137207</ele>
        <time>2016-06-08T12:58:57.000Z</time>
      </trkpt>
      <trkpt lat="46.98521" lon="-0.73292">
        <ele>180.17164611816</ele>
        <time>2016-06-08T12:59:00.000Z</time>
      </trkpt>
      <trkpt lat="46.9852" lon="-0.7329">
        <ele>180.34086608887</ele>
        <time>2016-06-08T12:59:02.000Z</time>
      </trkpt>
      <trkpt lat="46.98519" lon="-0.73286">
        <ele>181.01811218262</ele>
        <time>2016-06-08T12:59:04.000Z</time>
      </trkpt>
      <trkpt lat="46.98517" lon="-0.73279">
        <ele>180.30665588379</ele>
        <time>2016-06-08T12:59:07.000Z</time>
      </trkpt>
      <trkpt lat="46.98516" lon="-0.73276">
        <ele>179.83441162109</ele>
        <time>2016-06-08T12:59:09.000Z</time>
      </trkpt>
      <trkpt lat="46.98515" lon="-0.73268">
        <ele>180.08088684082</ele>
        <time>2016-06-08T12:59:12.000Z</time>
      </trkpt>
      <trkpt lat="46.98513" lon="-0.73263">
        <ele>179.99182128906</ele>
        <time>2016-06-08T12:59:14.000Z</time>
      </trkpt>
      <trkpt lat="46.98513" lon="-0.7326">
        <ele>178.45133972168</ele>
        <time>2016-06-08T12:59:16.000Z</time>
      </trkpt>
      <trkpt lat="46.98512" lon="-0.73255">
        <ele>177.36528015137</ele>
        <time>2016-06-08T12:59:19.000Z</time>
      </trkpt>
      <trkpt lat="46.9851" lon="-0.73249">
        <ele>176.14810180664</ele>
        <time>2016-06-08T12:59:22.000Z</time>
      </trkpt>
      <trkpt lat="46.98508" lon="-0.73245">
        <ele>176.55892944336</ele>
        <time>2016-06-08T12:59:24.000Z</time>
      </trkpt>
      <trkpt lat="46.98507" lon="-0.7324">
        <ele>176.30014038086</ele>
        <time>2016-06-08T12:59:26.000Z</time>
      </trkpt>
      <trkpt lat="46.98506" lon="-0.73233">
        <ele>175.77825927734</ele>
        <time>2016-06-08T12:59:29.000Z</time>
      </trkpt>
      <trkpt lat="46.98503" lon="-0.73227">
        <ele>174.7469329834</ele>
        <time>2016-06-08T12:59:32.000Z</time>
      </trkpt>
      <trkpt lat="46.98501" lon="-0.73222">
        <ele>172.1531829834</ele>
        <time>2016-06-08T12:59:37.000Z</time>
      </trkpt>
      <trkpt lat="46.98499" lon="-0.7322">
        <ele>172.48245239258</ele>
        <time>2016-06-08T12:59:40.000Z</time>
      </trkpt>
      <trkpt lat="46.98498" lon="-0.73215">
        <ele>172.72457885742</ele>
        <time>2016-06-08T12:59:42.000Z</time>
      </trkpt>
      <trkpt lat="46.98497" lon="-0.73212">
        <ele>172.93469238281</ele>
        <time>2016-06-08T12:59:45.000Z</time>
      </trkpt>
      <trkpt lat="46.98495" lon="-0.73208">
        <ele>173.33993530273</ele>
        <time>2016-06-08T12:59:48.000Z</time>
      </trkpt>
      <trkpt lat="46.98494" lon="-0.73207">
        <ele>173.55244445801</ele>
        <time>2016-06-08T12:59:50.000Z</time>
      </trkpt>
      <trkpt lat="46.98493" lon="-0.73202">
        <ele>173.00164794922</ele>
        <time>2016-06-08T12:59:52.000Z</time>
      </trkpt>
      <trkpt lat="46.98491" lon="-0.73196">
        <ele>173.60319519043</ele>
        <time>2016-06-08T12:59:55.000Z</time>
      </trkpt>
      <trkpt lat="46.98489" lon="-0.7319">
        <ele>173.04272460938</ele>
        <time>2016-06-08T12:59:58.000Z</time>
      </trkpt>
      <trkpt lat="46.98486" lon="-0.7318">
        <ele>170.20664978027</ele>
        <time>2016-06-08T13:00:01.000Z</time>
      </trkpt>
      <trkpt lat="46.98484" lon="-0.73175">
        <ele>169.57046508789</ele>
        <time>2016-06-08T13:00:03.000Z</time>
      </trkpt>
      <trkpt lat="46.98483" lon="-0.73172">
        <ele>170.61219787598</ele>
        <time>2016-06-08T13:00:06.000Z</time>
      </trkpt>
      <trkpt lat="46.98481" lon="-0.73169">
        <ele>171.01509094238</ele>
        <time>2016-06-08T13:00:08.000Z</time>
      </trkpt>
      <trkpt lat="46.98479" lon="-0.73163">
        <ele>172.89277648926</ele>
        <time>2016-06-08T13:00:12.000Z</time>
      </trkpt>
      <trkpt lat="46.98477" lon="-0.73152">
        <ele>175.10426330566</ele>
        <time>2016-06-08T13:00:15.000Z</time>
      </trkpt>
      <trkpt lat="46.98475" lon="-0.73145">
        <ele>175.83293151855</ele>
        <time>2016-06-08T13:00:17.000Z</time>
      </trkpt>
      <trkpt lat="46.98474" lon="-0.73137">
        <ele>174.81718444824</ele>
        <time>2016-06-08T13:00:20.000Z</time>
      </trkpt>
      <trkpt lat="46.98473" lon="-0.73136">
        <ele>174.67720031738</ele>
        <time>2016-06-08T13:00:22.000Z</time>
      </trkpt>
      <trkpt lat="46.9847" lon="-0.73132">
        <ele>173.44677734375</ele>
        <time>2016-06-08T13:00:25.000Z</time>
      </trkpt>
      <trkpt lat="46.98468" lon="-0.73122">
        <ele>173.81217956543</ele>
        <time>2016-06-08T13:00:28.000Z</time>
      </trkpt>
      <trkpt lat="46.98466" lon="-0.73118">
        <ele>174.02299499512</ele>
        <time>2016-06-08T13:00:30.000Z</time>
      </trkpt>
      <trkpt lat="46.98464" lon="-0.73113">
        <ele>175.123046875</ele>
        <time>2016-06-08T13:00:33.000Z</time>
      </trkpt>
      <trkpt lat="46.98464" lon="-0.73109">
        <ele>175.16160583496</ele>
        <time>2016-06-08T13:00:35.000Z</time>
      </trkpt>
      <trkpt lat="46.98462" lon="-0.73102">
        <ele>175.67425537109</ele>
        <time>2016-06-08T13:00:38.000Z</time>
      </trkpt>
      <trkpt lat="46.98459" lon="-0.73097">
        <ele>176.30122375488</ele>
        <time>2016-06-08T13:00:41.000Z</time>
      </trkpt>
      <trkpt lat="46.98458" lon="-0.73091">
        <ele>176.5518951416</ele>
        <time>2016-06-08T13:00:44.000Z</time>
      </trkpt>
      <trkpt lat="46.98458" lon="-0.73087">
        <ele>176.57733154297</ele>
        <time>2016-06-08T13:00:46.000Z</time>
      </trkpt>
      <trkpt lat="46.98457" lon="-0.73085">
        <ele>176.41709899902</ele>
        <time>2016-06-08T13:00:48.000Z</time>
      </trkpt>
      <trkpt lat="46.98457" lon="-0.7308">
        <ele>176.39956665039</ele>
        <time>2016-06-08T13:00:51.000Z</time>
      </trkpt>
      <trkpt lat="46.98456" lon="-0.73076">
        <ele>175.74682617188</ele>
        <time>2016-06-08T13:00:53.000Z</time>
      </trkpt>
      <trkpt lat="46.98456" lon="-0.7307">
        <ele>176.01637268066</ele>
        <time>2016-06-08T13:00:55.000Z</time>
      </trkpt>
      <trkpt lat="46.98455" lon="-0.73063">
        <ele>176.06469726562</ele>
        <time>2016-06-08T13:00:58.000Z</time>
      </trkpt>
      <trkpt lat="46.98454" lon="-0.73059">
        <ele>174.63108825684</ele>
        <time>2016-06-08T13:01:00.000Z</time>
      </trkpt>
      <trkpt lat="46.98453" lon="-0.73053">
        <ele>174.15467834473</ele>
        <time>2016-06-08T13:01:03.000Z</time>
      </trkpt>
      <trkpt lat="46.98452" lon="-0.73051">
        <ele>174.88885498047</ele>
        <time>2016-06-08T13:01:05.000Z</time>
      </trkpt>
      <trkpt lat="46.98449" lon="-0.73049">
        <ele>176.91909790039</ele>
        <time>2016-06-08T13:01:07.000Z</time>
      </trkpt>
      <trkpt lat="46.98448" lon="-0.73044">
        <ele>178.68162536621</ele>
        <time>2016-06-08T13:01:11.000Z</time>
      </trkpt>
      <trkpt lat="46.98447" lon="-0.73039">
        <ele>181.1925201416</ele>
        <time>2016-06-08T13:01:14.000Z</time>
      </trkpt>
      <trkpt lat="46.98446" lon="-0.73036">
        <ele>182.79493713379</ele>
        <time>2016-06-08T13:01:16.000Z</time>
      </trkpt>
      <trkpt lat="46.98445" lon="-0.73028">
        <ele>180.87672424316</ele>
        <time>2016-06-08T13:01:19.000Z</time>
      </trkpt>
      <trkpt lat="46.98443" lon="-0.73021">
        <ele>179.73684692383</ele>
        <time>2016-06-08T13:01:22.000Z</time>
      </trkpt>
      <trkpt lat="46.98442" lon="-0.73016">
        <ele>178.41464233398</ele>
        <time>2016-06-08T13:01:25.000Z</time>
      </trkpt>
      <trkpt lat="46.98441" lon="-0.73012">
        <ele>178.09097290039</ele>
        <time>2016-06-08T13:01:27.000Z</time>
      </trkpt>
      <trkpt lat="46.98438" lon="-0.73005">
        <ele>177.35008239746</ele>
        <time>2016-06-08T13:01:30.000Z</time>
      </trkpt>
      <trkpt lat="46.98437" lon="-0.72995">
        <ele>177.65901184082</ele>
        <time>2016-06-08T13:01:33.000Z</time>
      </trkpt>
      <trkpt lat="46.98437" lon="-0.72991">
        <ele>177.48503112793</ele>
        <time>2016-06-08T13:01:36.000Z</time>
      </trkpt>
      <trkpt lat="46.98434" lon="-0.72985">
        <ele>179.00129699707</ele>
        <time>2016-06-08T13:01:39.000Z</time>
      </trkpt>
      <trkpt lat="46.98433" lon="-0.7298">
        <ele>179.21794128418</ele>
        <time>2016-06-08T13:01:41.000Z</time>
      </trkpt>
      <trkpt lat="46.98432" lon="-0.72978">
        <ele>178.11589050293</ele>
        <time>2016-06-08T13:01:43.000Z</time>
      </trkpt>
      <trkpt lat="46.98431" lon="-0.72972">
        <ele>176.22436523438</ele>
        <time>2016-06-08T13:01:46.000Z</time>
      </trkpt>
      <trkpt lat="46.98431" lon="-0.72967">
        <ele>175.27088928223</ele>
        <time>2016-06-08T13:01:49.000Z</time>
      </trkpt>
      <trkpt lat="46.9843" lon="-0.72963">
        <ele>175.12568664551</ele>
        <time>2016-06-08T13:01:51.000Z</time>
      </trkpt>
      <trkpt lat="46.9843" lon="-0.72959">
        <ele>174.85250854492</ele>
        <time>2016-06-08T13:01:53.000Z</time>
      </trkpt>
      <trkpt lat="46.98431" lon="-0.72954">
        <ele>173.89479064941</ele>
        <time>2016-06-08T13:01:56.000Z</time>
      </trkpt>
      <trkpt lat="46.9843" lon="-0.72949">
        <ele>173.93162536621</ele>
        <time>2016-06-08T13:01:59.000Z</time>
      </trkpt>
      <trkpt lat="46.98428" lon="-0.72943">
        <ele>172.13409423828</ele>
        <time>2016-06-08T13:02:02.000Z</time>
      </trkpt>
      <trkpt lat="46.98427" lon="-0.72934">
        <ele>172.65979003906</ele>
        <time>2016-06-08T13:02:05.000Z</time>
      </trkpt>
      <trkpt lat="46.98426" lon="-0.72926">
        <ele>172.87965393066</ele>
        <time>2016-06-08T13:02:07.000Z</time>
      </trkpt>
      <trkpt lat="46.98426" lon="-0.72919">
        <ele>173.49197387695</ele>
        <time>2016-06-08T13:02:10.000Z</time>
      </trkpt>
      <trkpt lat="46.98424" lon="-0.72915">
        <ele>174.22131347656</ele>
        <time>2016-06-08T13:02:13.000Z</time>
      </trkpt>
      <trkpt lat="46.98422" lon="-0.72909">
        <ele>175.22038269043</ele>
        <time>2016-06-08T13:02:16.000Z</time>
      </trkpt>
      <trkpt lat="46.98421" lon="-0.72905">
        <ele>174.88812255859</ele>
        <time>2016-06-08T13:02:18.000Z</time>
      </trkpt>
      <trkpt lat="46.9842" lon="-0.72894">
        <ele>172.59069824219</ele>
        <time>2016-06-08T13:02:21.000Z</time>
      </trkpt>
      <trkpt lat="46.98417" lon="-0.72889">
        <ele>171.80574035645</ele>
        <time>2016-06-08T13:02:24.000Z</time>
      </trkpt>
      <trkpt lat="46.98415" lon="-0.72888">
        <ele>171.69654846191</ele>
        <time>2016-06-08T13:02:26.000Z</time>
      </trkpt>
      <trkpt lat="46.98414" lon="-0.72883">
        <ele>171.72257995605</ele>
        <time>2016-06-08T13:02:29.000Z</time>
      </trkpt>
      <trkpt lat="46.98413" lon="-0.7288">
        <ele>173.08656311035</ele>
        <time>2016-06-08T13:02:31.000Z</time>
      </trkpt>
      <trkpt lat="46.98413" lon="-0.72875">
        <ele>173.53755187988</ele>
        <time>2016-06-08T13:02:34.000Z</time>
      </trkpt>
      <trkpt lat="46.98414" lon="-0.72864">
        <ele>175.31407165527</ele>
        <time>2016-06-08T13:02:37.000Z</time>
      </trkpt>
      <trkpt lat="46.98413" lon="-0.72861">
        <ele>175.50903320312</ele>
        <time>2016-06-08T13:02:40.000Z</time>
      </trkpt>
      <trkpt lat="46.98412" lon="-0.72854">
        <ele>175.66189575195</ele>
        <time>2016-06-08T13:02:43.000Z</time>
      </trkpt>
      <trkpt lat="46.9841" lon="-0.72851">
        <ele>176.79476928711</ele>
        <time>2016-06-08T13:02:45.000Z</time>
      </trkpt>
      <trkpt lat="46.98409" lon="-0.72847">
        <ele>178.66650390625</ele>
        <time>2016-06-08T13:02:48.000Z</time>
      </trkpt>
      <trkpt lat="46.98407" lon="-0.72843">
        <ele>179.88209533691</ele>
        <time>2016-06-08T13:02:51.000Z</time>
      </trkpt>
      <trkpt lat="46.98405" lon="-0.72837">
        <ele>181.27221679688</ele>
        <time>2016-06-08T13:02:54.000Z</time>
      </trkpt>
      <trkpt lat="46.98404" lon="-0.72829">
        <ele>182.26901245117</ele>
        <time>2016-06-08T13:02:56.000Z</time>
      </trkpt>
      <trkpt lat="46.98402" lon="-0.72824">
        <ele>182.91355895996</ele>
        <time>2016-06-08T13:02:59.000Z</time>
      </trkpt>
      <trkpt lat="46.98402" lon="-0.72821">
        <ele>182.30131530762</ele>
        <time>2016-06-08T13:03:01.000Z</time>
      </trkpt>
      <trkpt lat="46.98399" lon="-0.72818">
        <ele>180.5965423584</ele>
        <time>2016-06-08T13:03:03.000Z</time>
      </trkpt>
      <trkpt lat="46.98396" lon="-0.72812">
        <ele>180.13952636719</ele>
        <time>2016-06-08T13:03:06.000Z</time>
      </trkpt>
      <trkpt lat="46.98395" lon="-0.72808">
        <ele>180.12826538086</ele>
        <time>2016-06-08T13:03:08.000Z</time>
      </trkpt>
      <trkpt lat="46.98393" lon="-0.72804">
        <ele>181.39266967773</ele>
        <time>2016-06-08T13:03:10.000Z</time>
      </trkpt>
      <trkpt lat="46.98391" lon="-0.72801">
        <ele>182.31864929199</ele>
        <time>2016-06-08T13:03:12.000Z</time>
      </trkpt>
      <trkpt lat="46.98388" lon="-0.72796">
        <ele>183.19918823242</ele>
        <time>2016-06-08T13:03:15.000Z</time>
      </trkpt>
      <trkpt lat="46.98387" lon="-0.72795">
        <ele>183.15251159668</ele>
        <time>2016-06-08T13:03:17.000Z</time>
      </trkpt>
      <trkpt lat="46.98383" lon="-0.72791">
        <ele>182.88401794434</ele>
        <time>2016-06-08T13:03:20.000Z</time>
      </trkpt>
      <trkpt lat="46.98381" lon="-0.72786">
        <ele>181.0337677002</ele>
        <time>2016-06-08T13:03:22.000Z</time>
      </trkpt>
      <trkpt lat="46.98379" lon="-0.72783">
        <ele>181.48336791992</ele>
        <time>2016-06-08T13:03:25.000Z</time>
      </trkpt>
      <trkpt lat="46.98375" lon="-0.72781">
        <ele>183.19625854492</ele>
        <time>2016-06-08T13:03:28.000Z</time>
      </trkpt>
      <trkpt lat="46.98372" lon="-0.72779">
        <ele>182.96759033203</ele>
        <time>2016-06-08T13:03:30.000Z</time>
      </trkpt>
      <trkpt lat="46.98367" lon="-0.72776">
        <ele>180.85060119629</ele>
        <time>2016-06-08T13:03:33.000Z</time>
      </trkpt>
      <trkpt lat="46.98364" lon="-0.72776">
        <ele>179.1608581543</ele>
        <time>2016-06-08T13:03:35.000Z</time>
      </trkpt>
      <trkpt lat="46.9836" lon="-0.72775">
        <ele>177.47573852539</ele>
        <time>2016-06-08T13:03:38.000Z</time>
      </trkpt>
      <trkpt lat="46.98355" lon="-0.72774">
        <ele>178.99557495117</ele>
        <time>2016-06-08T13:03:41.000Z</time>
      </trkpt>
      <trkpt lat="46.98353" lon="-0.72774">
        <ele>179.93757629395</ele>
        <time>2016-06-08T13:03:44.000Z</time>
      </trkpt>
      <trkpt lat="46.98351" lon="-0.72774">
        <ele>180.11764526367</ele>
        <time>2016-06-08T13:03:46.000Z</time>
      </trkpt>
      <trkpt lat="46.98349" lon="-0.72775">
        <ele>180.41760253906</ele>
        <time>2016-06-08T13:03:48.000Z</time>
      </trkpt>
      <trkpt lat="46.98345" lon="-0.72774">
        <ele>180.33164978027</ele>
        <time>2016-06-08T13:03:51.000Z</time>
      </trkpt>
      <trkpt lat="46.98341" lon="-0.72772">
        <ele>179.35279846191</ele>
        <time>2016-06-08T13:03:54.000Z</time>
      </trkpt>
      <trkpt lat="46.98336" lon="-0.72771">
        <ele>181.23950195312</ele>
        <time>2016-06-08T13:03:57.000Z</time>
      </trkpt>
      <trkpt lat="46.98328" lon="-0.72767">
        <ele>185.14404296875</ele>
        <time>2016-06-08T13:04:00.000Z</time>
      </trkpt>
      <trkpt lat="46.98324" lon="-0.72765">
        <ele>186.37919616699</ele>
        <time>2016-06-08T13:04:02.000Z</time>
      </trkpt>
      <trkpt lat="46.98321" lon="-0.72766">
        <ele>185.28065490723</ele>
        <time>2016-06-08T13:04:05.000Z</time>
      </trkpt>
      <trkpt lat="46.98319" lon="-0.72767">
        <ele>185.68579101562</ele>
        <time>2016-06-08T13:04:07.000Z</time>
      </trkpt>
      <trkpt lat="46.98314" lon="-0.72768">
        <ele>185.83724975586</ele>
        <time>2016-06-08T13:04:10.000Z</time>
      </trkpt>
      <trkpt lat="46.98312" lon="-0.72768">
        <ele>184.8885345459</ele>
        <time>2016-06-08T13:04:12.000Z</time>
      </trkpt>
      <trkpt lat="46.98309" lon="-0.72767">
        <ele>183.9866027832</ele>
        <time>2016-06-08T13:04:15.000Z</time>
      </trkpt>
      <trkpt lat="46.98307" lon="-0.72764">
        <ele>182.63304138184</ele>
        <time>2016-06-08T13:04:17.000Z</time>
      </trkpt>
      <trkpt lat="46.98303" lon="-0.72758">
        <ele>182.70947265625</ele>
        <time>2016-06-08T13:04:19.000Z</time>
      </trkpt>
      <trkpt lat="46.983" lon="-0.72755">
        <ele>183.34832763672</ele>
        <time>2016-06-08T13:04:22.000Z</time>
      </trkpt>
      <trkpt lat="46.98296" lon="-0.7275">
        <ele>181.26495361328</ele>
        <time>2016-06-08T13:04:24.000Z</time>
      </trkpt>
      <trkpt lat="46.98292" lon="-0.72743">
        <ele>180.33044433594</ele>
        <time>2016-06-08T13:04:28.000Z</time>
      </trkpt>
      <trkpt lat="46.98288" lon="-0.7274">
        <ele>180.40760803223</ele>
        <time>2016-06-08T13:04:31.000Z</time>
      </trkpt>
      <trkpt lat="46.98286" lon="-0.72738">
        <ele>180.23066711426</ele>
        <time>2016-06-08T13:04:34.000Z</time>
      </trkpt>
      <trkpt lat="46.98281" lon="-0.72733">
        <ele>179.75682067871</ele>
        <time>2016-06-08T13:04:37.000Z</time>
      </trkpt>
      <trkpt lat="46.98279" lon="-0.72729">
        <ele>178.48960876465</ele>
        <time>2016-06-08T13:04:40.000Z</time>
      </trkpt>
      <trkpt lat="46.98275" lon="-0.72723">
        <ele>179.50975036621</ele>
        <time>2016-06-08T13:04:43.000Z</time>
      </trkpt>
      <trkpt lat="46.98272" lon="-0.72718">
        <ele>179.76846313477</ele>
        <time>2016-06-08T13:04:46.000Z</time>
      </trkpt>
      <trkpt lat="46.98269" lon="-0.72713">
        <ele>179.18414306641</ele>
        <time>2016-06-08T13:04:49.000Z</time>
      </trkpt>
      <trkpt lat="46.98265" lon="-0.72709">
        <ele>178.14938354492</ele>
        <time>2016-06-08T13:04:52.000Z</time>
      </trkpt>
      <trkpt lat="46.98261" lon="-0.72705">
        <ele>177.66781616211</ele>
        <time>2016-06-08T13:04:55.000Z</time>
      </trkpt>
      <trkpt lat="46.98259" lon="-0.72702">
        <ele>177.19407653809</ele>
        <time>2016-06-08T13:04:57.000Z</time>
      </trkpt>
      <trkpt lat="46.98257" lon="-0.727">
        <ele>178.31181335449</ele>
        <time>2016-06-08T13:04:59.000Z</time>
      </trkpt>
      <trkpt lat="46.98254" lon="-0.72699">
        <ele>179.9826965332</ele>
        <time>2016-06-08T13:05:02.000Z</time>
      </trkpt>
      <trkpt lat="46.98251" lon="-0.72697">
        <ele>181.7021484375</ele>
        <time>2016-06-08T13:05:04.000Z</time>
      </trkpt>
      <trkpt lat="46.98248" lon="-0.72695">
        <ele>179.94383239746</ele>
        <time>2016-06-08T13:05:08.000Z</time>
      </trkpt>
      <trkpt lat="46.98244" lon="-0.72691">
        <ele>180.03826904297</ele>
        <time>2016-06-08T13:05:11.000Z</time>
      </trkpt>
      <trkpt lat="46.9824" lon="-0.7269">
        <ele>182.31970214844</ele>
        <time>2016-06-08T13:05:13.000Z</time>
      </trkpt>
      <trkpt lat="46.98234" lon="-0.72686">
        <ele>185.1046295166</ele>
        <time>2016-06-08T13:05:16.000Z</time>
      </trkpt>
      <trkpt lat="46.9823" lon="-0.7268">
        <ele>187.04470825195</ele>
        <time>2016-06-08T13:05:18.000Z</time>
      </trkpt>
      <trkpt lat="46.98228" lon="-0.72675">
        <ele>186.53030395508</ele>
        <time>2016-06-08T13:05:21.000Z</time>
      </trkpt>
      <trkpt lat="46.98225" lon="-0.72671">
        <ele>184.19706726074</ele>
        <time>2016-06-08T13:05:25.000Z</time>
      </trkpt>
      <trkpt lat="46.98222" lon="-0.7267">
        <ele>182.79156494141</ele>
        <time>2016-06-08T13:05:28.000Z</time>
      </trkpt>
      <trkpt lat="46.98221" lon="-0.7267">
        <ele>182.08258056641</ele>
        <time>2016-06-08T13:05:30.000Z</time>
      </trkpt>
      <trkpt lat="46.98219" lon="-0.72669">
        <ele>179.81575012207</ele>
        <time>2016-06-08T13:05:33.000Z</time>
      </trkpt>
      <trkpt lat="46.98216" lon="-0.72666">
        <ele>178.87622070312</ele>
        <time>2016-06-08T13:05:35.000Z</time>
      </trkpt>
      <trkpt lat="46.98213" lon="-0.72663">
        <ele>178.93307495117</ele>
        <time>2016-06-08T13:05:37.000Z</time>
      </trkpt>
      <trkpt lat="46.98211" lon="-0.72661">
        <ele>179.00566101074</ele>
        <time>2016-06-08T13:05:39.000Z</time>
      </trkpt>
      <trkpt lat="46.98206" lon="-0.72658">
        <ele>177.75329589844</ele>
        <time>2016-06-08T13:05:42.000Z</time>
      </trkpt>
      <trkpt lat="46.982" lon="-0.72653">
        <ele>179.25082397461</ele>
        <time>2016-06-08T13:05:45.000Z</time>
      </trkpt>
      <trkpt lat="46.98197" lon="-0.72647">
        <ele>179.14677429199</ele>
        <time>2016-06-08T13:05:47.000Z</time>
      </trkpt>
      <trkpt lat="46.98195" lon="-0.72647">
        <ele>178.7353515625</ele>
        <time>2016-06-08T13:05:49.000Z</time>
      </trkpt>
      <trkpt lat="46.98191" lon="-0.72647">
        <ele>178.12158203125</ele>
        <time>2016-06-08T13:05:52.000Z</time>
      </trkpt>
      <trkpt lat="46.98188" lon="-0.72646">
        <ele>178.74890136719</ele>
        <time>2016-06-08T13:05:54.000Z</time>
      </trkpt>
      <trkpt lat="46.98183" lon="-0.72641">
        <ele>176.74322509766</ele>
        <time>2016-06-08T13:05:57.000Z</time>
      </trkpt>
      <trkpt lat="46.98179" lon="-0.7264">
        <ele>177.24409484863</ele>
        <time>2016-06-08T13:06:00.000Z</time>
      </trkpt>
      <trkpt lat="46.98177" lon="-0.72638">
        <ele>179.22657775879</ele>
        <time>2016-06-08T13:06:03.000Z</time>
      </trkpt>
      <trkpt lat="46.98175" lon="-0.72638">
        <ele>180.57168579102</ele>
        <time>2016-06-08T13:06:06.000Z</time>
      </trkpt>
      <trkpt lat="46.98173" lon="-0.72639">
        <ele>181.99617004395</ele>
        <time>2016-06-08T13:06:09.000Z</time>
      </trkpt>
      <trkpt lat="46.98167" lon="-0.72637">
        <ele>181.23332214355</ele>
        <time>2016-06-08T13:06:12.000Z</time>
      </trkpt>
      <trkpt lat="46.98163" lon="-0.72634">
        <ele>181.82962036133</ele>
        <time>2016-06-08T13:06:16.000Z</time>
      </trkpt>
      <trkpt lat="46.98161" lon="-0.72628">
        <ele>183.29608154297</ele>
        <time>2016-06-08T13:06:20.000Z</time>
      </trkpt>
      <trkpt lat="46.98161" lon="-0.72622">
        <ele>184.28704833984</ele>
        <time>2016-06-08T13:06:22.000Z</time>
      </trkpt>
      <trkpt lat="46.98161" lon="-0.72618">
        <ele>184.96786499023</ele>
        <time>2016-06-08T13:06:24.000Z</time>
      </trkpt>
      <trkpt lat="46.98162" lon="-0.72613">
        <ele>184.8673248291</ele>
        <time>2016-06-08T13:06:27.000Z</time>
      </trkpt>
      <trkpt lat="46.98162" lon="-0.72611">
        <ele>184.89283752441</ele>
        <time>2016-06-08T13:06:29.000Z</time>
      </trkpt>
      <trkpt lat="46.98162" lon="-0.7261">
        <ele>184.73837280273</ele>
        <time>2016-06-08T13:06:31.000Z</time>
      </trkpt>
      <trkpt lat="46.98162" lon="-0.72608">
        <ele>182.78218078613</ele>
        <time>2016-06-08T13:06:36.000Z</time>
      </trkpt>
      <trkpt lat="46.98163" lon="-0.72604">
        <ele>182.01756286621</ele>
        <time>2016-06-08T13:06:40.000Z</time>
      </trkpt>
      <trkpt lat="46.98164" lon="-0.72599">
        <ele>182.15902709961</ele>
        <time>2016-06-08T13:06:43.000Z</time>
      </trkpt>
      <trkpt lat="46.98165" lon="-0.72594">
        <ele>180.94989013672</ele>
        <time>2016-06-08T13:06:45.000Z</time>
      </trkpt>
      <trkpt lat="46.98167" lon="-0.72593">
        <ele>179.84901428223</ele>
        <time>2016-06-08T13:06:47.000Z</time>
      </trkpt>
      <trkpt lat="46.98167" lon="-0.72588">
        <ele>178.66929626465</ele>
        <time>2016-06-08T13:06:51.000Z</time>
      </trkpt>
      <trkpt lat="46.98167" lon="-0.72581">
        <ele>178.34320068359</ele>
        <time>2016-06-08T13:06:54.000Z</time>
      </trkpt>
      <trkpt lat="46.98167" lon="-0.72575">
        <ele>178.46772766113</ele>
        <time>2016-06-08T13:06:57.000Z</time>
      </trkpt>
      <trkpt lat="46.98168" lon="-0.72567">
        <ele>179.46557617188</ele>
        <time>2016-06-08T13:07:00.000Z</time>
      </trkpt>
      <trkpt lat="46.98169" lon="-0.72562">
        <ele>180.38665771484</ele>
        <time>2016-06-08T13:07:02.000Z</time>
      </trkpt>
      <trkpt lat="46.98169" lon="-0.72559">
        <ele>183.64051818848</ele>
        <time>2016-06-08T13:07:05.000Z</time>
      </trkpt>
      <trkpt lat="46.98169" lon="-0.72555">
        <ele>185.20544433594</ele>
        <time>2016-06-08T13:07:07.000Z</time>
      </trkpt>
      <trkpt lat="46.98171" lon="-0.7255">
        <ele>185.34652709961</ele>
        <time>2016-06-08T13:07:10.000Z</time>
      </trkpt>
      <trkpt lat="46.98171" lon="-0.72545">
        <ele>185.95315551758</ele>
        <time>2016-06-08T13:07:12.000Z</time>
      </trkpt>
      <trkpt lat="46.98172" lon="-0.72537">
        <ele>186.30023193359</ele>
        <time>2016-06-08T13:07:16.000Z</time>
      </trkpt>
      <trkpt lat="46.98173" lon="-0.72532">
        <ele>186.32220458984</ele>
        <time>2016-06-08T13:07:18.000Z</time>
      </trkpt>
      <trkpt lat="46.98173" lon="-0.72528">
        <ele>186.19093322754</ele>
        <time>2016-06-08T13:07:20.000Z</time>
      </trkpt>
      <trkpt lat="46.98172" lon="-0.72522">
        <ele>185.58615112305</ele>
        <time>2016-06-08T13:07:23.000Z</time>
      </trkpt>
      <trkpt lat="46.98174" lon="-0.72517">
        <ele>182.52365112305</ele>
        <time>2016-06-08T13:07:26.000Z</time>
      </trkpt>
      <trkpt lat="46.98174" lon="-0.7251">
        <ele>182.47044372559</ele>
        <time>2016-06-08T13:07:30.000Z</time>
      </trkpt>
      <trkpt lat="46.98175" lon="-0.72502">
        <ele>183.52548217773</ele>
        <time>2016-06-08T13:07:33.000Z</time>
      </trkpt>
      <trkpt lat="46.98176" lon="-0.72496">
        <ele>182.8125</ele>
        <time>2016-06-08T13:07:36.000Z</time>
      </trkpt>
      <trkpt lat="46.98176" lon="-0.72492">
        <ele>182.88507080078</ele>
        <time>2016-06-08T13:07:39.000Z</time>
      </trkpt>
      <trkpt lat="46.98176" lon="-0.72486">
        <ele>183.08352661133</ele>
        <time>2016-06-08T13:07:42.000Z</time>
      </trkpt>
      <trkpt lat="46.98175" lon="-0.72482">
        <ele>183.67636108398</ele>
        <time>2016-06-08T13:07:44.000Z</time>
      </trkpt>
      <trkpt lat="46.98174" lon="-0.72478">
        <ele>185.1343536377</ele>
        <time>2016-06-08T13:07:47.000Z</time>
      </trkpt>
      <trkpt lat="46.98171" lon="-0.72469">
        <ele>186.19873046875</ele>
        <time>2016-06-08T13:07:50.000Z</time>
      </trkpt>
      <trkpt lat="46.9817" lon="-0.7246">
        <ele>185.16130065918</ele>
        <time>2016-06-08T13:07:53.000Z</time>
      </trkpt>
      <trkpt lat="46.9817" lon="-0.72452">
        <ele>184.19828796387</ele>
        <time>2016-06-08T13:07:57.000Z</time>
      </trkpt>
      <trkpt lat="46.9817" lon="-0.72446">
        <ele>184.76005554199</ele>
        <time>2016-06-08T13:08:00.000Z</time>
      </trkpt>
      <trkpt lat="46.98169" lon="-0.72444">
        <ele>184.85417175293</ele>
        <time>2016-06-08T13:08:02.000Z</time>
      </trkpt>
      <trkpt lat="46.9817" lon="-0.72438">
        <ele>184.2642364502</ele>
        <time>2016-06-08T13:08:06.000Z</time>
      </trkpt>
      <trkpt lat="46.98171" lon="-0.72432">
        <ele>184.93823242188</ele>
        <time>2016-06-08T13:08:09.000Z</time>
      </trkpt>
      <trkpt lat="46.98172" lon="-0.72428">
        <ele>185.0422668457</ele>
        <time>2016-06-08T13:08:11.000Z</time>
      </trkpt>
      <trkpt lat="46.98173" lon="-0.72423">
        <ele>186.14596557617</ele>
        <time>2016-06-08T13:08:14.000Z</time>
      </trkpt>
      <trkpt lat="46.98175" lon="-0.72422">
        <ele>188.11991882324</ele>
        <time>2016-06-08T13:08:17.000Z</time>
      </trkpt>
      <trkpt lat="46.98186" lon="-0.72423">
        <ele>188.05397033691</ele>
        <time>2016-06-08T13:08:20.000Z</time>
      </trkpt>
      <trkpt lat="46.98188" lon="-0.7242">
        <ele>187.98342895508</ele>
        <time>2016-06-08T13:08:23.000Z</time>
      </trkpt>
      <trkpt lat="46.98189" lon="-0.72418">
        <ele>187.03509521484</ele>
        <time>2016-06-08T13:08:25.000Z</time>
      </trkpt>
      <trkpt lat="46.9819" lon="-0.72415">
        <ele>186.23146057129</ele>
        <time>2016-06-08T13:08:27.000Z</time>
      </trkpt>
      <trkpt lat="46.98196" lon="-0.72415">
        <ele>184.48287963867</ele>
        <time>2016-06-08T13:08:30.000Z</time>
      </trkpt>
      <trkpt lat="46.98199" lon="-0.72414">
        <ele>184.451171875</ele>
        <time>2016-06-08T13:08:32.000Z</time>
      </trkpt>
      <trkpt lat="46.98204" lon="-0.72414">
        <ele>182.30204772949</ele>
        <time>2016-06-08T13:08:35.000Z</time>
      </trkpt>
      <trkpt lat="46.98208" lon="-0.72414">
        <ele>181.11250305176</ele>
        <time>2016-06-08T13:08:39.000Z</time>
      </trkpt>
      <trkpt lat="46.98211" lon="-0.72414">
        <ele>180.28665161133</ele>
        <time>2016-06-08T13:08:42.000Z</time>
      </trkpt>
      <trkpt lat="46.98216" lon="-0.72413">
        <ele>179.51153564453</ele>
        <time>2016-06-08T13:08:45.000Z</time>
      </trkpt>
      <trkpt lat="46.98218" lon="-0.72411">
        <ele>178.22819519043</ele>
        <time>2016-06-08T13:08:47.000Z</time>
      </trkpt>
      <trkpt lat="46.9822" lon="-0.72407">
        <ele>177.75747680664</ele>
        <time>2016-06-08T13:08:50.000Z</time>
      </trkpt>
      <trkpt lat="46.98225" lon="-0.72405">
        <ele>178.53662109375</ele>
        <time>2016-06-08T13:08:53.000Z</time>
      </trkpt>
      <trkpt lat="46.98232" lon="-0.72405">
        <ele>180.36987304688</ele>
        <time>2016-06-08T13:08:56.000Z</time>
      </trkpt>
      <trkpt lat="46.98238" lon="-0.72406">
        <ele>178.66114807129</ele>
        <time>2016-06-08T13:08:59.000Z</time>
      </trkpt>
      <trkpt lat="46.98241" lon="-0.72405">
        <ele>178.32104492188</ele>
        <time>2016-06-08T13:09:02.000Z</time>
      </trkpt>
      <trkpt lat="46.98243" lon="-0.72401">
        <ele>178.34632873535</ele>
        <time>2016-06-08T13:09:05.000Z</time>
      </trkpt>
      <trkpt lat="46.98248" lon="-0.724">
        <ele>179.35635375977</ele>
        <time>2016-06-08T13:09:08.000Z</time>
      </trkpt>
      <trkpt lat="46.98252" lon="-0.72399">
        <ele>178.75318908691</ele>
        <time>2016-06-08T13:09:10.000Z</time>
      </trkpt>
      <trkpt lat="46.98257" lon="-0.72398">
        <ele>177.09843444824</ele>
        <time>2016-06-08T13:09:13.000Z</time>
      </trkpt>
      <trkpt lat="46.9826" lon="-0.72396">
        <ele>176.48385620117</ele>
        <time>2016-06-08T13:09:16.000Z</time>
      </trkpt>
      <trkpt lat="46.98264" lon="-0.72392">
        <ele>177.25555419922</ele>
        <time>2016-06-08T13:09:19.000Z</time>
      </trkpt>
      <trkpt lat="46.98269" lon="-0.72392">
        <ele>177.14924621582</ele>
        <time>2016-06-08T13:09:23.000Z</time>
      </trkpt>
      <trkpt lat="46.98274" lon="-0.7239">
        <ele>176.45098876953</ele>
        <time>2016-06-08T13:09:26.000Z</time>
      </trkpt>
      <trkpt lat="46.98278" lon="-0.72389">
        <ele>177.91000366211</ele>
        <time>2016-06-08T13:09:28.000Z</time>
      </trkpt>
      <trkpt lat="46.9828" lon="-0.72388">
        <ele>178.77233886719</ele>
        <time>2016-06-08T13:09:30.000Z</time>
      </trkpt>
      <trkpt lat="46.98284" lon="-0.72388">
        <ele>179.38179016113</ele>
        <time>2016-06-08T13:09:33.000Z</time>
      </trkpt>
      <trkpt lat="46.98289" lon="-0.72388">
        <ele>179.05293273926</ele>
        <time>2016-06-08T13:09:35.000Z</time>
      </trkpt>
      <trkpt lat="46.98294" lon="-0.72387">
        <ele>178.46321105957</ele>
        <time>2016-06-08T13:09:38.000Z</time>
      </trkpt>
      <trkpt lat="46.98298" lon="-0.72386">
        <ele>177.7837677002</ele>
        <time>2016-06-08T13:09:40.000Z</time>
      </trkpt>
      <trkpt lat="46.983" lon="-0.72384">
        <ele>176.79069519043</ele>
        <time>2016-06-08T13:09:42.000Z</time>
      </trkpt>
      <trkpt lat="46.98303" lon="-0.72382">
        <ele>176.35850524902</ele>
        <time>2016-06-08T13:09:45.000Z</time>
      </trkpt>
      <trkpt lat="46.98304" lon="-0.7238">
        <ele>176.1700592041</ele>
        <time>2016-06-08T13:09:48.000Z</time>
      </trkpt>
      <trkpt lat="46.98308" lon="-0.7238">
        <ele>177.47808837891</ele>
        <time>2016-06-08T13:09:51.000Z</time>
      </trkpt>
      <trkpt lat="46.98311" lon="-0.7238">
        <ele>181.04292297363</ele>
        <time>2016-06-08T13:09:54.000Z</time>
      </trkpt>
      <trkpt lat="46.9831" lon="-0.72376">
        <ele>181.59136962891</ele>
        <time>2016-06-08T13:09:57.000Z</time>
      </trkpt>
      <trkpt lat="46.98312" lon="-0.72372">
        <ele>181.06352233887</ele>
        <time>2016-06-08T13:09:59.000Z</time>
      </trkpt>
      <trkpt lat="46.98315" lon="-0.7237">
        <ele>179.36227416992</ele>
        <time>2016-06-08T13:10:02.000Z</time>
      </trkpt>
      <trkpt lat="46.98318" lon="-0.72369">
        <ele>179.22598266602</ele>
        <time>2016-06-08T13:10:05.000Z</time>
      </trkpt>
      <trkpt lat="46.98321" lon="-0.72368">
        <ele>179.23274230957</ele>
        <time>2016-06-08T13:10:08.000Z</time>
      </trkpt>
      <trkpt lat="46.98328" lon="-0.72368">
        <ele>179.47817993164</ele>
        <time>2016-06-08T13:10:11.000Z</time>
      </trkpt>
      <trkpt lat="46.9833" lon="-0.72368">
        <ele>179.12007141113</ele>
        <time>2016-06-08T13:10:13.000Z</time>
      </trkpt>
      <trkpt lat="46.98332" lon="-0.72367">
        <ele>180.40466308594</ele>
        <time>2016-06-08T13:10:15.000Z</time>
      </trkpt>
      <trkpt lat="46.98333" lon="-0.72366">
        <ele>181.44094848633</ele>
        <time>2016-06-08T13:10:17.000Z</time>
      </trkpt>
      <trkpt lat="46.98336" lon="-0.72366">
        <ele>183.67755126953</ele>
        <time>2016-06-08T13:10:19.000Z</time>
      </trkpt>
      <trkpt lat="46.98341" lon="-0.72365">
        <ele>183.64505004883</ele>
        <time>2016-06-08T13:10:22.000Z</time>
      </trkpt>
      <trkpt lat="46.98345" lon="-0.72365">
        <ele>182.30545043945</ele>
        <time>2016-06-08T13:10:24.000Z</time>
      </trkpt>
      <trkpt lat="46.98348" lon="-0.72364">
        <ele>182.67282104492</ele>
        <time>2016-06-08T13:10:27.000Z</time>
      </trkpt>
      <trkpt lat="46.9835" lon="-0.72364">
        <ele>183.23536682129</ele>
        <time>2016-06-08T13:10:29.000Z</time>
      </trkpt>
      <trkpt lat="46.98355" lon="-0.72363">
        <ele>182.69630432129</ele>
        <time>2016-06-08T13:10:32.000Z</time>
      </trkpt>
      <trkpt lat="46.98358" lon="-0.72362">
        <ele>180.66963195801</ele>
        <time>2016-06-08T13:10:34.000Z</time>
      </trkpt>
      <trkpt lat="46.98361" lon="-0.72362">
        <ele>178.1418762207</ele>
        <time>2016-06-08T13:10:38.000Z</time>
      </trkpt>
      <trkpt lat="46.9836" lon="-0.72361">
        <ele>179.68475341797</ele>
        <time>2016-06-08T13:10:44.000Z</time>
      </trkpt>
      <trkpt lat="46.98361" lon="-0.72359">
        <ele>179.82664489746</ele>
        <time>2016-06-08T13:10:46.000Z</time>
      </trkpt>
      <trkpt lat="46.98362" lon="-0.72355">
        <ele>179.70710754395</ele>
        <time>2016-06-08T13:10:48.000Z</time>
      </trkpt>
      <trkpt lat="46.98365" lon="-0.72351">
        <ele>179.40866088867</ele>
        <time>2016-06-08T13:10:51.000Z</time>
      </trkpt>
      <trkpt lat="46.98363" lon="-0.72345">
        <ele>181.42990112305</ele>
        <time>2016-06-08T13:10:53.000Z</time>
      </trkpt>
      <trkpt lat="46.98362" lon="-0.72341">
        <ele>183.11488342285</ele>
        <time>2016-06-08T13:10:55.000Z</time>
      </trkpt>
      <trkpt lat="46.98361" lon="-0.72336">
        <ele>183.98767089844</ele>
        <time>2016-06-08T13:10:58.000Z</time>
      </trkpt>
      <trkpt lat="46.9836" lon="-0.72332">
        <ele>183.05709838867</ele>
        <time>2016-06-08T13:11:00.000Z</time>
      </trkpt>
      <trkpt lat="46.9836" lon="-0.72329">
        <ele>181.19116210938</ele>
        <time>2016-06-08T13:11:02.000Z</time>
      </trkpt>
      <trkpt lat="46.9836" lon="-0.72327">
        <ele>180.49514770508</ele>
        <time>2016-06-08T13:11:04.000Z</time>
      </trkpt>
      <trkpt lat="46.9836" lon="-0.72321">
        <ele>179.31930541992</ele>
        <time>2016-06-08T13:11:07.000Z</time>
      </trkpt>
      <trkpt lat="46.98361" lon="-0.72317">
        <ele>178.17890930176</ele>
        <time>2016-06-08T13:11:09.000Z</time>
      </trkpt>
      <trkpt lat="46.98362" lon="-0.72312">
        <ele>176.12545776367</ele>
        <time>2016-06-08T13:11:12.000Z</time>
      </trkpt>
      <trkpt lat="46.98362" lon="-0.72307">
        <ele>174.9168548584</ele>
        <time>2016-06-08T13:11:15.000Z</time>
      </trkpt>
      <trkpt lat="46.98361" lon="-0.72299">
        <ele>174.05358886719</ele>
        <time>2016-06-08T13:11:18.000Z</time>
      </trkpt>
      <trkpt lat="46.98359" lon="-0.72294">
        <ele>174.15544128418</ele>
        <time>2016-06-08T13:11:21.000Z</time>
      </trkpt>
      <trkpt lat="46.98357" lon="-0.7229">
        <ele>175.91473388672</ele>
        <time>2016-06-08T13:11:23.000Z</time>
      </trkpt>
      <trkpt lat="46.98357" lon="-0.72287">
        <ele>176.2501373291</ele>
        <time>2016-06-08T13:11:25.000Z</time>
      </trkpt>
      <trkpt lat="46.98357" lon="-0.72284">
        <ele>176.16432189941</ele>
        <time>2016-06-08T13:11:27.000Z</time>
      </trkpt>
      <trkpt lat="46.98357" lon="-0.72281">
        <ele>176.09446716309</ele>
        <time>2016-06-08T13:11:29.000Z</time>
      </trkpt>
      <trkpt lat="46.98355" lon="-0.72278">
        <ele>176.87872314453</ele>
        <time>2016-06-08T13:11:31.000Z</time>
      </trkpt>
      <trkpt lat="46.98354" lon="-0.72272">
        <ele>177.07862854004</ele>
        <time>2016-06-08T13:11:34.000Z</time>
      </trkpt>
      <trkpt lat="46.98352" lon="-0.72265">
        <ele>178.75141906738</ele>
        <time>2016-06-08T13:11:36.000Z</time>
      </trkpt>
      <trkpt lat="46.9835" lon="-0.72261">
        <ele>180.18280029297</ele>
        <time>2016-06-08T13:11:39.000Z</time>
      </trkpt>
      <trkpt lat="46.98348" lon="-0.72259">
        <ele>180.48448181152</ele>
        <time>2016-06-08T13:11:41.000Z</time>
      </trkpt>
      <trkpt lat="46.98346" lon="-0.72256">
        <ele>179.25825500488</ele>
        <time>2016-06-08T13:11:43.000Z</time>
      </trkpt>
      <trkpt lat="46.98346" lon="-0.72252">
        <ele>178.24247741699</ele>
        <time>2016-06-08T13:11:45.000Z</time>
      </trkpt>
      <trkpt lat="46.98345" lon="-0.72248">
        <ele>176.2989654541</ele>
        <time>2016-06-08T13:11:48.000Z</time>
      </trkpt>
      <trkpt lat="46.98344" lon="-0.72243">
        <ele>173.82276916504</ele>
        <time>2016-06-08T13:11:51.000Z</time>
      </trkpt>
      <trkpt lat="46.98343" lon="-0.72235">
        <ele>173.10540771484</ele>
        <time>2016-06-08T13:11:54.000Z</time>
      </trkpt>
      <trkpt lat="46.9834" lon="-0.72231">
        <ele>173.60694885254</ele>
        <time>2016-06-08T13:11:56.000Z</time>
      </trkpt>
      <trkpt lat="46.98339" lon="-0.72225">
        <ele>173.57095336914</ele>
        <time>2016-06-08T13:12:00.000Z</time>
      </trkpt>
      <trkpt lat="46.98339" lon="-0.7222">
        <ele>173.75991821289</ele>
        <time>2016-06-08T13:12:02.000Z</time>
      </trkpt>
      <trkpt lat="46.98338" lon="-0.72218">
        <ele>174.70899963379</ele>
        <time>2016-06-08T13:12:04.000Z</time>
      </trkpt>
      <trkpt lat="46.98336" lon="-0.72217">
        <ele>175.70503234863</ele>
        <time>2016-06-08T13:12:07.000Z</time>
      </trkpt>
      <trkpt lat="46.98335" lon="-0.72213">
        <ele>175.17395019531</ele>
        <time>2016-06-08T13:12:09.000Z</time>
      </trkpt>
      <trkpt lat="46.98335" lon="-0.72209">
        <ele>174.33317565918</ele>
        <time>2016-06-08T13:12:11.000Z</time>
      </trkpt>
      <trkpt lat="46.98334" lon="-0.72202">
        <ele>172.77212524414</ele>
        <time>2016-06-08T13:12:14.000Z</time>
      </trkpt>
      <trkpt lat="46.98328" lon="-0.72197">
        <ele>168.16735839844</ele>
        <time>2016-06-08T13:12:17.000Z</time>
      </trkpt>
      <trkpt lat="46.98326" lon="-0.72192">
        <ele>168.25819396973</ele>
        <time>2016-06-08T13:12:19.000Z</time>
      </trkpt>
      <trkpt lat="46.98322" lon="-0.72186">
        <ele>170.56640625</ele>
        <time>2016-06-08T13:12:22.000Z</time>
      </trkpt>
      <trkpt lat="46.98318" lon="-0.72182">
        <ele>169.59701538086</ele>
        <time>2016-06-08T13:12:25.000Z</time>
      </trkpt>
      <trkpt lat="46.98318" lon="-0.72176">
        <ele>170.65396118164</ele>
        <time>2016-06-08T13:12:28.000Z</time>
      </trkpt>
      <trkpt lat="46.98315" lon="-0.7217">
        <ele>171.30639648438</ele>
        <time>2016-06-08T13:12:31.000Z</time>
      </trkpt>
      <trkpt lat="46.98311" lon="-0.72164">
        <ele>171.8402557373</ele>
        <time>2016-06-08T13:12:35.000Z</time>
      </trkpt>
      <trkpt lat="46.98308" lon="-0.72162">
        <ele>171.6608581543</ele>
        <time>2016-06-08T13:12:37.000Z</time>
      </trkpt>
      <trkpt lat="46.98305" lon="-0.72154">
        <ele>172.71406555176</ele>
        <time>2016-06-08T13:12:40.000Z</time>
      </trkpt>
      <trkpt lat="46.98305" lon="-0.72149">
        <ele>172.38822937012</ele>
        <time>2016-06-08T13:12:42.000Z</time>
      </trkpt>
      <trkpt lat="46.98305" lon="-0.72142">
        <ele>172.7017364502</ele>
        <time>2016-06-08T13:12:45.000Z</time>
      </trkpt>
      <trkpt lat="46.98304" lon="-0.72136">
        <ele>173.40386962891</ele>
        <time>2016-06-08T13:12:47.000Z</time>
      </trkpt>
      <trkpt lat="46.98304" lon="-0.72133">
        <ele>173.2596282959</ele>
        <time>2016-06-08T13:12:49.000Z</time>
      </trkpt>
      <trkpt lat="46.98304" lon="-0.72129">
        <ele>172.00309753418</ele>
        <time>2016-06-08T13:12:52.000Z</time>
      </trkpt>
      <trkpt lat="46.98304" lon="-0.72126">
        <ele>171.79649353027</ele>
        <time>2016-06-08T13:12:54.000Z</time>
      </trkpt>
      <trkpt lat="46.98303" lon="-0.72121">
        <ele>171.3021697998</ele>
        <time>2016-06-08T13:12:57.000Z</time>
      </trkpt>
      <trkpt lat="46.98301" lon="-0.72115">
        <ele>170.3240814209</ele>
        <time>2016-06-08T13:12:59.000Z</time>
      </trkpt>
      <trkpt lat="46.98298" lon="-0.72111">
        <ele>169.2876739502</ele>
        <time>2016-06-08T13:13:01.000Z</time>
      </trkpt>
      <trkpt lat="46.98295" lon="-0.72105">
        <ele>167.58406066895</ele>
        <time>2016-06-08T13:13:04.000Z</time>
      </trkpt>
      <trkpt lat="46.98294" lon="-0.721">
        <ele>165.52214050293</ele>
        <time>2016-06-08T13:13:07.000Z</time>
      </trkpt>
      <trkpt lat="46.98293" lon="-0.72098">
        <ele>164.8846282959</ele>
        <time>2016-06-08T13:13:10.000Z</time>
      </trkpt>
      <trkpt lat="46.98291" lon="-0.72097">
        <ele>166.04292297363</ele>
        <time>2016-06-08T13:13:13.000Z</time>
      </trkpt>
      <trkpt lat="46.98291" lon="-0.72094">
        <ele>166.63781738281</ele>
        <time>2016-06-08T13:13:15.000Z</time>
      </trkpt>
      <trkpt lat="46.98289" lon="-0.72088">
        <ele>168.72657775879</ele>
        <time>2016-06-08T13:13:18.000Z</time>
      </trkpt>
      <trkpt lat="46.98289" lon="-0.72084">
        <ele>169.11256408691</ele>
        <time>2016-06-08T13:13:20.000Z</time>
      </trkpt>
      <trkpt lat="46.98288" lon="-0.72076">
        <ele>167.66459655762</ele>
        <time>2016-06-08T13:13:23.000Z</time>
      </trkpt>
      <trkpt lat="46.98288" lon="-0.72071">
        <ele>165.57585144043</ele>
        <time>2016-06-08T13:13:25.000Z</time>
      </trkpt>
      <trkpt lat="46.98288" lon="-0.72065">
        <ele>164.5665435791</ele>
        <time>2016-06-08T13:13:28.000Z</time>
      </trkpt>
      <trkpt lat="46.98285" lon="-0.72056">
        <ele>164.33908081055</ele>
        <time>2016-06-08T13:13:32.000Z</time>
      </trkpt>
      <trkpt lat="46.98284" lon="-0.72047">
        <ele>165.13340759277</ele>
        <time>2016-06-08T13:13:35.000Z</time>
      </trkpt>
      <trkpt lat="46.98283" lon="-0.72044">
        <ele>164.65632629395</ele>
        <time>2016-06-08T13:13:37.000Z</time>
      </trkpt>
      <trkpt lat="46.98283" lon="-0.7204">
        <ele>163.98210144043</ele>
        <time>2016-06-08T13:13:40.000Z</time>
      </trkpt>
      <trkpt lat="46.98283" lon="-0.72037">
        <ele>163.55979919434</ele>
        <time>2016-06-08T13:13:42.000Z</time>
      </trkpt>
      <trkpt lat="46.9828" lon="-0.72033">
        <ele>166.30883789062</ele>
        <time>2016-06-08T13:13:44.000Z</time>
      </trkpt>
      <trkpt lat="46.98277" lon="-0.72029">
        <ele>168.4136505127</ele>
        <time>2016-06-08T13:13:46.000Z</time>
      </trkpt>
      <trkpt lat="46.98276" lon="-0.72026">
        <ele>169.29019165039</ele>
        <time>2016-06-08T13:13:49.000Z</time>
      </trkpt>
      <trkpt lat="46.98275" lon="-0.72023">
        <ele>169.71507263184</ele>
        <time>2016-06-08T13:13:51.000Z</time>
      </trkpt>
      <trkpt lat="46.98274" lon="-0.7202">
        <ele>169.73352050781</ele>
        <time>2016-06-08T13:13:53.000Z</time>
      </trkpt>
      <trkpt lat="46.98273" lon="-0.72015">
        <ele>169.62184143066</ele>
        <time>2016-06-08T13:13:56.000Z</time>
      </trkpt>
      <trkpt lat="46.98271" lon="-0.72006">
        <ele>168.10792541504</ele>
        <time>2016-06-08T13:13:59.000Z</time>
      </trkpt>
      <trkpt lat="46.9827" lon="-0.72002">
        <ele>169.37060546875</ele>
        <time>2016-06-08T13:14:02.000Z</time>
      </trkpt>
      <trkpt lat="46.98268" lon="-0.71996">
        <ele>170.47175598145</ele>
        <time>2016-06-08T13:14:04.000Z</time>
      </trkpt>
      <trkpt lat="46.98267" lon="-0.71989">
        <ele>171.63398742676</ele>
        <time>2016-06-08T13:14:06.000Z</time>
      </trkpt>
      <trkpt lat="46.98264" lon="-0.7198">
        <ele>172.99122619629</ele>
        <time>2016-06-08T13:14:09.000Z</time>
      </trkpt>
      <trkpt lat="46.98264" lon="-0.71974">
        <ele>172.98915100098</ele>
        <time>2016-06-08T13:14:12.000Z</time>
      </trkpt>
      <trkpt lat="46.98262" lon="-0.71971">
        <ele>173.27424621582</ele>
        <time>2016-06-08T13:14:15.000Z</time>
      </trkpt>
      <trkpt lat="46.98259" lon="-0.71962">
        <ele>172.82579040527</ele>
        <time>2016-06-08T13:14:18.000Z</time>
      </trkpt>
      <trkpt lat="46.98258" lon="-0.7196">
        <ele>173.2744140625</ele>
        <time>2016-06-08T13:14:20.000Z</time>
      </trkpt>
      <trkpt lat="46.98257" lon="-0.71956">
        <ele>174.0675201416</ele>
        <time>2016-06-08T13:14:23.000Z</time>
      </trkpt>
      <trkpt lat="46.98255" lon="-0.71954">
        <ele>174.14111328125</ele>
        <time>2016-06-08T13:14:25.000Z</time>
      </trkpt>
      <trkpt lat="46.98253" lon="-0.71948">
        <ele>174.9158782959</ele>
        <time>2016-06-08T13:14:28.000Z</time>
      </trkpt>
      <trkpt lat="46.98252" lon="-0.71944">
        <ele>175.45866394043</ele>
        <time>2016-06-08T13:14:30.000Z</time>
      </trkpt>
      <trkpt lat="46.98252" lon="-0.71938">
        <ele>174.77944946289</ele>
        <time>2016-06-08T13:14:33.000Z</time>
      </trkpt>
      <trkpt lat="46.98252" lon="-0.71931">
        <ele>173.72079467773</ele>
        <time>2016-06-08T13:14:35.000Z</time>
      </trkpt>
      <trkpt lat="46.98251" lon="-0.71925">
        <ele>172.83297729492</ele>
        <time>2016-06-08T13:14:38.000Z</time>
      </trkpt>
      <trkpt lat="46.98251" lon="-0.7192">
        <ele>172.51591491699</ele>
        <time>2016-06-08T13:14:40.000Z</time>
      </trkpt>
      <trkpt lat="46.98252" lon="-0.71916">
        <ele>172.00592041016</ele>
        <time>2016-06-08T13:14:42.000Z</time>
      </trkpt>
      <trkpt lat="46.98254" lon="-0.7191">
        <ele>170.40550231934</ele>
        <time>2016-06-08T13:14:45.000Z</time>
      </trkpt>
      <trkpt lat="46.98255" lon="-0.71904">
        <ele>169.57893371582</ele>
        <time>2016-06-08T13:14:48.000Z</time>
      </trkpt>
      <trkpt lat="46.98256" lon="-0.71899">
        <ele>170.43685913086</ele>
        <time>2016-06-08T13:14:50.000Z</time>
      </trkpt>
      <trkpt lat="46.98256" lon="-0.71894">
        <ele>171.52032470703</ele>
        <time>2016-06-08T13:14:53.000Z</time>
      </trkpt>
      <trkpt lat="46.98257" lon="-0.71888">
        <ele>172.42144775391</ele>
        <time>2016-06-08T13:14:56.000Z</time>
      </trkpt>
      <trkpt lat="46.98258" lon="-0.71882">
        <ele>173.09605407715</ele>
        <time>2016-06-08T13:14:58.000Z</time>
      </trkpt>
      <trkpt lat="46.9826" lon="-0.71873">
        <ele>173.69444274902</ele>
        <time>2016-06-08T13:15:01.000Z</time>
      </trkpt>
      <trkpt lat="46.98266" lon="-0.7187">
        <ele>172.94999694824</ele>
        <time>2016-06-08T13:15:04.000Z</time>
      </trkpt>
      <trkpt lat="46.9827" lon="-0.7187">
        <ele>171.79403686523</ele>
        <time>2016-06-08T13:15:07.000Z</time>
      </trkpt>
      <trkpt lat="46.98273" lon="-0.71867">
        <ele>171.04821777344</ele>
        <time>2016-06-08T13:15:10.000Z</time>
      </trkpt>
      <trkpt lat="46.98276" lon="-0.71865">
        <ele>171.28416442871</ele>
        <time>2016-06-08T13:15:12.000Z</time>
      </trkpt>
      <trkpt lat="46.9828" lon="-0.71864">
        <ele>170.92361450195</ele>
        <time>2016-06-08T13:15:15.000Z</time>
      </trkpt>
      <trkpt lat="46.98285" lon="-0.71863">
        <ele>170.69815063477</ele>
        <time>2016-06-08T13:15:18.000Z</time>
      </trkpt>
      <trkpt lat="46.9829" lon="-0.71863">
        <ele>170.68856811523</ele>
        <time>2016-06-08T13:15:21.000Z</time>
      </trkpt>
      <trkpt lat="46.98294" lon="-0.71862">
        <ele>169.1441192627</ele>
        <time>2016-06-08T13:15:24.000Z</time>
      </trkpt>
      <trkpt lat="46.98296" lon="-0.71862">
        <ele>168.58500671387</ele>
        <time>2016-06-08T13:15:26.000Z</time>
      </trkpt>
      <trkpt lat="46.98302" lon="-0.71861">
        <ele>167.97885131836</ele>
        <time>2016-06-08T13:15:29.000Z</time>
      </trkpt>
      <trkpt lat="46.98305" lon="-0.71859">
        <ele>167.26112365723</ele>
        <time>2016-06-08T13:15:31.000Z</time>
      </trkpt>
      <trkpt lat="46.9831" lon="-0.71858">
        <ele>166.44937133789</ele>
        <time>2016-06-08T13:15:34.000Z</time>
      </trkpt>
      <trkpt lat="46.98313" lon="-0.71857">
        <ele>166.1551361084</ele>
        <time>2016-06-08T13:15:36.000Z</time>
      </trkpt>
      <trkpt lat="46.98318" lon="-0.71856">
        <ele>165.76986694336</ele>
        <time>2016-06-08T13:15:39.000Z</time>
      </trkpt>
      <trkpt lat="46.98322" lon="-0.71855">
        <ele>166.96533203125</ele>
        <time>2016-06-08T13:15:41.000Z</time>
      </trkpt>
      <trkpt lat="46.98326" lon="-0.71855">
        <ele>168.10589599609</ele>
        <time>2016-06-08T13:15:44.000Z</time>
      </trkpt>
      <trkpt lat="46.98329" lon="-0.71853">
        <ele>166.72406005859</ele>
        <time>2016-06-08T13:15:47.000Z</time>
      </trkpt>
      <trkpt lat="46.9833" lon="-0.7185">
        <ele>164.77973937988</ele>
        <time>2016-06-08T13:15:49.000Z</time>
      </trkpt>
      <trkpt lat="46.98333" lon="-0.71849">
        <ele>164.36911010742</ele>
        <time>2016-06-08T13:15:51.000Z</time>
      </trkpt>
      <trkpt lat="46.98335" lon="-0.71849">
        <ele>164.6153717041</ele>
        <time>2016-06-08T13:15:53.000Z</time>
      </trkpt>
      <trkpt lat="46.98342" lon="-0.71848">
        <ele>165.5669708252</ele>
        <time>2016-06-08T13:15:56.000Z</time>
      </trkpt>
      <trkpt lat="46.98347" lon="-0.71848">
        <ele>165.47175598145</ele>
        <time>2016-06-08T13:15:58.000Z</time>
      </trkpt>
      <trkpt lat="46.98351" lon="-0.71848">
        <ele>165.76873779297</ele>
        <time>2016-06-08T13:16:01.000Z</time>
      </trkpt>
      <trkpt lat="46.98355" lon="-0.71846">
        <ele>164.16342163086</ele>
        <time>2016-06-08T13:16:03.000Z</time>
      </trkpt>
      <trkpt lat="46.98355" lon="-0.71843">
        <ele>163.79542541504</ele>
        <time>2016-06-08T13:16:05.000Z</time>
      </trkpt>
      <trkpt lat="46.98357" lon="-0.7184">
        <ele>163.59101867676</ele>
        <time>2016-06-08T13:16:08.000Z</time>
      </trkpt>
      <trkpt lat="46.9836" lon="-0.7184">
        <ele>164.62528991699</ele>
        <time>2016-06-08T13:16:11.000Z</time>
      </trkpt>
      <trkpt lat="46.98365" lon="-0.7184">
        <ele>165.70295715332</ele>
        <time>2016-06-08T13:16:15.000Z</time>
      </trkpt>
      <trkpt lat="46.9837" lon="-0.71839">
        <ele>166.91792297363</ele>
        <time>2016-06-08T13:16:18.000Z</time>
      </trkpt>
      <trkpt lat="46.98372" lon="-0.71838">
        <ele>166.25213623047</ele>
        <time>2016-06-08T13:16:20.000Z</time>
      </trkpt>
      <trkpt lat="46.98375" lon="-0.71834">
        <ele>164.53346252441</ele>
        <time>2016-06-08T13:16:22.000Z</time>
      </trkpt>
      <trkpt lat="46.98378" lon="-0.71831">
        <ele>163.54858398438</ele>
        <time>2016-06-08T13:16:24.000Z</time>
      </trkpt>
      <trkpt lat="46.9838" lon="-0.71829">
        <ele>163.71784973145</ele>
        <time>2016-06-08T13:16:27.000Z</time>
      </trkpt>
      <trkpt lat="46.98385" lon="-0.71827">
        <ele>164.51870727539</ele>
        <time>2016-06-08T13:16:30.000Z</time>
      </trkpt>
      <trkpt lat="46.98391" lon="-0.71827">
        <ele>163.67057800293</ele>
        <time>2016-06-08T13:16:33.000Z</time>
      </trkpt>
      <trkpt lat="46.98397" lon="-0.71829">
        <ele>166.41567993164</ele>
        <time>2016-06-08T13:16:36.000Z</time>
      </trkpt>
      <trkpt lat="46.984" lon="-0.71829">
        <ele>167.25482177734</ele>
        <time>2016-06-08T13:16:38.000Z</time>
      </trkpt>
      <trkpt lat="46.98404" lon="-0.7183">
        <ele>167.39237976074</ele>
        <time>2016-06-08T13:16:41.000Z</time>
      </trkpt>
      <trkpt lat="46.9841" lon="-0.7183">
        <ele>166.08586120605</ele>
        <time>2016-06-08T13:16:44.000Z</time>
      </trkpt>
      <trkpt lat="46.98413" lon="-0.71829">
        <ele>164.51617431641</ele>
        <time>2016-06-08T13:16:47.000Z</time>
      </trkpt>
      <trkpt lat="46.98415" lon="-0.71828">
        <ele>163.22157287598</ele>
        <time>2016-06-08T13:16:49.000Z</time>
      </trkpt>
      <trkpt lat="46.98421" lon="-0.71828">
        <ele>164.28660583496</ele>
        <time>2016-06-08T13:16:52.000Z</time>
      </trkpt>
      <trkpt lat="46.98424" lon="-0.71827">
        <ele>163.314453125</ele>
        <time>2016-06-08T13:16:54.000Z</time>
      </trkpt>
      <trkpt lat="46.98427" lon="-0.71828">
        <ele>162.64733886719</ele>
        <time>2016-06-08T13:16:56.000Z</time>
      </trkpt>
      <trkpt lat="46.98431" lon="-0.71827">
        <ele>163.99235534668</ele>
        <time>2016-06-08T13:17:00.000Z</time>
      </trkpt>
      <trkpt lat="46.98435" lon="-0.71828">
        <ele>165.02461242676</ele>
        <time>2016-06-08T13:17:02.000Z</time>
      </trkpt>
      <trkpt lat="46.98439" lon="-0.71827">
        <ele>165.0103302002</ele>
        <time>2016-06-08T13:17:05.000Z</time>
      </trkpt>
      <trkpt lat="46.98439" lon="-0.71823">
        <ele>165.53433227539</ele>
        <time>2016-06-08T13:17:08.000Z</time>
      </trkpt>
      <trkpt lat="46.98442" lon="-0.71821">
        <ele>166.20266723633</ele>
        <time>2016-06-08T13:17:11.000Z</time>
      </trkpt>
      <trkpt lat="46.98448" lon="-0.71821">
        <ele>167.21936035156</ele>
        <time>2016-06-08T13:17:14.000Z</time>
      </trkpt>
      <trkpt lat="46.9845" lon="-0.7182">
        <ele>167.41387939453</ele>
        <time>2016-06-08T13:17:16.000Z</time>
      </trkpt>
      <trkpt lat="46.98451" lon="-0.7182">
        <ele>167.55480957031</ele>
        <time>2016-06-08T13:17:18.000Z</time>
      </trkpt>
      <trkpt lat="46.98454" lon="-0.71818">
        <ele>168.40612792969</ele>
        <time>2016-06-08T13:17:21.000Z</time>
      </trkpt>
      <trkpt lat="46.98459" lon="-0.71818">
        <ele>170.0764465332</ele>
        <time>2016-06-08T13:17:24.000Z</time>
      </trkpt>
      <trkpt lat="46.98462" lon="-0.71819">
        <ele>170.14807128906</ele>
        <time>2016-06-08T13:17:26.000Z</time>
      </trkpt>
      <trkpt lat="46.98466" lon="-0.7182">
        <ele>170.31034851074</ele>
        <time>2016-06-08T13:17:28.000Z</time>
      </trkpt>
      <trkpt lat="46.98469" lon="-0.71819">
        <ele>171.11129760742</ele>
        <time>2016-06-08T13:17:30.000Z</time>
      </trkpt>
      <trkpt lat="46.98473" lon="-0.71816">
        <ele>172.48091125488</ele>
        <time>2016-06-08T13:17:33.000Z</time>
      </trkpt>
      <trkpt lat="46.98473" lon="-0.7181">
        <ele>173.24382019043</ele>
        <time>2016-06-08T13:17:36.000Z</time>
      </trkpt>
      <trkpt lat="46.98473" lon="-0.71804">
        <ele>171.57557678223</ele>
        <time>2016-06-08T13:17:39.000Z</time>
      </trkpt>
      <trkpt lat="46.98473" lon="-0.71797">
        <ele>170.03842163086</ele>
        <time>2016-06-08T13:17:41.000Z</time>
      </trkpt>
      <trkpt lat="46.98473" lon="-0.71782">
        <ele>167.26286315918</ele>
        <time>2016-06-08T13:17:44.000Z</time>
      </trkpt>
      <trkpt lat="46.98475" lon="-0.71779">
        <ele>164.90989685059</ele>
        <time>2016-06-08T13:17:47.000Z</time>
      </trkpt>
      <trkpt lat="46.98474" lon="-0.71775">
        <ele>163.7964630127</ele>
        <time>2016-06-08T13:17:49.000Z</time>
      </trkpt>
      <trkpt lat="46.98471" lon="-0.71771">
        <ele>162.5965423584</ele>
        <time>2016-06-08T13:17:52.000Z</time>
      </trkpt>
      <trkpt lat="46.9847" lon="-0.7177">
        <ele>162.42283630371</ele>
        <time>2016-06-08T13:17:55.000Z</time>
      </trkpt>
      <trkpt lat="46.98469" lon="-0.71768">
        <ele>162.73994445801</ele>
        <time>2016-06-08T13:17:59.000Z</time>
      </trkpt>
      <trkpt lat="46.98469" lon="-0.71765">
        <ele>163.04197692871</ele>
        <time>2016-06-08T13:18:01.000Z</time>
      </trkpt>
      <trkpt lat="46.98469" lon="-0.71756">
        <ele>162.51811218262</ele>
        <time>2016-06-08T13:18:04.000Z</time>
      </trkpt>
      <trkpt lat="46.98466" lon="-0.71751">
        <ele>163.88682556152</ele>
        <time>2016-06-08T13:18:07.000Z</time>
      </trkpt>
      <trkpt lat="46.98463" lon="-0.71746">
        <ele>164.07373046875</ele>
        <time>2016-06-08T13:18:10.000Z</time>
      </trkpt>
      <trkpt lat="46.98461" lon="-0.71738">
        <ele>164.29852294922</ele>
        <time>2016-06-08T13:18:13.000Z</time>
      </trkpt>
      <trkpt lat="46.98461" lon="-0.7173">
        <ele>163.75559997559</ele>
        <time>2016-06-08T13:18:16.000Z</time>
      </trkpt>
      <trkpt lat="46.9846" lon="-0.71723">
        <ele>163.47218322754</ele>
        <time>2016-06-08T13:18:18.000Z</time>
      </trkpt>
      <trkpt lat="46.98457" lon="-0.71718">
        <ele>163.09857177734</ele>
        <time>2016-06-08T13:18:21.000Z</time>
      </trkpt>
      <trkpt lat="46.98456" lon="-0.71717">
        <ele>163.03968811035</ele>
        <time>2016-06-08T13:18:23.000Z</time>
      </trkpt>
      <trkpt lat="46.98454" lon="-0.71714">
        <ele>163.30229187012</ele>
        <time>2016-06-08T13:18:26.000Z</time>
      </trkpt>
      <trkpt lat="46.98454" lon="-0.71707">
        <ele>163.28393554688</ele>
        <time>2016-06-08T13:18:29.000Z</time>
      </trkpt>
      <trkpt lat="46.98453" lon="-0.71697">
        <ele>162.90260314941</ele>
        <time>2016-06-08T13:18:32.000Z</time>
      </trkpt>
      <trkpt lat="46.98449" lon="-0.71688">
        <ele>165.35375976562</ele>
        <time>2016-06-08T13:18:35.000Z</time>
      </trkpt>
      <trkpt lat="46.98447" lon="-0.71683">
        <ele>165.57931518555</ele>
        <time>2016-06-08T13:18:37.000Z</time>
      </trkpt>
      <trkpt lat="46.98445" lon="-0.71678">
        <ele>165.9429473877</ele>
        <time>2016-06-08T13:18:40.000Z</time>
      </trkpt>
      <trkpt lat="46.98442" lon="-0.71673">
        <ele>166.35308837891</ele>
        <time>2016-06-08T13:18:43.000Z</time>
      </trkpt>
      <trkpt lat="46.9844" lon="-0.71669">
        <ele>166.85360717773</ele>
        <time>2016-06-08T13:18:46.000Z</time>
      </trkpt>
      <trkpt lat="46.9844" lon="-0.71666">
        <ele>166.9705657959</ele>
        <time>2016-06-08T13:18:48.000Z</time>
      </trkpt>
      <trkpt lat="46.9844" lon="-0.71663">
        <ele>166.2056427002</ele>
        <time>2016-06-08T13:18:51.000Z</time>
      </trkpt>
      <trkpt lat="46.9844" lon="-0.71659">
        <ele>166.32830810547</ele>
        <time>2016-06-08T13:18:53.000Z</time>
      </trkpt>
      <trkpt lat="46.98438" lon="-0.7165">
        <ele>166.07989501953</ele>
        <time>2016-06-08T13:18:56.000Z</time>
      </trkpt>
      <trkpt lat="46.98437" lon="-0.71647">
        <ele>166.0013885498</ele>
        <time>2016-06-08T13:18:58.000Z</time>
      </trkpt>
      <trkpt lat="46.98434" lon="-0.71641">
        <ele>165.72496032715</ele>
        <time>2016-06-08T13:19:01.000Z</time>
      </trkpt>
      <trkpt lat="46.98433" lon="-0.71637">
        <ele>165.55885314941</ele>
        <time>2016-06-08T13:19:04.000Z</time>
      </trkpt>
      <trkpt lat="46.98431" lon="-0.71633">
        <ele>164.4418182373</ele>
        <time>2016-06-08T13:19:06.000Z</time>
      </trkpt>
      <trkpt lat="46.98431" lon="-0.71632">
        <ele>164.39154052734</ele>
        <time>2016-06-08T13:19:08.000Z</time>
      </trkpt>
      <trkpt lat="46.98429" lon="-0.71627">
        <ele>165.0432434082</ele>
        <time>2016-06-08T13:19:11.000Z</time>
      </trkpt>
      <trkpt lat="46.98425" lon="-0.71617">
        <ele>165.00213623047</ele>
        <time>2016-06-08T13:19:14.000Z</time>
      </trkpt>
      <trkpt lat="46.98425" lon="-0.71613">
        <ele>163.77606201172</ele>
        <time>2016-06-08T13:19:17.000Z</time>
      </trkpt>
      <trkpt lat="46.98426" lon="-0.71609">
        <ele>160.72242736816</ele>
        <time>2016-06-08T13:19:20.000Z</time>
      </trkpt>
      <trkpt lat="46.98426" lon="-0.71603">
        <ele>158.26368713379</ele>
        <time>2016-06-08T13:19:23.000Z</time>
      </trkpt>
      <trkpt lat="46.98423" lon="-0.71601">
        <ele>160.05470275879</ele>
        <time>2016-06-08T13:19:26.000Z</time>
      </trkpt>
      <trkpt lat="46.98418" lon="-0.716">
        <ele>160.72550964355</ele>
        <time>2016-06-08T13:19:29.000Z</time>
      </trkpt>
      <trkpt lat="46.98413" lon="-0.71597">
        <ele>162.40447998047</ele>
        <time>2016-06-08T13:19:33.000Z</time>
      </trkpt>
      <trkpt lat="46.9841" lon="-0.71595">
        <ele>162.28942871094</ele>
        <time>2016-06-08T13:19:36.000Z</time>
      </trkpt>
      <trkpt lat="46.98406" lon="-0.71594">
        <ele>162.10687255859</ele>
        <time>2016-06-08T13:19:38.000Z</time>
      </trkpt>
      <trkpt lat="46.98401" lon="-0.71595">
        <ele>162.03834533691</ele>
        <time>2016-06-08T13:19:41.000Z</time>
      </trkpt>
      <trkpt lat="46.98399" lon="-0.71595">
        <ele>160.9221496582</ele>
        <time>2016-06-08T13:19:45.000Z</time>
      </trkpt>
      <trkpt lat="46.98399" lon="-0.71591">
        <ele>160.31571960449</ele>
        <time>2016-06-08T13:19:49.000Z</time>
      </trkpt>
      <trkpt lat="46.98392" lon="-0.71585">
        <ele>161.80015563965</ele>
        <time>2016-06-08T13:19:52.000Z</time>
      </trkpt>
      <trkpt lat="46.9839" lon="-0.71584">
        <ele>161.57943725586</ele>
        <time>2016-06-08T13:19:55.000Z</time>
      </trkpt>
      <trkpt lat="46.98386" lon="-0.71582">
        <ele>161.54377746582</ele>
        <time>2016-06-08T13:19:58.000Z</time>
      </trkpt>
      <trkpt lat="46.98381" lon="-0.71577">
        <ele>161.16221618652</ele>
        <time>2016-06-08T13:20:01.000Z</time>
      </trkpt>
      <trkpt lat="46.98378" lon="-0.71575">
        <ele>161.40354919434</ele>
        <time>2016-06-08T13:20:03.000Z</time>
      </trkpt>
      <trkpt lat="46.98376" lon="-0.71571">
        <ele>161.47367858887</ele>
        <time>2016-06-08T13:20:06.000Z</time>
      </trkpt>
      <trkpt lat="46.98372" lon="-0.71565">
        <ele>162.48709106445</ele>
        <time>2016-06-08T13:20:10.000Z</time>
      </trkpt>
      <trkpt lat="46.98368" lon="-0.7156">
        <ele>163.3724822998</ele>
        <time>2016-06-08T13:20:13.000Z</time>
      </trkpt>
      <trkpt lat="46.98364" lon="-0.71556">
        <ele>164.30158996582</ele>
        <time>2016-06-08T13:20:17.000Z</time>
      </trkpt>
      <trkpt lat="46.98362" lon="-0.71551">
        <ele>164.0336151123</ele>
        <time>2016-06-08T13:20:21.000Z</time>
      </trkpt>
      <trkpt lat="46.9836" lon="-0.71547">
        <ele>165.20295715332</ele>
        <time>2016-06-08T13:20:24.000Z</time>
      </trkpt>
      <trkpt lat="46.9836" lon="-0.71545">
        <ele>165.42500305176</ele>
        <time>2016-06-08T13:20:28.000Z</time>
      </trkpt>
      <trkpt lat="46.98359" lon="-0.71544">
        <ele>164.28530883789</ele>
        <time>2016-06-08T13:20:48.000Z</time>
      </trkpt>
      <trkpt lat="46.98352" lon="-0.71534">
        <ele>160.98469543457</ele>
        <time>2016-06-08T13:20:51.000Z</time>
      </trkpt>
      <trkpt lat="46.98349" lon="-0.7153">
        <ele>159.83877563477</ele>
        <time>2016-06-08T13:20:53.000Z</time>
      </trkpt>
      <trkpt lat="46.98346" lon="-0.71524">
        <ele>161.00862121582</ele>
        <time>2016-06-08T13:20:56.000Z</time>
      </trkpt>
      <trkpt lat="46.98344" lon="-0.71519">
        <ele>159.83625793457</ele>
        <time>2016-06-08T13:20:58.000Z</time>
      </trkpt>
      <trkpt lat="46.98341" lon="-0.71512">
        <ele>161.13047790527</ele>
        <time>2016-06-08T13:21:01.000Z</time>
      </trkpt>
      <trkpt lat="46.98335" lon="-0.71503">
        <ele>163.30633544922</ele>
        <time>2016-06-08T13:21:04.000Z</time>
      </trkpt>
      <trkpt lat="46.98333" lon="-0.71497">
        <ele>163.89340209961</ele>
        <time>2016-06-08T13:21:07.000Z</time>
      </trkpt>
      <trkpt lat="46.98331" lon="-0.71493">
        <ele>164.38121032715</ele>
        <time>2016-06-08T13:21:09.000Z</time>
      </trkpt>
      <trkpt lat="46.98329" lon="-0.71493">
        <ele>165.11741638184</ele>
        <time>2016-06-08T13:21:12.000Z</time>
      </trkpt>
      <trkpt lat="46.98326" lon="-0.71485">
        <ele>165.07402038574</ele>
        <time>2016-06-08T13:21:15.000Z</time>
      </trkpt>
      <trkpt lat="46.9832" lon="-0.7148">
        <ele>166.27268981934</ele>
        <time>2016-06-08T13:21:18.000Z</time>
      </trkpt>
      <trkpt lat="46.98315" lon="-0.71473">
        <ele>166.171875</ele>
        <time>2016-06-08T13:21:21.000Z</time>
      </trkpt>
      <trkpt lat="46.98311" lon="-0.71468">
        <ele>166.37985229492</ele>
        <time>2016-06-08T13:21:26.000Z</time>
      </trkpt>
      <trkpt lat="46.98309" lon="-0.71465">
        <ele>165.33898925781</ele>
        <time>2016-06-08T13:21:28.000Z</time>
      </trkpt>
      <trkpt lat="46.98305" lon="-0.71464">
        <ele>164.04444885254</ele>
        <time>2016-06-08T13:21:31.000Z</time>
      </trkpt>
      <trkpt lat="46.98302" lon="-0.71463">
        <ele>162.8729095459</ele>
        <time>2016-06-08T13:21:33.000Z</time>
      </trkpt>
      <trkpt lat="46.98301" lon="-0.71462">
        <ele>162.32110595703</ele>
        <time>2016-06-08T13:21:36.000Z</time>
      </trkpt>
      <trkpt lat="46.98298" lon="-0.7146">
        <ele>162.65754699707</ele>
        <time>2016-06-08T13:21:39.000Z</time>
      </trkpt>
      <trkpt lat="46.98293" lon="-0.71455">
        <ele>166.11683654785</ele>
        <time>2016-06-08T13:21:43.000Z</time>
      </trkpt>
      <trkpt lat="46.9829" lon="-0.71445">
        <ele>168.45742797852</ele>
        <time>2016-06-08T13:21:46.000Z</time>
      </trkpt>
      <trkpt lat="46.98289" lon="-0.71442">
        <ele>169.28173828125</ele>
        <time>2016-06-08T13:21:48.000Z</time>
      </trkpt>
      <trkpt lat="46.98286" lon="-0.71441">
        <ele>169.39219665527</ele>
        <time>2016-06-08T13:21:50.000Z</time>
      </trkpt>
      <trkpt lat="46.98285" lon="-0.7144">
        <ele>169.58880615234</ele>
        <time>2016-06-08T13:21:53.000Z</time>
      </trkpt>
      <trkpt lat="46.98283" lon="-0.71437">
        <ele>169.88598632812</ele>
        <time>2016-06-08T13:21:55.000Z</time>
      </trkpt>
      <trkpt lat="46.98281" lon="-0.7143">
        <ele>169.08615112305</ele>
        <time>2016-06-08T13:21:58.000Z</time>
      </trkpt>
      <trkpt lat="46.98278" lon="-0.71425">
        <ele>168.00717163086</ele>
        <time>2016-06-08T13:22:00.000Z</time>
      </trkpt>
      <trkpt lat="46.98275" lon="-0.71422">
        <ele>166.16436767578</ele>
        <time>2016-06-08T13:22:02.000Z</time>
      </trkpt>
      <trkpt lat="46.98272" lon="-0.71415">
        <ele>166.62339782715</ele>
        <time>2016-06-08T13:22:05.000Z</time>
      </trkpt>
      <trkpt lat="46.98269" lon="-0.71409">
        <ele>168.38475036621</ele>
        <time>2016-06-08T13:22:09.000Z</time>
      </trkpt>
      <trkpt lat="46.98269" lon="-0.71405">
        <ele>166.8578338623</ele>
        <time>2016-06-08T13:22:12.000Z</time>
      </trkpt>
      <trkpt lat="46.98268" lon="-0.71405">
        <ele>165.48583984375</ele>
        <time>2016-06-08T13:22:17.000Z</time>
      </trkpt>
      <trkpt lat="46.98266" lon="-0.71404">
        <ele>165.52299499512</ele>
        <time>2016-06-08T13:22:20.000Z</time>
      </trkpt>
      <trkpt lat="46.98263" lon="-0.71401">
        <ele>166.66456604004</ele>
        <time>2016-06-08T13:22:24.000Z</time>
      </trkpt>
      <trkpt lat="46.98258" lon="-0.71397">
        <ele>168.73263549805</ele>
        <time>2016-06-08T13:22:27.000Z</time>
      </trkpt>
      <trkpt lat="46.98256" lon="-0.71394">
        <ele>168.62161254883</ele>
        <time>2016-06-08T13:22:29.000Z</time>
      </trkpt>
      <trkpt lat="46.98254" lon="-0.71391">
        <ele>169.70553588867</ele>
        <time>2016-06-08T13:22:32.000Z</time>
      </trkpt>
      <trkpt lat="46.98253" lon="-0.71389">
        <ele>169.2061920166</ele>
        <time>2016-06-08T13:22:35.000Z</time>
      </trkpt>
      <trkpt lat="46.98251" lon="-0.71387">
        <ele>168.62673950195</ele>
        <time>2016-06-08T13:22:38.000Z</time>
      </trkpt>
      <trkpt lat="46.98248" lon="-0.71384">
        <ele>168.82513427734</ele>
        <time>2016-06-08T13:22:40.000Z</time>
      </trkpt>
      <trkpt lat="46.98244" lon="-0.7138">
        <ele>169.41667175293</ele>
        <time>2016-06-08T13:22:42.000Z</time>
      </trkpt>
      <trkpt lat="46.98242" lon="-0.71378">
        <ele>169.54969787598</ele>
        <time>2016-06-08T13:22:45.000Z</time>
      </trkpt>
      <trkpt lat="46.9824" lon="-0.71378">
        <ele>167.92343139648</ele>
        <time>2016-06-08T13:22:47.000Z</time>
      </trkpt>
      <trkpt lat="46.98238" lon="-0.7138">
        <ele>165.71440124512</ele>
        <time>2016-06-08T13:22:50.000Z</time>
      </trkpt>
      <trkpt lat="46.98235" lon="-0.71379">
        <ele>165.53851318359</ele>
        <time>2016-06-08T13:22:53.000Z</time>
      </trkpt>
      <trkpt lat="46.9823" lon="-0.71376">
        <ele>165.13020324707</ele>
        <time>2016-06-08T13:22:55.000Z</time>
      </trkpt>
      <trkpt lat="46.98223" lon="-0.71369">
        <ele>166.71224975586</ele>
        <time>2016-06-08T13:22:58.000Z</time>
      </trkpt>
      <trkpt lat="46.9822" lon="-0.71366">
        <ele>167.39456176758</ele>
        <time>2016-06-08T13:23:01.000Z</time>
      </trkpt>
      <trkpt lat="46.98218" lon="-0.71365">
        <ele>167.03326416016</ele>
        <time>2016-06-08T13:23:03.000Z</time>
      </trkpt>
      <trkpt lat="46.98213" lon="-0.71361">
        <ele>165.85664367676</ele>
        <time>2016-06-08T13:23:05.000Z</time>
      </trkpt>
      <trkpt lat="46.98211" lon="-0.7136">
        <ele>164.91459655762</ele>
        <time>2016-06-08T13:23:07.000Z</time>
      </trkpt>
      <trkpt lat="46.98209" lon="-0.7136">
        <ele>164.16766357422</ele>
        <time>2016-06-08T13:23:10.000Z</time>
      </trkpt>
      <trkpt lat="46.98206" lon="-0.71357">
        <ele>164.03854370117</ele>
        <time>2016-06-08T13:23:13.000Z</time>
      </trkpt>
      <trkpt lat="46.98199" lon="-0.71348">
        <ele>165.36859130859</ele>
        <time>2016-06-08T13:23:16.000Z</time>
      </trkpt>
      <trkpt lat="46.98197" lon="-0.71347">
        <ele>165.47189331055</ele>
        <time>2016-06-08T13:23:18.000Z</time>
      </trkpt>
      <trkpt lat="46.98192" lon="-0.71345">
        <ele>166.72933959961</ele>
        <time>2016-06-08T13:23:21.000Z</time>
      </trkpt>
      <trkpt lat="46.9819" lon="-0.71343">
        <ele>164.31298828125</ele>
        <time>2016-06-08T13:23:24.000Z</time>
      </trkpt>
      <trkpt lat="46.9819" lon="-0.71341">
        <ele>163.63859558105</ele>
        <time>2016-06-08T13:23:27.000Z</time>
      </trkpt>
      <trkpt lat="46.98187" lon="-0.71338">
        <ele>163.74014282227</ele>
        <time>2016-06-08T13:23:30.000Z</time>
      </trkpt>
      <trkpt lat="46.98185" lon="-0.71335">
        <ele>162.67993164062</ele>
        <time>2016-06-08T13:23:33.000Z</time>
      </trkpt>
      <trkpt lat="46.98183" lon="-0.71333">
        <ele>161.89660644531</ele>
        <time>2016-06-08T13:23:35.000Z</time>
      </trkpt>
      <trkpt lat="46.98182" lon="-0.71332">
        <ele>161.8962097168</ele>
        <time>2016-06-08T13:23:38.000Z</time>
      </trkpt>
      <trkpt lat="46.9818" lon="-0.71333">
        <ele>161.84730529785</ele>
        <time>2016-06-08T13:23:43.000Z</time>
      </trkpt>
      <trkpt lat="46.98174" lon="-0.71331">
        <ele>162.03323364258</ele>
        <time>2016-06-08T13:23:46.000Z</time>
      </trkpt>
      <trkpt lat="46.98171" lon="-0.71327">
        <ele>160.66717529297</ele>
        <time>2016-06-08T13:23:48.000Z</time>
      </trkpt>
      <trkpt lat="46.98166" lon="-0.71322">
        <ele>159.68359375</ele>
        <time>2016-06-08T13:23:51.000Z</time>
      </trkpt>
      <trkpt lat="46.9816" lon="-0.71316">
        <ele>162.9334564209</ele>
        <time>2016-06-08T13:23:54.000Z</time>
      </trkpt>
      <trkpt lat="46.98156" lon="-0.7131">
        <ele>163.06965637207</ele>
        <time>2016-06-08T13:23:57.000Z</time>
      </trkpt>
      <trkpt lat="46.98155" lon="-0.71309">
        <ele>163.2131652832</ele>
        <time>2016-06-08T13:24:02.000Z</time>
      </trkpt>
      <trkpt lat="46.98154" lon="-0.71309">
        <ele>163.6452331543</ele>
        <time>2016-06-08T13:24:05.000Z</time>
      </trkpt>
      <trkpt lat="46.98153" lon="-0.71307">
        <ele>164.43098449707</ele>
        <time>2016-06-08T13:24:08.000Z</time>
      </trkpt>
      <trkpt lat="46.9815" lon="-0.71305">
        <ele>166.31925964355</ele>
        <time>2016-06-08T13:24:11.000Z</time>
      </trkpt>
      <trkpt lat="46.98148" lon="-0.71303">
        <ele>166.99340820312</ele>
        <time>2016-06-08T13:24:14.000Z</time>
      </trkpt>
      <trkpt lat="46.98138" lon="-0.71294">
        <ele>167.94985961914</ele>
        <time>2016-06-08T13:24:17.000Z</time>
      </trkpt>
      <trkpt lat="46.98122" lon="-0.7128">
        <ele>168.51637268066</ele>
        <time>2016-06-08T13:24:20.000Z</time>
      </trkpt>
      <trkpt lat="46.98113" lon="-0.71272">
        <ele>167.25643920898</ele>
        <time>2016-06-08T13:24:23.000Z</time>
      </trkpt>
      <trkpt lat="46.98109" lon="-0.71271">
        <ele>167.51139831543</ele>
        <time>2016-06-08T13:24:25.000Z</time>
      </trkpt>
      <trkpt lat="46.98108" lon="-0.71268">
        <ele>167.15573120117</ele>
        <time>2016-06-08T13:24:28.000Z</time>
      </trkpt>
      <trkpt lat="46.98105" lon="-0.71264">
        <ele>166.36920166016</ele>
        <time>2016-06-08T13:24:31.000Z</time>
      </trkpt>
      <trkpt lat="46.98103" lon="-0.7126">
        <ele>167.15544128418</ele>
        <time>2016-06-08T13:24:34.000Z</time>
      </trkpt>
      <trkpt lat="46.98103" lon="-0.71258">
        <ele>167.63801574707</ele>
        <time>2016-06-08T13:24:37.000Z</time>
      </trkpt>
      <trkpt lat="46.98102" lon="-0.71255">
        <ele>168.28005981445</ele>
        <time>2016-06-08T13:24:40.000Z</time>
      </trkpt>
      <trkpt lat="46.981" lon="-0.71254">
        <ele>168.42475891113</ele>
        <time>2016-06-08T13:24:44.000Z</time>
      </trkpt>
      <trkpt lat="46.98099" lon="-0.71252">
        <ele>167.25671386719</ele>
        <time>2016-06-08T13:24:47.000Z</time>
      </trkpt>
      <trkpt lat="46.98095" lon="-0.71247">
        <ele>167.94218444824</ele>
        <time>2016-06-08T13:24:50.000Z</time>
      </trkpt>
      <trkpt lat="46.98093" lon="-0.71244">
        <ele>168.76974487305</ele>
        <time>2016-06-08T13:24:52.000Z</time>
      </trkpt>
      <trkpt lat="46.98088" lon="-0.7124">
        <ele>171.32875061035</ele>
        <time>2016-06-08T13:24:54.000Z</time>
      </trkpt>
      <trkpt lat="46.98085" lon="-0.71236">
        <ele>172.04008483887</ele>
        <time>2016-06-08T13:24:56.000Z</time>
      </trkpt>
      <trkpt lat="46.98082" lon="-0.71234">
        <ele>172.7230682373</ele>
        <time>2016-06-08T13:24:59.000Z</time>
      </trkpt>
      <trkpt lat="46.9808" lon="-0.71232">
        <ele>172.6625213623</ele>
        <time>2016-06-08T13:25:02.000Z</time>
      </trkpt>
      <trkpt lat="46.98077" lon="-0.71228">
        <ele>172.1254119873</ele>
        <time>2016-06-08T13:25:05.000Z</time>
      </trkpt>
      <trkpt lat="46.98074" lon="-0.71225">
        <ele>172.68060302734</ele>
        <time>2016-06-08T13:25:07.000Z</time>
      </trkpt>
      <trkpt lat="46.98069" lon="-0.7122">
        <ele>172.52174377441</ele>
        <time>2016-06-08T13:25:10.000Z</time>
      </trkpt>
      <trkpt lat="46.98066" lon="-0.71213">
        <ele>172.52345275879</ele>
        <time>2016-06-08T13:25:12.000Z</time>
      </trkpt>
      <trkpt lat="46.98065" lon="-0.71208">
        <ele>172.76864624023</ele>
        <time>2016-06-08T13:25:14.000Z</time>
      </trkpt>
      <trkpt lat="46.98061" lon="-0.71203">
        <ele>174.01036071777</ele>
        <time>2016-06-08T13:25:17.000Z</time>
      </trkpt>
      <trkpt lat="46.98059" lon="-0.71199">
        <ele>174.78337097168</ele>
        <time>2016-06-08T13:25:19.000Z</time>
      </trkpt>
      <trkpt lat="46.98057" lon="-0.71196">
        <ele>174.43208312988</ele>
        <time>2016-06-08T13:25:21.000Z</time>
      </trkpt>
      <trkpt lat="46.98055" lon="-0.71185">
        <ele>174.02035522461</ele>
        <time>2016-06-08T13:25:24.000Z</time>
      </trkpt>
      <trkpt lat="46.98055" lon="-0.71183">
        <ele>174.74836730957</ele>
        <time>2016-06-08T13:25:26.000Z</time>
      </trkpt>
      <trkpt lat="46.98053" lon="-0.7118">
        <ele>175.84811401367</ele>
        <time>2016-06-08T13:25:29.000Z</time>
      </trkpt>
      <trkpt lat="46.98049" lon="-0.71178">
        <ele>175.47080993652</ele>
        <time>2016-06-08T13:25:32.000Z</time>
      </trkpt>
      <trkpt lat="46.98047" lon="-0.71176">
        <ele>173.33250427246</ele>
        <time>2016-06-08T13:25:34.000Z</time>
      </trkpt>
      <trkpt lat="46.98047" lon="-0.71172">
        <ele>172.05708312988</ele>
        <time>2016-06-08T13:25:38.000Z</time>
      </trkpt>
      <trkpt lat="46.98047" lon="-0.71171">
        <ele>170.58407592773</ele>
        <time>2016-06-08T13:25:47.000Z</time>
      </trkpt>
      <trkpt lat="46.98047" lon="-0.71171">
        <ele>173.95906066895</ele>
        <time>2016-06-08T13:26:07.000Z</time>
      </trkpt>
      <trkpt lat="46.98046" lon="-0.71168">
        <ele>170.32235717773</ele>
        <time>2016-06-08T13:26:15.000Z</time>
      </trkpt>
      <trkpt lat="46.98042" lon="-0.71164">
        <ele>169.68223571777</ele>
        <time>2016-06-08T13:26:18.000Z</time>
      </trkpt>
      <trkpt lat="46.98036" lon="-0.71159">
        <ele>169.3674621582</ele>
        <time>2016-06-08T13:26:20.000Z</time>
      </trkpt>
      <trkpt lat="46.98027" lon="-0.71154">
        <ele>170.46919250488</ele>
        <time>2016-06-08T13:26:23.000Z</time>
      </trkpt>
      <trkpt lat="46.9802" lon="-0.71149">
        <ele>170.26982116699</ele>
        <time>2016-06-08T13:26:26.000Z</time>
      </trkpt>
      <trkpt lat="46.98008" lon="-0.71137">
        <ele>167.57493591309</ele>
        <time>2016-06-08T13:26:29.000Z</time>
      </trkpt>
      <trkpt lat="46.98005" lon="-0.71134">
        <ele>166.79811096191</ele>
        <time>2016-06-08T13:26:31.000Z</time>
      </trkpt>
      <trkpt lat="46.97996" lon="-0.71127">
        <ele>163.95834350586</ele>
        <time>2016-06-08T13:26:34.000Z</time>
      </trkpt>
      <trkpt lat="46.97992" lon="-0.71123">
        <ele>162.20834350586</ele>
        <time>2016-06-08T13:26:36.000Z</time>
      </trkpt>
      <trkpt lat="46.9799" lon="-0.7112">
        <ele>161.69737243652</ele>
        <time>2016-06-08T13:26:39.000Z</time>
      </trkpt>
      <trkpt lat="46.97987" lon="-0.71117">
        <ele>160.50247192383</ele>
        <time>2016-06-08T13:26:41.000Z</time>
      </trkpt>
      <trkpt lat="46.97983" lon="-0.71113">
        <ele>160.18406677246</ele>
        <time>2016-06-08T13:26:44.000Z</time>
      </trkpt>
      <trkpt lat="46.97976" lon="-0.71108">
        <ele>160.34619140625</ele>
        <time>2016-06-08T13:26:47.000Z</time>
      </trkpt>
      <trkpt lat="46.97969" lon="-0.71104">
        <ele>162.07484436035</ele>
        <time>2016-06-08T13:26:50.000Z</time>
      </trkpt>
      <trkpt lat="46.97962" lon="-0.71101">
        <ele>163.5865020752</ele>
        <time>2016-06-08T13:26:53.000Z</time>
      </trkpt>
      <trkpt lat="46.97955" lon="-0.71099">
        <ele>165.96032714844</ele>
        <time>2016-06-08T13:26:56.000Z</time>
      </trkpt>
      <trkpt lat="46.97947" lon="-0.711">
        <ele>166.81109619141</ele>
        <time>2016-06-08T13:26:59.000Z</time>
      </trkpt>
      <trkpt lat="46.97945" lon="-0.711">
        <ele>166.58145141602</ele>
        <time>2016-06-08T13:27:02.000Z</time>
      </trkpt>
      <trkpt lat="46.97943" lon="-0.71102">
        <ele>165.18760681152</ele>
        <time>2016-06-08T13:27:05.000Z</time>
      </trkpt>
      <trkpt lat="46.97942" lon="-0.71101">
        <ele>164.63667297363</ele>
        <time>2016-06-08T13:27:07.000Z</time>
      </trkpt>
      <trkpt lat="46.97938" lon="-0.711">
        <ele>164.7360534668</ele>
        <time>2016-06-08T13:27:09.000Z</time>
      </trkpt>
      <trkpt lat="46.97935" lon="-0.711">
        <ele>166.37393188477</ele>
        <time>2016-06-08T13:27:12.000Z</time>
      </trkpt>
      <trkpt lat="46.97928" lon="-0.71099">
        <ele>165.59873962402</ele>
        <time>2016-06-08T13:27:15.000Z</time>
      </trkpt>
      <trkpt lat="46.97926" lon="-0.71099">
        <ele>166.56030273438</ele>
        <time>2016-06-08T13:27:17.000Z</time>
      </trkpt>
      <trkpt lat="46.97924" lon="-0.711">
        <ele>167.40649414062</ele>
        <time>2016-06-08T13:27:19.000Z</time>
      </trkpt>
      <trkpt lat="46.97923" lon="-0.71102">
        <ele>167.80882263184</ele>
        <time>2016-06-08T13:27:22.000Z</time>
      </trkpt>
      <trkpt lat="46.97921" lon="-0.71104">
        <ele>167.93106079102</ele>
        <time>2016-06-08T13:27:25.000Z</time>
      </trkpt>
      <trkpt lat="46.97918" lon="-0.71103">
        <ele>168.35514831543</ele>
        <time>2016-06-08T13:27:27.000Z</time>
      </trkpt>
      <trkpt lat="46.97914" lon="-0.71102">
        <ele>168.15014648438</ele>
        <time>2016-06-08T13:27:29.000Z</time>
      </trkpt>
      <trkpt lat="46.97909" lon="-0.71101">
        <ele>169.53698730469</ele>
        <time>2016-06-08T13:27:31.000Z</time>
      </trkpt>
      <trkpt lat="46.97905" lon="-0.711">
        <ele>170.32276916504</ele>
        <time>2016-06-08T13:27:34.000Z</time>
      </trkpt>
      <trkpt lat="46.97898" lon="-0.71099">
        <ele>170.16561889648</ele>
        <time>2016-06-08T13:27:38.000Z</time>
      </trkpt>
      <trkpt lat="46.97892" lon="-0.71095">
        <ele>169.73028564453</ele>
        <time>2016-06-08T13:27:41.000Z</time>
      </trkpt>
      <trkpt lat="46.97886" lon="-0.71094">
        <ele>169.1226348877</ele>
        <time>2016-06-08T13:27:44.000Z</time>
      </trkpt>
      <trkpt lat="46.97881" lon="-0.71093">
        <ele>169.04814147949</ele>
        <time>2016-06-08T13:27:47.000Z</time>
      </trkpt>
      <trkpt lat="46.97876" lon="-0.71091">
        <ele>170.4969329834</ele>
        <time>2016-06-08T13:27:50.000Z</time>
      </trkpt>
      <trkpt lat="46.97873" lon="-0.71091">
        <ele>171.98085021973</ele>
        <time>2016-06-08T13:27:52.000Z</time>
      </trkpt>
      <trkpt lat="46.9787" lon="-0.71091">
        <ele>173.95014953613</ele>
        <time>2016-06-08T13:27:55.000Z</time>
      </trkpt>
      <trkpt lat="46.97864" lon="-0.71091">
        <ele>176.81257629395</ele>
        <time>2016-06-08T13:27:58.000Z</time>
      </trkpt>
      <trkpt lat="46.97861" lon="-0.71095">
        <ele>178.52810668945</ele>
        <time>2016-06-08T13:28:01.000Z</time>
      </trkpt>
      <trkpt lat="46.97859" lon="-0.71098">
        <ele>178.23432922363</ele>
        <time>2016-06-08T13:28:04.000Z</time>
      </trkpt>
      <trkpt lat="46.97858" lon="-0.71097">
        <ele>177.48954772949</ele>
        <time>2016-06-08T13:28:07.000Z</time>
      </trkpt>
      <trkpt lat="46.97855" lon="-0.71096">
        <ele>176.73823547363</ele>
        <time>2016-06-08T13:28:09.000Z</time>
      </trkpt>
      <trkpt lat="46.97848" lon="-0.71096">
        <ele>175.68270874023</ele>
        <time>2016-06-08T13:28:12.000Z</time>
      </trkpt>
      <trkpt lat="46.97842" lon="-0.71096">
        <ele>175.74317932129</ele>
        <time>2016-06-08T13:28:15.000Z</time>
      </trkpt>
      <trkpt lat="46.97837" lon="-0.71095">
        <ele>174.55783081055</ele>
        <time>2016-06-08T13:28:17.000Z</time>
      </trkpt>
      <trkpt lat="46.97834" lon="-0.71093">
        <ele>174.60549926758</ele>
        <time>2016-06-08T13:28:20.000Z</time>
      </trkpt>
      <trkpt lat="46.97833" lon="-0.71091">
        <ele>173.92808532715</ele>
        <time>2016-06-08T13:28:22.000Z</time>
      </trkpt>
      <trkpt lat="46.97832" lon="-0.7109">
        <ele>174.11753845215</ele>
        <time>2016-06-08T13:28:24.000Z</time>
      </trkpt>
      <trkpt lat="46.97829" lon="-0.71088">
        <ele>174.39555358887</ele>
        <time>2016-06-08T13:28:27.000Z</time>
      </trkpt>
      <trkpt lat="46.97828" lon="-0.71088">
        <ele>173.58277893066</ele>
        <time>2016-06-08T13:28:30.000Z</time>
      </trkpt>
      <trkpt lat="46.97825" lon="-0.71087">
        <ele>173.6971282959</ele>
        <time>2016-06-08T13:28:33.000Z</time>
      </trkpt>
      <trkpt lat="46.97821" lon="-0.71082">
        <ele>175.20399475098</ele>
        <time>2016-06-08T13:28:36.000Z</time>
      </trkpt>
      <trkpt lat="46.97821" lon="-0.71081">
        <ele>175.85406494141</ele>
        <time>2016-06-08T13:28:38.000Z</time>
      </trkpt>
      <trkpt lat="46.97821" lon="-0.71078">
        <ele>175.63166809082</ele>
        <time>2016-06-08T13:28:41.000Z</time>
      </trkpt>
      <trkpt lat="46.97818" lon="-0.71074">
        <ele>176.31594848633</ele>
        <time>2016-06-08T13:28:44.000Z</time>
      </trkpt>
      <trkpt lat="46.97816" lon="-0.71069">
        <ele>177.08267211914</ele>
        <time>2016-06-08T13:28:47.000Z</time>
      </trkpt>
      <trkpt lat="46.97813" lon="-0.71067">
        <ele>177.58457946777</ele>
        <time>2016-06-08T13:28:49.000Z</time>
      </trkpt>
      <trkpt lat="46.97807" lon="-0.71062">
        <ele>177.26715087891</ele>
        <time>2016-06-08T13:28:51.000Z</time>
      </trkpt>
      <trkpt lat="46.97803" lon="-0.71055">
        <ele>176.22245788574</ele>
        <time>2016-06-08T13:28:55.000Z</time>
      </trkpt>
      <trkpt lat="46.978" lon="-0.71051">
        <ele>175.07987976074</ele>
        <time>2016-06-08T13:28:58.000Z</time>
      </trkpt>
      <trkpt lat="46.97799" lon="-0.71046">
        <ele>174.77465820312</ele>
        <time>2016-06-08T13:29:00.000Z</time>
      </trkpt>
      <trkpt lat="46.978" lon="-0.7104">
        <ele>173.21980285645</ele>
        <time>2016-06-08T13:29:03.000Z</time>
      </trkpt>
      <trkpt lat="46.978" lon="-0.71035">
        <ele>172.25987243652</ele>
        <time>2016-06-08T13:29:05.000Z</time>
      </trkpt>
      <trkpt lat="46.97798" lon="-0.71031">
        <ele>170.96105957031</ele>
        <time>2016-06-08T13:29:08.000Z</time>
      </trkpt>
      <trkpt lat="46.97794" lon="-0.71028">
        <ele>170.08171081543</ele>
        <time>2016-06-08T13:29:10.000Z</time>
      </trkpt>
      <trkpt lat="46.97792" lon="-0.71024">
        <ele>170.81793212891</ele>
        <time>2016-06-08T13:29:13.000Z</time>
      </trkpt>
      <trkpt lat="46.9779" lon="-0.71022">
        <ele>171.74220275879</ele>
        <time>2016-06-08T13:29:15.000Z</time>
      </trkpt>
      <trkpt lat="46.97787" lon="-0.71021">
        <ele>172.68733215332</ele>
        <time>2016-06-08T13:29:18.000Z</time>
      </trkpt>
      <trkpt lat="46.97786" lon="-0.7102">
        <ele>171.78588867188</ele>
        <time>2016-06-08T13:29:20.000Z</time>
      </trkpt>
      <trkpt lat="46.97783" lon="-0.71019">
        <ele>171.68576049805</ele>
        <time>2016-06-08T13:29:23.000Z</time>
      </trkpt>
      <trkpt lat="46.97779" lon="-0.71019">
        <ele>172.33779907227</ele>
        <time>2016-06-08T13:29:25.000Z</time>
      </trkpt>
      <trkpt lat="46.97773" lon="-0.71016">
        <ele>172.57086181641</ele>
        <time>2016-06-08T13:29:27.000Z</time>
      </trkpt>
      <trkpt lat="46.97769" lon="-0.71013">
        <ele>174.1739654541</ele>
        <time>2016-06-08T13:29:30.000Z</time>
      </trkpt>
      <trkpt lat="46.97765" lon="-0.71012">
        <ele>174.15536499023</ele>
        <time>2016-06-08T13:29:32.000Z</time>
      </trkpt>
      <trkpt lat="46.97761" lon="-0.71011">
        <ele>173.77787780762</ele>
        <time>2016-06-08T13:29:34.000Z</time>
      </trkpt>
      <trkpt lat="46.97757" lon="-0.7101">
        <ele>174.32997131348</ele>
        <time>2016-06-08T13:29:38.000Z</time>
      </trkpt>
      <trkpt lat="46.97754" lon="-0.71009">
        <ele>174.24842834473</ele>
        <time>2016-06-08T13:29:40.000Z</time>
      </trkpt>
      <trkpt lat="46.97747" lon="-0.71006">
        <ele>175.19926452637</ele>
        <time>2016-06-08T13:29:43.000Z</time>
      </trkpt>
      <trkpt lat="46.97741" lon="-0.71003">
        <ele>174.75112915039</ele>
        <time>2016-06-08T13:29:46.000Z</time>
      </trkpt>
      <trkpt lat="46.97738" lon="-0.71003">
        <ele>173.4885559082</ele>
        <time>2016-06-08T13:29:48.000Z</time>
      </trkpt>
      <trkpt lat="46.97731" lon="-0.71">
        <ele>172.6526184082</ele>
        <time>2016-06-08T13:29:52.000Z</time>
      </trkpt>
      <trkpt lat="46.97726" lon="-0.71">
        <ele>175.12142944336</ele>
        <time>2016-06-08T13:29:55.000Z</time>
      </trkpt>
      <trkpt lat="46.97726" lon="-0.71002">
        <ele>174.83596801758</ele>
        <time>2016-06-08T13:29:57.000Z</time>
      </trkpt>
      <trkpt lat="46.97725" lon="-0.71002">
        <ele>174.7290802002</ele>
        <time>2016-06-08T13:30:03.000Z</time>
      </trkpt>
      <trkpt lat="46.97723" lon="-0.71001">
        <ele>174.7134552002</ele>
        <time>2016-06-08T13:30:05.000Z</time>
      </trkpt>
      <trkpt lat="46.9772" lon="-0.71001">
        <ele>175.23382568359</ele>
        <time>2016-06-08T13:30:07.000Z</time>
      </trkpt>
      <trkpt lat="46.97713" lon="-0.70999">
        <ele>175.22203063965</ele>
        <time>2016-06-08T13:30:10.000Z</time>
      </trkpt>
      <trkpt lat="46.9771" lon="-0.70998">
        <ele>176.86517333984</ele>
        <time>2016-06-08T13:30:13.000Z</time>
      </trkpt>
      <trkpt lat="46.97708" lon="-0.70998">
        <ele>178.14756774902</ele>
        <time>2016-06-08T13:30:15.000Z</time>
      </trkpt>
      <trkpt lat="46.97702" lon="-0.70998">
        <ele>178.88024902344</ele>
        <time>2016-06-08T13:30:18.000Z</time>
      </trkpt>
      <trkpt lat="46.97696" lon="-0.70995">
        <ele>180.38395690918</ele>
        <time>2016-06-08T13:30:21.000Z</time>
      </trkpt>
      <trkpt lat="46.97694" lon="-0.70996">
        <ele>180.82313537598</ele>
        <time>2016-06-08T13:30:24.000Z</time>
      </trkpt>
      <trkpt lat="46.97693" lon="-0.70996">
        <ele>181.21377563477</ele>
        <time>2016-06-08T13:30:26.000Z</time>
      </trkpt>
      <trkpt lat="46.97691" lon="-0.70997">
        <ele>180.50944519043</ele>
        <time>2016-06-08T13:30:28.000Z</time>
      </trkpt>
      <trkpt lat="46.97688" lon="-0.70997">
        <ele>179.20399475098</ele>
        <time>2016-06-08T13:30:31.000Z</time>
      </trkpt>
      <trkpt lat="46.97685" lon="-0.70997">
        <ele>179.00708007812</ele>
        <time>2016-06-08T13:30:33.000Z</time>
      </trkpt>
      <trkpt lat="46.97684" lon="-0.70997">
        <ele>179.48684692383</ele>
        <time>2016-06-08T13:30:36.000Z</time>
      </trkpt>
      <trkpt lat="46.97683" lon="-0.70996">
        <ele>179.78691101074</ele>
        <time>2016-06-08T13:30:40.000Z</time>
      </trkpt>
      <trkpt lat="46.97681" lon="-0.70995">
        <ele>180.28973388672</ele>
        <time>2016-06-08T13:30:43.000Z</time>
      </trkpt>
      <trkpt lat="46.97681" lon="-0.70994">
        <ele>180.5970916748</ele>
        <time>2016-06-08T13:30:47.000Z</time>
      </trkpt>
      <trkpt lat="46.97678" lon="-0.70993">
        <ele>180.97479248047</ele>
        <time>2016-06-08T13:30:50.000Z</time>
      </trkpt>
      <trkpt lat="46.97676" lon="-0.70992">
        <ele>181.35153198242</ele>
        <time>2016-06-08T13:30:57.000Z</time>
      </trkpt>
      <trkpt lat="46.97673" lon="-0.7099">
        <ele>181.79385375977</ele>
        <time>2016-06-08T13:30:59.000Z</time>
      </trkpt>
      <trkpt lat="46.97668" lon="-0.70986">
        <ele>181.74870300293</ele>
        <time>2016-06-08T13:31:02.000Z</time>
      </trkpt>
      <trkpt lat="46.97664" lon="-0.70982">
        <ele>180.4727935791</ele>
        <time>2016-06-08T13:31:04.000Z</time>
      </trkpt>
      <trkpt lat="46.9766" lon="-0.70976">
        <ele>179.24147033691</ele>
        <time>2016-06-08T13:31:07.000Z</time>
      </trkpt>
      <trkpt lat="46.9765" lon="-0.7097">
        <ele>178.42993164062</ele>
        <time>2016-06-08T13:31:10.000Z</time>
      </trkpt>
      <trkpt lat="46.97644" lon="-0.70963">
        <ele>179.12782287598</ele>
        <time>2016-06-08T13:31:13.000Z</time>
      </trkpt>
      <trkpt lat="46.97641" lon="-0.70959">
        <ele>180.56979370117</ele>
        <time>2016-06-08T13:31:17.000Z</time>
      </trkpt>
      <trkpt lat="46.97637" lon="-0.70955">
        <ele>181.07867431641</ele>
        <time>2016-06-08T13:31:20.000Z</time>
      </trkpt>
      <trkpt lat="46.97634" lon="-0.70953">
        <ele>181.3916015625</ele>
        <time>2016-06-08T13:31:22.000Z</time>
      </trkpt>
      <trkpt lat="46.9763" lon="-0.70949">
        <ele>182.1830291748</ele>
        <time>2016-06-08T13:31:24.000Z</time>
      </trkpt>
      <trkpt lat="46.97622" lon="-0.70941">
        <ele>181.01574707031</ele>
        <time>2016-06-08T13:31:27.000Z</time>
      </trkpt>
      <trkpt lat="46.97618" lon="-0.70939">
        <ele>181.02288818359</ele>
        <time>2016-06-08T13:31:29.000Z</time>
      </trkpt>
      <trkpt lat="46.97617" lon="-0.70939">
        <ele>181.31965637207</ele>
        <time>2016-06-08T13:31:31.000Z</time>
      </trkpt>
      <trkpt lat="46.97614" lon="-0.70936">
        <ele>182.513671875</ele>
        <time>2016-06-08T13:31:34.000Z</time>
      </trkpt>
      <trkpt lat="46.97608" lon="-0.70931">
        <ele>183.38778686523</ele>
        <time>2016-06-08T13:31:37.000Z</time>
      </trkpt>
      <trkpt lat="46.97605" lon="-0.70929">
        <ele>183.8399810791</ele>
        <time>2016-06-08T13:31:39.000Z</time>
      </trkpt>
      <trkpt lat="46.97599" lon="-0.70923">
        <ele>182.48196411133</ele>
        <time>2016-06-08T13:31:42.000Z</time>
      </trkpt>
      <trkpt lat="46.97597" lon="-0.7092">
        <ele>183.14263916016</ele>
        <time>2016-06-08T13:31:46.000Z</time>
      </trkpt>
      <trkpt lat="46.97595" lon="-0.70917">
        <ele>183.39093017578</ele>
        <time>2016-06-08T13:31:48.000Z</time>
      </trkpt>
      <trkpt lat="46.97594" lon="-0.70913">
        <ele>183.47883605957</ele>
        <time>2016-06-08T13:31:51.000Z</time>
      </trkpt>
      <trkpt lat="46.9759" lon="-0.7091">
        <ele>184.00482177734</ele>
        <time>2016-06-08T13:31:54.000Z</time>
      </trkpt>
      <trkpt lat="46.97586" lon="-0.70908">
        <ele>185.07109069824</ele>
        <time>2016-06-08T13:31:56.000Z</time>
      </trkpt>
      <trkpt lat="46.97585" lon="-0.70906">
        <ele>186.29058837891</ele>
        <time>2016-06-08T13:31:58.000Z</time>
      </trkpt>
      <trkpt lat="46.9758" lon="-0.70899">
        <ele>185.69209289551</ele>
        <time>2016-06-08T13:32:02.000Z</time>
      </trkpt>
      <trkpt lat="46.97577" lon="-0.70897">
        <ele>184.79188537598</ele>
        <time>2016-06-08T13:32:05.000Z</time>
      </trkpt>
      <trkpt lat="46.97576" lon="-0.70894">
        <ele>183.53186035156</ele>
        <time>2016-06-08T13:32:07.000Z</time>
      </trkpt>
      <trkpt lat="46.97574" lon="-0.70886">
        <ele>181.89045715332</ele>
        <time>2016-06-08T13:32:10.000Z</time>
      </trkpt>
      <trkpt lat="46.9757" lon="-0.70881">
        <ele>181.07174682617</ele>
        <time>2016-06-08T13:32:13.000Z</time>
      </trkpt>
      <trkpt lat="46.97568" lon="-0.7088">
        <ele>181.3568572998</ele>
        <time>2016-06-08T13:32:15.000Z</time>
      </trkpt>
      <trkpt lat="46.97568" lon="-0.70877">
        <ele>181.21792602539</ele>
        <time>2016-06-08T13:32:17.000Z</time>
      </trkpt>
      <trkpt lat="46.97565" lon="-0.70872">
        <ele>181.64985656738</ele>
        <time>2016-06-08T13:32:19.000Z</time>
      </trkpt>
      <trkpt lat="46.97564" lon="-0.70867">
        <ele>181.85049438477</ele>
        <time>2016-06-08T13:32:21.000Z</time>
      </trkpt>
      <trkpt lat="46.97562" lon="-0.70865">
        <ele>182.65310668945</ele>
        <time>2016-06-08T13:32:24.000Z</time>
      </trkpt>
      <trkpt lat="46.97558" lon="-0.70863">
        <ele>181.76232910156</ele>
        <time>2016-06-08T13:32:26.000Z</time>
      </trkpt>
      <trkpt lat="46.97556" lon="-0.70862">
        <ele>181.84344482422</ele>
        <time>2016-06-08T13:32:28.000Z</time>
      </trkpt>
      <trkpt lat="46.97552" lon="-0.70857">
        <ele>182.37457275391</ele>
        <time>2016-06-08T13:32:31.000Z</time>
      </trkpt>
      <trkpt lat="46.97551" lon="-0.70853">
        <ele>181.63917541504</ele>
        <time>2016-06-08T13:32:33.000Z</time>
      </trkpt>
      <trkpt lat="46.9755" lon="-0.70849">
        <ele>181.27018737793</ele>
        <time>2016-06-08T13:32:35.000Z</time>
      </trkpt>
      <trkpt lat="46.97549" lon="-0.70838">
        <ele>180.41511535645</ele>
        <time>2016-06-08T13:32:38.000Z</time>
      </trkpt>
      <trkpt lat="46.97546" lon="-0.7084">
        <ele>177.81538391113</ele>
        <time>2016-06-08T13:32:41.000Z</time>
      </trkpt>
      <trkpt lat="46.97547" lon="-0.70841">
        <ele>176.20761108398</ele>
        <time>2016-06-08T13:32:47.000Z</time>
      </trkpt>
      <trkpt lat="46.97544" lon="-0.7084">
        <ele>176.41830444336</ele>
        <time>2016-06-08T13:32:49.000Z</time>
      </trkpt>
      <trkpt lat="46.97543" lon="-0.70837">
        <ele>176.10026550293</ele>
        <time>2016-06-08T13:32:51.000Z</time>
      </trkpt>
      <trkpt lat="46.9754" lon="-0.70831">
        <ele>176.58659362793</ele>
        <time>2016-06-08T13:32:54.000Z</time>
      </trkpt>
      <trkpt lat="46.97538" lon="-0.70828">
        <ele>175.76486206055</ele>
        <time>2016-06-08T13:32:56.000Z</time>
      </trkpt>
      <trkpt lat="46.97538" lon="-0.70825">
        <ele>174.97647094727</ele>
        <time>2016-06-08T13:32:59.000Z</time>
      </trkpt>
      <trkpt lat="46.97532" lon="-0.70817">
        <ele>174.6568145752</ele>
        <time>2016-06-08T13:33:03.000Z</time>
      </trkpt>
      <trkpt lat="46.97522" lon="-0.70804">
        <ele>175.66485595703</ele>
        <time>2016-06-08T13:33:06.000Z</time>
      </trkpt>
      <trkpt lat="46.97515" lon="-0.70799">
        <ele>175.62506103516</ele>
        <time>2016-06-08T13:33:09.000Z</time>
      </trkpt>
      <trkpt lat="46.97512" lon="-0.70793">
        <ele>175.20094299316</ele>
        <time>2016-06-08T13:33:12.000Z</time>
      </trkpt>
      <trkpt lat="46.97511" lon="-0.70785">
        <ele>175.47358703613</ele>
        <time>2016-06-08T13:33:15.000Z</time>
      </trkpt>
      <trkpt lat="46.97512" lon="-0.70782">
        <ele>174.69264221191</ele>
        <time>2016-06-08T13:33:18.000Z</time>
      </trkpt>
      <trkpt lat="46.97513" lon="-0.70782">
        <ele>174.26890563965</ele>
        <time>2016-06-08T13:33:20.000Z</time>
      </trkpt>
      <trkpt lat="46.97515" lon="-0.70782">
        <ele>174.41032409668</ele>
        <time>2016-06-08T13:33:23.000Z</time>
      </trkpt>
      <trkpt lat="46.97514" lon="-0.7078">
        <ele>174.00706481934</ele>
        <time>2016-06-08T13:33:26.000Z</time>
      </trkpt>
      <trkpt lat="46.97512" lon="-0.70776">
        <ele>172.99993896484</ele>
        <time>2016-06-08T13:33:29.000Z</time>
      </trkpt>
      <trkpt lat="46.97511" lon="-0.70774">
        <ele>172.70169067383</ele>
        <time>2016-06-08T13:33:31.000Z</time>
      </trkpt>
      <trkpt lat="46.97508" lon="-0.70769">
        <ele>171.90704345703</ele>
        <time>2016-06-08T13:33:34.000Z</time>
      </trkpt>
      <trkpt lat="46.97505" lon="-0.70761">
        <ele>168.89872741699</ele>
        <time>2016-06-08T13:33:37.000Z</time>
      </trkpt>
      <trkpt lat="46.97496" lon="-0.70754">
        <ele>170.19264221191</ele>
        <time>2016-06-08T13:33:40.000Z</time>
      </trkpt>
      <trkpt lat="46.97492" lon="-0.70751">
        <ele>171.4216003418</ele>
        <time>2016-06-08T13:33:43.000Z</time>
      </trkpt>
      <trkpt lat="46.9749" lon="-0.70746">
        <ele>172.00650024414</ele>
        <time>2016-06-08T13:33:45.000Z</time>
      </trkpt>
      <trkpt lat="46.97488" lon="-0.7074">
        <ele>171.26898193359</ele>
        <time>2016-06-08T13:33:48.000Z</time>
      </trkpt>
      <trkpt lat="46.97485" lon="-0.70736">
        <ele>170.44483947754</ele>
        <time>2016-06-08T13:33:52.000Z</time>
      </trkpt>
      <trkpt lat="46.97484" lon="-0.70735">
        <ele>170.48272705078</ele>
        <time>2016-06-08T13:33:54.000Z</time>
      </trkpt>
      <trkpt lat="46.97483" lon="-0.70732">
        <ele>169.62605285645</ele>
        <time>2016-06-08T13:33:56.000Z</time>
      </trkpt>
      <trkpt lat="46.9748" lon="-0.70727">
        <ele>169.41741943359</ele>
        <time>2016-06-08T13:33:59.000Z</time>
      </trkpt>
      <trkpt lat="46.97476" lon="-0.7072">
        <ele>168.27583312988</ele>
        <time>2016-06-08T13:34:02.000Z</time>
      </trkpt>
      <trkpt lat="46.9747" lon="-0.70714">
        <ele>168.41586303711</ele>
        <time>2016-06-08T13:34:05.000Z</time>
      </trkpt>
      <trkpt lat="46.97462" lon="-0.70709">
        <ele>167.44227600098</ele>
        <time>2016-06-08T13:34:08.000Z</time>
      </trkpt>
      <trkpt lat="46.97458" lon="-0.70704">
        <ele>168.45866394043</ele>
        <time>2016-06-08T13:34:11.000Z</time>
      </trkpt>
      <trkpt lat="46.97457" lon="-0.70698">
        <ele>169.50274658203</ele>
        <time>2016-06-08T13:34:16.000Z</time>
      </trkpt>
      <trkpt lat="46.97451" lon="-0.70684">
        <ele>170.12777709961</ele>
        <time>2016-06-08T13:34:20.000Z</time>
      </trkpt>
      <trkpt lat="46.97446" lon="-0.70683">
        <ele>170.53718566895</ele>
        <time>2016-06-08T13:34:22.000Z</time>
      </trkpt>
      <trkpt lat="46.97445" lon="-0.70682">
        <ele>171.74519348145</ele>
        <time>2016-06-08T13:34:25.000Z</time>
      </trkpt>
      <trkpt lat="46.97441" lon="-0.70676">
        <ele>173.29582214355</ele>
        <time>2016-06-08T13:34:28.000Z</time>
      </trkpt>
      <trkpt lat="46.97441" lon="-0.70671">
        <ele>173.71450805664</ele>
        <time>2016-06-08T13:34:30.000Z</time>
      </trkpt>
      <trkpt lat="46.9744" lon="-0.70666">
        <ele>174.31059265137</ele>
        <time>2016-06-08T13:34:32.000Z</time>
      </trkpt>
      <trkpt lat="46.97436" lon="-0.70662">
        <ele>176.03115844727</ele>
        <time>2016-06-08T13:34:35.000Z</time>
      </trkpt>
      <trkpt lat="46.97435" lon="-0.7066">
        <ele>176.04093933105</ele>
        <time>2016-06-08T13:34:38.000Z</time>
      </trkpt>
      <trkpt lat="46.9743" lon="-0.70655">
        <ele>174.87303161621</ele>
        <time>2016-06-08T13:34:41.000Z</time>
      </trkpt>
      <trkpt lat="46.97427" lon="-0.70651">
        <ele>174.92248535156</ele>
        <time>2016-06-08T13:34:44.000Z</time>
      </trkpt>
      <trkpt lat="46.97425" lon="-0.70647">
        <ele>175.55757141113</ele>
        <time>2016-06-08T13:34:47.000Z</time>
      </trkpt>
      <trkpt lat="46.97423" lon="-0.70645">
        <ele>174.47758483887</ele>
        <time>2016-06-08T13:34:49.000Z</time>
      </trkpt>
      <trkpt lat="46.97417" lon="-0.70638">
        <ele>172.49249267578</ele>
        <time>2016-06-08T13:34:53.000Z</time>
      </trkpt>
      <trkpt lat="46.97414" lon="-0.70631">
        <ele>172.36228942871</ele>
        <time>2016-06-08T13:34:56.000Z</time>
      </trkpt>
      <trkpt lat="46.97411" lon="-0.70625">
        <ele>173.8904876709</ele>
        <time>2016-06-08T13:34:59.000Z</time>
      </trkpt>
      <trkpt lat="46.9741" lon="-0.70622">
        <ele>174.55659484863</ele>
        <time>2016-06-08T13:35:02.000Z</time>
      </trkpt>
      <trkpt lat="46.97409" lon="-0.70618">
        <ele>175.71409606934</ele>
        <time>2016-06-08T13:35:05.000Z</time>
      </trkpt>
      <trkpt lat="46.97404" lon="-0.70613">
        <ele>176.2147064209</ele>
        <time>2016-06-08T13:35:08.000Z</time>
      </trkpt>
      <trkpt lat="46.97398" lon="-0.70612">
        <ele>178.5178527832</ele>
        <time>2016-06-08T13:35:11.000Z</time>
      </trkpt>
      <trkpt lat="46.97393" lon="-0.7061">
        <ele>177.77217102051</ele>
        <time>2016-06-08T13:35:13.000Z</time>
      </trkpt>
      <trkpt lat="46.97387" lon="-0.70602">
        <ele>176.56161499023</ele>
        <time>2016-06-08T13:35:16.000Z</time>
      </trkpt>
      <trkpt lat="46.97386" lon="-0.70597">
        <ele>175.90089416504</ele>
        <time>2016-06-08T13:35:18.000Z</time>
      </trkpt>
      <trkpt lat="46.97387" lon="-0.70595">
        <ele>176.21153259277</ele>
        <time>2016-06-08T13:35:20.000Z</time>
      </trkpt>
      <trkpt lat="46.97385" lon="-0.70587">
        <ele>176.86828613281</ele>
        <time>2016-06-08T13:35:23.000Z</time>
      </trkpt>
      <trkpt lat="46.97384" lon="-0.70584">
        <ele>176.74491882324</ele>
        <time>2016-06-08T13:35:25.000Z</time>
      </trkpt>
      <trkpt lat="46.97383" lon="-0.70579">
        <ele>176.66366577148</ele>
        <time>2016-06-08T13:35:28.000Z</time>
      </trkpt>
      <trkpt lat="46.9738" lon="-0.70571">
        <ele>176.96716308594</ele>
        <time>2016-06-08T13:35:31.000Z</time>
      </trkpt>
      <trkpt lat="46.97376" lon="-0.70569">
        <ele>177.64010620117</ele>
        <time>2016-06-08T13:35:34.000Z</time>
      </trkpt>
      <trkpt lat="46.97367" lon="-0.70563">
        <ele>179.00570678711</ele>
        <time>2016-06-08T13:35:37.000Z</time>
      </trkpt>
      <trkpt lat="46.97364" lon="-0.7056">
        <ele>179.07347106934</ele>
        <time>2016-06-08T13:35:40.000Z</time>
      </trkpt>
      <trkpt lat="46.97366" lon="-0.70556">
        <ele>178.1676940918</ele>
        <time>2016-06-08T13:35:43.000Z</time>
      </trkpt>
      <trkpt lat="46.9737" lon="-0.70558">
        <ele>176.98461914062</ele>
        <time>2016-06-08T13:35:46.000Z</time>
      </trkpt>
      <trkpt lat="46.97371" lon="-0.7056">
        <ele>176.96800231934</ele>
        <time>2016-06-08T13:35:49.000Z</time>
      </trkpt>
      <trkpt lat="46.97369" lon="-0.70558">
        <ele>175.65138244629</ele>
        <time>2016-06-08T13:35:54.000Z</time>
      </trkpt>
      <trkpt lat="46.97367" lon="-0.70556">
        <ele>174.01173400879</ele>
        <time>2016-06-08T13:35:58.000Z</time>
      </trkpt>
      <trkpt lat="46.97367" lon="-0.70554">
        <ele>176.1197052002</ele>
        <time>2016-06-08T13:36:01.000Z</time>
      </trkpt>
      <trkpt lat="46.97368" lon="-0.70553">
        <ele>177.41865539551</ele>
        <time>2016-06-08T13:36:06.000Z</time>
      </trkpt>
      <trkpt lat="46.97369" lon="-0.70553">
        <ele>178.96907043457</ele>
        <time>2016-06-08T13:36:12.000Z</time>
      </trkpt>
      <trkpt lat="46.97371" lon="-0.70553">
        <ele>181.03108215332</ele>
        <time>2016-06-08T13:36:18.000Z</time>
      </trkpt>
      <trkpt lat="46.97372" lon="-0.70551">
        <ele>181.76928710938</ele>
        <time>2016-06-08T13:36:21.000Z</time>
      </trkpt>
      <trkpt lat="46.97372" lon="-0.70552">
        <ele>181.94342041016</ele>
        <time>2016-06-08T13:36:24.000Z</time>
      </trkpt>
      <trkpt lat="46.9737" lon="-0.70552">
        <ele>182.20953369141</ele>
        <time>2016-06-08T13:36:28.000Z</time>
      </trkpt>
      <trkpt lat="46.97369" lon="-0.70551">
        <ele>182.06481933594</ele>
        <time>2016-06-08T13:36:30.000Z</time>
      </trkpt>
      <trkpt lat="46.97365" lon="-0.70549">
        <ele>181.23307800293</ele>
        <time>2016-06-08T13:36:33.000Z</time>
      </trkpt>
      <trkpt lat="46.97365" lon="-0.70547">
        <ele>181.57176208496</ele>
        <time>2016-06-08T13:36:37.000Z</time>
      </trkpt>
      <trkpt lat="46.97368" lon="-0.70546">
        <ele>182.55229187012</ele>
        <time>2016-06-08T13:36:40.000Z</time>
      </trkpt>
      <trkpt lat="46.97369" lon="-0.70545">
        <ele>182.60066223145</ele>
        <time>2016-06-08T13:36:43.000Z</time>
      </trkpt>
      <trkpt lat="46.97368" lon="-0.70544">
        <ele>183.22682189941</ele>
        <time>2016-06-08T13:36:46.000Z</time>
      </trkpt>
      <trkpt lat="46.97369" lon="-0.70548">
        <ele>183.25564575195</ele>
        <time>2016-06-08T13:36:49.000Z</time>
      </trkpt>
      <trkpt lat="46.97368" lon="-0.70547">
        <ele>183.59240722656</ele>
        <time>2016-06-08T13:36:52.000Z</time>
      </trkpt>
      <trkpt lat="46.97367" lon="-0.70545">
        <ele>183.92437744141</ele>
        <time>2016-06-08T13:36:55.000Z</time>
      </trkpt>
      <trkpt lat="46.9736" lon="-0.70541">
        <ele>180.55401611328</ele>
        <time>2016-06-08T13:36:58.000Z</time>
      </trkpt>
      <trkpt lat="46.97358" lon="-0.70542">
        <ele>180.87649536133</ele>
        <time>2016-06-08T13:37:00.000Z</time>
      </trkpt>
      <trkpt lat="46.97361" lon="-0.70542">
        <ele>182.45877075195</ele>
        <time>2016-06-08T13:37:02.000Z</time>
      </trkpt>
      <trkpt lat="46.97366" lon="-0.70549">
        <ele>181.1254119873</ele>
        <time>2016-06-08T13:37:05.000Z</time>
      </trkpt>
      <trkpt lat="46.97367" lon="-0.70554">
        <ele>179.27854919434</ele>
        <time>2016-06-08T13:37:07.000Z</time>
      </trkpt>
      <trkpt lat="46.97367" lon="-0.70559">
        <ele>179.0719909668</ele>
        <time>2016-06-08T13:37:10.000Z</time>
      </trkpt>
      <trkpt lat="46.97366" lon="-0.70558">
        <ele>179.12644958496</ele>
        <time>2016-06-08T13:37:12.000Z</time>
      </trkpt>
      <trkpt lat="46.97363" lon="-0.70559">
        <ele>179.34289550781</ele>
        <time>2016-06-08T13:37:15.000Z</time>
      </trkpt>
      <trkpt lat="46.97364" lon="-0.70561">
        <ele>179.61140441895</ele>
        <time>2016-06-08T13:37:17.000Z</time>
      </trkpt>
      <trkpt lat="46.97364" lon="-0.70563">
        <ele>179.76750183105</ele>
        <time>2016-06-08T13:37:20.000Z</time>
      </trkpt>
      <trkpt lat="46.97365" lon="-0.70568">
        <ele>179.65084838867</ele>
        <time>2016-06-08T13:37:22.000Z</time>
      </trkpt>
      <trkpt lat="46.97366" lon="-0.70572">
        <ele>180.11978149414</ele>
        <time>2016-06-08T13:37:24.000Z</time>
      </trkpt>
      <trkpt lat="46.9737" lon="-0.70577">
        <ele>179.84049987793</ele>
        <time>2016-06-08T13:37:27.000Z</time>
      </trkpt>
      <trkpt lat="46.9737" lon="-0.70581">
        <ele>180.40946960449</ele>
        <time>2016-06-08T13:37:30.000Z</time>
      </trkpt>
      <trkpt lat="46.97367" lon="-0.70583">
        <ele>182.04690551758</ele>
        <time>2016-06-08T13:37:33.000Z</time>
      </trkpt>
      <trkpt lat="46.97364" lon="-0.70591">
        <ele>183.19511413574</ele>
        <time>2016-06-08T13:37:36.000Z</time>
      </trkpt>
      <trkpt lat="46.97362" lon="-0.70597">
        <ele>185.00759887695</ele>
        <time>2016-06-08T13:37:39.000Z</time>
      </trkpt>
      <trkpt lat="46.97359" lon="-0.70599">
        <ele>186.06762695312</ele>
        <time>2016-06-08T13:37:41.000Z</time>
      </trkpt>
      <trkpt lat="46.97358" lon="-0.70602">
        <ele>185.84928894043</ele>
        <time>2016-06-08T13:37:43.000Z</time>
      </trkpt>
      <trkpt lat="46.97355" lon="-0.70612">
        <ele>183.69509887695</ele>
        <time>2016-06-08T13:37:46.000Z</time>
      </trkpt>
      <trkpt lat="46.97355" lon="-0.7062">
        <ele>183.1531829834</ele>
        <time>2016-06-08T13:37:48.000Z</time>
      </trkpt>
      <trkpt lat="46.9736" lon="-0.70622">
        <ele>182.55047607422</ele>
        <time>2016-06-08T13:37:50.000Z</time>
      </trkpt>
      <trkpt lat="46.97362" lon="-0.70623">
        <ele>182.41278076172</ele>
        <time>2016-06-08T13:37:52.000Z</time>
      </trkpt>
      <trkpt lat="46.97362" lon="-0.70626">
        <ele>182.23260498047</ele>
        <time>2016-06-08T13:37:54.000Z</time>
      </trkpt>
      <trkpt lat="46.97361" lon="-0.70631">
        <ele>182.80319213867</ele>
        <time>2016-06-08T13:37:58.000Z</time>
      </trkpt>
      <trkpt lat="46.97358" lon="-0.70636">
        <ele>184.88301086426</ele>
        <time>2016-06-08T13:38:01.000Z</time>
      </trkpt>
      <trkpt lat="46.97355" lon="-0.70642">
        <ele>186.95660400391</ele>
        <time>2016-06-08T13:38:03.000Z</time>
      </trkpt>
      <trkpt lat="46.97352" lon="-0.70649">
        <ele>189.42906188965</ele>
        <time>2016-06-08T13:38:06.000Z</time>
      </trkpt>
      <trkpt lat="46.9735" lon="-0.70654">
        <ele>191.80909729004</ele>
        <time>2016-06-08T13:38:09.000Z</time>
      </trkpt>
      <trkpt lat="46.97349" lon="-0.70661">
        <ele>192.63824462891</ele>
        <time>2016-06-08T13:38:12.000Z</time>
      </trkpt>
      <trkpt lat="46.97346" lon="-0.70666">
        <ele>192.77996826172</ele>
        <time>2016-06-08T13:38:14.000Z</time>
      </trkpt>
      <trkpt lat="46.97343" lon="-0.70669">
        <ele>192.57652282715</ele>
        <time>2016-06-08T13:38:16.000Z</time>
      </trkpt>
      <trkpt lat="46.97338" lon="-0.70674">
        <ele>192.54043579102</ele>
        <time>2016-06-08T13:38:19.000Z</time>
      </trkpt>
      <trkpt lat="46.97338" lon="-0.7068">
        <ele>192.79202270508</ele>
        <time>2016-06-08T13:38:21.000Z</time>
      </trkpt>
      <trkpt lat="46.97339" lon="-0.70685">
        <ele>194.39543151855</ele>
        <time>2016-06-08T13:38:24.000Z</time>
      </trkpt>
      <trkpt lat="46.97339" lon="-0.70691">
        <ele>194.54237365723</ele>
        <time>2016-06-08T13:38:26.000Z</time>
      </trkpt>
      <trkpt lat="46.97333" lon="-0.70692">
        <ele>193.96713256836</ele>
        <time>2016-06-08T13:38:29.000Z</time>
      </trkpt>
      <trkpt lat="46.9733" lon="-0.70692">
        <ele>194.36810302734</ele>
        <time>2016-06-08T13:38:31.000Z</time>
      </trkpt>
      <trkpt lat="46.97328" lon="-0.70698">
        <ele>193.09568786621</ele>
        <time>2016-06-08T13:38:34.000Z</time>
      </trkpt>
      <trkpt lat="46.97324" lon="-0.70701">
        <ele>191.76696777344</ele>
        <time>2016-06-08T13:38:37.000Z</time>
      </trkpt>
      <trkpt lat="46.97323" lon="-0.70705">
        <ele>191.27394104004</ele>
        <time>2016-06-08T13:38:39.000Z</time>
      </trkpt>
      <trkpt lat="46.97322" lon="-0.7071">
        <ele>190.68753051758</ele>
        <time>2016-06-08T13:38:42.000Z</time>
      </trkpt>
      <trkpt lat="46.97322" lon="-0.70713">
        <ele>190.45974731445</ele>
        <time>2016-06-08T13:38:44.000Z</time>
      </trkpt>
      <trkpt lat="46.97323" lon="-0.70714">
        <ele>190.21412658691</ele>
        <time>2016-06-08T13:38:49.000Z</time>
      </trkpt>
      <trkpt lat="46.97324" lon="-0.70714">
        <ele>190.25646972656</ele>
        <time>2016-06-08T13:38:54.000Z</time>
      </trkpt>
      <trkpt lat="46.97324" lon="-0.70716">
        <ele>190.92805480957</ele>
        <time>2016-06-08T13:39:11.000Z</time>
      </trkpt>
      <trkpt lat="46.9733" lon="-0.70758">
        <ele>191.49273681641</ele>
        <time>2016-06-08T13:39:16.000Z</time>
      </trkpt>
      <trkpt lat="46.97329" lon="-0.70768">
        <ele>190.99349975586</ele>
        <time>2016-06-08T13:39:18.000Z</time>
      </trkpt>
      <trkpt lat="46.97327" lon="-0.70782">
        <ele>190.4895324707</ele>
        <time>2016-06-08T13:39:22.000Z</time>
      </trkpt>
      <trkpt lat="46.97324" lon="-0.70787">
        <ele>191.19274902344</ele>
        <time>2016-06-08T13:39:25.000Z</time>
      </trkpt>
      <trkpt lat="46.97321" lon="-0.70792">
        <ele>190.86578369141</ele>
        <time>2016-06-08T13:39:27.000Z</time>
      </trkpt>
      <trkpt lat="46.97318" lon="-0.70795">
        <ele>190.89221191406</ele>
        <time>2016-06-08T13:39:29.000Z</time>
      </trkpt>
      <trkpt lat="46.97314" lon="-0.70799">
        <ele>188.90267944336</ele>
        <time>2016-06-08T13:39:32.000Z</time>
      </trkpt>
      <trkpt lat="46.97314" lon="-0.70807">
        <ele>187.4701385498</ele>
        <time>2016-06-08T13:39:34.000Z</time>
      </trkpt>
      <trkpt lat="46.97312" lon="-0.70813">
        <ele>185.23017883301</ele>
        <time>2016-06-08T13:39:36.000Z</time>
      </trkpt>
      <trkpt lat="46.97315" lon="-0.70819">
        <ele>183.5823059082</ele>
        <time>2016-06-08T13:39:39.000Z</time>
      </trkpt>
      <trkpt lat="46.97313" lon="-0.70821">
        <ele>183.63931274414</ele>
        <time>2016-06-08T13:39:41.000Z</time>
      </trkpt>
      <trkpt lat="46.97306" lon="-0.70825">
        <ele>182.43273925781</ele>
        <time>2016-06-08T13:39:44.000Z</time>
      </trkpt>
      <trkpt lat="46.97303" lon="-0.70832">
        <ele>183.48245239258</ele>
        <time>2016-06-08T13:39:47.000Z</time>
      </trkpt>
      <trkpt lat="46.97301" lon="-0.70837">
        <ele>184.37986755371</ele>
        <time>2016-06-08T13:39:49.000Z</time>
      </trkpt>
      <trkpt lat="46.97298" lon="-0.70841">
        <ele>186.53935241699</ele>
        <time>2016-06-08T13:39:52.000Z</time>
      </trkpt>
      <trkpt lat="46.97297" lon="-0.70843">
        <ele>187.51187133789</ele>
        <time>2016-06-08T13:39:55.000Z</time>
      </trkpt>
      <trkpt lat="46.97295" lon="-0.70846">
        <ele>189.31367492676</ele>
        <time>2016-06-08T13:39:57.000Z</time>
      </trkpt>
      <trkpt lat="46.97293" lon="-0.70852">
        <ele>189.94033813477</ele>
        <time>2016-06-08T13:40:00.000Z</time>
      </trkpt>
      <trkpt lat="46.97296" lon="-0.70859">
        <ele>188.67227172852</ele>
        <time>2016-06-08T13:40:03.000Z</time>
      </trkpt>
      <trkpt lat="46.97297" lon="-0.70862">
        <ele>188.01644897461</ele>
        <time>2016-06-08T13:40:05.000Z</time>
      </trkpt>
      <trkpt lat="46.97298" lon="-0.70867">
        <ele>186.78686523438</ele>
        <time>2016-06-08T13:40:08.000Z</time>
      </trkpt>
      <trkpt lat="46.97296" lon="-0.70871">
        <ele>182.52758789062</ele>
        <time>2016-06-08T13:40:11.000Z</time>
      </trkpt>
      <trkpt lat="46.97295" lon="-0.70881">
        <ele>179.54605102539</ele>
        <time>2016-06-08T13:40:14.000Z</time>
      </trkpt>
      <trkpt lat="46.97293" lon="-0.70888">
        <ele>177.73890686035</ele>
        <time>2016-06-08T13:40:17.000Z</time>
      </trkpt>
      <trkpt lat="46.97292" lon="-0.70892">
        <ele>177.12808227539</ele>
        <time>2016-06-08T13:40:19.000Z</time>
      </trkpt>
      <trkpt lat="46.97294" lon="-0.709">
        <ele>177.65216064453</ele>
        <time>2016-06-08T13:40:22.000Z</time>
      </trkpt>
      <trkpt lat="46.97295" lon="-0.70905">
        <ele>176.8540802002</ele>
        <time>2016-06-08T13:40:25.000Z</time>
      </trkpt>
      <trkpt lat="46.97295" lon="-0.7091">
        <ele>175.79739379883</ele>
        <time>2016-06-08T13:40:28.000Z</time>
      </trkpt>
      <trkpt lat="46.97295" lon="-0.70912">
        <ele>176.0961151123</ele>
        <time>2016-06-08T13:40:31.000Z</time>
      </trkpt>
      <trkpt lat="46.97295" lon="-0.70915">
        <ele>176.64164733887</ele>
        <time>2016-06-08T13:40:33.000Z</time>
      </trkpt>
      <trkpt lat="46.97292" lon="-0.7092">
        <ele>177.16020202637</ele>
        <time>2016-06-08T13:40:36.000Z</time>
      </trkpt>
      <trkpt lat="46.9729" lon="-0.70922">
        <ele>177.84646606445</ele>
        <time>2016-06-08T13:40:39.000Z</time>
      </trkpt>
      <trkpt lat="46.9729" lon="-0.70926">
        <ele>177.57388305664</ele>
        <time>2016-06-08T13:40:42.000Z</time>
      </trkpt>
      <trkpt lat="46.97292" lon="-0.70935">
        <ele>177.29862976074</ele>
        <time>2016-06-08T13:40:45.000Z</time>
      </trkpt>
      <trkpt lat="46.97294" lon="-0.7094">
        <ele>177.82719421387</ele>
        <time>2016-06-08T13:40:48.000Z</time>
      </trkpt>
      <trkpt lat="46.97294" lon="-0.70943">
        <ele>177.88529968262</ele>
        <time>2016-06-08T13:40:51.000Z</time>
      </trkpt>
      <trkpt lat="46.97293" lon="-0.70945">
        <ele>177.93174743652</ele>
        <time>2016-06-08T13:40:53.000Z</time>
      </trkpt>
      <trkpt lat="46.97292" lon="-0.70961">
        <ele>178.19548034668</ele>
        <time>2016-06-08T13:40:56.000Z</time>
      </trkpt>
      <trkpt lat="46.9729" lon="-0.70971">
        <ele>178.6517791748</ele>
        <time>2016-06-08T13:40:58.000Z</time>
      </trkpt>
      <trkpt lat="46.97284" lon="-0.70974">
        <ele>179.11389160156</ele>
        <time>2016-06-08T13:41:00.000Z</time>
      </trkpt>
      <trkpt lat="46.97276" lon="-0.70978">
        <ele>179.85401916504</ele>
        <time>2016-06-08T13:41:02.000Z</time>
      </trkpt>
      <trkpt lat="46.9727" lon="-0.70979">
        <ele>180.05101013184</ele>
        <time>2016-06-08T13:41:05.000Z</time>
      </trkpt>
      <trkpt lat="46.97271" lon="-0.7098">
        <ele>181.33447265625</ele>
        <time>2016-06-08T13:41:08.000Z</time>
      </trkpt>
      <trkpt lat="46.97272" lon="-0.70981">
        <ele>178.51219177246</ele>
        <time>2016-06-08T13:41:10.000Z</time>
      </trkpt>
      <trkpt lat="46.97273" lon="-0.70984">
        <ele>176.67356872559</ele>
        <time>2016-06-08T13:41:13.000Z</time>
      </trkpt>
      <trkpt lat="46.97274" lon="-0.70988">
        <ele>176.43099975586</ele>
        <time>2016-06-08T13:41:16.000Z</time>
      </trkpt>
      <trkpt lat="46.97274" lon="-0.7099">
        <ele>176.58497619629</ele>
        <time>2016-06-08T13:41:19.000Z</time>
      </trkpt>
      <trkpt lat="46.97273" lon="-0.70993">
        <ele>176.8902130127</ele>
        <time>2016-06-08T13:41:22.000Z</time>
      </trkpt>
      <trkpt lat="46.97272" lon="-0.70996">
        <ele>176.30827331543</ele>
        <time>2016-06-08T13:41:25.000Z</time>
      </trkpt>
      <trkpt lat="46.97272" lon="-0.70998">
        <ele>176.18266296387</ele>
        <time>2016-06-08T13:41:33.000Z</time>
      </trkpt>
      <trkpt lat="46.97272" lon="-0.70998">
        <ele>181.74365234375</ele>
        <time>2016-06-08T13:41:53.000Z</time>
      </trkpt>
      <trkpt lat="46.97272" lon="-0.71">
        <ele>176.1364440918</ele>
        <time>2016-06-08T13:42:14.000Z</time>
      </trkpt>
      <trkpt lat="46.9727" lon="-0.71012">
        <ele>174.06828308105</ele>
        <time>2016-06-08T13:42:17.000Z</time>
      </trkpt>
      <trkpt lat="46.97268" lon="-0.71023">
        <ele>171.38656616211</ele>
        <time>2016-06-08T13:42:20.000Z</time>
      </trkpt>
      <trkpt lat="46.97263" lon="-0.71045">
        <ele>167.02119445801</ele>
        <time>2016-06-08T13:42:23.000Z</time>
      </trkpt>
      <trkpt lat="46.97254" lon="-0.71061">
        <ele>164.90539550781</ele>
        <time>2016-06-08T13:42:26.000Z</time>
      </trkpt>
      <trkpt lat="46.97248" lon="-0.71069">
        <ele>164.19010925293</ele>
        <time>2016-06-08T13:42:28.000Z</time>
      </trkpt>
      <trkpt lat="46.9724" lon="-0.71075">
        <ele>166.74029541016</ele>
        <time>2016-06-08T13:42:31.000Z</time>
      </trkpt>
      <trkpt lat="46.97234" lon="-0.71082">
        <ele>169.01626586914</ele>
        <time>2016-06-08T13:42:34.000Z</time>
      </trkpt>
      <trkpt lat="46.97234" lon="-0.71084">
        <ele>170.65684509277</ele>
        <time>2016-06-08T13:42:36.000Z</time>
      </trkpt>
      <trkpt lat="46.97234" lon="-0.71091">
        <ele>169.86117553711</ele>
        <time>2016-06-08T13:42:39.000Z</time>
      </trkpt>
      <trkpt lat="46.97235" lon="-0.71093">
        <ele>169.5009765625</ele>
        <time>2016-06-08T13:42:41.000Z</time>
      </trkpt>
      <trkpt lat="46.97235" lon="-0.71099">
        <ele>169.05795288086</ele>
        <time>2016-06-08T13:42:45.000Z</time>
      </trkpt>
      <trkpt lat="46.97236" lon="-0.71102">
        <ele>169.41343688965</ele>
        <time>2016-06-08T13:42:47.000Z</time>
      </trkpt>
      <trkpt lat="46.97235" lon="-0.71107">
        <ele>169.11177062988</ele>
        <time>2016-06-08T13:42:49.000Z</time>
      </trkpt>
      <trkpt lat="46.97231" lon="-0.7111">
        <ele>169.9660949707</ele>
        <time>2016-06-08T13:42:52.000Z</time>
      </trkpt>
      <trkpt lat="46.97228" lon="-0.7111">
        <ele>171.06758117676</ele>
        <time>2016-06-08T13:42:54.000Z</time>
      </trkpt>
      <trkpt lat="46.97227" lon="-0.71111">
        <ele>171.10023498535</ele>
        <time>2016-06-08T13:42:56.000Z</time>
      </trkpt>
      <trkpt lat="46.97224" lon="-0.71121">
        <ele>169.74087524414</ele>
        <time>2016-06-08T13:42:59.000Z</time>
      </trkpt>
      <trkpt lat="46.97224" lon="-0.7113">
        <ele>170.33097839355</ele>
        <time>2016-06-08T13:43:02.000Z</time>
      </trkpt>
      <trkpt lat="46.97224" lon="-0.71138">
        <ele>170.7938079834</ele>
        <time>2016-06-08T13:43:05.000Z</time>
      </trkpt>
      <trkpt lat="46.97224" lon="-0.7114">
        <ele>171.44471740723</ele>
        <time>2016-06-08T13:43:08.000Z</time>
      </trkpt>
      <trkpt lat="46.97224" lon="-0.71143">
        <ele>172.02160644531</ele>
        <time>2016-06-08T13:43:11.000Z</time>
      </trkpt>
      <trkpt lat="46.97223" lon="-0.7115">
        <ele>172.92170715332</ele>
        <time>2016-06-08T13:43:14.000Z</time>
      </trkpt>
      <trkpt lat="46.97223" lon="-0.7116">
        <ele>173.94186401367</ele>
        <time>2016-06-08T13:43:17.000Z</time>
      </trkpt>
      <trkpt lat="46.97223" lon="-0.71168">
        <ele>174.82330322266</ele>
        <time>2016-06-08T13:43:20.000Z</time>
      </trkpt>
      <trkpt lat="46.97226" lon="-0.71175">
        <ele>177.06008911133</ele>
        <time>2016-06-08T13:43:23.000Z</time>
      </trkpt>
      <trkpt lat="46.97231" lon="-0.71181">
        <ele>179.47898864746</ele>
        <time>2016-06-08T13:43:26.000Z</time>
      </trkpt>
      <trkpt lat="46.97232" lon="-0.71183">
        <ele>181.27459716797</ele>
        <time>2016-06-08T13:43:28.000Z</time>
      </trkpt>
      <trkpt lat="46.97234" lon="-0.71184">
        <ele>184.08192443848</ele>
        <time>2016-06-08T13:43:31.000Z</time>
      </trkpt>
      <trkpt lat="46.97232" lon="-0.71184">
        <ele>185.53096008301</ele>
        <time>2016-06-08T13:43:33.000Z</time>
      </trkpt>
      <trkpt lat="46.9723" lon="-0.71185">
        <ele>187.12890625</ele>
        <time>2016-06-08T13:43:36.000Z</time>
      </trkpt>
      <trkpt lat="46.97228" lon="-0.71188">
        <ele>187.29530334473</ele>
        <time>2016-06-08T13:43:38.000Z</time>
      </trkpt>
      <trkpt lat="46.97224" lon="-0.71193">
        <ele>185.93608093262</ele>
        <time>2016-06-08T13:43:41.000Z</time>
      </trkpt>
      <trkpt lat="46.97216" lon="-0.712">
        <ele>186.27781677246</ele>
        <time>2016-06-08T13:43:44.000Z</time>
      </trkpt>
      <trkpt lat="46.97215" lon="-0.7121">
        <ele>187.71000671387</ele>
        <time>2016-06-08T13:43:47.000Z</time>
      </trkpt>
      <trkpt lat="46.97217" lon="-0.71213">
        <ele>187.93116760254</ele>
        <time>2016-06-08T13:43:50.000Z</time>
      </trkpt>
      <trkpt lat="46.9722" lon="-0.71215">
        <ele>187.64851379395</ele>
        <time>2016-06-08T13:43:53.000Z</time>
      </trkpt>
      <trkpt lat="46.97221" lon="-0.71217">
        <ele>188.08369445801</ele>
        <time>2016-06-08T13:43:56.000Z</time>
      </trkpt>
      <trkpt lat="46.97221" lon="-0.71219">
        <ele>188.77935791016</ele>
        <time>2016-06-08T13:44:01.000Z</time>
      </trkpt>
      <trkpt lat="46.97221" lon="-0.71223">
        <ele>189.22494506836</ele>
        <time>2016-06-08T13:44:03.000Z</time>
      </trkpt>
      <trkpt lat="46.97218" lon="-0.71238">
        <ele>188.06828308105</ele>
        <time>2016-06-08T13:44:06.000Z</time>
      </trkpt>
      <trkpt lat="46.97216" lon="-0.71248">
        <ele>186.38722229004</ele>
        <time>2016-06-08T13:44:08.000Z</time>
      </trkpt>
      <trkpt lat="46.97214" lon="-0.71252">
        <ele>185.49006652832</ele>
        <time>2016-06-08T13:44:10.000Z</time>
      </trkpt>
      <trkpt lat="46.97212" lon="-0.71257">
        <ele>185.44418334961</ele>
        <time>2016-06-08T13:44:12.000Z</time>
      </trkpt>
      <trkpt lat="46.9721" lon="-0.71263">
        <ele>185.51826477051</ele>
        <time>2016-06-08T13:44:14.000Z</time>
      </trkpt>
      <trkpt lat="46.97206" lon="-0.71267">
        <ele>186.62861633301</ele>
        <time>2016-06-08T13:44:17.000Z</time>
      </trkpt>
      <trkpt lat="46.97205" lon="-0.71269">
        <ele>187.3793182373</ele>
        <time>2016-06-08T13:44:19.000Z</time>
      </trkpt>
      <trkpt lat="46.97205" lon="-0.7127">
        <ele>187.78489685059</ele>
        <time>2016-06-08T13:44:23.000Z</time>
      </trkpt>
      <trkpt lat="46.97206" lon="-0.71271">
        <ele>187.70176696777</ele>
        <time>2016-06-08T13:44:26.000Z</time>
      </trkpt>
      <trkpt lat="46.97206" lon="-0.71274">
        <ele>187.62054443359</ele>
        <time>2016-06-08T13:44:30.000Z</time>
      </trkpt>
      <trkpt lat="46.97206" lon="-0.71279">
        <ele>187.75610351562</ele>
        <time>2016-06-08T13:44:32.000Z</time>
      </trkpt>
      <trkpt lat="46.97207" lon="-0.71284">
        <ele>188.7587890625</ele>
        <time>2016-06-08T13:44:35.000Z</time>
      </trkpt>
      <trkpt lat="46.97203" lon="-0.71293">
        <ele>189.2523651123</ele>
        <time>2016-06-08T13:44:39.000Z</time>
      </trkpt>
      <trkpt lat="46.97202" lon="-0.71297">
        <ele>189.71368408203</ele>
        <time>2016-06-08T13:44:41.000Z</time>
      </trkpt>
      <trkpt lat="46.972" lon="-0.71303">
        <ele>189.63832092285</ele>
        <time>2016-06-08T13:44:43.000Z</time>
      </trkpt>
      <trkpt lat="46.972" lon="-0.7131">
        <ele>189.80711364746</ele>
        <time>2016-06-08T13:44:45.000Z</time>
      </trkpt>
      <trkpt lat="46.97202" lon="-0.71317">
        <ele>189.58528137207</ele>
        <time>2016-06-08T13:44:48.000Z</time>
      </trkpt>
      <trkpt lat="46.972" lon="-0.71322">
        <ele>189.39686584473</ele>
        <time>2016-06-08T13:44:50.000Z</time>
      </trkpt>
      <trkpt lat="46.97196" lon="-0.71323">
        <ele>187.11332702637</ele>
        <time>2016-06-08T13:44:53.000Z</time>
      </trkpt>
      <trkpt lat="46.9719" lon="-0.71328">
        <ele>186.57884216309</ele>
        <time>2016-06-08T13:44:56.000Z</time>
      </trkpt>
      <trkpt lat="46.97189" lon="-0.71334">
        <ele>186.83348083496</ele>
        <time>2016-06-08T13:44:58.000Z</time>
      </trkpt>
      <trkpt lat="46.97187" lon="-0.71339">
        <ele>185.99542236328</ele>
        <time>2016-06-08T13:45:01.000Z</time>
      </trkpt>
      <trkpt lat="46.97184" lon="-0.71343">
        <ele>184.32551574707</ele>
        <time>2016-06-08T13:45:04.000Z</time>
      </trkpt>
      <trkpt lat="46.97182" lon="-0.71348">
        <ele>183.51559448242</ele>
        <time>2016-06-08T13:45:07.000Z</time>
      </trkpt>
      <trkpt lat="46.9718" lon="-0.71357">
        <ele>183.54997253418</ele>
        <time>2016-06-08T13:45:10.000Z</time>
      </trkpt>
      <trkpt lat="46.97179" lon="-0.71361">
        <ele>184.30296325684</ele>
        <time>2016-06-08T13:45:12.000Z</time>
      </trkpt>
      <trkpt lat="46.97181" lon="-0.71365">
        <ele>185.44538879395</ele>
        <time>2016-06-08T13:45:16.000Z</time>
      </trkpt>
      <trkpt lat="46.97184" lon="-0.71369">
        <ele>186.35813903809</ele>
        <time>2016-06-08T13:45:18.000Z</time>
      </trkpt>
      <trkpt lat="46.97186" lon="-0.71374">
        <ele>186.15525817871</ele>
        <time>2016-06-08T13:45:20.000Z</time>
      </trkpt>
      <trkpt lat="46.97189" lon="-0.7138">
        <ele>185.98446655273</ele>
        <time>2016-06-08T13:45:23.000Z</time>
      </trkpt>
      <trkpt lat="46.97189" lon="-0.71383">
        <ele>186.50523376465</ele>
        <time>2016-06-08T13:45:25.000Z</time>
      </trkpt>
      <trkpt lat="46.97189" lon="-0.71385">
        <ele>186.70085144043</ele>
        <time>2016-06-08T13:45:29.000Z</time>
      </trkpt>
      <trkpt lat="46.97189" lon="-0.71387">
        <ele>186.98762512207</ele>
        <time>2016-06-08T13:45:32.000Z</time>
      </trkpt>
      <trkpt lat="46.97189" lon="-0.71388">
        <ele>187.40963745117</ele>
        <time>2016-06-08T13:45:41.000Z</time>
      </trkpt>
      <trkpt lat="46.97188" lon="-0.71391">
        <ele>187.44047546387</ele>
        <time>2016-06-08T13:45:48.000Z</time>
      </trkpt>
      <trkpt lat="46.97186" lon="-0.71413">
        <ele>184.30815124512</ele>
        <time>2016-06-08T13:45:52.000Z</time>
      </trkpt>
      <trkpt lat="46.97179" lon="-0.71438">
        <ele>182.29879760742</ele>
        <time>2016-06-08T13:45:55.000Z</time>
      </trkpt>
      <trkpt lat="46.97173" lon="-0.71445">
        <ele>182.74819946289</ele>
        <time>2016-06-08T13:45:58.000Z</time>
      </trkpt>
      <trkpt lat="46.97169" lon="-0.71451">
        <ele>183.40570068359</ele>
        <time>2016-06-08T13:46:00.000Z</time>
      </trkpt>
      <trkpt lat="46.97165" lon="-0.71459">
        <ele>183.40766906738</ele>
        <time>2016-06-08T13:46:03.000Z</time>
      </trkpt>
      <trkpt lat="46.97161" lon="-0.71462">
        <ele>181.96171569824</ele>
        <time>2016-06-08T13:46:06.000Z</time>
      </trkpt>
      <trkpt lat="46.97159" lon="-0.71465">
        <ele>181.13648986816</ele>
        <time>2016-06-08T13:46:09.000Z</time>
      </trkpt>
      <trkpt lat="46.97157" lon="-0.71468">
        <ele>181.05882263184</ele>
        <time>2016-06-08T13:46:11.000Z</time>
      </trkpt>
      <trkpt lat="46.97158" lon="-0.71474">
        <ele>181.22863769531</ele>
        <time>2016-06-08T13:46:14.000Z</time>
      </trkpt>
      <trkpt lat="46.97158" lon="-0.71476">
        <ele>181.19169616699</ele>
        <time>2016-06-08T13:46:17.000Z</time>
      </trkpt>
      <trkpt lat="46.97157" lon="-0.71482">
        <ele>181.37405395508</ele>
        <time>2016-06-08T13:46:20.000Z</time>
      </trkpt>
      <trkpt lat="46.97156" lon="-0.71495">
        <ele>181.82907104492</ele>
        <time>2016-06-08T13:46:23.000Z</time>
      </trkpt>
      <trkpt lat="46.97154" lon="-0.71498">
        <ele>182.35069274902</ele>
        <time>2016-06-08T13:46:25.000Z</time>
      </trkpt>
      <trkpt lat="46.97147" lon="-0.71499">
        <ele>184.962890625</ele>
        <time>2016-06-08T13:46:28.000Z</time>
      </trkpt>
      <trkpt lat="46.97145" lon="-0.71502">
        <ele>185.62733459473</ele>
        <time>2016-06-08T13:46:30.000Z</time>
      </trkpt>
      <trkpt lat="46.97149" lon="-0.71512">
        <ele>187.00505065918</ele>
        <time>2016-06-08T13:46:33.000Z</time>
      </trkpt>
      <trkpt lat="46.97149" lon="-0.71515">
        <ele>187.05409240723</ele>
        <time>2016-06-08T13:46:35.000Z</time>
      </trkpt>
      <trkpt lat="46.97148" lon="-0.71519">
        <ele>186.74095153809</ele>
        <time>2016-06-08T13:46:37.000Z</time>
      </trkpt>
      <trkpt lat="46.97147" lon="-0.71524">
        <ele>186.20391845703</ele>
        <time>2016-06-08T13:46:40.000Z</time>
      </trkpt>
      <trkpt lat="46.97147" lon="-0.7153">
        <ele>185.63748168945</ele>
        <time>2016-06-08T13:46:43.000Z</time>
      </trkpt>
      <trkpt lat="46.97145" lon="-0.71534">
        <ele>185.2705078125</ele>
        <time>2016-06-08T13:46:45.000Z</time>
      </trkpt>
      <trkpt lat="46.97142" lon="-0.71537">
        <ele>185.98530578613</ele>
        <time>2016-06-08T13:46:47.000Z</time>
      </trkpt>
      <trkpt lat="46.97137" lon="-0.7154">
        <ele>185.50028991699</ele>
        <time>2016-06-08T13:46:50.000Z</time>
      </trkpt>
      <trkpt lat="46.97133" lon="-0.71548">
        <ele>185.55046081543</ele>
        <time>2016-06-08T13:46:53.000Z</time>
      </trkpt>
      <trkpt lat="46.97131" lon="-0.71551">
        <ele>183.15026855469</ele>
        <time>2016-06-08T13:46:56.000Z</time>
      </trkpt>
      <trkpt lat="46.97127" lon="-0.71561">
        <ele>181.80136108398</ele>
        <time>2016-06-08T13:46:59.000Z</time>
      </trkpt>
      <trkpt lat="46.97128" lon="-0.71564">
        <ele>181.71148681641</ele>
        <time>2016-06-08T13:47:01.000Z</time>
      </trkpt>
      <trkpt lat="46.97131" lon="-0.71566">
        <ele>181.39712524414</ele>
        <time>2016-06-08T13:47:04.000Z</time>
      </trkpt>
      <trkpt lat="46.97133" lon="-0.71568">
        <ele>181.13302612305</ele>
        <time>2016-06-08T13:47:06.000Z</time>
      </trkpt>
      <trkpt lat="46.97133" lon="-0.7157">
        <ele>180.87547302246</ele>
        <time>2016-06-08T13:47:09.000Z</time>
      </trkpt>
      <trkpt lat="46.97133" lon="-0.71572">
        <ele>180.54362487793</ele>
        <time>2016-06-08T13:47:12.000Z</time>
      </trkpt>
      <trkpt lat="46.97131" lon="-0.71577">
        <ele>180.19120788574</ele>
        <time>2016-06-08T13:47:14.000Z</time>
      </trkpt>
      <trkpt lat="46.97129" lon="-0.71586">
        <ele>180.58831787109</ele>
        <time>2016-06-08T13:47:17.000Z</time>
      </trkpt>
      <trkpt lat="46.97125" lon="-0.71595">
        <ele>180.03840637207</ele>
        <time>2016-06-08T13:47:20.000Z</time>
      </trkpt>
      <trkpt lat="46.97124" lon="-0.71597">
        <ele>179.97480773926</ele>
        <time>2016-06-08T13:47:22.000Z</time>
      </trkpt>
      <trkpt lat="46.97124" lon="-0.71598">
        <ele>179.71084594727</ele>
        <time>2016-06-08T13:47:25.000Z</time>
      </trkpt>
      <trkpt lat="46.97123" lon="-0.71599">
        <ele>179.78834533691</ele>
        <time>2016-06-08T13:47:29.000Z</time>
      </trkpt>
      <trkpt lat="46.97122" lon="-0.71602">
        <ele>180.66809082031</ele>
        <time>2016-06-08T13:47:39.000Z</time>
      </trkpt>
      <trkpt lat="46.97116" lon="-0.71623">
        <ele>180.81207275391</ele>
        <time>2016-06-08T13:47:43.000Z</time>
      </trkpt>
      <trkpt lat="46.97115" lon="-0.71631">
        <ele>181.92921447754</ele>
        <time>2016-06-08T13:47:45.000Z</time>
      </trkpt>
      <trkpt lat="46.97109" lon="-0.71645">
        <ele>183.93716430664</ele>
        <time>2016-06-08T13:47:48.000Z</time>
      </trkpt>
      <trkpt lat="46.97111" lon="-0.71652">
        <ele>184.19717407227</ele>
        <time>2016-06-08T13:47:51.000Z</time>
      </trkpt>
      <trkpt lat="46.9711" lon="-0.71664">
        <ele>184.11547851562</ele>
        <time>2016-06-08T13:47:55.000Z</time>
      </trkpt>
      <trkpt lat="46.9711" lon="-0.71673">
        <ele>185.02136230469</ele>
        <time>2016-06-08T13:47:58.000Z</time>
      </trkpt>
      <trkpt lat="46.97108" lon="-0.71677">
        <ele>184.88179016113</ele>
        <time>2016-06-08T13:48:02.000Z</time>
      </trkpt>
      <trkpt lat="46.97107" lon="-0.71678">
        <ele>184.7110748291</ele>
        <time>2016-06-08T13:48:06.000Z</time>
      </trkpt>
      <trkpt lat="46.97106" lon="-0.7168">
        <ele>184.83113098145</ele>
        <time>2016-06-08T13:48:09.000Z</time>
      </trkpt>
      <trkpt lat="46.97105" lon="-0.71681">
        <ele>183.37170410156</ele>
        <time>2016-06-08T13:48:13.000Z</time>
      </trkpt>
      <trkpt lat="46.97105" lon="-0.71681">
        <ele>184.84796142578</ele>
        <time>2016-06-08T13:48:33.000Z</time>
      </trkpt>
      <trkpt lat="46.97103" lon="-0.71682">
        <ele>181.54095458984</ele>
        <time>2016-06-08T13:48:39.000Z</time>
      </trkpt>
      <trkpt lat="46.97103" lon="-0.71682">
        <ele>184.87394714355</ele>
        <time>2016-06-08T13:48:59.000Z</time>
      </trkpt>
      <trkpt lat="46.97102" lon="-0.71681">
        <ele>180.53973388672</ele>
        <time>2016-06-08T13:49:04.000Z</time>
      </trkpt>
      <trkpt lat="46.97084" lon="-0.71677">
        <ele>174.06869506836</ele>
        <time>2016-06-08T13:49:08.000Z</time>
      </trkpt>
      <trkpt lat="46.97079" lon="-0.71677">
        <ele>171.99967956543</ele>
        <time>2016-06-08T13:49:11.000Z</time>
      </trkpt>
      <trkpt lat="46.97076" lon="-0.71677">
        <ele>171.04371643066</ele>
        <time>2016-06-08T13:49:13.000Z</time>
      </trkpt>
      <trkpt lat="46.97066" lon="-0.71676">
        <ele>171.18043518066</ele>
        <time>2016-06-08T13:49:16.000Z</time>
      </trkpt>
      <trkpt lat="46.97058" lon="-0.71676">
        <ele>172.35023498535</ele>
        <time>2016-06-08T13:49:18.000Z</time>
      </trkpt>
      <trkpt lat="46.9705" lon="-0.71677">
        <ele>172.85096740723</ele>
        <time>2016-06-08T13:49:21.000Z</time>
      </trkpt>
      <trkpt lat="46.97044" lon="-0.71679">
        <ele>173.34713745117</ele>
        <time>2016-06-08T13:49:23.000Z</time>
      </trkpt>
      <trkpt lat="46.97039" lon="-0.71682">
        <ele>173.2448425293</ele>
        <time>2016-06-08T13:49:25.000Z</time>
      </trkpt>
      <trkpt lat="46.97029" lon="-0.71686">
        <ele>171.87712097168</ele>
        <time>2016-06-08T13:49:28.000Z</time>
      </trkpt>
      <trkpt lat="46.97027" lon="-0.71694">
        <ele>173.20431518555</ele>
        <time>2016-06-08T13:49:31.000Z</time>
      </trkpt>
      <trkpt lat="46.97029" lon="-0.717">
        <ele>173.0228729248</ele>
        <time>2016-06-08T13:49:34.000Z</time>
      </trkpt>
      <trkpt lat="46.97029" lon="-0.71703">
        <ele>173.50180053711</ele>
        <time>2016-06-08T13:49:36.000Z</time>
      </trkpt>
      <trkpt lat="46.97029" lon="-0.71708">
        <ele>174.87657165527</ele>
        <time>2016-06-08T13:49:39.000Z</time>
      </trkpt>
      <trkpt lat="46.97031" lon="-0.71713">
        <ele>175.79811096191</ele>
        <time>2016-06-08T13:49:42.000Z</time>
      </trkpt>
      <trkpt lat="46.97033" lon="-0.71716">
        <ele>177.73803710938</ele>
        <time>2016-06-08T13:49:45.000Z</time>
      </trkpt>
      <trkpt lat="46.97033" lon="-0.71718">
        <ele>178.16265869141</ele>
        <time>2016-06-08T13:49:47.000Z</time>
      </trkpt>
      <trkpt lat="46.97032" lon="-0.71723">
        <ele>178.11920166016</ele>
        <time>2016-06-08T13:49:49.000Z</time>
      </trkpt>
      <trkpt lat="46.97031" lon="-0.71731">
        <ele>178.31558227539</ele>
        <time>2016-06-08T13:49:52.000Z</time>
      </trkpt>
      <trkpt lat="46.97029" lon="-0.71734">
        <ele>179.36785888672</ele>
        <time>2016-06-08T13:49:54.000Z</time>
      </trkpt>
      <trkpt lat="46.97025" lon="-0.71734">
        <ele>181.74969482422</ele>
        <time>2016-06-08T13:49:57.000Z</time>
      </trkpt>
      <trkpt lat="46.97022" lon="-0.71736">
        <ele>181.21531677246</ele>
        <time>2016-06-08T13:50:00.000Z</time>
      </trkpt>
      <trkpt lat="46.9702" lon="-0.71744">
        <ele>181.02734375</ele>
        <time>2016-06-08T13:50:03.000Z</time>
      </trkpt>
      <trkpt lat="46.97017" lon="-0.71749">
        <ele>181.01438903809</ele>
        <time>2016-06-08T13:50:05.000Z</time>
      </trkpt>
      <trkpt lat="46.97013" lon="-0.71758">
        <ele>180.28883361816</ele>
        <time>2016-06-08T13:50:08.000Z</time>
      </trkpt>
      <trkpt lat="46.97009" lon="-0.71766">
        <ele>180.47309875488</ele>
        <time>2016-06-08T13:50:11.000Z</time>
      </trkpt>
      <trkpt lat="46.97009" lon="-0.71767">
        <ele>180.69554138184</ele>
        <time>2016-06-08T13:50:13.000Z</time>
      </trkpt>
      <trkpt lat="46.97008" lon="-0.71773">
        <ele>181.07336425781</ele>
        <time>2016-06-08T13:50:16.000Z</time>
      </trkpt>
      <trkpt lat="46.97007" lon="-0.71778">
        <ele>179.91983032227</ele>
        <time>2016-06-08T13:50:19.000Z</time>
      </trkpt>
      <trkpt lat="46.97006" lon="-0.71781">
        <ele>178.33235168457</ele>
        <time>2016-06-08T13:50:21.000Z</time>
      </trkpt>
      <trkpt lat="46.97003" lon="-0.71784">
        <ele>173.03993225098</ele>
        <time>2016-06-08T13:50:24.000Z</time>
      </trkpt>
      <trkpt lat="46.97" lon="-0.71785">
        <ele>171.13854980469</ele>
        <time>2016-06-08T13:50:27.000Z</time>
      </trkpt>
      <trkpt lat="46.96999" lon="-0.71788">
        <ele>170.66567993164</ele>
        <time>2016-06-08T13:50:29.000Z</time>
      </trkpt>
      <trkpt lat="46.96998" lon="-0.71795">
        <ele>170.66055297852</ele>
        <time>2016-06-08T13:50:32.000Z</time>
      </trkpt>
      <trkpt lat="46.96997" lon="-0.71798">
        <ele>170.06101989746</ele>
        <time>2016-06-08T13:50:34.000Z</time>
      </trkpt>
      <trkpt lat="46.96993" lon="-0.71802">
        <ele>170.66781616211</ele>
        <time>2016-06-08T13:50:37.000Z</time>
      </trkpt>
      <trkpt lat="46.96989" lon="-0.71805">
        <ele>173.04351806641</ele>
        <time>2016-06-08T13:50:40.000Z</time>
      </trkpt>
      <trkpt lat="46.96987" lon="-0.71811">
        <ele>173.0361328125</ele>
        <time>2016-06-08T13:50:43.000Z</time>
      </trkpt>
      <trkpt lat="46.96988" lon="-0.71813">
        <ele>173.29689025879</ele>
        <time>2016-06-08T13:50:45.000Z</time>
      </trkpt>
      <trkpt lat="46.9699" lon="-0.71815">
        <ele>173.45018005371</ele>
        <time>2016-06-08T13:50:47.000Z</time>
      </trkpt>
      <trkpt lat="46.96989" lon="-0.71819">
        <ele>173.27529907227</ele>
        <time>2016-06-08T13:50:49.000Z</time>
      </trkpt>
      <trkpt lat="46.96987" lon="-0.71819">
        <ele>174.88554382324</ele>
        <time>2016-06-08T13:50:52.000Z</time>
      </trkpt>
      <trkpt lat="46.96988" lon="-0.71822">
        <ele>174.84664916992</ele>
        <time>2016-06-08T13:50:54.000Z</time>
      </trkpt>
      <trkpt lat="46.96986" lon="-0.71824">
        <ele>174.9267578125</ele>
        <time>2016-06-08T13:50:57.000Z</time>
      </trkpt>
      <trkpt lat="46.96983" lon="-0.71826">
        <ele>176.24710083008</ele>
        <time>2016-06-08T13:51:00.000Z</time>
      </trkpt>
      <trkpt lat="46.96977" lon="-0.71836">
        <ele>180.98373413086</ele>
        <time>2016-06-08T13:51:03.000Z</time>
      </trkpt>
      <trkpt lat="46.96977" lon="-0.71841">
        <ele>182.23443603516</ele>
        <time>2016-06-08T13:51:05.000Z</time>
      </trkpt>
      <trkpt lat="46.96976" lon="-0.71848">
        <ele>183.72723388672</ele>
        <time>2016-06-08T13:51:08.000Z</time>
      </trkpt>
      <trkpt lat="46.96976" lon="-0.7185">
        <ele>183.70227050781</ele>
        <time>2016-06-08T13:51:10.000Z</time>
      </trkpt>
      <trkpt lat="46.96975" lon="-0.71852">
        <ele>183.3383026123</ele>
        <time>2016-06-08T13:51:12.000Z</time>
      </trkpt>
      <trkpt lat="46.96973" lon="-0.71858">
        <ele>181.41609191895</ele>
        <time>2016-06-08T13:51:15.000Z</time>
      </trkpt>
      <trkpt lat="46.96972" lon="-0.71862">
        <ele>181.28608703613</ele>
        <time>2016-06-08T13:51:17.000Z</time>
      </trkpt>
      <trkpt lat="46.96972" lon="-0.7187">
        <ele>181.13647460938</ele>
        <time>2016-06-08T13:51:20.000Z</time>
      </trkpt>
      <trkpt lat="46.9697" lon="-0.71883">
        <ele>180.42321777344</ele>
        <time>2016-06-08T13:51:23.000Z</time>
      </trkpt>
      <trkpt lat="46.96964" lon="-0.71886">
        <ele>182.65925598145</ele>
        <time>2016-06-08T13:51:26.000Z</time>
      </trkpt>
      <trkpt lat="46.9696" lon="-0.71889">
        <ele>185.11560058594</ele>
        <time>2016-06-08T13:51:29.000Z</time>
      </trkpt>
      <trkpt lat="46.96959" lon="-0.7189">
        <ele>186.11082458496</ele>
        <time>2016-06-08T13:51:31.000Z</time>
      </trkpt>
      <trkpt lat="46.96954" lon="-0.71898">
        <ele>185.23622131348</ele>
        <time>2016-06-08T13:51:34.000Z</time>
      </trkpt>
      <trkpt lat="46.96951" lon="-0.71907">
        <ele>182.01097106934</ele>
        <time>2016-06-08T13:51:37.000Z</time>
      </trkpt>
      <trkpt lat="46.96949" lon="-0.7191">
        <ele>181.45426940918</ele>
        <time>2016-06-08T13:51:39.000Z</time>
      </trkpt>
      <trkpt lat="46.96945" lon="-0.71915">
        <ele>178.18276977539</ele>
        <time>2016-06-08T13:51:42.000Z</time>
      </trkpt>
      <trkpt lat="46.9694" lon="-0.71921">
        <ele>174.8201751709</ele>
        <time>2016-06-08T13:51:45.000Z</time>
      </trkpt>
      <trkpt lat="46.96938" lon="-0.71927">
        <ele>175.11958312988</ele>
        <time>2016-06-08T13:51:48.000Z</time>
      </trkpt>
      <trkpt lat="46.96935" lon="-0.7193">
        <ele>176.41624450684</ele>
        <time>2016-06-08T13:51:51.000Z</time>
      </trkpt>
      <trkpt lat="46.96933" lon="-0.71935">
        <ele>176.72184753418</ele>
        <time>2016-06-08T13:51:54.000Z</time>
      </trkpt>
      <trkpt lat="46.9693" lon="-0.71937">
        <ele>177.2160949707</ele>
        <time>2016-06-08T13:51:56.000Z</time>
      </trkpt>
      <trkpt lat="46.96927" lon="-0.71941">
        <ele>178.09495544434</ele>
        <time>2016-06-08T13:51:59.000Z</time>
      </trkpt>
      <trkpt lat="46.96923" lon="-0.71944">
        <ele>178.79263305664</ele>
        <time>2016-06-08T13:52:02.000Z</time>
      </trkpt>
      <trkpt lat="46.9692" lon="-0.71949">
        <ele>178.67340087891</ele>
        <time>2016-06-08T13:52:05.000Z</time>
      </trkpt>
      <trkpt lat="46.96917" lon="-0.71951">
        <ele>178.10411071777</ele>
        <time>2016-06-08T13:52:07.000Z</time>
      </trkpt>
      <trkpt lat="46.96915" lon="-0.71953">
        <ele>177.52616882324</ele>
        <time>2016-06-08T13:52:10.000Z</time>
      </trkpt>
      <trkpt lat="46.96914" lon="-0.71958">
        <ele>177.26098632812</ele>
        <time>2016-06-08T13:52:12.000Z</time>
      </trkpt>
      <trkpt lat="46.96913" lon="-0.71965">
        <ele>177.30625915527</ele>
        <time>2016-06-08T13:52:15.000Z</time>
      </trkpt>
      <trkpt lat="46.96913" lon="-0.7197">
        <ele>177.4260559082</ele>
        <time>2016-06-08T13:52:17.000Z</time>
      </trkpt>
      <trkpt lat="46.9691" lon="-0.71975">
        <ele>177.60133361816</ele>
        <time>2016-06-08T13:52:20.000Z</time>
      </trkpt>
      <trkpt lat="46.96908" lon="-0.71978">
        <ele>178.48104858398</ele>
        <time>2016-06-08T13:52:22.000Z</time>
      </trkpt>
      <trkpt lat="46.96906" lon="-0.71982">
        <ele>179.52450561523</ele>
        <time>2016-06-08T13:52:26.000Z</time>
      </trkpt>
      <trkpt lat="46.96905" lon="-0.71987">
        <ele>180.42315673828</ele>
        <time>2016-06-08T13:52:28.000Z</time>
      </trkpt>
      <trkpt lat="46.96902" lon="-0.7199">
        <ele>180.48466491699</ele>
        <time>2016-06-08T13:52:31.000Z</time>
      </trkpt>
      <trkpt lat="46.96898" lon="-0.71995">
        <ele>179.28985595703</ele>
        <time>2016-06-08T13:52:34.000Z</time>
      </trkpt>
      <trkpt lat="46.96897" lon="-0.71999">
        <ele>178.84785461426</ele>
        <time>2016-06-08T13:52:37.000Z</time>
      </trkpt>
      <trkpt lat="46.96898" lon="-0.72003">
        <ele>178.16284179688</ele>
        <time>2016-06-08T13:52:39.000Z</time>
      </trkpt>
      <trkpt lat="46.969" lon="-0.72009">
        <ele>176.84471130371</ele>
        <time>2016-06-08T13:52:41.000Z</time>
      </trkpt>
      <trkpt lat="46.969" lon="-0.72013">
        <ele>175.81880187988</ele>
        <time>2016-06-08T13:52:44.000Z</time>
      </trkpt>
      <trkpt lat="46.96899" lon="-0.72016">
        <ele>175.39018249512</ele>
        <time>2016-06-08T13:52:46.000Z</time>
      </trkpt>
      <trkpt lat="46.96897" lon="-0.7202">
        <ele>175.63571166992</ele>
        <time>2016-06-08T13:52:48.000Z</time>
      </trkpt>
      <trkpt lat="46.96895" lon="-0.72025">
        <ele>176.4725189209</ele>
        <time>2016-06-08T13:52:51.000Z</time>
      </trkpt>
      <trkpt lat="46.96893" lon="-0.72029">
        <ele>176.56440734863</ele>
        <time>2016-06-08T13:52:53.000Z</time>
      </trkpt>
      <trkpt lat="46.96892" lon="-0.72036">
        <ele>176.48275756836</ele>
        <time>2016-06-08T13:52:55.000Z</time>
      </trkpt>
      <trkpt lat="46.96891" lon="-0.72042">
        <ele>176.03387451172</ele>
        <time>2016-06-08T13:52:57.000Z</time>
      </trkpt>
      <trkpt lat="46.96889" lon="-0.72046">
        <ele>175.58563232422</ele>
        <time>2016-06-08T13:53:00.000Z</time>
      </trkpt>
      <trkpt lat="46.96886" lon="-0.72053">
        <ele>177.1056060791</ele>
        <time>2016-06-08T13:53:03.000Z</time>
      </trkpt>
      <trkpt lat="46.96886" lon="-0.72058">
        <ele>177.09660339355</ele>
        <time>2016-06-08T13:53:05.000Z</time>
      </trkpt>
      <trkpt lat="46.96884" lon="-0.72064">
        <ele>176.36427307129</ele>
        <time>2016-06-08T13:53:08.000Z</time>
      </trkpt>
      <trkpt lat="46.96882" lon="-0.72067">
        <ele>176.28625488281</ele>
        <time>2016-06-08T13:53:11.000Z</time>
      </trkpt>
      <trkpt lat="46.96881" lon="-0.7207">
        <ele>176.61297607422</ele>
        <time>2016-06-08T13:53:13.000Z</time>
      </trkpt>
      <trkpt lat="46.9688" lon="-0.72076">
        <ele>176.87054443359</ele>
        <time>2016-06-08T13:53:16.000Z</time>
      </trkpt>
      <trkpt lat="46.96878" lon="-0.72082">
        <ele>176.7476348877</ele>
        <time>2016-06-08T13:53:19.000Z</time>
      </trkpt>
      <trkpt lat="46.96879" lon="-0.72087">
        <ele>175.65640258789</ele>
        <time>2016-06-08T13:53:22.000Z</time>
      </trkpt>
      <trkpt lat="46.96879" lon="-0.72089">
        <ele>175.78221130371</ele>
        <time>2016-06-08T13:53:24.000Z</time>
      </trkpt>
      <trkpt lat="46.9688" lon="-0.72096">
        <ele>174.73881530762</ele>
        <time>2016-06-08T13:53:27.000Z</time>
      </trkpt>
      <trkpt lat="46.96878" lon="-0.721">
        <ele>173.4907989502</ele>
        <time>2016-06-08T13:53:30.000Z</time>
      </trkpt>
      <trkpt lat="46.96877" lon="-0.72103">
        <ele>172.67637634277</ele>
        <time>2016-06-08T13:53:32.000Z</time>
      </trkpt>
      <trkpt lat="46.96876" lon="-0.72107">
        <ele>172.21807861328</ele>
        <time>2016-06-08T13:53:34.000Z</time>
      </trkpt>
      <trkpt lat="46.96875" lon="-0.72116">
        <ele>171.81323242188</ele>
        <time>2016-06-08T13:53:37.000Z</time>
      </trkpt>
      <trkpt lat="46.96874" lon="-0.7212">
        <ele>173.08012390137</ele>
        <time>2016-06-08T13:53:40.000Z</time>
      </trkpt>
      <trkpt lat="46.96873" lon="-0.72125">
        <ele>174.70317077637</ele>
        <time>2016-06-08T13:53:43.000Z</time>
      </trkpt>
      <trkpt lat="46.96872" lon="-0.7213">
        <ele>176.12808227539</ele>
        <time>2016-06-08T13:53:45.000Z</time>
      </trkpt>
      <trkpt lat="46.96871" lon="-0.72131">
        <ele>177.36454772949</ele>
        <time>2016-06-08T13:53:48.000Z</time>
      </trkpt>
      <trkpt lat="46.96872" lon="-0.72134">
        <ele>177.98643493652</ele>
        <time>2016-06-08T13:53:50.000Z</time>
      </trkpt>
      <trkpt lat="46.96872" lon="-0.7214">
        <ele>179.19462585449</ele>
        <time>2016-06-08T13:53:53.000Z</time>
      </trkpt>
      <trkpt lat="46.96873" lon="-0.72144">
        <ele>180.69415283203</ele>
        <time>2016-06-08T13:53:56.000Z</time>
      </trkpt>
      <trkpt lat="46.96873" lon="-0.72148">
        <ele>181.16885375977</ele>
        <time>2016-06-08T13:53:58.000Z</time>
      </trkpt>
      <trkpt lat="46.96873" lon="-0.72149">
        <ele>181.40644836426</ele>
        <time>2016-06-08T13:54:00.000Z</time>
      </trkpt>
      <trkpt lat="46.9687" lon="-0.72151">
        <ele>182.17770385742</ele>
        <time>2016-06-08T13:54:03.000Z</time>
      </trkpt>
      <trkpt lat="46.96868" lon="-0.72152">
        <ele>182.19400024414</ele>
        <time>2016-06-08T13:54:06.000Z</time>
      </trkpt>
      <trkpt lat="46.96866" lon="-0.72153">
        <ele>181.62236022949</ele>
        <time>2016-06-08T13:54:08.000Z</time>
      </trkpt>
      <trkpt lat="46.96865" lon="-0.72157">
        <ele>181.61267089844</ele>
        <time>2016-06-08T13:54:11.000Z</time>
      </trkpt>
      <trkpt lat="46.96862" lon="-0.72161">
        <ele>183.08387756348</ele>
        <time>2016-06-08T13:54:13.000Z</time>
      </trkpt>
      <trkpt lat="46.96862" lon="-0.72165">
        <ele>184.55587768555</ele>
        <time>2016-06-08T13:54:15.000Z</time>
      </trkpt>
      <trkpt lat="46.96862" lon="-0.72167">
        <ele>184.97898864746</ele>
        <time>2016-06-08T13:54:19.000Z</time>
      </trkpt>
      <trkpt lat="46.96863" lon="-0.72169">
        <ele>186.40997314453</ele>
        <time>2016-06-08T13:54:22.000Z</time>
      </trkpt>
      <trkpt lat="46.96863" lon="-0.72175">
        <ele>188.99261474609</ele>
        <time>2016-06-08T13:54:25.000Z</time>
      </trkpt>
      <trkpt lat="46.96862" lon="-0.72177">
        <ele>189.78553771973</ele>
        <time>2016-06-08T13:54:27.000Z</time>
      </trkpt>
      <trkpt lat="46.9686" lon="-0.72182">
        <ele>189.57144165039</ele>
        <time>2016-06-08T13:54:30.000Z</time>
      </trkpt>
      <trkpt lat="46.9686" lon="-0.72187">
        <ele>189.65231323242</ele>
        <time>2016-06-08T13:54:33.000Z</time>
      </trkpt>
      <trkpt lat="46.96859" lon="-0.72189">
        <ele>189.60885620117</ele>
        <time>2016-06-08T13:54:35.000Z</time>
      </trkpt>
      <trkpt lat="46.96859" lon="-0.72191">
        <ele>189.37998962402</ele>
        <time>2016-06-08T13:54:37.000Z</time>
      </trkpt>
      <trkpt lat="46.96858" lon="-0.72198">
        <ele>190.31730651855</ele>
        <time>2016-06-08T13:54:40.000Z</time>
      </trkpt>
      <trkpt lat="46.96856" lon="-0.72204">
        <ele>191.8955078125</ele>
        <time>2016-06-08T13:54:43.000Z</time>
      </trkpt>
      <trkpt lat="46.96852" lon="-0.72213">
        <ele>190.49234008789</ele>
        <time>2016-06-08T13:54:46.000Z</time>
      </trkpt>
      <trkpt lat="46.96849" lon="-0.72217">
        <ele>189.12565612793</ele>
        <time>2016-06-08T13:54:48.000Z</time>
      </trkpt>
      <trkpt lat="46.96849" lon="-0.72221">
        <ele>188.8038482666</ele>
        <time>2016-06-08T13:54:50.000Z</time>
      </trkpt>
      <trkpt lat="46.96847" lon="-0.72227">
        <ele>187.14752197266</ele>
        <time>2016-06-08T13:54:53.000Z</time>
      </trkpt>
      <trkpt lat="46.96848" lon="-0.72233">
        <ele>187.47235107422</ele>
        <time>2016-06-08T13:54:56.000Z</time>
      </trkpt>
      <trkpt lat="46.96848" lon="-0.72242">
        <ele>187.59780883789</ele>
        <time>2016-06-08T13:54:59.000Z</time>
      </trkpt>
      <trkpt lat="46.96848" lon="-0.72247">
        <ele>188.07563781738</ele>
        <time>2016-06-08T13:55:01.000Z</time>
      </trkpt>
      <trkpt lat="46.96848" lon="-0.72251">
        <ele>188.31985473633</ele>
        <time>2016-06-08T13:55:03.000Z</time>
      </trkpt>
      <trkpt lat="46.96848" lon="-0.72256">
        <ele>189.56121826172</ele>
        <time>2016-06-08T13:55:06.000Z</time>
      </trkpt>
      <trkpt lat="46.96848" lon="-0.7226">
        <ele>189.68446350098</ele>
        <time>2016-06-08T13:55:08.000Z</time>
      </trkpt>
      <trkpt lat="46.96847" lon="-0.72263">
        <ele>189.83081054688</ele>
        <time>2016-06-08T13:55:11.000Z</time>
      </trkpt>
      <trkpt lat="46.96845" lon="-0.72269">
        <ele>190.8286895752</ele>
        <time>2016-06-08T13:55:14.000Z</time>
      </trkpt>
      <trkpt lat="46.96843" lon="-0.72275">
        <ele>191.32998657227</ele>
        <time>2016-06-08T13:55:16.000Z</time>
      </trkpt>
      <trkpt lat="46.96837" lon="-0.72275">
        <ele>190.57440185547</ele>
        <time>2016-06-08T13:55:19.000Z</time>
      </trkpt>
      <trkpt lat="46.96836" lon="-0.72276">
        <ele>189.70425415039</ele>
        <time>2016-06-08T13:55:21.000Z</time>
      </trkpt>
      <trkpt lat="46.96835" lon="-0.72281">
        <ele>190.03189086914</ele>
        <time>2016-06-08T13:55:24.000Z</time>
      </trkpt>
      <trkpt lat="46.96836" lon="-0.72287">
        <ele>191.85157775879</ele>
        <time>2016-06-08T13:55:27.000Z</time>
      </trkpt>
      <trkpt lat="46.96835" lon="-0.72293">
        <ele>191.92660522461</ele>
        <time>2016-06-08T13:55:29.000Z</time>
      </trkpt>
      <trkpt lat="46.96834" lon="-0.72299">
        <ele>192.18896484375</ele>
        <time>2016-06-08T13:55:32.000Z</time>
      </trkpt>
      <trkpt lat="46.96833" lon="-0.72305">
        <ele>192.15437316895</ele>
        <time>2016-06-08T13:55:34.000Z</time>
      </trkpt>
      <trkpt lat="46.96832" lon="-0.72312">
        <ele>193.61051940918</ele>
        <time>2016-06-08T13:55:37.000Z</time>
      </trkpt>
      <trkpt lat="46.9683" lon="-0.72315">
        <ele>194.57992553711</ele>
        <time>2016-06-08T13:55:39.000Z</time>
      </trkpt>
      <trkpt lat="46.96828" lon="-0.72318">
        <ele>193.83473205566</ele>
        <time>2016-06-08T13:55:41.000Z</time>
      </trkpt>
      <trkpt lat="46.96825" lon="-0.72327">
        <ele>190.70254516602</ele>
        <time>2016-06-08T13:55:44.000Z</time>
      </trkpt>
      <trkpt lat="46.96824" lon="-0.7233">
        <ele>189.39241027832</ele>
        <time>2016-06-08T13:55:46.000Z</time>
      </trkpt>
      <trkpt lat="46.96822" lon="-0.72333">
        <ele>187.71984863281</ele>
        <time>2016-06-08T13:55:49.000Z</time>
      </trkpt>
      <trkpt lat="46.9682" lon="-0.72338">
        <ele>186.06100463867</ele>
        <time>2016-06-08T13:55:51.000Z</time>
      </trkpt>
      <trkpt lat="46.9682" lon="-0.72343">
        <ele>185.62265014648</ele>
        <time>2016-06-08T13:55:54.000Z</time>
      </trkpt>
      <trkpt lat="46.9682" lon="-0.72348">
        <ele>185.36027526855</ele>
        <time>2016-06-08T13:55:56.000Z</time>
      </trkpt>
      <trkpt lat="46.96818" lon="-0.72356">
        <ele>184.64959716797</ele>
        <time>2016-06-08T13:55:59.000Z</time>
      </trkpt>
      <trkpt lat="46.96817" lon="-0.72366">
        <ele>183.81091308594</ele>
        <time>2016-06-08T13:56:02.000Z</time>
      </trkpt>
      <trkpt lat="46.96814" lon="-0.72368">
        <ele>182.11962890625</ele>
        <time>2016-06-08T13:56:04.000Z</time>
      </trkpt>
      <trkpt lat="46.96814" lon="-0.72373">
        <ele>182.5022277832</ele>
        <time>2016-06-08T13:56:07.000Z</time>
      </trkpt>
      <trkpt lat="46.96812" lon="-0.72383">
        <ele>182.40913391113</ele>
        <time>2016-06-08T13:56:10.000Z</time>
      </trkpt>
      <trkpt lat="46.96812" lon="-0.72392">
        <ele>182.37419128418</ele>
        <time>2016-06-08T13:56:13.000Z</time>
      </trkpt>
      <trkpt lat="46.96812" lon="-0.72399">
        <ele>182.03565979004</ele>
        <time>2016-06-08T13:56:16.000Z</time>
      </trkpt>
      <trkpt lat="46.9681" lon="-0.72401">
        <ele>181.88269042969</ele>
        <time>2016-06-08T13:56:19.000Z</time>
      </trkpt>
      <trkpt lat="46.96808" lon="-0.72406">
        <ele>182.57666015625</ele>
        <time>2016-06-08T13:56:22.000Z</time>
      </trkpt>
      <trkpt lat="46.96806" lon="-0.72413">
        <ele>182.03515625</ele>
        <time>2016-06-08T13:56:25.000Z</time>
      </trkpt>
      <trkpt lat="46.96806" lon="-0.72421">
        <ele>183.77517700195</ele>
        <time>2016-06-08T13:56:28.000Z</time>
      </trkpt>
      <trkpt lat="46.96804" lon="-0.72427">
        <ele>185.28071594238</ele>
        <time>2016-06-08T13:56:31.000Z</time>
      </trkpt>
      <trkpt lat="46.96802" lon="-0.72429">
        <ele>186.16633605957</ele>
        <time>2016-06-08T13:56:34.000Z</time>
      </trkpt>
      <trkpt lat="46.96801" lon="-0.72431">
        <ele>185.96255493164</ele>
        <time>2016-06-08T13:56:36.000Z</time>
      </trkpt>
      <trkpt lat="46.96801" lon="-0.72437">
        <ele>185.99700927734</ele>
        <time>2016-06-08T13:56:39.000Z</time>
      </trkpt>
      <trkpt lat="46.968" lon="-0.7244">
        <ele>186.15823364258</ele>
        <time>2016-06-08T13:56:41.000Z</time>
      </trkpt>
      <trkpt lat="46.96799" lon="-0.72441">
        <ele>185.65577697754</ele>
        <time>2016-06-08T13:56:44.000Z</time>
      </trkpt>
      <trkpt lat="46.96798" lon="-0.72442">
        <ele>185.32485961914</ele>
        <time>2016-06-08T13:56:46.000Z</time>
      </trkpt>
      <trkpt lat="46.96798" lon="-0.72443">
        <ele>184.74371337891</ele>
        <time>2016-06-08T13:56:50.000Z</time>
      </trkpt>
      <trkpt lat="46.96798" lon="-0.72445">
        <ele>184.97027587891</ele>
        <time>2016-06-08T13:56:54.000Z</time>
      </trkpt>
      <trkpt lat="46.96798" lon="-0.72445">
        <ele>183.81227111816</ele>
        <time>2016-06-08T13:57:14.000Z</time>
      </trkpt>
      <trkpt lat="46.96797" lon="-0.72447">
        <ele>185.01538085938</ele>
        <time>2016-06-08T13:57:36.000Z</time>
      </trkpt>
      <trkpt lat="46.96796" lon="-0.72448">
        <ele>185.02018737793</ele>
        <time>2016-06-08T13:57:41.000Z</time>
      </trkpt>
      <trkpt lat="46.96795" lon="-0.72451">
        <ele>183.67477416992</ele>
        <time>2016-06-08T13:57:43.000Z</time>
      </trkpt>
      <trkpt lat="46.96793" lon="-0.72458">
        <ele>180.73411560059</ele>
        <time>2016-06-08T13:57:45.000Z</time>
      </trkpt>
      <trkpt lat="46.96789" lon="-0.72468">
        <ele>177.3610534668</ele>
        <time>2016-06-08T13:57:48.000Z</time>
      </trkpt>
      <trkpt lat="46.96787" lon="-0.7247">
        <ele>176.29977416992</ele>
        <time>2016-06-08T13:57:50.000Z</time>
      </trkpt>
      <trkpt lat="46.96785" lon="-0.72473">
        <ele>176.3399810791</ele>
        <time>2016-06-08T13:57:54.000Z</time>
      </trkpt>
      <trkpt lat="46.96784" lon="-0.72477">
        <ele>176.93243408203</ele>
        <time>2016-06-08T13:57:56.000Z</time>
      </trkpt>
      <trkpt lat="46.96781" lon="-0.72484">
        <ele>178.06774902344</ele>
        <time>2016-06-08T13:57:59.000Z</time>
      </trkpt>
      <trkpt lat="46.9678" lon="-0.72487">
        <ele>179.00810241699</ele>
        <time>2016-06-08T13:58:01.000Z</time>
      </trkpt>
      <trkpt lat="46.96778" lon="-0.72491">
        <ele>180.23150634766</ele>
        <time>2016-06-08T13:58:05.000Z</time>
      </trkpt>
      <trkpt lat="46.96777" lon="-0.72495">
        <ele>181.76699829102</ele>
        <time>2016-06-08T13:58:08.000Z</time>
      </trkpt>
      <trkpt lat="46.96776" lon="-0.72496">
        <ele>182.88407897949</ele>
        <time>2016-06-08T13:58:26.000Z</time>
      </trkpt>
      <trkpt lat="46.96776" lon="-0.72496">
        <ele>184.74180603027</ele>
        <time>2016-06-08T13:58:46.000Z</time>
      </trkpt>
      <trkpt lat="46.96775" lon="-0.72498">
        <ele>182.77268981934</ele>
        <time>2016-06-08T13:59:02.000Z</time>
      </trkpt>
      <trkpt lat="46.96774" lon="-0.725">
        <ele>180.91868591309</ele>
        <time>2016-06-08T13:59:05.000Z</time>
      </trkpt>
      <trkpt lat="46.96772" lon="-0.72502">
        <ele>180.07681274414</ele>
        <time>2016-06-08T13:59:08.000Z</time>
      </trkpt>
      <trkpt lat="46.9677" lon="-0.72503">
        <ele>179.56983947754</ele>
        <time>2016-06-08T13:59:11.000Z</time>
      </trkpt>
      <trkpt lat="46.96769" lon="-0.72505">
        <ele>179.5167388916</ele>
        <time>2016-06-08T13:59:17.000Z</time>
      </trkpt>
      <trkpt lat="46.96768" lon="-0.72509">
        <ele>178.64176940918</ele>
        <time>2016-06-08T13:59:19.000Z</time>
      </trkpt>
      <trkpt lat="46.96768" lon="-0.72514">
        <ele>178.33171081543</ele>
        <time>2016-06-08T13:59:21.000Z</time>
      </trkpt>
      <trkpt lat="46.96767" lon="-0.7252">
        <ele>178.05839538574</ele>
        <time>2016-06-08T13:59:24.000Z</time>
      </trkpt>
      <trkpt lat="46.96766" lon="-0.72526">
        <ele>178.72052001953</ele>
        <time>2016-06-08T13:59:27.000Z</time>
      </trkpt>
      <trkpt lat="46.96765" lon="-0.72531">
        <ele>179.76368713379</ele>
        <time>2016-06-08T13:59:30.000Z</time>
      </trkpt>
      <trkpt lat="46.96764" lon="-0.72537">
        <ele>180.52978515625</ele>
        <time>2016-06-08T13:59:33.000Z</time>
      </trkpt>
      <trkpt lat="46.96764" lon="-0.72541">
        <ele>181.2797088623</ele>
        <time>2016-06-08T13:59:35.000Z</time>
      </trkpt>
      <trkpt lat="46.96764" lon="-0.72547">
        <ele>182.4747467041</ele>
        <time>2016-06-08T13:59:38.000Z</time>
      </trkpt>
      <trkpt lat="46.96763" lon="-0.72552">
        <ele>183.45091247559</ele>
        <time>2016-06-08T13:59:41.000Z</time>
      </trkpt>
      <trkpt lat="46.96762" lon="-0.72555">
        <ele>184.00512695312</ele>
        <time>2016-06-08T13:59:43.000Z</time>
      </trkpt>
      <trkpt lat="46.96762" lon="-0.7256">
        <ele>185.93557739258</ele>
        <time>2016-06-08T13:59:46.000Z</time>
      </trkpt>
      <trkpt lat="46.96761" lon="-0.72563">
        <ele>186.64723205566</ele>
        <time>2016-06-08T13:59:48.000Z</time>
      </trkpt>
      <trkpt lat="46.96761" lon="-0.72566">
        <ele>187.17219543457</ele>
        <time>2016-06-08T13:59:50.000Z</time>
      </trkpt>
      <trkpt lat="46.9676" lon="-0.72571">
        <ele>186.87243652344</ele>
        <time>2016-06-08T13:59:53.000Z</time>
      </trkpt>
      <trkpt lat="46.96759" lon="-0.72575">
        <ele>186.15473937988</ele>
        <time>2016-06-08T13:59:56.000Z</time>
      </trkpt>
      <trkpt lat="46.96758" lon="-0.72579">
        <ele>185.98420715332</ele>
        <time>2016-06-08T13:59:58.000Z</time>
      </trkpt>
      <trkpt lat="46.96756" lon="-0.72584">
        <ele>186.60899353027</ele>
        <time>2016-06-08T14:00:01.000Z</time>
      </trkpt>
      <trkpt lat="46.96756" lon="-0.72587">
        <ele>187.09545898438</ele>
        <time>2016-06-08T14:00:03.000Z</time>
      </trkpt>
      <trkpt lat="46.96755" lon="-0.72593">
        <ele>186.86308288574</ele>
        <time>2016-06-08T14:00:06.000Z</time>
      </trkpt>
      <trkpt lat="46.96755" lon="-0.72596">
        <ele>186.21894836426</ele>
        <time>2016-06-08T14:00:08.000Z</time>
      </trkpt>
      <trkpt lat="46.96754" lon="-0.726">
        <ele>186.05502319336</ele>
        <time>2016-06-08T14:00:10.000Z</time>
      </trkpt>
      <trkpt lat="46.96754" lon="-0.72603">
        <ele>185.71617126465</ele>
        <time>2016-06-08T14:00:12.000Z</time>
      </trkpt>
      <trkpt lat="46.96754" lon="-0.72606">
        <ele>185.35847473145</ele>
        <time>2016-06-08T14:00:14.000Z</time>
      </trkpt>
      <trkpt lat="46.96754" lon="-0.7261">
        <ele>185.15777587891</ele>
        <time>2016-06-08T14:00:17.000Z</time>
      </trkpt>
      <trkpt lat="46.96755" lon="-0.72613">
        <ele>185.89190673828</ele>
        <time>2016-06-08T14:00:20.000Z</time>
      </trkpt>
      <trkpt lat="46.96756" lon="-0.72617">
        <ele>186.22454833984</ele>
        <time>2016-06-08T14:00:23.000Z</time>
      </trkpt>
      <trkpt lat="46.96756" lon="-0.72619">
        <ele>187.27333068848</ele>
        <time>2016-06-08T14:00:25.000Z</time>
      </trkpt>
      <trkpt lat="46.96756" lon="-0.72623">
        <ele>188.66082763672</ele>
        <time>2016-06-08T14:00:27.000Z</time>
      </trkpt>
      <trkpt lat="46.96754" lon="-0.72629">
        <ele>189.8674621582</ele>
        <time>2016-06-08T14:00:30.000Z</time>
      </trkpt>
      <trkpt lat="46.96752" lon="-0.72635">
        <ele>190.08798217773</ele>
        <time>2016-06-08T14:00:32.000Z</time>
      </trkpt>
      <trkpt lat="46.96749" lon="-0.72642">
        <ele>188.4327545166</ele>
        <time>2016-06-08T14:00:35.000Z</time>
      </trkpt>
      <trkpt lat="46.96745" lon="-0.72648">
        <ele>187.52659606934</ele>
        <time>2016-06-08T14:00:38.000Z</time>
      </trkpt>
      <trkpt lat="46.96742" lon="-0.72655">
        <ele>188.90184020996</ele>
        <time>2016-06-08T14:00:41.000Z</time>
      </trkpt>
      <trkpt lat="46.96741" lon="-0.72659">
        <ele>189.75155639648</ele>
        <time>2016-06-08T14:00:43.000Z</time>
      </trkpt>
      <trkpt lat="46.96739" lon="-0.72663">
        <ele>189.29165649414</ele>
        <time>2016-06-08T14:00:45.000Z</time>
      </trkpt>
      <trkpt lat="46.96737" lon="-0.72668">
        <ele>187.49346923828</ele>
        <time>2016-06-08T14:00:48.000Z</time>
      </trkpt>
      <trkpt lat="46.96735" lon="-0.72673">
        <ele>186.11740112305</ele>
        <time>2016-06-08T14:00:51.000Z</time>
      </trkpt>
      <trkpt lat="46.96734" lon="-0.7268">
        <ele>186</ele>
        <time>2016-06-08T14:00:54.000Z</time>
      </trkpt>
      <trkpt lat="46.96732" lon="-0.72684">
        <ele>184.87864685059</ele>
        <time>2016-06-08T14:00:57.000Z</time>
      </trkpt>
      <trkpt lat="46.96731" lon="-0.72688">
        <ele>184.15675354004</ele>
        <time>2016-06-08T14:01:00.000Z</time>
      </trkpt>
      <trkpt lat="46.9673" lon="-0.72692">
        <ele>183.62544250488</ele>
        <time>2016-06-08T14:01:02.000Z</time>
      </trkpt>
      <trkpt lat="46.9673" lon="-0.72695">
        <ele>183.90254211426</ele>
        <time>2016-06-08T14:01:04.000Z</time>
      </trkpt>
      <trkpt lat="46.96731" lon="-0.727">
        <ele>185.22373962402</ele>
        <time>2016-06-08T14:01:07.000Z</time>
      </trkpt>
      <trkpt lat="46.96731" lon="-0.72705">
        <ele>185.1522064209</ele>
        <time>2016-06-08T14:01:09.000Z</time>
      </trkpt>
      <trkpt lat="46.96732" lon="-0.7271">
        <ele>185.05783081055</ele>
        <time>2016-06-08T14:01:11.000Z</time>
      </trkpt>
      <trkpt lat="46.96732" lon="-0.72718">
        <ele>185.9091796875</ele>
        <time>2016-06-08T14:01:14.000Z</time>
      </trkpt>
      <trkpt lat="46.96731" lon="-0.72723">
        <ele>184.53176879883</ele>
        <time>2016-06-08T14:01:17.000Z</time>
      </trkpt>
      <trkpt lat="46.9673" lon="-0.72727">
        <ele>183.40003967285</ele>
        <time>2016-06-08T14:01:19.000Z</time>
      </trkpt>
      <trkpt lat="46.96729" lon="-0.72729">
        <ele>182.20655822754</ele>
        <time>2016-06-08T14:01:21.000Z</time>
      </trkpt>
      <trkpt lat="46.96725" lon="-0.72733">
        <ele>182.50148010254</ele>
        <time>2016-06-08T14:01:24.000Z</time>
      </trkpt>
      <trkpt lat="46.96725" lon="-0.72737">
        <ele>181.74632263184</ele>
        <time>2016-06-08T14:01:27.000Z</time>
      </trkpt>
      <trkpt lat="46.96724" lon="-0.72741">
        <ele>182.05181884766</ele>
        <time>2016-06-08T14:01:29.000Z</time>
      </trkpt>
      <trkpt lat="46.96724" lon="-0.72747">
        <ele>182.63571166992</ele>
        <time>2016-06-08T14:01:32.000Z</time>
      </trkpt>
      <trkpt lat="46.96722" lon="-0.72752">
        <ele>181.8921661377</ele>
        <time>2016-06-08T14:01:34.000Z</time>
      </trkpt>
      <trkpt lat="46.96723" lon="-0.72758">
        <ele>181.35206604004</ele>
        <time>2016-06-08T14:01:36.000Z</time>
      </trkpt>
      <trkpt lat="46.96721" lon="-0.72764">
        <ele>181.56942749023</ele>
        <time>2016-06-08T14:01:39.000Z</time>
      </trkpt>
      <trkpt lat="46.96717" lon="-0.72769">
        <ele>182.03146362305</ele>
        <time>2016-06-08T14:01:42.000Z</time>
      </trkpt>
      <trkpt lat="46.96717" lon="-0.72774">
        <ele>182.0152130127</ele>
        <time>2016-06-08T14:01:45.000Z</time>
      </trkpt>
      <trkpt lat="46.96715" lon="-0.72777">
        <ele>182.02243041992</ele>
        <time>2016-06-08T14:01:47.000Z</time>
      </trkpt>
      <trkpt lat="46.96712" lon="-0.7278">
        <ele>180.86015319824</ele>
        <time>2016-06-08T14:01:50.000Z</time>
      </trkpt>
      <trkpt lat="46.96709" lon="-0.72786">
        <ele>183.38043212891</ele>
        <time>2016-06-08T14:01:53.000Z</time>
      </trkpt>
      <trkpt lat="46.96706" lon="-0.72791">
        <ele>184.03761291504</ele>
        <time>2016-06-08T14:01:56.000Z</time>
      </trkpt>
      <trkpt lat="46.96703" lon="-0.72794">
        <ele>185.21710205078</ele>
        <time>2016-06-08T14:01:59.000Z</time>
      </trkpt>
      <trkpt lat="46.96701" lon="-0.72797">
        <ele>187.03103637695</ele>
        <time>2016-06-08T14:02:03.000Z</time>
      </trkpt>
      <trkpt lat="46.967" lon="-0.72798">
        <ele>186.46685791016</ele>
        <time>2016-06-08T14:02:11.000Z</time>
      </trkpt>
      <trkpt lat="46.96698" lon="-0.72799">
        <ele>184.77603149414</ele>
        <time>2016-06-08T14:02:13.000Z</time>
      </trkpt>
      <trkpt lat="46.96696" lon="-0.72805">
        <ele>184.54675292969</ele>
        <time>2016-06-08T14:02:16.000Z</time>
      </trkpt>
      <trkpt lat="46.96695" lon="-0.72808">
        <ele>184.4630279541</ele>
        <time>2016-06-08T14:02:18.000Z</time>
      </trkpt>
      <trkpt lat="46.96695" lon="-0.72817">
        <ele>185.78018188477</ele>
        <time>2016-06-08T14:02:21.000Z</time>
      </trkpt>
      <trkpt lat="46.96698" lon="-0.72828">
        <ele>187.73838806152</ele>
        <time>2016-06-08T14:02:24.000Z</time>
      </trkpt>
      <trkpt lat="46.96694" lon="-0.72829">
        <ele>187.57231140137</ele>
        <time>2016-06-08T14:02:27.000Z</time>
      </trkpt>
      <trkpt lat="46.96692" lon="-0.7283">
        <ele>187.14179992676</ele>
        <time>2016-06-08T14:02:30.000Z</time>
      </trkpt>
      <trkpt lat="46.96691" lon="-0.72833">
        <ele>187.97146606445</ele>
        <time>2016-06-08T14:02:33.000Z</time>
      </trkpt>
      <trkpt lat="46.96686" lon="-0.7284">
        <ele>188.63153076172</ele>
        <time>2016-06-08T14:02:36.000Z</time>
      </trkpt>
      <trkpt lat="46.96681" lon="-0.72843">
        <ele>189.00852966309</ele>
        <time>2016-06-08T14:02:38.000Z</time>
      </trkpt>
      <trkpt lat="46.96679" lon="-0.72849">
        <ele>189.56126403809</ele>
        <time>2016-06-08T14:02:41.000Z</time>
      </trkpt>
      <trkpt lat="46.96678" lon="-0.72857">
        <ele>190.32957458496</ele>
        <time>2016-06-08T14:02:44.000Z</time>
      </trkpt>
      <trkpt lat="46.96677" lon="-0.72861">
        <ele>191.2399597168</ele>
        <time>2016-06-08T14:02:46.000Z</time>
      </trkpt>
      <trkpt lat="46.96676" lon="-0.7286">
        <ele>192.33364868164</ele>
        <time>2016-06-08T14:02:48.000Z</time>
      </trkpt>
      <trkpt lat="46.96674" lon="-0.72865">
        <ele>193.71078491211</ele>
        <time>2016-06-08T14:02:51.000Z</time>
      </trkpt>
      <trkpt lat="46.96671" lon="-0.72871">
        <ele>191.87948608398</ele>
        <time>2016-06-08T14:02:54.000Z</time>
      </trkpt>
      <trkpt lat="46.9667" lon="-0.72872">
        <ele>190.96820068359</ele>
        <time>2016-06-08T14:02:56.000Z</time>
      </trkpt>
      <trkpt lat="46.96668" lon="-0.72876">
        <ele>188.11228942871</ele>
        <time>2016-06-08T14:02:59.000Z</time>
      </trkpt>
      <trkpt lat="46.96668" lon="-0.72879">
        <ele>188.03350830078</ele>
        <time>2016-06-08T14:03:01.000Z</time>
      </trkpt>
      <trkpt lat="46.96667" lon="-0.72883">
        <ele>187.54542541504</ele>
        <time>2016-06-08T14:03:03.000Z</time>
      </trkpt>
      <trkpt lat="46.96666" lon="-0.72885">
        <ele>185.25250244141</ele>
        <time>2016-06-08T14:03:05.000Z</time>
      </trkpt>
      <trkpt lat="46.96665" lon="-0.72891">
        <ele>185.24894714355</ele>
        <time>2016-06-08T14:03:08.000Z</time>
      </trkpt>
      <trkpt lat="46.96665" lon="-0.72895">
        <ele>186.05656433105</ele>
        <time>2016-06-08T14:03:10.000Z</time>
      </trkpt>
      <trkpt lat="46.96663" lon="-0.729">
        <ele>186.67161560059</ele>
        <time>2016-06-08T14:03:12.000Z</time>
      </trkpt>
      <trkpt lat="46.9666" lon="-0.72905">
        <ele>187.39788818359</ele>
        <time>2016-06-08T14:03:15.000Z</time>
      </trkpt>
      <trkpt lat="46.96659" lon="-0.72909">
        <ele>187.22227478027</ele>
        <time>2016-06-08T14:03:17.000Z</time>
      </trkpt>
      <trkpt lat="46.96655" lon="-0.72915">
        <ele>186.50987243652</ele>
        <time>2016-06-08T14:03:20.000Z</time>
      </trkpt>
      <trkpt lat="46.96649" lon="-0.72918">
        <ele>186.58984375</ele>
        <time>2016-06-08T14:03:23.000Z</time>
      </trkpt>
      <trkpt lat="46.96647" lon="-0.72923">
        <ele>186.59481811523</ele>
        <time>2016-06-08T14:03:26.000Z</time>
      </trkpt>
      <trkpt lat="46.96643" lon="-0.72927">
        <ele>183.81951904297</ele>
        <time>2016-06-08T14:03:29.000Z</time>
      </trkpt>
      <trkpt lat="46.96641" lon="-0.72931">
        <ele>183.11610412598</ele>
        <time>2016-06-08T14:03:31.000Z</time>
      </trkpt>
      <trkpt lat="46.96638" lon="-0.72936">
        <ele>182.3447265625</ele>
        <time>2016-06-08T14:03:34.000Z</time>
      </trkpt>
      <trkpt lat="46.96637" lon="-0.7294">
        <ele>181.57864379883</ele>
        <time>2016-06-08T14:03:36.000Z</time>
      </trkpt>
      <trkpt lat="46.96635" lon="-0.72947">
        <ele>182.84927368164</ele>
        <time>2016-06-08T14:03:39.000Z</time>
      </trkpt>
      <trkpt lat="46.96633" lon="-0.72951">
        <ele>181.7755279541</ele>
        <time>2016-06-08T14:03:42.000Z</time>
      </trkpt>
      <trkpt lat="46.96631" lon="-0.72953">
        <ele>180.1759185791</ele>
        <time>2016-06-08T14:03:44.000Z</time>
      </trkpt>
      <trkpt lat="46.96626" lon="-0.72955">
        <ele>179.09297180176</ele>
        <time>2016-06-08T14:03:47.000Z</time>
      </trkpt>
      <trkpt lat="46.96624" lon="-0.7296">
        <ele>178.76251220703</ele>
        <time>2016-06-08T14:03:50.000Z</time>
      </trkpt>
      <trkpt lat="46.96622" lon="-0.72962">
        <ele>179.21923828125</ele>
        <time>2016-06-08T14:03:52.000Z</time>
      </trkpt>
      <trkpt lat="46.96618" lon="-0.72964">
        <ele>179.07574462891</ele>
        <time>2016-06-08T14:03:55.000Z</time>
      </trkpt>
      <trkpt lat="46.96611" lon="-0.72965">
        <ele>178.74212646484</ele>
        <time>2016-06-08T14:03:58.000Z</time>
      </trkpt>
      <trkpt lat="46.9661" lon="-0.72968">
        <ele>178.91464233398</ele>
        <time>2016-06-08T14:04:00.000Z</time>
      </trkpt>
      <trkpt lat="46.96609" lon="-0.72974">
        <ele>179.16268920898</ele>
        <time>2016-06-08T14:04:03.000Z</time>
      </trkpt>
      <trkpt lat="46.96609" lon="-0.72978">
        <ele>179.9384765625</ele>
        <time>2016-06-08T14:04:05.000Z</time>
      </trkpt>
      <trkpt lat="46.96605" lon="-0.7298">
        <ele>180.1242980957</ele>
        <time>2016-06-08T14:04:08.000Z</time>
      </trkpt>
      <trkpt lat="46.96602" lon="-0.72983">
        <ele>180.44021606445</ele>
        <time>2016-06-08T14:04:10.000Z</time>
      </trkpt>
      <trkpt lat="46.96598" lon="-0.72985">
        <ele>180.13998413086</ele>
        <time>2016-06-08T14:04:13.000Z</time>
      </trkpt>
      <trkpt lat="46.96595" lon="-0.72989">
        <ele>178.87854003906</ele>
        <time>2016-06-08T14:04:16.000Z</time>
      </trkpt>
      <trkpt lat="46.96591" lon="-0.7299">
        <ele>179.49530029297</ele>
        <time>2016-06-08T14:04:18.000Z</time>
      </trkpt>
      <trkpt lat="46.96589" lon="-0.72992">
        <ele>179.53677368164</ele>
        <time>2016-06-08T14:04:20.000Z</time>
      </trkpt>
      <trkpt lat="46.96588" lon="-0.72996">
        <ele>180.40498352051</ele>
        <time>2016-06-08T14:04:23.000Z</time>
      </trkpt>
      <trkpt lat="46.96587" lon="-0.72999">
        <ele>181.51176452637</ele>
        <time>2016-06-08T14:04:25.000Z</time>
      </trkpt>
      <trkpt lat="46.96584" lon="-0.73004">
        <ele>183.36625671387</ele>
        <time>2016-06-08T14:04:28.000Z</time>
      </trkpt>
      <trkpt lat="46.96582" lon="-0.73008">
        <ele>184.99493408203</ele>
        <time>2016-06-08T14:04:31.000Z</time>
      </trkpt>
      <trkpt lat="46.96578" lon="-0.7301">
        <ele>185.81513977051</ele>
        <time>2016-06-08T14:04:34.000Z</time>
      </trkpt>
      <trkpt lat="46.96576" lon="-0.73013">
        <ele>186.25689697266</ele>
        <time>2016-06-08T14:04:36.000Z</time>
      </trkpt>
      <trkpt lat="46.96574" lon="-0.73015">
        <ele>188.15557861328</ele>
        <time>2016-06-08T14:04:39.000Z</time>
      </trkpt>
      <trkpt lat="46.96571" lon="-0.73018">
        <ele>189.09719848633</ele>
        <time>2016-06-08T14:04:41.000Z</time>
      </trkpt>
      <trkpt lat="46.96565" lon="-0.73021">
        <ele>189.16194152832</ele>
        <time>2016-06-08T14:04:44.000Z</time>
      </trkpt>
      <trkpt lat="46.96563" lon="-0.73024">
        <ele>188.15489196777</ele>
        <time>2016-06-08T14:04:47.000Z</time>
      </trkpt>
      <trkpt lat="46.96559" lon="-0.73027">
        <ele>187.80447387695</ele>
        <time>2016-06-08T14:04:50.000Z</time>
      </trkpt>
      <trkpt lat="46.96558" lon="-0.73028">
        <ele>187.04150390625</ele>
        <time>2016-06-08T14:04:52.000Z</time>
      </trkpt>
      <trkpt lat="46.96556" lon="-0.73029">
        <ele>186.09031677246</ele>
        <time>2016-06-08T14:04:54.000Z</time>
      </trkpt>
      <trkpt lat="46.96552" lon="-0.73032">
        <ele>185.20196533203</ele>
        <time>2016-06-08T14:04:57.000Z</time>
      </trkpt>
      <trkpt lat="46.96549" lon="-0.73035">
        <ele>185.35188293457</ele>
        <time>2016-06-08T14:05:00.000Z</time>
      </trkpt>
      <trkpt lat="46.96546" lon="-0.73038">
        <ele>185.42022705078</ele>
        <time>2016-06-08T14:05:03.000Z</time>
      </trkpt>
      <trkpt lat="46.96544" lon="-0.7304">
        <ele>185.06547546387</ele>
        <time>2016-06-08T14:05:05.000Z</time>
      </trkpt>
      <trkpt lat="46.96541" lon="-0.73041">
        <ele>185.01066589355</ele>
        <time>2016-06-08T14:05:07.000Z</time>
      </trkpt>
      <trkpt lat="46.96539" lon="-0.73043">
        <ele>185.01544189453</ele>
        <time>2016-06-08T14:05:09.000Z</time>
      </trkpt>
      <trkpt lat="46.96535" lon="-0.73047">
        <ele>184.21702575684</ele>
        <time>2016-06-08T14:05:12.000Z</time>
      </trkpt>
      <trkpt lat="46.96533" lon="-0.7305">
        <ele>184.00343322754</ele>
        <time>2016-06-08T14:05:15.000Z</time>
      </trkpt>
      <trkpt lat="46.96529" lon="-0.73053">
        <ele>183.04109191895</ele>
        <time>2016-06-08T14:05:18.000Z</time>
      </trkpt>
      <trkpt lat="46.96527" lon="-0.73055">
        <ele>183.00494384766</ele>
        <time>2016-06-08T14:05:20.000Z</time>
      </trkpt>
      <trkpt lat="46.96523" lon="-0.73058">
        <ele>183.01861572266</ele>
        <time>2016-06-08T14:05:23.000Z</time>
      </trkpt>
      <trkpt lat="46.96521" lon="-0.7306">
        <ele>183.01808166504</ele>
        <time>2016-06-08T14:05:25.000Z</time>
      </trkpt>
      <trkpt lat="46.96519" lon="-0.73062">
        <ele>183.01676940918</ele>
        <time>2016-06-08T14:05:27.000Z</time>
      </trkpt>
      <trkpt lat="46.96516" lon="-0.73064">
        <ele>182.56246948242</ele>
        <time>2016-06-08T14:05:29.000Z</time>
      </trkpt>
      <trkpt lat="46.96512" lon="-0.73067">
        <ele>182.97700500488</ele>
        <time>2016-06-08T14:05:32.000Z</time>
      </trkpt>
      <trkpt lat="46.9651" lon="-0.73069">
        <ele>183.01914978027</ele>
        <time>2016-06-08T14:05:34.000Z</time>
      </trkpt>
      <trkpt lat="46.96507" lon="-0.73072">
        <ele>183.01965332031</ele>
        <time>2016-06-08T14:05:37.000Z</time>
      </trkpt>
      <trkpt lat="46.96503" lon="-0.73075">
        <ele>183.02166748047</ele>
        <time>2016-06-08T14:05:39.000Z</time>
      </trkpt>
      <trkpt lat="46.965" lon="-0.73078">
        <ele>183.01487731934</ele>
        <time>2016-06-08T14:05:42.000Z</time>
      </trkpt>
      <trkpt lat="46.96498" lon="-0.7308">
        <ele>183.45269775391</ele>
        <time>2016-06-08T14:05:44.000Z</time>
      </trkpt>
      <trkpt lat="46.96494" lon="-0.73083">
        <ele>185.37196350098</ele>
        <time>2016-06-08T14:05:47.000Z</time>
      </trkpt>
      <trkpt lat="46.96492" lon="-0.73084">
        <ele>184.97477722168</ele>
        <time>2016-06-08T14:05:49.000Z</time>
      </trkpt>
      <trkpt lat="46.96487" lon="-0.73086">
        <ele>183.54962158203</ele>
        <time>2016-06-08T14:05:51.000Z</time>
      </trkpt>
      <trkpt lat="46.96484" lon="-0.73089">
        <ele>183.42047119141</ele>
        <time>2016-06-08T14:05:54.000Z</time>
      </trkpt>
      <trkpt lat="46.96482" lon="-0.73095">
        <ele>182.78703308105</ele>
        <time>2016-06-08T14:05:57.000Z</time>
      </trkpt>
      <trkpt lat="46.96479" lon="-0.731">
        <ele>183.69692993164</ele>
        <time>2016-06-08T14:06:00.000Z</time>
      </trkpt>
      <trkpt lat="46.96479" lon="-0.73106">
        <ele>184.59132385254</ele>
        <time>2016-06-08T14:06:02.000Z</time>
      </trkpt>
      <trkpt lat="46.96479" lon="-0.7311">
        <ele>186.00508117676</ele>
        <time>2016-06-08T14:06:06.000Z</time>
      </trkpt>
      <trkpt lat="46.9648" lon="-0.73114">
        <ele>186.88475036621</ele>
        <time>2016-06-08T14:06:08.000Z</time>
      </trkpt>
      <trkpt lat="46.96481" lon="-0.73118">
        <ele>185.84265136719</ele>
        <time>2016-06-08T14:06:11.000Z</time>
      </trkpt>
      <trkpt lat="46.96482" lon="-0.73121">
        <ele>185.25358581543</ele>
        <time>2016-06-08T14:06:13.000Z</time>
      </trkpt>
      <trkpt lat="46.96483" lon="-0.73129">
        <ele>186.09049987793</ele>
        <time>2016-06-08T14:06:16.000Z</time>
      </trkpt>
      <trkpt lat="46.96482" lon="-0.73134">
        <ele>185.97163391113</ele>
        <time>2016-06-08T14:06:18.000Z</time>
      </trkpt>
      <trkpt lat="46.96485" lon="-0.7314">
        <ele>186.99615478516</ele>
        <time>2016-06-08T14:06:21.000Z</time>
      </trkpt>
      <trkpt lat="46.96487" lon="-0.73143">
        <ele>187.43348693848</ele>
        <time>2016-06-08T14:06:23.000Z</time>
      </trkpt>
      <trkpt lat="46.9649" lon="-0.73149">
        <ele>186.92501831055</ele>
        <time>2016-06-08T14:06:26.000Z</time>
      </trkpt>
      <trkpt lat="46.9649" lon="-0.73158">
        <ele>186.68165588379</ele>
        <time>2016-06-08T14:06:30.000Z</time>
      </trkpt>
      <trkpt lat="46.9649" lon="-0.7316">
        <ele>187.39390563965</ele>
        <time>2016-06-08T14:06:32.000Z</time>
      </trkpt>
      <trkpt lat="46.96492" lon="-0.73166">
        <ele>187.08447265625</ele>
        <time>2016-06-08T14:06:35.000Z</time>
      </trkpt>
      <trkpt lat="46.96494" lon="-0.73174">
        <ele>188.28733825684</ele>
        <time>2016-06-08T14:06:38.000Z</time>
      </trkpt>
      <trkpt lat="46.96496" lon="-0.73181">
        <ele>187.8606262207</ele>
        <time>2016-06-08T14:06:40.000Z</time>
      </trkpt>
      <trkpt lat="46.96494" lon="-0.73191">
        <ele>186.88966369629</ele>
        <time>2016-06-08T14:06:42.000Z</time>
      </trkpt>
      <trkpt lat="46.96495" lon="-0.73195">
        <ele>186.85540771484</ele>
        <time>2016-06-08T14:06:45.000Z</time>
      </trkpt>
      <trkpt lat="46.96497" lon="-0.73195">
        <ele>188.27305603027</ele>
        <time>2016-06-08T14:06:48.000Z</time>
      </trkpt>
      <trkpt lat="46.965" lon="-0.73195">
        <ele>187.5168762207</ele>
        <time>2016-06-08T14:06:51.000Z</time>
      </trkpt>
      <trkpt lat="46.96503" lon="-0.73197">
        <ele>188.17303466797</ele>
        <time>2016-06-08T14:06:53.000Z</time>
      </trkpt>
      <trkpt lat="46.96505" lon="-0.73202">
        <ele>188.19512939453</ele>
        <time>2016-06-08T14:06:56.000Z</time>
      </trkpt>
      <trkpt lat="46.96506" lon="-0.73208">
        <ele>187.5146484375</ele>
        <time>2016-06-08T14:06:58.000Z</time>
      </trkpt>
      <trkpt lat="46.96508" lon="-0.73212">
        <ele>187.11494445801</ele>
        <time>2016-06-08T14:07:01.000Z</time>
      </trkpt>
      <trkpt lat="46.9651" lon="-0.73218">
        <ele>187.02696228027</ele>
        <time>2016-06-08T14:07:04.000Z</time>
      </trkpt>
      <trkpt lat="46.9651" lon="-0.73223">
        <ele>187.02952575684</ele>
        <time>2016-06-08T14:07:06.000Z</time>
      </trkpt>
      <trkpt lat="46.9651" lon="-0.73229">
        <ele>186.98199462891</ele>
        <time>2016-06-08T14:07:09.000Z</time>
      </trkpt>
      <trkpt lat="46.9651" lon="-0.73233">
        <ele>187.21672058105</ele>
        <time>2016-06-08T14:07:12.000Z</time>
      </trkpt>
      <trkpt lat="46.96509" lon="-0.73241">
        <ele>186.99919128418</ele>
        <time>2016-06-08T14:07:16.000Z</time>
      </trkpt>
      <trkpt lat="46.96513" lon="-0.73246">
        <ele>185.73748779297</ele>
        <time>2016-06-08T14:07:19.000Z</time>
      </trkpt>
      <trkpt lat="46.96516" lon="-0.73254">
        <ele>184.66458129883</ele>
        <time>2016-06-08T14:07:22.000Z</time>
      </trkpt>
      <trkpt lat="46.96518" lon="-0.7326">
        <ele>184.54020690918</ele>
        <time>2016-06-08T14:07:24.000Z</time>
      </trkpt>
      <trkpt lat="46.9652" lon="-0.73265">
        <ele>183.89404296875</ele>
        <time>2016-06-08T14:07:26.000Z</time>
      </trkpt>
      <trkpt lat="46.96523" lon="-0.73271">
        <ele>183.31433105469</ele>
        <time>2016-06-08T14:07:29.000Z</time>
      </trkpt>
      <trkpt lat="46.96524" lon="-0.73274">
        <ele>183.33782958984</ele>
        <time>2016-06-08T14:07:32.000Z</time>
      </trkpt>
      <trkpt lat="46.96526" lon="-0.7328">
        <ele>183.36056518555</ele>
        <time>2016-06-08T14:07:35.000Z</time>
      </trkpt>
      <trkpt lat="46.96526" lon="-0.73283">
        <ele>183.65867614746</ele>
        <time>2016-06-08T14:07:38.000Z</time>
      </trkpt>
      <trkpt lat="46.96526" lon="-0.73286">
        <ele>183.82711791992</ele>
        <time>2016-06-08T14:07:40.000Z</time>
      </trkpt>
      <trkpt lat="46.96529" lon="-0.73289">
        <ele>182.70825195312</ele>
        <time>2016-06-08T14:07:43.000Z</time>
      </trkpt>
      <trkpt lat="46.9653" lon="-0.73296">
        <ele>183.0235748291</ele>
        <time>2016-06-08T14:07:46.000Z</time>
      </trkpt>
      <trkpt lat="46.96531" lon="-0.73304">
        <ele>183.06811523438</ele>
        <time>2016-06-08T14:07:49.000Z</time>
      </trkpt>
      <trkpt lat="46.96532" lon="-0.73309">
        <ele>182.9868927002</ele>
        <time>2016-06-08T14:07:52.000Z</time>
      </trkpt>
      <trkpt lat="46.96534" lon="-0.73314">
        <ele>182.65046691895</ele>
        <time>2016-06-08T14:07:55.000Z</time>
      </trkpt>
      <trkpt lat="46.96535" lon="-0.73318">
        <ele>182.90617370605</ele>
        <time>2016-06-08T14:07:58.000Z</time>
      </trkpt>
      <trkpt lat="46.96536" lon="-0.73324">
        <ele>182.66580200195</ele>
        <time>2016-06-08T14:08:00.000Z</time>
      </trkpt>
      <trkpt lat="46.96539" lon="-0.73333">
        <ele>181.515625</ele>
        <time>2016-06-08T14:08:03.000Z</time>
      </trkpt>
      <trkpt lat="46.9654" lon="-0.73343">
        <ele>183.04182434082</ele>
        <time>2016-06-08T14:08:07.000Z</time>
      </trkpt>
      <trkpt lat="46.96541" lon="-0.73346">
        <ele>183.37716674805</ele>
        <time>2016-06-08T14:08:09.000Z</time>
      </trkpt>
      <trkpt lat="46.96542" lon="-0.73349">
        <ele>183.88648986816</ele>
        <time>2016-06-08T14:08:11.000Z</time>
      </trkpt>
      <trkpt lat="46.96543" lon="-0.73353">
        <ele>184.7332611084</ele>
        <time>2016-06-08T14:08:13.000Z</time>
      </trkpt>
      <trkpt lat="46.96545" lon="-0.73358">
        <ele>184.7095489502</ele>
        <time>2016-06-08T14:08:15.000Z</time>
      </trkpt>
      <trkpt lat="46.96545" lon="-0.73365">
        <ele>184.47267150879</ele>
        <time>2016-06-08T14:08:19.000Z</time>
      </trkpt>
      <trkpt lat="46.96546" lon="-0.73369">
        <ele>184.71627807617</ele>
        <time>2016-06-08T14:08:22.000Z</time>
      </trkpt>
      <trkpt lat="46.96547" lon="-0.73374">
        <ele>185.40092468262</ele>
        <time>2016-06-08T14:08:25.000Z</time>
      </trkpt>
      <trkpt lat="46.96548" lon="-0.7338">
        <ele>186.78370666504</ele>
        <time>2016-06-08T14:08:27.000Z</time>
      </trkpt>
      <trkpt lat="46.96548" lon="-0.73388">
        <ele>187.46531677246</ele>
        <time>2016-06-08T14:08:30.000Z</time>
      </trkpt>
      <trkpt lat="46.9655" lon="-0.73391">
        <ele>187.56747436523</ele>
        <time>2016-06-08T14:08:32.000Z</time>
      </trkpt>
      <trkpt lat="46.96553" lon="-0.73396">
        <ele>187.65115356445</ele>
        <time>2016-06-08T14:08:35.000Z</time>
      </trkpt>
      <trkpt lat="46.96554" lon="-0.73399">
        <ele>187.83459472656</ele>
        <time>2016-06-08T14:08:37.000Z</time>
      </trkpt>
      <trkpt lat="46.96557" lon="-0.73403">
        <ele>187.98181152344</ele>
        <time>2016-06-08T14:08:40.000Z</time>
      </trkpt>
      <trkpt lat="46.96559" lon="-0.73406">
        <ele>187.19137573242</ele>
        <time>2016-06-08T14:08:43.000Z</time>
      </trkpt>
      <trkpt lat="46.9656" lon="-0.7341">
        <ele>186.74298095703</ele>
        <time>2016-06-08T14:08:45.000Z</time>
      </trkpt>
      <trkpt lat="46.9656" lon="-0.73416">
        <ele>186.20588684082</ele>
        <time>2016-06-08T14:08:48.000Z</time>
      </trkpt>
      <trkpt lat="46.96562" lon="-0.73423">
        <ele>186.89808654785</ele>
        <time>2016-06-08T14:08:51.000Z</time>
      </trkpt>
      <trkpt lat="46.96562" lon="-0.7343">
        <ele>187.71475219727</ele>
        <time>2016-06-08T14:08:54.000Z</time>
      </trkpt>
      <trkpt lat="46.96563" lon="-0.73435">
        <ele>187.31028747559</ele>
        <time>2016-06-08T14:08:57.000Z</time>
      </trkpt>
      <trkpt lat="46.96564" lon="-0.73442">
        <ele>186.34880065918</ele>
        <time>2016-06-08T14:09:00.000Z</time>
      </trkpt>
      <trkpt lat="46.96567" lon="-0.73449">
        <ele>184.49974060059</ele>
        <time>2016-06-08T14:09:03.000Z</time>
      </trkpt>
      <trkpt lat="46.9657" lon="-0.73457">
        <ele>184.04402160645</ele>
        <time>2016-06-08T14:09:07.000Z</time>
      </trkpt>
      <trkpt lat="46.96572" lon="-0.73464">
        <ele>183.87519836426</ele>
        <time>2016-06-08T14:09:09.000Z</time>
      </trkpt>
      <trkpt lat="46.96572" lon="-0.73469">
        <ele>184.25575256348</ele>
        <time>2016-06-08T14:09:12.000Z</time>
      </trkpt>
      <trkpt lat="46.96573" lon="-0.73473">
        <ele>184.65446472168</ele>
        <time>2016-06-08T14:09:15.000Z</time>
      </trkpt>
      <trkpt lat="46.96574" lon="-0.73475">
        <ele>183.73463439941</ele>
        <time>2016-06-08T14:09:17.000Z</time>
      </trkpt>
      <trkpt lat="46.96576" lon="-0.73481">
        <ele>181.84634399414</ele>
        <time>2016-06-08T14:09:20.000Z</time>
      </trkpt>
      <trkpt lat="46.96577" lon="-0.73488">
        <ele>180.02389526367</ele>
        <time>2016-06-08T14:09:23.000Z</time>
      </trkpt>
      <trkpt lat="46.96578" lon="-0.73495">
        <ele>178.87217712402</ele>
        <time>2016-06-08T14:09:26.000Z</time>
      </trkpt>
      <trkpt lat="46.96579" lon="-0.735">
        <ele>178.37330627441</ele>
        <time>2016-06-08T14:09:28.000Z</time>
      </trkpt>
      <trkpt lat="46.96581" lon="-0.73507">
        <ele>177.74057006836</ele>
        <time>2016-06-08T14:09:31.000Z</time>
      </trkpt>
      <trkpt lat="46.96584" lon="-0.73515">
        <ele>175.71466064453</ele>
        <time>2016-06-08T14:09:34.000Z</time>
      </trkpt>
      <trkpt lat="46.96585" lon="-0.73518">
        <ele>175.10049438477</ele>
        <time>2016-06-08T14:09:36.000Z</time>
      </trkpt>
      <trkpt lat="46.96587" lon="-0.73523">
        <ele>174.63633728027</ele>
        <time>2016-06-08T14:09:38.000Z</time>
      </trkpt>
      <trkpt lat="46.96589" lon="-0.73527">
        <ele>174.01554870605</ele>
        <time>2016-06-08T14:09:42.000Z</time>
      </trkpt>
      <trkpt lat="46.9659" lon="-0.73534">
        <ele>174.38488769531</ele>
        <time>2016-06-08T14:09:45.000Z</time>
      </trkpt>
      <trkpt lat="46.96592" lon="-0.73539">
        <ele>175.17198181152</ele>
        <time>2016-06-08T14:09:48.000Z</time>
      </trkpt>
      <trkpt lat="46.96593" lon="-0.73546">
        <ele>175.96371459961</ele>
        <time>2016-06-08T14:09:51.000Z</time>
      </trkpt>
      <trkpt lat="46.96594" lon="-0.73553">
        <ele>175.71127319336</ele>
        <time>2016-06-08T14:09:54.000Z</time>
      </trkpt>
      <trkpt lat="46.96595" lon="-0.73556">
        <ele>176.25598144531</ele>
        <time>2016-06-08T14:09:56.000Z</time>
      </trkpt>
      <trkpt lat="46.96596" lon="-0.73561">
        <ele>179.45411682129</ele>
        <time>2016-06-08T14:09:59.000Z</time>
      </trkpt>
      <trkpt lat="46.96597" lon="-0.73564">
        <ele>180.26550292969</ele>
        <time>2016-06-08T14:10:02.000Z</time>
      </trkpt>
      <trkpt lat="46.96598" lon="-0.73565">
        <ele>179.84924316406</ele>
        <time>2016-06-08T14:10:06.000Z</time>
      </trkpt>
      <trkpt lat="46.96599" lon="-0.73569">
        <ele>180.59588623047</ele>
        <time>2016-06-08T14:10:09.000Z</time>
      </trkpt>
      <trkpt lat="46.966" lon="-0.73573">
        <ele>181.39070129395</ele>
        <time>2016-06-08T14:10:11.000Z</time>
      </trkpt>
      <trkpt lat="46.966" lon="-0.73578">
        <ele>181.79838562012</ele>
        <time>2016-06-08T14:10:14.000Z</time>
      </trkpt>
      <trkpt lat="46.966" lon="-0.73582">
        <ele>182.25523376465</ele>
        <time>2016-06-08T14:10:17.000Z</time>
      </trkpt>
      <trkpt lat="46.96601" lon="-0.73587">
        <ele>181.8250579834</ele>
        <time>2016-06-08T14:10:19.000Z</time>
      </trkpt>
      <trkpt lat="46.96602" lon="-0.73593">
        <ele>180.82955932617</ele>
        <time>2016-06-08T14:10:21.000Z</time>
      </trkpt>
      <trkpt lat="46.96603" lon="-0.73597">
        <ele>180.37515258789</ele>
        <time>2016-06-08T14:10:23.000Z</time>
      </trkpt>
      <trkpt lat="46.96604" lon="-0.73601">
        <ele>180.74819946289</ele>
        <time>2016-06-08T14:10:25.000Z</time>
      </trkpt>
      <trkpt lat="46.96604" lon="-0.73607">
        <ele>180.91464233398</ele>
        <time>2016-06-08T14:10:28.000Z</time>
      </trkpt>
      <trkpt lat="46.96604" lon="-0.73609">
        <ele>180.77648925781</ele>
        <time>2016-06-08T14:10:30.000Z</time>
      </trkpt>
      <trkpt lat="46.96606" lon="-0.73618">
        <ele>178.82916259766</ele>
        <time>2016-06-08T14:10:33.000Z</time>
      </trkpt>
      <trkpt lat="46.96608" lon="-0.73622">
        <ele>177.88500976562</ele>
        <time>2016-06-08T14:10:35.000Z</time>
      </trkpt>
      <trkpt lat="46.9661" lon="-0.73631">
        <ele>177.69903564453</ele>
        <time>2016-06-08T14:10:38.000Z</time>
      </trkpt>
      <trkpt lat="46.96611" lon="-0.73635">
        <ele>177.50294494629</ele>
        <time>2016-06-08T14:10:40.000Z</time>
      </trkpt>
      <trkpt lat="46.96612" lon="-0.73639">
        <ele>179.67308044434</ele>
        <time>2016-06-08T14:10:42.000Z</time>
      </trkpt>
      <trkpt lat="46.96612" lon="-0.73644">
        <ele>180.88122558594</ele>
        <time>2016-06-08T14:10:45.000Z</time>
      </trkpt>
      <trkpt lat="46.96614" lon="-0.73647">
        <ele>182.75314331055</ele>
        <time>2016-06-08T14:10:47.000Z</time>
      </trkpt>
      <trkpt lat="46.96616" lon="-0.73651">
        <ele>184.32623291016</ele>
        <time>2016-06-08T14:10:50.000Z</time>
      </trkpt>
      <trkpt lat="46.96615" lon="-0.73655">
        <ele>186.04615783691</ele>
        <time>2016-06-08T14:10:52.000Z</time>
      </trkpt>
      <trkpt lat="46.96616" lon="-0.73661">
        <ele>189.26655578613</ele>
        <time>2016-06-08T14:10:55.000Z</time>
      </trkpt>
      <trkpt lat="46.96618" lon="-0.73668">
        <ele>189.33346557617</ele>
        <time>2016-06-08T14:10:58.000Z</time>
      </trkpt>
      <trkpt lat="46.96618" lon="-0.73674">
        <ele>189.08027648926</ele>
        <time>2016-06-08T14:11:01.000Z</time>
      </trkpt>
      <trkpt lat="46.96619" lon="-0.73675">
        <ele>188.98657226562</ele>
        <time>2016-06-08T14:11:03.000Z</time>
      </trkpt>
      <trkpt lat="46.96621" lon="-0.73677">
        <ele>186.90377807617</ele>
        <time>2016-06-08T14:11:06.000Z</time>
      </trkpt>
      <trkpt lat="46.96625" lon="-0.73681">
        <ele>185.21481323242</ele>
        <time>2016-06-08T14:11:09.000Z</time>
      </trkpt>
      <trkpt lat="46.96627" lon="-0.73686">
        <ele>184.27691650391</ele>
        <time>2016-06-08T14:11:11.000Z</time>
      </trkpt>
      <trkpt lat="46.96628" lon="-0.73692">
        <ele>183.22222900391</ele>
        <time>2016-06-08T14:11:14.000Z</time>
      </trkpt>
      <trkpt lat="46.96628" lon="-0.73697">
        <ele>183.30520629883</ele>
        <time>2016-06-08T14:11:16.000Z</time>
      </trkpt>
      <trkpt lat="46.9663" lon="-0.73705">
        <ele>183.09744262695</ele>
        <time>2016-06-08T14:11:19.000Z</time>
      </trkpt>
      <trkpt lat="46.96631" lon="-0.73712">
        <ele>182.64251708984</ele>
        <time>2016-06-08T14:11:21.000Z</time>
      </trkpt>
      <trkpt lat="46.96632" lon="-0.73719">
        <ele>181.90832519531</ele>
        <time>2016-06-08T14:11:24.000Z</time>
      </trkpt>
      <trkpt lat="46.96633" lon="-0.73723">
        <ele>181.00064086914</ele>
        <time>2016-06-08T14:11:27.000Z</time>
      </trkpt>
      <trkpt lat="46.96635" lon="-0.7373">
        <ele>179.58351135254</ele>
        <time>2016-06-08T14:11:30.000Z</time>
      </trkpt>
      <trkpt lat="46.96636" lon="-0.73733">
        <ele>178.78158569336</ele>
        <time>2016-06-08T14:11:33.000Z</time>
      </trkpt>
      <trkpt lat="46.96636" lon="-0.73737">
        <ele>178.57678222656</ele>
        <time>2016-06-08T14:11:36.000Z</time>
      </trkpt>
      <trkpt lat="46.96637" lon="-0.73744">
        <ele>178.88035583496</ele>
        <time>2016-06-08T14:11:39.000Z</time>
      </trkpt>
      <trkpt lat="46.96638" lon="-0.73754">
        <ele>181.34130859375</ele>
        <time>2016-06-08T14:11:42.000Z</time>
      </trkpt>
      <trkpt lat="46.96639" lon="-0.73758">
        <ele>182.43440246582</ele>
        <time>2016-06-08T14:11:44.000Z</time>
      </trkpt>
      <trkpt lat="46.9664" lon="-0.73763">
        <ele>183.81513977051</ele>
        <time>2016-06-08T14:11:47.000Z</time>
      </trkpt>
      <trkpt lat="46.96641" lon="-0.73767">
        <ele>184.40145874023</ele>
        <time>2016-06-08T14:11:49.000Z</time>
      </trkpt>
      <trkpt lat="46.96641" lon="-0.73776">
        <ele>184.35050964355</ele>
        <time>2016-06-08T14:11:52.000Z</time>
      </trkpt>
      <trkpt lat="46.96642" lon="-0.7378">
        <ele>184.47210693359</ele>
        <time>2016-06-08T14:11:55.000Z</time>
      </trkpt>
      <trkpt lat="46.96643" lon="-0.73785">
        <ele>183.74223327637</ele>
        <time>2016-06-08T14:11:58.000Z</time>
      </trkpt>
      <trkpt lat="46.96646" lon="-0.73789">
        <ele>183.48138427734</ele>
        <time>2016-06-08T14:12:00.000Z</time>
      </trkpt>
      <trkpt lat="46.96647" lon="-0.73794">
        <ele>183.08627319336</ele>
        <time>2016-06-08T14:12:03.000Z</time>
      </trkpt>
      <trkpt lat="46.96648" lon="-0.738">
        <ele>182.07978820801</ele>
        <time>2016-06-08T14:12:06.000Z</time>
      </trkpt>
      <trkpt lat="46.96649" lon="-0.73806">
        <ele>180.33453369141</ele>
        <time>2016-06-08T14:12:09.000Z</time>
      </trkpt>
      <trkpt lat="46.9665" lon="-0.73811">
        <ele>180.43978881836</ele>
        <time>2016-06-08T14:12:13.000Z</time>
      </trkpt>
      <trkpt lat="46.9665" lon="-0.73813">
        <ele>181.05407714844</ele>
        <time>2016-06-08T14:12:15.000Z</time>
      </trkpt>
      <trkpt lat="46.9665" lon="-0.73819">
        <ele>181.95581054688</ele>
        <time>2016-06-08T14:12:17.000Z</time>
      </trkpt>
      <trkpt lat="46.96651" lon="-0.73824">
        <ele>183.58877563477</ele>
        <time>2016-06-08T14:12:20.000Z</time>
      </trkpt>
      <trkpt lat="46.96652" lon="-0.7383">
        <ele>184.76277160645</ele>
        <time>2016-06-08T14:12:23.000Z</time>
      </trkpt>
      <trkpt lat="46.96654" lon="-0.73833">
        <ele>183.69508361816</ele>
        <time>2016-06-08T14:12:26.000Z</time>
      </trkpt>
      <trkpt lat="46.96655" lon="-0.73839">
        <ele>183.68881225586</ele>
        <time>2016-06-08T14:12:29.000Z</time>
      </trkpt>
      <trkpt lat="46.96658" lon="-0.73841">
        <ele>186.73695373535</ele>
        <time>2016-06-08T14:12:32.000Z</time>
      </trkpt>
      <trkpt lat="46.9666" lon="-0.73845">
        <ele>187.58602905273</ele>
        <time>2016-06-08T14:12:35.000Z</time>
      </trkpt>
      <trkpt lat="46.96659" lon="-0.73851">
        <ele>187.81370544434</ele>
        <time>2016-06-08T14:12:38.000Z</time>
      </trkpt>
      <trkpt lat="46.9666" lon="-0.73856">
        <ele>187.92851257324</ele>
        <time>2016-06-08T14:12:41.000Z</time>
      </trkpt>
      <trkpt lat="46.96662" lon="-0.73863">
        <ele>190.15260314941</ele>
        <time>2016-06-08T14:12:44.000Z</time>
      </trkpt>
      <trkpt lat="46.96663" lon="-0.73867">
        <ele>190.53269958496</ele>
        <time>2016-06-08T14:12:46.000Z</time>
      </trkpt>
      <trkpt lat="46.96666" lon="-0.73878">
        <ele>189.81803894043</ele>
        <time>2016-06-08T14:12:49.000Z</time>
      </trkpt>
      <trkpt lat="46.96668" lon="-0.73881">
        <ele>190.72389221191</ele>
        <time>2016-06-08T14:12:51.000Z</time>
      </trkpt>
      <trkpt lat="46.9667" lon="-0.73886">
        <ele>190.6082611084</ele>
        <time>2016-06-08T14:12:54.000Z</time>
      </trkpt>
      <trkpt lat="46.96673" lon="-0.73892">
        <ele>188.84468078613</ele>
        <time>2016-06-08T14:12:57.000Z</time>
      </trkpt>
      <trkpt lat="46.96673" lon="-0.73897">
        <ele>187.95008850098</ele>
        <time>2016-06-08T14:12:59.000Z</time>
      </trkpt>
      <trkpt lat="46.96674" lon="-0.73903">
        <ele>188.00450134277</ele>
        <time>2016-06-08T14:13:01.000Z</time>
      </trkpt>
      <trkpt lat="46.96676" lon="-0.73911">
        <ele>187.96284484863</ele>
        <time>2016-06-08T14:13:04.000Z</time>
      </trkpt>
      <trkpt lat="46.96678" lon="-0.73916">
        <ele>186.63777160645</ele>
        <time>2016-06-08T14:13:07.000Z</time>
      </trkpt>
      <trkpt lat="46.9668" lon="-0.73922">
        <ele>185.98440551758</ele>
        <time>2016-06-08T14:13:10.000Z</time>
      </trkpt>
      <trkpt lat="46.96681" lon="-0.73927">
        <ele>185.35354614258</ele>
        <time>2016-06-08T14:13:13.000Z</time>
      </trkpt>
      <trkpt lat="46.96681" lon="-0.73932">
        <ele>184.92063903809</ele>
        <time>2016-06-08T14:13:15.000Z</time>
      </trkpt>
      <trkpt lat="46.96682" lon="-0.73935">
        <ele>184.78602600098</ele>
        <time>2016-06-08T14:13:21.000Z</time>
      </trkpt>
      <trkpt lat="46.96682" lon="-0.73935">
        <ele>181.00001525879</ele>
        <time>2016-06-08T14:13:41.000Z</time>
      </trkpt>
      <trkpt lat="46.96682" lon="-0.73937">
        <ele>183.8384552002</ele>
        <time>2016-06-08T14:13:55.000Z</time>
      </trkpt>
      <trkpt lat="46.96682" lon="-0.73939">
        <ele>182.28579711914</ele>
        <time>2016-06-08T14:13:57.000Z</time>
      </trkpt>
      <trkpt lat="46.96684" lon="-0.73942">
        <ele>181.63430786133</ele>
        <time>2016-06-08T14:14:00.000Z</time>
      </trkpt>
      <trkpt lat="46.96685" lon="-0.73945">
        <ele>181.06280517578</ele>
        <time>2016-06-08T14:14:03.000Z</time>
      </trkpt>
      <trkpt lat="46.96686" lon="-0.73948">
        <ele>181.35818481445</ele>
        <time>2016-06-08T14:14:06.000Z</time>
      </trkpt>
      <trkpt lat="46.96687" lon="-0.73952">
        <ele>181.07382202148</ele>
        <time>2016-06-08T14:14:09.000Z</time>
      </trkpt>
      <trkpt lat="46.96688" lon="-0.73956">
        <ele>180.99603271484</ele>
        <time>2016-06-08T14:14:12.000Z</time>
      </trkpt>
      <trkpt lat="46.96689" lon="-0.73959">
        <ele>180.98486328125</ele>
        <time>2016-06-08T14:14:14.000Z</time>
      </trkpt>
      <trkpt lat="46.9669" lon="-0.73962">
        <ele>180.9868927002</ele>
        <time>2016-06-08T14:14:16.000Z</time>
      </trkpt>
      <trkpt lat="46.96692" lon="-0.73966">
        <ele>179.67620849609</ele>
        <time>2016-06-08T14:14:19.000Z</time>
      </trkpt>
      <trkpt lat="46.96695" lon="-0.7397">
        <ele>177.72993469238</ele>
        <time>2016-06-08T14:14:22.000Z</time>
      </trkpt>
      <trkpt lat="46.96695" lon="-0.73976">
        <ele>176.73558044434</ele>
        <time>2016-06-08T14:14:24.000Z</time>
      </trkpt>
      <trkpt lat="46.96697" lon="-0.73977">
        <ele>174.91372680664</ele>
        <time>2016-06-08T14:14:27.000Z</time>
      </trkpt>
      <trkpt lat="46.96699" lon="-0.7398">
        <ele>174.38407897949</ele>
        <time>2016-06-08T14:14:29.000Z</time>
      </trkpt>
      <trkpt lat="46.96701" lon="-0.73984">
        <ele>174.0751953125</ele>
        <time>2016-06-08T14:14:33.000Z</time>
      </trkpt>
      <trkpt lat="46.96703" lon="-0.73994">
        <ele>173.95477294922</ele>
        <time>2016-06-08T14:14:36.000Z</time>
      </trkpt>
      <trkpt lat="46.96705" lon="-0.74">
        <ele>173.20384216309</ele>
        <time>2016-06-08T14:14:38.000Z</time>
      </trkpt>
      <trkpt lat="46.96708" lon="-0.74007">
        <ele>173.7647857666</ele>
        <time>2016-06-08T14:14:41.000Z</time>
      </trkpt>
      <trkpt lat="46.96711" lon="-0.74016">
        <ele>171.81225585938</ele>
        <time>2016-06-08T14:14:44.000Z</time>
      </trkpt>
      <trkpt lat="46.96712" lon="-0.74022">
        <ele>170.75329589844</ele>
        <time>2016-06-08T14:14:47.000Z</time>
      </trkpt>
      <trkpt lat="46.96712" lon="-0.74024">
        <ele>170.87651062012</ele>
        <time>2016-06-08T14:14:49.000Z</time>
      </trkpt>
      <trkpt lat="46.96714" lon="-0.74026">
        <ele>176.5744934082</ele>
        <time>2016-06-08T14:14:53.000Z</time>
      </trkpt>
      <trkpt lat="46.96714" lon="-0.74027">
        <ele>177.58148193359</ele>
        <time>2016-06-08T14:14:55.000Z</time>
      </trkpt>
      <trkpt lat="46.96716" lon="-0.74031">
        <ele>177.39562988281</ele>
        <time>2016-06-08T14:14:59.000Z</time>
      </trkpt>
      <trkpt lat="46.96717" lon="-0.74034">
        <ele>178.8067779541</ele>
        <time>2016-06-08T14:15:02.000Z</time>
      </trkpt>
      <trkpt lat="46.96719" lon="-0.74041">
        <ele>178.70217895508</ele>
        <time>2016-06-08T14:15:05.000Z</time>
      </trkpt>
      <trkpt lat="46.96719" lon="-0.74042">
        <ele>178.82911682129</ele>
        <time>2016-06-08T14:15:07.000Z</time>
      </trkpt>
      <trkpt lat="46.96721" lon="-0.74047">
        <ele>180.56777954102</ele>
        <time>2016-06-08T14:15:10.000Z</time>
      </trkpt>
      <trkpt lat="46.96722" lon="-0.7405">
        <ele>181.0086517334</ele>
        <time>2016-06-08T14:15:12.000Z</time>
      </trkpt>
      <trkpt lat="46.96725" lon="-0.74053">
        <ele>180.18687438965</ele>
        <time>2016-06-08T14:15:14.000Z</time>
      </trkpt>
      <trkpt lat="46.96726" lon="-0.74059">
        <ele>180.4256439209</ele>
        <time>2016-06-08T14:15:17.000Z</time>
      </trkpt>
      <trkpt lat="46.96728" lon="-0.74063">
        <ele>180.89784240723</ele>
        <time>2016-06-08T14:15:19.000Z</time>
      </trkpt>
      <trkpt lat="46.96729" lon="-0.7407">
        <ele>182.10040283203</ele>
        <time>2016-06-08T14:15:22.000Z</time>
      </trkpt>
      <trkpt lat="46.96732" lon="-0.74072">
        <ele>183.61804199219</ele>
        <time>2016-06-08T14:15:24.000Z</time>
      </trkpt>
      <trkpt lat="46.96733" lon="-0.74079">
        <ele>183.07716369629</ele>
        <time>2016-06-08T14:15:27.000Z</time>
      </trkpt>
      <trkpt lat="46.96735" lon="-0.74084">
        <ele>181.97569274902</ele>
        <time>2016-06-08T14:15:30.000Z</time>
      </trkpt>
      <trkpt lat="46.96737" lon="-0.74089">
        <ele>182.24067687988</ele>
        <time>2016-06-08T14:15:32.000Z</time>
      </trkpt>
      <trkpt lat="46.9674" lon="-0.74093">
        <ele>180.97950744629</ele>
        <time>2016-06-08T14:15:35.000Z</time>
      </trkpt>
      <trkpt lat="46.96741" lon="-0.741">
        <ele>182.51486206055</ele>
        <time>2016-06-08T14:15:38.000Z</time>
      </trkpt>
      <trkpt lat="46.96743" lon="-0.74105">
        <ele>182.15785217285</ele>
        <time>2016-06-08T14:15:41.000Z</time>
      </trkpt>
      <trkpt lat="46.96743" lon="-0.74111">
        <ele>182.60626220703</ele>
        <time>2016-06-08T14:15:45.000Z</time>
      </trkpt>
      <trkpt lat="46.96744" lon="-0.74119">
        <ele>184.30474853516</ele>
        <time>2016-06-08T14:15:48.000Z</time>
      </trkpt>
      <trkpt lat="46.96745" lon="-0.74122">
        <ele>184.20486450195</ele>
        <time>2016-06-08T14:15:50.000Z</time>
      </trkpt>
      <trkpt lat="46.96745" lon="-0.74126">
        <ele>183.74211120605</ele>
        <time>2016-06-08T14:15:52.000Z</time>
      </trkpt>
      <trkpt lat="46.96746" lon="-0.74133">
        <ele>182.37702941895</ele>
        <time>2016-06-08T14:15:55.000Z</time>
      </trkpt>
      <trkpt lat="46.96747" lon="-0.74138">
        <ele>181.75857543945</ele>
        <time>2016-06-08T14:15:58.000Z</time>
      </trkpt>
      <trkpt lat="46.96748" lon="-0.74143">
        <ele>180.6358795166</ele>
        <time>2016-06-08T14:16:00.000Z</time>
      </trkpt>
      <trkpt lat="46.96749" lon="-0.74148">
        <ele>180.09243774414</ele>
        <time>2016-06-08T14:16:02.000Z</time>
      </trkpt>
      <trkpt lat="46.9675" lon="-0.7415">
        <ele>179.55229187012</ele>
        <time>2016-06-08T14:16:05.000Z</time>
      </trkpt>
      <trkpt lat="46.96752" lon="-0.74157">
        <ele>177.86077880859</ele>
        <time>2016-06-08T14:16:07.000Z</time>
      </trkpt>
      <trkpt lat="46.96753" lon="-0.74163">
        <ele>178.41279602051</ele>
        <time>2016-06-08T14:16:10.000Z</time>
      </trkpt>
      <trkpt lat="46.96753" lon="-0.74166">
        <ele>178.27136230469</ele>
        <time>2016-06-08T14:16:12.000Z</time>
      </trkpt>
      <trkpt lat="46.96754" lon="-0.74172">
        <ele>178.31733703613</ele>
        <time>2016-06-08T14:16:15.000Z</time>
      </trkpt>
      <trkpt lat="46.96754" lon="-0.74175">
        <ele>178.09185791016</ele>
        <time>2016-06-08T14:16:17.000Z</time>
      </trkpt>
      <trkpt lat="46.96754" lon="-0.74181">
        <ele>177.8628692627</ele>
        <time>2016-06-08T14:16:20.000Z</time>
      </trkpt>
      <trkpt lat="46.96754" lon="-0.74187">
        <ele>177.30213928223</ele>
        <time>2016-06-08T14:16:23.000Z</time>
      </trkpt>
      <trkpt lat="46.96754" lon="-0.74189">
        <ele>177.75608825684</ele>
        <time>2016-06-08T14:16:25.000Z</time>
      </trkpt>
      <trkpt lat="46.96756" lon="-0.74197">
        <ele>179.62477111816</ele>
        <time>2016-06-08T14:16:28.000Z</time>
      </trkpt>
      <trkpt lat="46.96757" lon="-0.74201">
        <ele>179.93885803223</ele>
        <time>2016-06-08T14:16:30.000Z</time>
      </trkpt>
      <trkpt lat="46.96758" lon="-0.74209">
        <ele>180.01171875</ele>
        <time>2016-06-08T14:16:33.000Z</time>
      </trkpt>
      <trkpt lat="46.96759" lon="-0.74214">
        <ele>180.3483581543</ele>
        <time>2016-06-08T14:16:35.000Z</time>
      </trkpt>
      <trkpt lat="46.96759" lon="-0.74215">
        <ele>181.05668640137</ele>
        <time>2016-06-08T14:16:41.000Z</time>
      </trkpt>
      <trkpt lat="46.96761" lon="-0.74221">
        <ele>182.50096130371</ele>
        <time>2016-06-08T14:16:44.000Z</time>
      </trkpt>
      <trkpt lat="46.96761" lon="-0.74225">
        <ele>182.97323608398</ele>
        <time>2016-06-08T14:16:46.000Z</time>
      </trkpt>
      <trkpt lat="46.96763" lon="-0.74236">
        <ele>183.39630126953</ele>
        <time>2016-06-08T14:16:49.000Z</time>
      </trkpt>
      <trkpt lat="46.96765" lon="-0.74245">
        <ele>182.40602111816</ele>
        <time>2016-06-08T14:16:52.000Z</time>
      </trkpt>
      <trkpt lat="46.96765" lon="-0.74247">
        <ele>182.0959777832</ele>
        <time>2016-06-08T14:16:54.000Z</time>
      </trkpt>
      <trkpt lat="46.96766" lon="-0.74249">
        <ele>181.98495483398</ele>
        <time>2016-06-08T14:16:56.000Z</time>
      </trkpt>
      <trkpt lat="46.96767" lon="-0.74258">
        <ele>180.73400878906</ele>
        <time>2016-06-08T14:16:59.000Z</time>
      </trkpt>
      <trkpt lat="46.96768" lon="-0.74262">
        <ele>180.03140258789</ele>
        <time>2016-06-08T14:17:01.000Z</time>
      </trkpt>
      <trkpt lat="46.96769" lon="-0.74265">
        <ele>180.3475189209</ele>
        <time>2016-06-08T14:17:04.000Z</time>
      </trkpt>
      <trkpt lat="46.9677" lon="-0.74268">
        <ele>180.15629577637</ele>
        <time>2016-06-08T14:17:06.000Z</time>
      </trkpt>
      <trkpt lat="46.9677" lon="-0.74273">
        <ele>181.22689819336</ele>
        <time>2016-06-08T14:17:09.000Z</time>
      </trkpt>
      <trkpt lat="46.96771" lon="-0.74277">
        <ele>182.32302856445</ele>
        <time>2016-06-08T14:17:11.000Z</time>
      </trkpt>
      <trkpt lat="46.96771" lon="-0.74281">
        <ele>183.31352233887</ele>
        <time>2016-06-08T14:17:13.000Z</time>
      </trkpt>
      <trkpt lat="46.96772" lon="-0.74289">
        <ele>184.32875061035</ele>
        <time>2016-06-08T14:17:17.000Z</time>
      </trkpt>
      <trkpt lat="46.96773" lon="-0.74295">
        <ele>185.49822998047</ele>
        <time>2016-06-08T14:17:20.000Z</time>
      </trkpt>
      <trkpt lat="46.96774" lon="-0.743">
        <ele>186.5619354248</ele>
        <time>2016-06-08T14:17:22.000Z</time>
      </trkpt>
      <trkpt lat="46.96774" lon="-0.74305">
        <ele>187.64866638184</ele>
        <time>2016-06-08T14:17:25.000Z</time>
      </trkpt>
      <trkpt lat="46.96775" lon="-0.74313">
        <ele>188.1127166748</ele>
        <time>2016-06-08T14:17:28.000Z</time>
      </trkpt>
      <trkpt lat="46.96777" lon="-0.74317">
        <ele>187.10032653809</ele>
        <time>2016-06-08T14:17:31.000Z</time>
      </trkpt>
      <trkpt lat="46.96777" lon="-0.74326">
        <ele>185.68730163574</ele>
        <time>2016-06-08T14:17:34.000Z</time>
      </trkpt>
      <trkpt lat="46.96778" lon="-0.74331">
        <ele>184.86572265625</ele>
        <time>2016-06-08T14:17:37.000Z</time>
      </trkpt>
      <trkpt lat="46.96778" lon="-0.74334">
        <ele>184.55438232422</ele>
        <time>2016-06-08T14:17:39.000Z</time>
      </trkpt>
      <trkpt lat="46.96778" lon="-0.74338">
        <ele>183.29675292969</ele>
        <time>2016-06-08T14:17:41.000Z</time>
      </trkpt>
      <trkpt lat="46.96777" lon="-0.74342">
        <ele>183.74931335449</ele>
        <time>2016-06-08T14:17:44.000Z</time>
      </trkpt>
      <trkpt lat="46.96777" lon="-0.74345">
        <ele>183.35856628418</ele>
        <time>2016-06-08T14:17:46.000Z</time>
      </trkpt>
      <trkpt lat="46.96775" lon="-0.74351">
        <ele>184.66307067871</ele>
        <time>2016-06-08T14:17:51.000Z</time>
      </trkpt>
      <trkpt lat="46.96775" lon="-0.74355">
        <ele>183.96919250488</ele>
        <time>2016-06-08T14:17:54.000Z</time>
      </trkpt>
      <trkpt lat="46.96775" lon="-0.74357">
        <ele>184.0246887207</ele>
        <time>2016-06-08T14:17:57.000Z</time>
      </trkpt>
      <trkpt lat="46.96776" lon="-0.74363">
        <ele>183.4846496582</ele>
        <time>2016-06-08T14:18:00.000Z</time>
      </trkpt>
      <trkpt lat="46.96775" lon="-0.74369">
        <ele>181.14013671875</ele>
        <time>2016-06-08T14:18:04.000Z</time>
      </trkpt>
      <trkpt lat="46.96776" lon="-0.74371">
        <ele>179.68653869629</ele>
        <time>2016-06-08T14:18:15.000Z</time>
      </trkpt>
      <trkpt lat="46.96776" lon="-0.74371">
        <ele>181.16497802734</ele>
        <time>2016-06-08T14:18:35.000Z</time>
      </trkpt>
      <trkpt lat="46.96778" lon="-0.74372">
        <ele>181.1837310791</ele>
        <time>2016-06-08T14:18:38.000Z</time>
      </trkpt>
      <trkpt lat="46.96779" lon="-0.74374">
        <ele>181.37945556641</ele>
        <time>2016-06-08T14:18:45.000Z</time>
      </trkpt>
      <trkpt lat="46.9678" lon="-0.74376">
        <ele>180.32244873047</ele>
        <time>2016-06-08T14:18:49.000Z</time>
      </trkpt>
      <trkpt lat="46.96784" lon="-0.74378">
        <ele>178.18330383301</ele>
        <time>2016-06-08T14:18:52.000Z</time>
      </trkpt>
      <trkpt lat="46.96786" lon="-0.74378">
        <ele>177.8878326416</ele>
        <time>2016-06-08T14:18:54.000Z</time>
      </trkpt>
      <trkpt lat="46.96788" lon="-0.74378">
        <ele>176.95820617676</ele>
        <time>2016-06-08T14:18:56.000Z</time>
      </trkpt>
      <trkpt lat="46.96789" lon="-0.74379">
        <ele>177.86065673828</ele>
        <time>2016-06-08T14:18:58.000Z</time>
      </trkpt>
      <trkpt lat="46.9679" lon="-0.7438">
        <ele>178.60414123535</ele>
        <time>2016-06-08T14:19:00.000Z</time>
      </trkpt>
      <trkpt lat="46.96793" lon="-0.74383">
        <ele>180.61421203613</ele>
        <time>2016-06-08T14:19:04.000Z</time>
      </trkpt>
      <trkpt lat="46.96796" lon="-0.74386">
        <ele>182.48446655273</ele>
        <time>2016-06-08T14:19:07.000Z</time>
      </trkpt>
      <trkpt lat="46.968" lon="-0.7439">
        <ele>184.12249755859</ele>
        <time>2016-06-08T14:19:10.000Z</time>
      </trkpt>
      <trkpt lat="46.96801" lon="-0.7439">
        <ele>184.11024475098</ele>
        <time>2016-06-08T14:19:13.000Z</time>
      </trkpt>
      <trkpt lat="46.96804" lon="-0.74391">
        <ele>184.09722900391</ele>
        <time>2016-06-08T14:19:15.000Z</time>
      </trkpt>
      <trkpt lat="46.96809" lon="-0.74391">
        <ele>186.12890625</ele>
        <time>2016-06-08T14:19:18.000Z</time>
      </trkpt>
      <trkpt lat="46.96811" lon="-0.74391">
        <ele>187.14002990723</ele>
        <time>2016-06-08T14:19:20.000Z</time>
      </trkpt>
      <trkpt lat="46.96814" lon="-0.74392">
        <ele>186.41149902344</ele>
        <time>2016-06-08T14:19:23.000Z</time>
      </trkpt>
      <trkpt lat="46.96816" lon="-0.74392">
        <ele>186.17761230469</ele>
        <time>2016-06-08T14:19:25.000Z</time>
      </trkpt>
      <trkpt lat="46.96818" lon="-0.74393">
        <ele>185.58479309082</ele>
        <time>2016-06-08T14:19:30.000Z</time>
      </trkpt>
      <trkpt lat="46.96822" lon="-0.74394">
        <ele>183.65089416504</ele>
        <time>2016-06-08T14:19:33.000Z</time>
      </trkpt>
      <trkpt lat="46.96827" lon="-0.74396">
        <ele>181.9474029541</ele>
        <time>2016-06-08T14:19:36.000Z</time>
      </trkpt>
      <trkpt lat="46.96832" lon="-0.74398">
        <ele>183.69638061523</ele>
        <time>2016-06-08T14:19:39.000Z</time>
      </trkpt>
      <trkpt lat="46.96836" lon="-0.744">
        <ele>183.72581481934</ele>
        <time>2016-06-08T14:19:42.000Z</time>
      </trkpt>
      <trkpt lat="46.96838" lon="-0.74401">
        <ele>183.91825866699</ele>
        <time>2016-06-08T14:19:44.000Z</time>
      </trkpt>
      <trkpt lat="46.9684" lon="-0.74402">
        <ele>184.26786804199</ele>
        <time>2016-06-08T14:19:47.000Z</time>
      </trkpt>
      <trkpt lat="46.96842" lon="-0.74405">
        <ele>184.87992858887</ele>
        <time>2016-06-08T14:19:50.000Z</time>
      </trkpt>
      <trkpt lat="46.96844" lon="-0.74407">
        <ele>184.64674377441</ele>
        <time>2016-06-08T14:19:53.000Z</time>
      </trkpt>
      <trkpt lat="46.96849" lon="-0.74407">
        <ele>183.66618347168</ele>
        <time>2016-06-08T14:19:55.000Z</time>
      </trkpt>
      <trkpt lat="46.96856" lon="-0.74407">
        <ele>183.37626647949</ele>
        <time>2016-06-08T14:19:57.000Z</time>
      </trkpt>
      <trkpt lat="46.96862" lon="-0.74407">
        <ele>183.23373413086</ele>
        <time>2016-06-08T14:20:00.000Z</time>
      </trkpt>
      <trkpt lat="46.96865" lon="-0.74408">
        <ele>183.8116607666</ele>
        <time>2016-06-08T14:20:02.000Z</time>
      </trkpt>
      <trkpt lat="46.96868" lon="-0.74409">
        <ele>182.86779785156</ele>
        <time>2016-06-08T14:20:05.000Z</time>
      </trkpt>
      <trkpt lat="46.9687" lon="-0.74409">
        <ele>182.54605102539</ele>
        <time>2016-06-08T14:20:07.000Z</time>
      </trkpt>
      <trkpt lat="46.96873" lon="-0.74413">
        <ele>181.00137329102</ele>
        <time>2016-06-08T14:20:10.000Z</time>
      </trkpt>
      <trkpt lat="46.96873" lon="-0.74416">
        <ele>180.42582702637</ele>
        <time>2016-06-08T14:20:13.000Z</time>
      </trkpt>
      <trkpt lat="46.96874" lon="-0.74416">
        <ele>180.59544372559</ele>
        <time>2016-06-08T14:20:19.000Z</time>
      </trkpt>
      <trkpt lat="46.96877" lon="-0.74417">
        <ele>180.23519897461</ele>
        <time>2016-06-08T14:20:25.000Z</time>
      </trkpt>
      <trkpt lat="46.96881" lon="-0.74419">
        <ele>179.54862976074</ele>
        <time>2016-06-08T14:20:27.000Z</time>
      </trkpt>
      <trkpt lat="46.96886" lon="-0.74421">
        <ele>179.67601013184</ele>
        <time>2016-06-08T14:20:30.000Z</time>
      </trkpt>
      <trkpt lat="46.96891" lon="-0.74423">
        <ele>177.56047058105</ele>
        <time>2016-06-08T14:20:34.000Z</time>
      </trkpt>
      <trkpt lat="46.96894" lon="-0.74423">
        <ele>177.78979492188</ele>
        <time>2016-06-08T14:20:36.000Z</time>
      </trkpt>
      <trkpt lat="46.96895" lon="-0.74424">
        <ele>176.77282714844</ele>
        <time>2016-06-08T14:20:39.000Z</time>
      </trkpt>
      <trkpt lat="46.96904" lon="-0.74424">
        <ele>173.01216125488</ele>
        <time>2016-06-08T14:20:42.000Z</time>
      </trkpt>
      <trkpt lat="46.96907" lon="-0.74426">
        <ele>171.0572052002</ele>
        <time>2016-06-08T14:20:44.000Z</time>
      </trkpt>
      <trkpt lat="46.96912" lon="-0.74428">
        <ele>169.96141052246</ele>
        <time>2016-06-08T14:20:48.000Z</time>
      </trkpt>
      <trkpt lat="46.96917" lon="-0.74429">
        <ele>169.8962097168</ele>
        <time>2016-06-08T14:20:50.000Z</time>
      </trkpt>
      <trkpt lat="46.96921" lon="-0.74429">
        <ele>169.94532775879</ele>
        <time>2016-06-08T14:20:54.000Z</time>
      </trkpt>
      <trkpt lat="46.96926" lon="-0.7443">
        <ele>171.55378723145</ele>
        <time>2016-06-08T14:20:57.000Z</time>
      </trkpt>
      <trkpt lat="46.96928" lon="-0.74433">
        <ele>171.0015411377</ele>
        <time>2016-06-08T14:21:01.000Z</time>
      </trkpt>
      <trkpt lat="46.96931" lon="-0.74437">
        <ele>168.74513244629</ele>
        <time>2016-06-08T14:21:03.000Z</time>
      </trkpt>
      <trkpt lat="46.96935" lon="-0.74442">
        <ele>167.74032592773</ele>
        <time>2016-06-08T14:21:06.000Z</time>
      </trkpt>
      <trkpt lat="46.96939" lon="-0.74443">
        <ele>167.24983215332</ele>
        <time>2016-06-08T14:21:09.000Z</time>
      </trkpt>
      <trkpt lat="46.96941" lon="-0.74444">
        <ele>167.67280578613</ele>
        <time>2016-06-08T14:21:12.000Z</time>
      </trkpt>
      <trkpt lat="46.96946" lon="-0.74444">
        <ele>168.47351074219</ele>
        <time>2016-06-08T14:21:14.000Z</time>
      </trkpt>
      <trkpt lat="46.96948" lon="-0.74441">
        <ele>167.76708984375</ele>
        <time>2016-06-08T14:21:17.000Z</time>
      </trkpt>
      <trkpt lat="46.96951" lon="-0.74442">
        <ele>168.50288391113</ele>
        <time>2016-06-08T14:21:20.000Z</time>
      </trkpt>
      <trkpt lat="46.96952" lon="-0.74444">
        <ele>169.66763305664</ele>
        <time>2016-06-08T14:21:23.000Z</time>
      </trkpt>
      <trkpt lat="46.96954" lon="-0.74446">
        <ele>170.28327941895</ele>
        <time>2016-06-08T14:21:26.000Z</time>
      </trkpt>
      <trkpt lat="46.9696" lon="-0.74448">
        <ele>168.81565856934</ele>
        <time>2016-06-08T14:21:29.000Z</time>
      </trkpt>
      <trkpt lat="46.96965" lon="-0.74447">
        <ele>166.80215454102</ele>
        <time>2016-06-08T14:21:32.000Z</time>
      </trkpt>
      <trkpt lat="46.96967" lon="-0.74447">
        <ele>167.79359436035</ele>
        <time>2016-06-08T14:21:35.000Z</time>
      </trkpt>
      <trkpt lat="46.9697" lon="-0.74447">
        <ele>170.44097900391</ele>
        <time>2016-06-08T14:21:38.000Z</time>
      </trkpt>
      <trkpt lat="46.96974" lon="-0.74447">
        <ele>172.66555786133</ele>
        <time>2016-06-08T14:21:42.000Z</time>
      </trkpt>
      <trkpt lat="46.96978" lon="-0.74451">
        <ele>171.64833068848</ele>
        <time>2016-06-08T14:21:45.000Z</time>
      </trkpt>
      <trkpt lat="46.96982" lon="-0.74457">
        <ele>172.91816711426</ele>
        <time>2016-06-08T14:21:48.000Z</time>
      </trkpt>
      <trkpt lat="46.96984" lon="-0.74458">
        <ele>173.19400024414</ele>
        <time>2016-06-08T14:21:50.000Z</time>
      </trkpt>
      <trkpt lat="46.9699" lon="-0.74457">
        <ele>175.16346740723</ele>
        <time>2016-06-08T14:21:53.000Z</time>
      </trkpt>
      <trkpt lat="46.96996" lon="-0.7446">
        <ele>176.65147399902</ele>
        <time>2016-06-08T14:21:56.000Z</time>
      </trkpt>
      <trkpt lat="46.97001" lon="-0.74463">
        <ele>176.58746337891</ele>
        <time>2016-06-08T14:22:00.000Z</time>
      </trkpt>
      <trkpt lat="46.97004" lon="-0.74463">
        <ele>175.6600189209</ele>
        <time>2016-06-08T14:22:03.000Z</time>
      </trkpt>
      <trkpt lat="46.97007" lon="-0.74465">
        <ele>176.1396484375</ele>
        <time>2016-06-08T14:22:07.000Z</time>
      </trkpt>
      <trkpt lat="46.97009" lon="-0.74467">
        <ele>176.45974731445</ele>
        <time>2016-06-08T14:22:09.000Z</time>
      </trkpt>
      <trkpt lat="46.97012" lon="-0.74469">
        <ele>178.03736877441</ele>
        <time>2016-06-08T14:22:12.000Z</time>
      </trkpt>
      <trkpt lat="46.97015" lon="-0.7447">
        <ele>177.44023132324</ele>
        <time>2016-06-08T14:22:15.000Z</time>
      </trkpt>
      <trkpt lat="46.9702" lon="-0.74471">
        <ele>175.13917541504</ele>
        <time>2016-06-08T14:22:18.000Z</time>
      </trkpt>
      <trkpt lat="46.97025" lon="-0.74472">
        <ele>174.1808013916</ele>
        <time>2016-06-08T14:22:21.000Z</time>
      </trkpt>
      <trkpt lat="46.97028" lon="-0.74474">
        <ele>173.63664245605</ele>
        <time>2016-06-08T14:22:23.000Z</time>
      </trkpt>
      <trkpt lat="46.97031" lon="-0.74476">
        <ele>173.83479309082</ele>
        <time>2016-06-08T14:22:26.000Z</time>
      </trkpt>
      <trkpt lat="46.97034" lon="-0.74478">
        <ele>173.55221557617</ele>
        <time>2016-06-08T14:22:28.000Z</time>
      </trkpt>
      <trkpt lat="46.97037" lon="-0.7448">
        <ele>172.82461547852</ele>
        <time>2016-06-08T14:22:31.000Z</time>
      </trkpt>
      <trkpt lat="46.97039" lon="-0.74481">
        <ele>173.46115112305</ele>
        <time>2016-06-08T14:22:33.000Z</time>
      </trkpt>
      <trkpt lat="46.97041" lon="-0.7448">
        <ele>173.88189697266</ele>
        <time>2016-06-08T14:22:36.000Z</time>
      </trkpt>
      <trkpt lat="46.97042" lon="-0.74482">
        <ele>173.40986633301</ele>
        <time>2016-06-08T14:22:38.000Z</time>
      </trkpt>
      <trkpt lat="46.97046" lon="-0.74485">
        <ele>170.90010070801</ele>
        <time>2016-06-08T14:22:41.000Z</time>
      </trkpt>
      <trkpt lat="46.97052" lon="-0.74488">
        <ele>167.85981750488</ele>
        <time>2016-06-08T14:22:44.000Z</time>
      </trkpt>
      <trkpt lat="46.97057" lon="-0.7449">
        <ele>167.97030639648</ele>
        <time>2016-06-08T14:22:48.000Z</time>
      </trkpt>
      <trkpt lat="46.97061" lon="-0.74491">
        <ele>172.95164489746</ele>
        <time>2016-06-08T14:22:52.000Z</time>
      </trkpt>
      <trkpt lat="46.97063" lon="-0.74491">
        <ele>174.45124816895</ele>
        <time>2016-06-08T14:22:55.000Z</time>
      </trkpt>
      <trkpt lat="46.97066" lon="-0.74492">
        <ele>173.68769836426</ele>
        <time>2016-06-08T14:22:58.000Z</time>
      </trkpt>
      <trkpt lat="46.97075" lon="-0.74494">
        <ele>170.27940368652</ele>
        <time>2016-06-08T14:23:01.000Z</time>
      </trkpt>
      <trkpt lat="46.97078" lon="-0.74495">
        <ele>169.21145629883</ele>
        <time>2016-06-08T14:23:03.000Z</time>
      </trkpt>
      <trkpt lat="46.97083" lon="-0.74496">
        <ele>169.34231567383</ele>
        <time>2016-06-08T14:23:06.000Z</time>
      </trkpt>
      <trkpt lat="46.97086" lon="-0.74497">
        <ele>168.55328369141</ele>
        <time>2016-06-08T14:23:09.000Z</time>
      </trkpt>
      <trkpt lat="46.97087" lon="-0.74498">
        <ele>168.79345703125</ele>
        <time>2016-06-08T14:23:12.000Z</time>
      </trkpt>
      <trkpt lat="46.97088" lon="-0.74498">
        <ele>169.49423217773</ele>
        <time>2016-06-08T14:23:14.000Z</time>
      </trkpt>
      <trkpt lat="46.97091" lon="-0.74498">
        <ele>170.26159667969</ele>
        <time>2016-06-08T14:23:17.000Z</time>
      </trkpt>
      <trkpt lat="46.97092" lon="-0.74498">
        <ele>170.18911743164</ele>
        <time>2016-06-08T14:23:19.000Z</time>
      </trkpt>
      <trkpt lat="46.97094" lon="-0.74499">
        <ele>171.33851623535</ele>
        <time>2016-06-08T14:23:22.000Z</time>
      </trkpt>
      <trkpt lat="46.97098" lon="-0.74501">
        <ele>171.60372924805</ele>
        <time>2016-06-08T14:23:24.000Z</time>
      </trkpt>
      <trkpt lat="46.97102" lon="-0.74504">
        <ele>170.7279510498</ele>
        <time>2016-06-08T14:23:26.000Z</time>
      </trkpt>
      <trkpt lat="46.97107" lon="-0.74508">
        <ele>168.28651428223</ele>
        <time>2016-06-08T14:23:29.000Z</time>
      </trkpt>
      <trkpt lat="46.97111" lon="-0.7451">
        <ele>165.48141479492</ele>
        <time>2016-06-08T14:23:32.000Z</time>
      </trkpt>
      <trkpt lat="46.97113" lon="-0.7451">
        <ele>164.93145751953</ele>
        <time>2016-06-08T14:23:34.000Z</time>
      </trkpt>
      <trkpt lat="46.97117" lon="-0.74511">
        <ele>164.24081420898</ele>
        <time>2016-06-08T14:23:37.000Z</time>
      </trkpt>
      <trkpt lat="46.97118" lon="-0.74511">
        <ele>165.49366760254</ele>
        <time>2016-06-08T14:23:40.000Z</time>
      </trkpt>
      <trkpt lat="46.9712" lon="-0.74511">
        <ele>166.02206420898</ele>
        <time>2016-06-08T14:23:43.000Z</time>
      </trkpt>
      <trkpt lat="46.97123" lon="-0.74511">
        <ele>165.68235778809</ele>
        <time>2016-06-08T14:23:45.000Z</time>
      </trkpt>
      <trkpt lat="46.97128" lon="-0.74512">
        <ele>164.87562561035</ele>
        <time>2016-06-08T14:23:48.000Z</time>
      </trkpt>
      <trkpt lat="46.9713" lon="-0.74512">
        <ele>165.24745178223</ele>
        <time>2016-06-08T14:23:51.000Z</time>
      </trkpt>
      <trkpt lat="46.97132" lon="-0.74514">
        <ele>165.07565307617</ele>
        <time>2016-06-08T14:23:53.000Z</time>
      </trkpt>
      <trkpt lat="46.97137" lon="-0.74522">
        <ele>163.6462097168</ele>
        <time>2016-06-08T14:23:56.000Z</time>
      </trkpt>
      <trkpt lat="46.9714" lon="-0.74523">
        <ele>163.55043029785</ele>
        <time>2016-06-08T14:23:58.000Z</time>
      </trkpt>
      <trkpt lat="46.97142" lon="-0.74523">
        <ele>164.25207519531</ele>
        <time>2016-06-08T14:24:01.000Z</time>
      </trkpt>
      <trkpt lat="46.97145" lon="-0.74523">
        <ele>164.16108703613</ele>
        <time>2016-06-08T14:24:03.000Z</time>
      </trkpt>
      <trkpt lat="46.97149" lon="-0.74525">
        <ele>163.37840270996</ele>
        <time>2016-06-08T14:24:05.000Z</time>
      </trkpt>
      <trkpt lat="46.97152" lon="-0.74529">
        <ele>161.46601867676</ele>
        <time>2016-06-08T14:24:09.000Z</time>
      </trkpt>
      <trkpt lat="46.97155" lon="-0.74529">
        <ele>159.36891174316</ele>
        <time>2016-06-08T14:24:11.000Z</time>
      </trkpt>
      <trkpt lat="46.97158" lon="-0.74529">
        <ele>160.99012756348</ele>
        <time>2016-06-08T14:24:16.000Z</time>
      </trkpt>
      <trkpt lat="46.97163" lon="-0.74529">
        <ele>161.46145629883</ele>
        <time>2016-06-08T14:24:19.000Z</time>
      </trkpt>
      <trkpt lat="46.97166" lon="-0.74529">
        <ele>160.73907470703</ele>
        <time>2016-06-08T14:24:22.000Z</time>
      </trkpt>
      <trkpt lat="46.97168" lon="-0.74529">
        <ele>160.87205505371</ele>
        <time>2016-06-08T14:24:24.000Z</time>
      </trkpt>
      <trkpt lat="46.97169" lon="-0.74529">
        <ele>161.23506164551</ele>
        <time>2016-06-08T14:24:27.000Z</time>
      </trkpt>
      <trkpt lat="46.97171" lon="-0.74529">
        <ele>162.43952941895</ele>
        <time>2016-06-08T14:24:29.000Z</time>
      </trkpt>
      <trkpt lat="46.97173" lon="-0.7453">
        <ele>162.73974609375</ele>
        <time>2016-06-08T14:24:32.000Z</time>
      </trkpt>
      <trkpt lat="46.97176" lon="-0.74532">
        <ele>163.53826904297</ele>
        <time>2016-06-08T14:24:34.000Z</time>
      </trkpt>
      <trkpt lat="46.97178" lon="-0.74533">
        <ele>163.57890319824</ele>
        <time>2016-06-08T14:24:36.000Z</time>
      </trkpt>
      <trkpt lat="46.9718" lon="-0.74536">
        <ele>163.66981506348</ele>
        <time>2016-06-08T14:24:39.000Z</time>
      </trkpt>
      <trkpt lat="46.97182" lon="-0.74537">
        <ele>164.17658996582</ele>
        <time>2016-06-08T14:24:41.000Z</time>
      </trkpt>
      <trkpt lat="46.97185" lon="-0.74537">
        <ele>164.16891479492</ele>
        <time>2016-06-08T14:24:43.000Z</time>
      </trkpt>
      <trkpt lat="46.97188" lon="-0.74538">
        <ele>165.50146484375</ele>
        <time>2016-06-08T14:24:46.000Z</time>
      </trkpt>
      <trkpt lat="46.97189" lon="-0.7454">
        <ele>164.7908782959</ele>
        <time>2016-06-08T14:24:50.000Z</time>
      </trkpt>
      <trkpt lat="46.97192" lon="-0.74543">
        <ele>163.50268554688</ele>
        <time>2016-06-08T14:24:52.000Z</time>
      </trkpt>
      <trkpt lat="46.97195" lon="-0.74545">
        <ele>163.09704589844</ele>
        <time>2016-06-08T14:24:54.000Z</time>
      </trkpt>
      <trkpt lat="46.97198" lon="-0.74545">
        <ele>163.42434692383</ele>
        <time>2016-06-08T14:24:56.000Z</time>
      </trkpt>
      <trkpt lat="46.97201" lon="-0.74546">
        <ele>163.73345947266</ele>
        <time>2016-06-08T14:24:59.000Z</time>
      </trkpt>
      <trkpt lat="46.97203" lon="-0.74546">
        <ele>164.91079711914</ele>
        <time>2016-06-08T14:25:01.000Z</time>
      </trkpt>
      <trkpt lat="46.97205" lon="-0.74547">
        <ele>166.89002990723</ele>
        <time>2016-06-08T14:25:04.000Z</time>
      </trkpt>
      <trkpt lat="46.97207" lon="-0.74547">
        <ele>167.8028717041</ele>
        <time>2016-06-08T14:25:08.000Z</time>
      </trkpt>
      <trkpt lat="46.9721" lon="-0.7455">
        <ele>170.30158996582</ele>
        <time>2016-06-08T14:25:11.000Z</time>
      </trkpt>
      <trkpt lat="46.97211" lon="-0.74553">
        <ele>171.97099304199</ele>
        <time>2016-06-08T14:25:13.000Z</time>
      </trkpt>
      <trkpt lat="46.97215" lon="-0.74554">
        <ele>172.67529296875</ele>
        <time>2016-06-08T14:25:16.000Z</time>
      </trkpt>
      <trkpt lat="46.97218" lon="-0.74557">
        <ele>173.22457885742</ele>
        <time>2016-06-08T14:25:18.000Z</time>
      </trkpt>
      <trkpt lat="46.97221" lon="-0.74557">
        <ele>172.70268249512</ele>
        <time>2016-06-08T14:25:20.000Z</time>
      </trkpt>
      <trkpt lat="46.97222" lon="-0.74557">
        <ele>170.81666564941</ele>
        <time>2016-06-08T14:25:23.000Z</time>
      </trkpt>
      <trkpt lat="46.97225" lon="-0.74559">
        <ele>167.19664001465</ele>
        <time>2016-06-08T14:25:25.000Z</time>
      </trkpt>
      <trkpt lat="46.97228" lon="-0.74557">
        <ele>167.4469909668</ele>
        <time>2016-06-08T14:25:27.000Z</time>
      </trkpt>
      <trkpt lat="46.97229" lon="-0.74557">
        <ele>168.09344482422</ele>
        <time>2016-06-08T14:25:29.000Z</time>
      </trkpt>
      <trkpt lat="46.97233" lon="-0.74561">
        <ele>169.57215881348</ele>
        <time>2016-06-08T14:25:32.000Z</time>
      </trkpt>
      <trkpt lat="46.97234" lon="-0.74563">
        <ele>170.50898742676</ele>
        <time>2016-06-08T14:25:34.000Z</time>
      </trkpt>
      <trkpt lat="46.97236" lon="-0.74565">
        <ele>172.12463378906</ele>
        <time>2016-06-08T14:25:37.000Z</time>
      </trkpt>
      <trkpt lat="46.97239" lon="-0.74567">
        <ele>172.36967468262</ele>
        <time>2016-06-08T14:25:39.000Z</time>
      </trkpt>
      <trkpt lat="46.97243" lon="-0.74568">
        <ele>172.95799255371</ele>
        <time>2016-06-08T14:25:42.000Z</time>
      </trkpt>
      <trkpt lat="46.97245" lon="-0.74568">
        <ele>173.06355285645</ele>
        <time>2016-06-08T14:25:44.000Z</time>
      </trkpt>
      <trkpt lat="46.97246" lon="-0.74568">
        <ele>173.33247375488</ele>
        <time>2016-06-08T14:25:47.000Z</time>
      </trkpt>
      <trkpt lat="46.97247" lon="-0.74566">
        <ele>172.73799133301</ele>
        <time>2016-06-08T14:25:52.000Z</time>
      </trkpt>
      <trkpt lat="46.97248" lon="-0.74562">
        <ele>174.23057556152</ele>
        <time>2016-06-08T14:25:55.000Z</time>
      </trkpt>
      <trkpt lat="46.97252" lon="-0.74557">
        <ele>172.95655822754</ele>
        <time>2016-06-08T14:25:59.000Z</time>
      </trkpt>
      <trkpt lat="46.97253" lon="-0.74556">
        <ele>171.93222045898</ele>
        <time>2016-06-08T14:26:02.000Z</time>
      </trkpt>
      <trkpt lat="46.97255" lon="-0.74554">
        <ele>170.14978027344</ele>
        <time>2016-06-08T14:26:06.000Z</time>
      </trkpt>
      <trkpt lat="46.97255" lon="-0.74554">
        <ele>172.44334411621</ele>
        <time>2016-06-08T14:26:26.000Z</time>
      </trkpt>
      <trkpt lat="46.97254" lon="-0.74556">
        <ele>169.81192016602</ele>
        <time>2016-06-08T14:27:44.000Z</time>
      </trkpt>
      <trkpt lat="46.97255" lon="-0.74558">
        <ele>167.62446594238</ele>
        <time>2016-06-08T14:27:48.000Z</time>
      </trkpt>
      <trkpt lat="46.97258" lon="-0.7456">
        <ele>165.79122924805</ele>
        <time>2016-06-08T14:27:50.000Z</time>
      </trkpt>
      <trkpt lat="46.97261" lon="-0.74561">
        <ele>164.52279663086</ele>
        <time>2016-06-08T14:27:53.000Z</time>
      </trkpt>
      <trkpt lat="46.97264" lon="-0.74564">
        <ele>163.54454040527</ele>
        <time>2016-06-08T14:27:56.000Z</time>
      </trkpt>
      <trkpt lat="46.97268" lon="-0.74564">
        <ele>162.96852111816</ele>
        <time>2016-06-08T14:27:59.000Z</time>
      </trkpt>
      <trkpt lat="46.9727" lon="-0.74566">
        <ele>162.50503540039</ele>
        <time>2016-06-08T14:28:01.000Z</time>
      </trkpt>
      <trkpt lat="46.97274" lon="-0.74568">
        <ele>161.94844055176</ele>
        <time>2016-06-08T14:28:03.000Z</time>
      </trkpt>
      <trkpt lat="46.97276" lon="-0.74568">
        <ele>162.45341491699</ele>
        <time>2016-06-08T14:28:05.000Z</time>
      </trkpt>
      <trkpt lat="46.97281" lon="-0.74571">
        <ele>163.47402954102</ele>
        <time>2016-06-08T14:28:09.000Z</time>
      </trkpt>
      <trkpt lat="46.97283" lon="-0.7457">
        <ele>165.0164642334</ele>
        <time>2016-06-08T14:28:12.000Z</time>
      </trkpt>
      <trkpt lat="46.97288" lon="-0.74572">
        <ele>165.88734436035</ele>
        <time>2016-06-08T14:28:15.000Z</time>
      </trkpt>
      <trkpt lat="46.97291" lon="-0.74573">
        <ele>165.12365722656</ele>
        <time>2016-06-08T14:28:17.000Z</time>
      </trkpt>
      <trkpt lat="46.97295" lon="-0.74574">
        <ele>165.12864685059</ele>
        <time>2016-06-08T14:28:20.000Z</time>
      </trkpt>
      <trkpt lat="46.97297" lon="-0.74574">
        <ele>165.423828125</ele>
        <time>2016-06-08T14:28:22.000Z</time>
      </trkpt>
      <trkpt lat="46.973" lon="-0.74575">
        <ele>165.95204162598</ele>
        <time>2016-06-08T14:28:25.000Z</time>
      </trkpt>
      <trkpt lat="46.97304" lon="-0.74575">
        <ele>166.42709350586</ele>
        <time>2016-06-08T14:28:28.000Z</time>
      </trkpt>
      <trkpt lat="46.97308" lon="-0.74577">
        <ele>169.36059570312</ele>
        <time>2016-06-08T14:28:32.000Z</time>
      </trkpt>
      <trkpt lat="46.9731" lon="-0.7458">
        <ele>168.59182739258</ele>
        <time>2016-06-08T14:28:34.000Z</time>
      </trkpt>
      <trkpt lat="46.97313" lon="-0.74582">
        <ele>169.51188659668</ele>
        <time>2016-06-08T14:28:37.000Z</time>
      </trkpt>
      <trkpt lat="46.97316" lon="-0.74584">
        <ele>171.03343200684</ele>
        <time>2016-06-08T14:28:40.000Z</time>
      </trkpt>
      <trkpt lat="46.97319" lon="-0.74587">
        <ele>170.64590454102</ele>
        <time>2016-06-08T14:28:42.000Z</time>
      </trkpt>
      <trkpt lat="46.97321" lon="-0.74588">
        <ele>170.84443664551</ele>
        <time>2016-06-08T14:28:44.000Z</time>
      </trkpt>
      <trkpt lat="46.97325" lon="-0.7459">
        <ele>170.57572937012</ele>
        <time>2016-06-08T14:28:46.000Z</time>
      </trkpt>
      <trkpt lat="46.97331" lon="-0.74593">
        <ele>169.92640686035</ele>
        <time>2016-06-08T14:28:50.000Z</time>
      </trkpt>
      <trkpt lat="46.97334" lon="-0.74597">
        <ele>167.73754882812</ele>
        <time>2016-06-08T14:28:52.000Z</time>
      </trkpt>
      <trkpt lat="46.97338" lon="-0.746">
        <ele>166.02551269531</ele>
        <time>2016-06-08T14:28:54.000Z</time>
      </trkpt>
      <trkpt lat="46.97344" lon="-0.74602">
        <ele>165.96104431152</ele>
        <time>2016-06-08T14:28:57.000Z</time>
      </trkpt>
      <trkpt lat="46.97346" lon="-0.74604">
        <ele>165.97131347656</ele>
        <time>2016-06-08T14:29:00.000Z</time>
      </trkpt>
      <trkpt lat="46.97349" lon="-0.74605">
        <ele>165.97355651855</ele>
        <time>2016-06-08T14:29:02.000Z</time>
      </trkpt>
      <trkpt lat="46.97352" lon="-0.74607">
        <ele>166.37034606934</ele>
        <time>2016-06-08T14:29:05.000Z</time>
      </trkpt>
      <trkpt lat="46.97356" lon="-0.74609">
        <ele>164.65397644043</ele>
        <time>2016-06-08T14:29:07.000Z</time>
      </trkpt>
      <trkpt lat="46.97359" lon="-0.74613">
        <ele>163.95503234863</ele>
        <time>2016-06-08T14:29:10.000Z</time>
      </trkpt>
      <trkpt lat="46.97362" lon="-0.74615">
        <ele>164.43542480469</ele>
        <time>2016-06-08T14:29:12.000Z</time>
      </trkpt>
      <trkpt lat="46.97364" lon="-0.74618">
        <ele>164.93923950195</ele>
        <time>2016-06-08T14:29:14.000Z</time>
      </trkpt>
      <trkpt lat="46.97368" lon="-0.74621">
        <ele>163.96055603027</ele>
        <time>2016-06-08T14:29:17.000Z</time>
      </trkpt>
      <trkpt lat="46.97372" lon="-0.74623">
        <ele>163.07141113281</ele>
        <time>2016-06-08T14:29:19.000Z</time>
      </trkpt>
      <trkpt lat="46.97374" lon="-0.74626">
        <ele>162.50428771973</ele>
        <time>2016-06-08T14:29:21.000Z</time>
      </trkpt>
      <trkpt lat="46.97378" lon="-0.7463">
        <ele>161.17169189453</ele>
        <time>2016-06-08T14:29:24.000Z</time>
      </trkpt>
      <trkpt lat="46.97382" lon="-0.74632">
        <ele>161.09091186523</ele>
        <time>2016-06-08T14:29:27.000Z</time>
      </trkpt>
      <trkpt lat="46.97385" lon="-0.74633">
        <ele>161.79763793945</ele>
        <time>2016-06-08T14:29:29.000Z</time>
      </trkpt>
      <trkpt lat="46.97388" lon="-0.74635">
        <ele>161.98188781738</ele>
        <time>2016-06-08T14:29:32.000Z</time>
      </trkpt>
      <trkpt lat="46.9739" lon="-0.7464">
        <ele>161.84582519531</ele>
        <time>2016-06-08T14:29:35.000Z</time>
      </trkpt>
      <trkpt lat="46.97396" lon="-0.74643">
        <ele>160.04881286621</ele>
        <time>2016-06-08T14:29:38.000Z</time>
      </trkpt>
      <trkpt lat="46.97401" lon="-0.74645">
        <ele>158.16513061523</ele>
        <time>2016-06-08T14:29:41.000Z</time>
      </trkpt>
      <trkpt lat="46.97404" lon="-0.74645">
        <ele>158.78132629395</ele>
        <time>2016-06-08T14:29:43.000Z</time>
      </trkpt>
      <trkpt lat="46.97408" lon="-0.74648">
        <ele>161.43125915527</ele>
        <time>2016-06-08T14:29:46.000Z</time>
      </trkpt>
      <trkpt lat="46.97413" lon="-0.74651">
        <ele>159.3563079834</ele>
        <time>2016-06-08T14:29:50.000Z</time>
      </trkpt>
      <trkpt lat="46.97416" lon="-0.74658">
        <ele>158.84049987793</ele>
        <time>2016-06-08T14:29:53.000Z</time>
      </trkpt>
      <trkpt lat="46.97418" lon="-0.74661">
        <ele>159.70077514648</ele>
        <time>2016-06-08T14:29:56.000Z</time>
      </trkpt>
      <trkpt lat="46.9742" lon="-0.74663">
        <ele>159.98503112793</ele>
        <time>2016-06-08T14:29:58.000Z</time>
      </trkpt>
      <trkpt lat="46.97422" lon="-0.7467">
        <ele>158.8525390625</ele>
        <time>2016-06-08T14:30:01.000Z</time>
      </trkpt>
      <trkpt lat="46.97425" lon="-0.74671">
        <ele>158.86596679688</ele>
        <time>2016-06-08T14:30:03.000Z</time>
      </trkpt>
      <trkpt lat="46.9743" lon="-0.74676">
        <ele>155.12730407715</ele>
        <time>2016-06-08T14:30:06.000Z</time>
      </trkpt>
      <trkpt lat="46.97434" lon="-0.74679">
        <ele>154.13729858398</ele>
        <time>2016-06-08T14:30:09.000Z</time>
      </trkpt>
      <trkpt lat="46.97437" lon="-0.74681">
        <ele>154.84962463379</ele>
        <time>2016-06-08T14:30:11.000Z</time>
      </trkpt>
      <trkpt lat="46.9744" lon="-0.74684">
        <ele>155.36935424805</ele>
        <time>2016-06-08T14:30:14.000Z</time>
      </trkpt>
      <trkpt lat="46.97443" lon="-0.74686">
        <ele>156.20651245117</ele>
        <time>2016-06-08T14:30:16.000Z</time>
      </trkpt>
      <trkpt lat="46.97448" lon="-0.74689">
        <ele>157.44458007812</ele>
        <time>2016-06-08T14:30:18.000Z</time>
      </trkpt>
      <trkpt lat="46.97453" lon="-0.74691">
        <ele>157.48913574219</ele>
        <time>2016-06-08T14:30:21.000Z</time>
      </trkpt>
      <trkpt lat="46.97458" lon="-0.7469">
        <ele>156.79849243164</ele>
        <time>2016-06-08T14:30:24.000Z</time>
      </trkpt>
      <trkpt lat="46.97459" lon="-0.74692">
        <ele>156.15197753906</ele>
        <time>2016-06-08T14:30:26.000Z</time>
      </trkpt>
      <trkpt lat="46.97462" lon="-0.74695">
        <ele>155.5852355957</ele>
        <time>2016-06-08T14:30:29.000Z</time>
      </trkpt>
      <trkpt lat="46.97466" lon="-0.747">
        <ele>155.14804077148</ele>
        <time>2016-06-08T14:30:32.000Z</time>
      </trkpt>
      <trkpt lat="46.97469" lon="-0.74703">
        <ele>153.50845336914</ele>
        <time>2016-06-08T14:30:34.000Z</time>
      </trkpt>
      <trkpt lat="46.97473" lon="-0.74706">
        <ele>151.76330566406</ele>
        <time>2016-06-08T14:30:37.000Z</time>
      </trkpt>
      <trkpt lat="46.97477" lon="-0.7471">
        <ele>152.02465820312</ele>
        <time>2016-06-08T14:30:40.000Z</time>
      </trkpt>
      <trkpt lat="46.9748" lon="-0.74711">
        <ele>153.10273742676</ele>
        <time>2016-06-08T14:30:42.000Z</time>
      </trkpt>
      <trkpt lat="46.97482" lon="-0.74712">
        <ele>154.04080200195</ele>
        <time>2016-06-08T14:30:45.000Z</time>
      </trkpt>
      <trkpt lat="46.97486" lon="-0.74716">
        <ele>154.32824707031</ele>
        <time>2016-06-08T14:30:48.000Z</time>
      </trkpt>
      <trkpt lat="46.97488" lon="-0.7472">
        <ele>154.42340087891</ele>
        <time>2016-06-08T14:30:51.000Z</time>
      </trkpt>
      <trkpt lat="46.97492" lon="-0.74723">
        <ele>154.40379333496</ele>
        <time>2016-06-08T14:30:54.000Z</time>
      </trkpt>
      <trkpt lat="46.97496" lon="-0.74727">
        <ele>153.66886901855</ele>
        <time>2016-06-08T14:30:57.000Z</time>
      </trkpt>
      <trkpt lat="46.97499" lon="-0.74731">
        <ele>153.4192199707</ele>
        <time>2016-06-08T14:30:59.000Z</time>
      </trkpt>
      <trkpt lat="46.97501" lon="-0.74736">
        <ele>153.30810546875</ele>
        <time>2016-06-08T14:31:02.000Z</time>
      </trkpt>
      <trkpt lat="46.97502" lon="-0.74738">
        <ele>153.97448730469</ele>
        <time>2016-06-08T14:31:04.000Z</time>
      </trkpt>
      <trkpt lat="46.97506" lon="-0.74741">
        <ele>154.37521362305</ele>
        <time>2016-06-08T14:31:07.000Z</time>
      </trkpt>
      <trkpt lat="46.97509" lon="-0.74744">
        <ele>154.43254089355</ele>
        <time>2016-06-08T14:31:09.000Z</time>
      </trkpt>
      <trkpt lat="46.97512" lon="-0.74745">
        <ele>155.54847717285</ele>
        <time>2016-06-08T14:31:12.000Z</time>
      </trkpt>
      <trkpt lat="46.97517" lon="-0.74748">
        <ele>155.97032165527</ele>
        <time>2016-06-08T14:31:15.000Z</time>
      </trkpt>
      <trkpt lat="46.9752" lon="-0.74751">
        <ele>156.34274291992</ele>
        <time>2016-06-08T14:31:17.000Z</time>
      </trkpt>
      <trkpt lat="46.97524" lon="-0.74755">
        <ele>155.88171386719</ele>
        <time>2016-06-08T14:31:20.000Z</time>
      </trkpt>
      <trkpt lat="46.97527" lon="-0.74758">
        <ele>155.48735046387</ele>
        <time>2016-06-08T14:31:22.000Z</time>
      </trkpt>
      <trkpt lat="46.97532" lon="-0.74761">
        <ele>156.81080627441</ele>
        <time>2016-06-08T14:31:25.000Z</time>
      </trkpt>
      <trkpt lat="46.97536" lon="-0.74764">
        <ele>157.36964416504</ele>
        <time>2016-06-08T14:31:29.000Z</time>
      </trkpt>
      <trkpt lat="46.9754" lon="-0.74769">
        <ele>157.06611633301</ele>
        <time>2016-06-08T14:31:32.000Z</time>
      </trkpt>
      <trkpt lat="46.97541" lon="-0.74772">
        <ele>156.99578857422</ele>
        <time>2016-06-08T14:31:34.000Z</time>
      </trkpt>
      <trkpt lat="46.97544" lon="-0.74777">
        <ele>156.30996704102</ele>
        <time>2016-06-08T14:31:37.000Z</time>
      </trkpt>
      <trkpt lat="46.97548" lon="-0.74779">
        <ele>155.27279663086</ele>
        <time>2016-06-08T14:31:39.000Z</time>
      </trkpt>
      <trkpt lat="46.97552" lon="-0.74782">
        <ele>155.57450866699</ele>
        <time>2016-06-08T14:31:42.000Z</time>
      </trkpt>
      <trkpt lat="46.97554" lon="-0.74784">
        <ele>156.20542907715</ele>
        <time>2016-06-08T14:31:44.000Z</time>
      </trkpt>
      <trkpt lat="46.97558" lon="-0.74786">
        <ele>156.19854736328</ele>
        <time>2016-06-08T14:31:47.000Z</time>
      </trkpt>
      <trkpt lat="46.97563" lon="-0.74791">
        <ele>156.83474731445</ele>
        <time>2016-06-08T14:31:50.000Z</time>
      </trkpt>
      <trkpt lat="46.97564" lon="-0.74792">
        <ele>156.94905090332</ele>
        <time>2016-06-08T14:31:52.000Z</time>
      </trkpt>
      <trkpt lat="46.97567" lon="-0.74794">
        <ele>158.421875</ele>
        <time>2016-06-08T14:31:55.000Z</time>
      </trkpt>
      <trkpt lat="46.97569" lon="-0.74796">
        <ele>158.91270446777</ele>
        <time>2016-06-08T14:31:57.000Z</time>
      </trkpt>
      <trkpt lat="46.97573" lon="-0.748">
        <ele>157.96377563477</ele>
        <time>2016-06-08T14:32:00.000Z</time>
      </trkpt>
      <trkpt lat="46.97577" lon="-0.74804">
        <ele>157.66278076172</ele>
        <time>2016-06-08T14:32:03.000Z</time>
      </trkpt>
      <trkpt lat="46.9758" lon="-0.74808">
        <ele>157.8942565918</ele>
        <time>2016-06-08T14:32:07.000Z</time>
      </trkpt>
      <trkpt lat="46.97584" lon="-0.74812">
        <ele>156.55369567871</ele>
        <time>2016-06-08T14:32:10.000Z</time>
      </trkpt>
      <trkpt lat="46.97587" lon="-0.74815">
        <ele>158.18452453613</ele>
        <time>2016-06-08T14:32:12.000Z</time>
      </trkpt>
      <trkpt lat="46.9759" lon="-0.74818">
        <ele>158.9429473877</ele>
        <time>2016-06-08T14:32:14.000Z</time>
      </trkpt>
      <trkpt lat="46.97595" lon="-0.74824">
        <ele>159.41233825684</ele>
        <time>2016-06-08T14:32:17.000Z</time>
      </trkpt>
      <trkpt lat="46.97599" lon="-0.74828">
        <ele>158.28622436523</ele>
        <time>2016-06-08T14:32:19.000Z</time>
      </trkpt>
      <trkpt lat="46.97602" lon="-0.74831">
        <ele>158.92883300781</ele>
        <time>2016-06-08T14:32:21.000Z</time>
      </trkpt>
      <trkpt lat="46.97606" lon="-0.74833">
        <ele>157.56828308105</ele>
        <time>2016-06-08T14:32:24.000Z</time>
      </trkpt>
      <trkpt lat="46.97607" lon="-0.74833">
        <ele>158.17224121094</ele>
        <time>2016-06-08T14:32:28.000Z</time>
      </trkpt>
      <trkpt lat="46.97609" lon="-0.74835">
        <ele>159.73188781738</ele>
        <time>2016-06-08T14:32:30.000Z</time>
      </trkpt>
      <trkpt lat="46.97612" lon="-0.74839">
        <ele>160.01054382324</ele>
        <time>2016-06-08T14:32:32.000Z</time>
      </trkpt>
      <trkpt lat="46.97613" lon="-0.74843">
        <ele>158.26942443848</ele>
        <time>2016-06-08T14:32:35.000Z</time>
      </trkpt>
      <trkpt lat="46.97615" lon="-0.74847">
        <ele>156.58348083496</ele>
        <time>2016-06-08T14:32:37.000Z</time>
      </trkpt>
      <trkpt lat="46.9762" lon="-0.7485">
        <ele>155.45390319824</ele>
        <time>2016-06-08T14:32:43.000Z</time>
      </trkpt>
      <trkpt lat="46.97625" lon="-0.74851">
        <ele>154.60414123535</ele>
        <time>2016-06-08T14:32:45.000Z</time>
      </trkpt>
      <trkpt lat="46.9763" lon="-0.74852">
        <ele>154.01286315918</ele>
        <time>2016-06-08T14:32:48.000Z</time>
      </trkpt>
      <trkpt lat="46.97633" lon="-0.74854">
        <ele>153.95732116699</ele>
        <time>2016-06-08T14:32:50.000Z</time>
      </trkpt>
      <trkpt lat="46.97638" lon="-0.74855">
        <ele>152.5869140625</ele>
        <time>2016-06-08T14:32:53.000Z</time>
      </trkpt>
      <trkpt lat="46.97643" lon="-0.74857">
        <ele>152.96572875977</ele>
        <time>2016-06-08T14:32:56.000Z</time>
      </trkpt>
      <trkpt lat="46.97646" lon="-0.74858">
        <ele>153.4010925293</ele>
        <time>2016-06-08T14:32:58.000Z</time>
      </trkpt>
      <trkpt lat="46.97651" lon="-0.74859">
        <ele>155.72392272949</ele>
        <time>2016-06-08T14:33:01.000Z</time>
      </trkpt>
      <trkpt lat="46.97654" lon="-0.74861">
        <ele>156.30621337891</ele>
        <time>2016-06-08T14:33:04.000Z</time>
      </trkpt>
      <trkpt lat="46.97657" lon="-0.74867">
        <ele>155.97657775879</ele>
        <time>2016-06-08T14:33:07.000Z</time>
      </trkpt>
      <trkpt lat="46.97659" lon="-0.74871">
        <ele>156.80410766602</ele>
        <time>2016-06-08T14:33:10.000Z</time>
      </trkpt>
      <trkpt lat="46.97662" lon="-0.74874">
        <ele>157.78393554688</ele>
        <time>2016-06-08T14:33:12.000Z</time>
      </trkpt>
      <trkpt lat="46.97663" lon="-0.74879">
        <ele>157.97897338867</ele>
        <time>2016-06-08T14:33:15.000Z</time>
      </trkpt>
      <trkpt lat="46.97663" lon="-0.7488">
        <ele>157.98908996582</ele>
        <time>2016-06-08T14:33:17.000Z</time>
      </trkpt>
      <trkpt lat="46.97663" lon="-0.74882">
        <ele>158.18490600586</ele>
        <time>2016-06-08T14:33:20.000Z</time>
      </trkpt>
      <trkpt lat="46.97664" lon="-0.74885">
        <ele>158.7141418457</ele>
        <time>2016-06-08T14:33:23.000Z</time>
      </trkpt>
      <trkpt lat="46.97666" lon="-0.7489">
        <ele>157.64952087402</ele>
        <time>2016-06-08T14:33:26.000Z</time>
      </trkpt>
      <trkpt lat="46.97668" lon="-0.74894">
        <ele>157.43168640137</ele>
        <time>2016-06-08T14:33:28.000Z</time>
      </trkpt>
      <trkpt lat="46.9767" lon="-0.74899">
        <ele>157.64712524414</ele>
        <time>2016-06-08T14:33:31.000Z</time>
      </trkpt>
      <trkpt lat="46.9767" lon="-0.74903">
        <ele>157.26425170898</ele>
        <time>2016-06-08T14:33:34.000Z</time>
      </trkpt>
      <trkpt lat="46.97672" lon="-0.74909">
        <ele>158.09324645996</ele>
        <time>2016-06-08T14:33:37.000Z</time>
      </trkpt>
      <trkpt lat="46.97675" lon="-0.74913">
        <ele>158.5135345459</ele>
        <time>2016-06-08T14:33:40.000Z</time>
      </trkpt>
      <trkpt lat="46.97678" lon="-0.74915">
        <ele>157.6170501709</ele>
        <time>2016-06-08T14:33:42.000Z</time>
      </trkpt>
      <trkpt lat="46.97681" lon="-0.74917">
        <ele>156.17024230957</ele>
        <time>2016-06-08T14:33:44.000Z</time>
      </trkpt>
      <trkpt lat="46.97686" lon="-0.74926">
        <ele>153.10948181152</ele>
        <time>2016-06-08T14:33:47.000Z</time>
      </trkpt>
      <trkpt lat="46.97689" lon="-0.74931">
        <ele>152.65229797363</ele>
        <time>2016-06-08T14:33:50.000Z</time>
      </trkpt>
      <trkpt lat="46.97691" lon="-0.74933">
        <ele>152.11013793945</ele>
        <time>2016-06-08T14:33:52.000Z</time>
      </trkpt>
      <trkpt lat="46.97693" lon="-0.74935">
        <ele>150.4080657959</ele>
        <time>2016-06-08T14:33:54.000Z</time>
      </trkpt>
      <trkpt lat="46.97697" lon="-0.74941">
        <ele>151.25007629395</ele>
        <time>2016-06-08T14:33:57.000Z</time>
      </trkpt>
      <trkpt lat="46.97699" lon="-0.74942">
        <ele>151.95736694336</ele>
        <time>2016-06-08T14:34:00.000Z</time>
      </trkpt>
      <trkpt lat="46.97703" lon="-0.74948">
        <ele>151.52774047852</ele>
        <time>2016-06-08T14:34:03.000Z</time>
      </trkpt>
      <trkpt lat="46.97706" lon="-0.74953">
        <ele>151.52670288086</ele>
        <time>2016-06-08T14:34:06.000Z</time>
      </trkpt>
      <trkpt lat="46.97707" lon="-0.74955">
        <ele>150.73915100098</ele>
        <time>2016-06-08T14:34:08.000Z</time>
      </trkpt>
      <trkpt lat="46.9771" lon="-0.74958">
        <ele>152.10411071777</ele>
        <time>2016-06-08T14:34:11.000Z</time>
      </trkpt>
      <trkpt lat="46.97713" lon="-0.7496">
        <ele>151.64761352539</ele>
        <time>2016-06-08T14:34:13.000Z</time>
      </trkpt>
      <trkpt lat="46.97715" lon="-0.74961">
        <ele>150.69923400879</ele>
        <time>2016-06-08T14:34:15.000Z</time>
      </trkpt>
      <trkpt lat="46.97716" lon="-0.74965">
        <ele>150.0491027832</ele>
        <time>2016-06-08T14:34:18.000Z</time>
      </trkpt>
      <trkpt lat="46.97719" lon="-0.74967">
        <ele>150.48327636719</ele>
        <time>2016-06-08T14:34:21.000Z</time>
      </trkpt>
      <trkpt lat="46.97727" lon="-0.74971">
        <ele>151.20524597168</ele>
        <time>2016-06-08T14:34:24.000Z</time>
      </trkpt>
      <trkpt lat="46.97729" lon="-0.74972">
        <ele>152.14186096191</ele>
        <time>2016-06-08T14:34:27.000Z</time>
      </trkpt>
      <trkpt lat="46.97731" lon="-0.74973">
        <ele>152.74652099609</ele>
        <time>2016-06-08T14:34:30.000Z</time>
      </trkpt>
      <trkpt lat="46.97737" lon="-0.74974">
        <ele>152.9623260498</ele>
        <time>2016-06-08T14:34:32.000Z</time>
      </trkpt>
      <trkpt lat="46.9774" lon="-0.74975">
        <ele>152.12213134766</ele>
        <time>2016-06-08T14:34:35.000Z</time>
      </trkpt>
      <trkpt lat="46.97741" lon="-0.74977">
        <ele>152.37330627441</ele>
        <time>2016-06-08T14:34:37.000Z</time>
      </trkpt>
      <trkpt lat="46.97744" lon="-0.74982">
        <ele>150.64326477051</ele>
        <time>2016-06-08T14:34:40.000Z</time>
      </trkpt>
      <trkpt lat="46.97746" lon="-0.74986">
        <ele>149.90420532227</ele>
        <time>2016-06-08T14:34:43.000Z</time>
      </trkpt>
      <trkpt lat="46.97748" lon="-0.74991">
        <ele>148.90107727051</ele>
        <time>2016-06-08T14:34:45.000Z</time>
      </trkpt>
      <trkpt lat="46.97752" lon="-0.74995">
        <ele>147.31652832031</ele>
        <time>2016-06-08T14:34:48.000Z</time>
      </trkpt>
      <trkpt lat="46.97754" lon="-0.74997">
        <ele>147.96766662598</ele>
        <time>2016-06-08T14:34:50.000Z</time>
      </trkpt>
      <trkpt lat="46.97757" lon="-0.74998">
        <ele>149.11346435547</ele>
        <time>2016-06-08T14:34:52.000Z</time>
      </trkpt>
      <trkpt lat="46.97758" lon="-0.74999">
        <ele>149.96116638184</ele>
        <time>2016-06-08T14:34:54.000Z</time>
      </trkpt>
      <trkpt lat="46.9776" lon="-0.75002">
        <ele>150.42597961426</ele>
        <time>2016-06-08T14:34:57.000Z</time>
      </trkpt>
      <trkpt lat="46.97764" lon="-0.75003">
        <ele>150.24737548828</ele>
        <time>2016-06-08T14:35:00.000Z</time>
      </trkpt>
      <trkpt lat="46.97767" lon="-0.75007">
        <ele>149.50207519531</ele>
        <time>2016-06-08T14:35:03.000Z</time>
      </trkpt>
      <trkpt lat="46.9777" lon="-0.7501">
        <ele>150.37576293945</ele>
        <time>2016-06-08T14:35:06.000Z</time>
      </trkpt>
      <trkpt lat="46.97773" lon="-0.75016">
        <ele>149.34225463867</ele>
        <time>2016-06-08T14:35:09.000Z</time>
      </trkpt>
      <trkpt lat="46.97776" lon="-0.75021">
        <ele>148.20106506348</ele>
        <time>2016-06-08T14:35:11.000Z</time>
      </trkpt>
      <trkpt lat="46.9778" lon="-0.75026">
        <ele>148.10218811035</ele>
        <time>2016-06-08T14:35:14.000Z</time>
      </trkpt>
      <trkpt lat="46.97783" lon="-0.75027">
        <ele>149.06904602051</ele>
        <time>2016-06-08T14:35:16.000Z</time>
      </trkpt>
      <trkpt lat="46.97784" lon="-0.75029">
        <ele>148.7345123291</ele>
        <time>2016-06-08T14:35:18.000Z</time>
      </trkpt>
      <trkpt lat="46.97788" lon="-0.75031">
        <ele>150.91178894043</ele>
        <time>2016-06-08T14:35:22.000Z</time>
      </trkpt>
      <trkpt lat="46.97792" lon="-0.75035">
        <ele>151.66098022461</ele>
        <time>2016-06-08T14:35:24.000Z</time>
      </trkpt>
      <trkpt lat="46.97795" lon="-0.75039">
        <ele>152.58450317383</ele>
        <time>2016-06-08T14:35:27.000Z</time>
      </trkpt>
      <trkpt lat="46.97802" lon="-0.75043">
        <ele>151.78486633301</ele>
        <time>2016-06-08T14:35:30.000Z</time>
      </trkpt>
      <trkpt lat="46.97803" lon="-0.75045">
        <ele>151.17570495605</ele>
        <time>2016-06-08T14:35:32.000Z</time>
      </trkpt>
      <trkpt lat="46.97805" lon="-0.75046">
        <ele>151.95402526855</ele>
        <time>2016-06-08T14:35:35.000Z</time>
      </trkpt>
      <trkpt lat="46.97808" lon="-0.7505">
        <ele>153.38163757324</ele>
        <time>2016-06-08T14:35:38.000Z</time>
      </trkpt>
      <trkpt lat="46.9781" lon="-0.75057">
        <ele>154.63502502441</ele>
        <time>2016-06-08T14:35:41.000Z</time>
      </trkpt>
      <trkpt lat="46.97812" lon="-0.75061">
        <ele>155.00650024414</ele>
        <time>2016-06-08T14:35:43.000Z</time>
      </trkpt>
      <trkpt lat="46.97815" lon="-0.75065">
        <ele>154.4323425293</ele>
        <time>2016-06-08T14:35:46.000Z</time>
      </trkpt>
      <trkpt lat="46.97819" lon="-0.7507">
        <ele>154.1346282959</ele>
        <time>2016-06-08T14:35:49.000Z</time>
      </trkpt>
      <trkpt lat="46.97821" lon="-0.75072">
        <ele>155.06092834473</ele>
        <time>2016-06-08T14:35:52.000Z</time>
      </trkpt>
      <trkpt lat="46.97826" lon="-0.75079">
        <ele>154.45562744141</ele>
        <time>2016-06-08T14:35:55.000Z</time>
      </trkpt>
      <trkpt lat="46.9783" lon="-0.75083">
        <ele>154.28828430176</ele>
        <time>2016-06-08T14:35:58.000Z</time>
      </trkpt>
      <trkpt lat="46.97832" lon="-0.75085">
        <ele>153.02058410645</ele>
        <time>2016-06-08T14:36:00.000Z</time>
      </trkpt>
      <trkpt lat="46.97834" lon="-0.75086">
        <ele>150.92616271973</ele>
        <time>2016-06-08T14:36:03.000Z</time>
      </trkpt>
      <trkpt lat="46.97837" lon="-0.75089">
        <ele>149.51420593262</ele>
        <time>2016-06-08T14:36:05.000Z</time>
      </trkpt>
      <trkpt lat="46.9784" lon="-0.75097">
        <ele>147.2220916748</ele>
        <time>2016-06-08T14:36:08.000Z</time>
      </trkpt>
      <trkpt lat="46.97842" lon="-0.751">
        <ele>146.73139953613</ele>
        <time>2016-06-08T14:36:10.000Z</time>
      </trkpt>
      <trkpt lat="46.97848" lon="-0.75101">
        <ele>147.75289916992</ele>
        <time>2016-06-08T14:36:13.000Z</time>
      </trkpt>
      <trkpt lat="46.97852" lon="-0.75102">
        <ele>149.82060241699</ele>
        <time>2016-06-08T14:36:15.000Z</time>
      </trkpt>
      <trkpt lat="46.97853" lon="-0.75103">
        <ele>150.33804321289</ele>
        <time>2016-06-08T14:36:18.000Z</time>
      </trkpt>
      <trkpt lat="46.97857" lon="-0.75108">
        <ele>148.06034851074</ele>
        <time>2016-06-08T14:36:21.000Z</time>
      </trkpt>
      <trkpt lat="46.9786" lon="-0.75113">
        <ele>145.15037536621</ele>
        <time>2016-06-08T14:36:23.000Z</time>
      </trkpt>
      <trkpt lat="46.97863" lon="-0.75121">
        <ele>142.97244262695</ele>
        <time>2016-06-08T14:36:26.000Z</time>
      </trkpt>
      <trkpt lat="46.97867" lon="-0.75126">
        <ele>142.36709594727</ele>
        <time>2016-06-08T14:36:28.000Z</time>
      </trkpt>
      <trkpt lat="46.97873" lon="-0.75128">
        <ele>141.77786254883</ele>
        <time>2016-06-08T14:36:31.000Z</time>
      </trkpt>
      <trkpt lat="46.97874" lon="-0.75129">
        <ele>141.57112121582</ele>
        <time>2016-06-08T14:36:33.000Z</time>
      </trkpt>
      <trkpt lat="46.97875" lon="-0.75131">
        <ele>141.01936340332</ele>
        <time>2016-06-08T14:36:35.000Z</time>
      </trkpt>
      <trkpt lat="46.97877" lon="-0.75136">
        <ele>139.33113098145</ele>
        <time>2016-06-08T14:36:38.000Z</time>
      </trkpt>
      <trkpt lat="46.97878" lon="-0.75139">
        <ele>139.85455322266</ele>
        <time>2016-06-08T14:36:40.000Z</time>
      </trkpt>
      <trkpt lat="46.97879" lon="-0.75142">
        <ele>140.1540222168</ele>
        <time>2016-06-08T14:36:43.000Z</time>
      </trkpt>
      <trkpt lat="46.97881" lon="-0.75144">
        <ele>140.21865844727</ele>
        <time>2016-06-08T14:36:46.000Z</time>
      </trkpt>
      <trkpt lat="46.97886" lon="-0.75147">
        <ele>139.0689239502</ele>
        <time>2016-06-08T14:36:49.000Z</time>
      </trkpt>
      <trkpt lat="46.97889" lon="-0.75147">
        <ele>140.30950927734</ele>
        <time>2016-06-08T14:36:51.000Z</time>
      </trkpt>
      <trkpt lat="46.97893" lon="-0.75151">
        <ele>142.40989685059</ele>
        <time>2016-06-08T14:36:54.000Z</time>
      </trkpt>
      <trkpt lat="46.97898" lon="-0.75158">
        <ele>141.96075439453</ele>
        <time>2016-06-08T14:36:58.000Z</time>
      </trkpt>
      <trkpt lat="46.97902" lon="-0.75164">
        <ele>140.82664489746</ele>
        <time>2016-06-08T14:37:02.000Z</time>
      </trkpt>
      <trkpt lat="46.97903" lon="-0.75165">
        <ele>140.48223876953</ele>
        <time>2016-06-08T14:37:04.000Z</time>
      </trkpt>
      <trkpt lat="46.97906" lon="-0.75168">
        <ele>140.35850524902</ele>
        <time>2016-06-08T14:37:06.000Z</time>
      </trkpt>
      <trkpt lat="46.97908" lon="-0.75171">
        <ele>138.5037689209</ele>
        <time>2016-06-08T14:37:09.000Z</time>
      </trkpt>
      <trkpt lat="46.97911" lon="-0.75175">
        <ele>137.25628662109</ele>
        <time>2016-06-08T14:37:12.000Z</time>
      </trkpt>
      <trkpt lat="46.97915" lon="-0.75177">
        <ele>141.44943237305</ele>
        <time>2016-06-08T14:37:15.000Z</time>
      </trkpt>
      <trkpt lat="46.97917" lon="-0.75177">
        <ele>143.37164306641</ele>
        <time>2016-06-08T14:37:18.000Z</time>
      </trkpt>
      <trkpt lat="46.9792" lon="-0.75179">
        <ele>143.17749023438</ele>
        <time>2016-06-08T14:37:21.000Z</time>
      </trkpt>
      <trkpt lat="46.97924" lon="-0.75184">
        <ele>143.09925842285</ele>
        <time>2016-06-08T14:37:24.000Z</time>
      </trkpt>
      <trkpt lat="46.97925" lon="-0.75187">
        <ele>143.80145263672</ele>
        <time>2016-06-08T14:37:28.000Z</time>
      </trkpt>
      <trkpt lat="46.97929" lon="-0.75189">
        <ele>145.41799926758</ele>
        <time>2016-06-08T14:37:30.000Z</time>
      </trkpt>
      <trkpt lat="46.97935" lon="-0.75193">
        <ele>146.49034118652</ele>
        <time>2016-06-08T14:37:33.000Z</time>
      </trkpt>
      <trkpt lat="46.97938" lon="-0.75196">
        <ele>146.25007629395</ele>
        <time>2016-06-08T14:37:36.000Z</time>
      </trkpt>
      <trkpt lat="46.9794" lon="-0.75196">
        <ele>146.21343994141</ele>
        <time>2016-06-08T14:37:39.000Z</time>
      </trkpt>
      <trkpt lat="46.97942" lon="-0.75197">
        <ele>146.27397155762</ele>
        <time>2016-06-08T14:37:42.000Z</time>
      </trkpt>
      <trkpt lat="46.97943" lon="-0.75197">
        <ele>145.85394287109</ele>
        <time>2016-06-08T14:37:44.000Z</time>
      </trkpt>
      <trkpt lat="46.97951" lon="-0.75203">
        <ele>142.81410217285</ele>
        <time>2016-06-08T14:37:47.000Z</time>
      </trkpt>
      <trkpt lat="46.97955" lon="-0.75206">
        <ele>143.18354797363</ele>
        <time>2016-06-08T14:37:50.000Z</time>
      </trkpt>
      <trkpt lat="46.97958" lon="-0.75211">
        <ele>143.95433044434</ele>
        <time>2016-06-08T14:37:53.000Z</time>
      </trkpt>
      <trkpt lat="46.97963" lon="-0.75213">
        <ele>144.50819396973</ele>
        <time>2016-06-08T14:37:56.000Z</time>
      </trkpt>
      <trkpt lat="46.97966" lon="-0.75214">
        <ele>143.73168945312</ele>
        <time>2016-06-08T14:37:58.000Z</time>
      </trkpt>
      <trkpt lat="46.97971" lon="-0.75217">
        <ele>143.1697845459</ele>
        <time>2016-06-08T14:38:02.000Z</time>
      </trkpt>
      <trkpt lat="46.97971" lon="-0.7522">
        <ele>142.75032043457</ele>
        <time>2016-06-08T14:38:04.000Z</time>
      </trkpt>
      <trkpt lat="46.97973" lon="-0.75223">
        <ele>142.85023498535</ele>
        <time>2016-06-08T14:38:06.000Z</time>
      </trkpt>
      <trkpt lat="46.97978" lon="-0.75228">
        <ele>144.02394104004</ele>
        <time>2016-06-08T14:38:09.000Z</time>
      </trkpt>
      <trkpt lat="46.9798" lon="-0.7523">
        <ele>144.40812683105</ele>
        <time>2016-06-08T14:38:11.000Z</time>
      </trkpt>
      <trkpt lat="46.97982" lon="-0.75231">
        <ele>144.24867248535</ele>
        <time>2016-06-08T14:38:13.000Z</time>
      </trkpt>
      <trkpt lat="46.97984" lon="-0.75235">
        <ele>142.77439880371</ele>
        <time>2016-06-08T14:38:16.000Z</time>
      </trkpt>
      <trkpt lat="46.97988" lon="-0.75236">
        <ele>142.8636932373</ele>
        <time>2016-06-08T14:38:19.000Z</time>
      </trkpt>
      <trkpt lat="46.97993" lon="-0.75236">
        <ele>145.30697631836</ele>
        <time>2016-06-08T14:38:23.000Z</time>
      </trkpt>
      <trkpt lat="46.97997" lon="-0.75238">
        <ele>147.10830688477</ele>
        <time>2016-06-08T14:38:26.000Z</time>
      </trkpt>
      <trkpt lat="46.97999" lon="-0.75242">
        <ele>147.43023681641</ele>
        <time>2016-06-08T14:38:28.000Z</time>
      </trkpt>
      <trkpt lat="46.98001" lon="-0.75245">
        <ele>147.52244567871</ele>
        <time>2016-06-08T14:38:30.000Z</time>
      </trkpt>
      <trkpt lat="46.98006" lon="-0.75247">
        <ele>147.91369628906</ele>
        <time>2016-06-08T14:38:33.000Z</time>
      </trkpt>
      <trkpt lat="46.98009" lon="-0.75249">
        <ele>147.19250488281</ele>
        <time>2016-06-08T14:38:35.000Z</time>
      </trkpt>
      <trkpt lat="46.98012" lon="-0.75247">
        <ele>146.65602111816</ele>
        <time>2016-06-08T14:38:37.000Z</time>
      </trkpt>
      <trkpt lat="46.98014" lon="-0.75247">
        <ele>145.87313842773</ele>
        <time>2016-06-08T14:38:39.000Z</time>
      </trkpt>
      <trkpt lat="46.98019" lon="-0.75248">
        <ele>146.44216918945</ele>
        <time>2016-06-08T14:38:42.000Z</time>
      </trkpt>
      <trkpt lat="46.98021" lon="-0.75248">
        <ele>146.658203125</ele>
        <time>2016-06-08T14:38:45.000Z</time>
      </trkpt>
      <trkpt lat="46.98022" lon="-0.75248">
        <ele>147.19035339355</ele>
        <time>2016-06-08T14:38:48.000Z</time>
      </trkpt>
      <trkpt lat="46.98026" lon="-0.75249">
        <ele>145.60955810547</ele>
        <time>2016-06-08T14:38:51.000Z</time>
      </trkpt>
      <trkpt lat="46.98032" lon="-0.75255">
        <ele>143.39581298828</ele>
        <time>2016-06-08T14:38:53.000Z</time>
      </trkpt>
      <trkpt lat="46.98034" lon="-0.75256">
        <ele>142.60372924805</ele>
        <time>2016-06-08T14:38:55.000Z</time>
      </trkpt>
      <trkpt lat="46.98037" lon="-0.75258">
        <ele>141.71487426758</ele>
        <time>2016-06-08T14:38:58.000Z</time>
      </trkpt>
      <trkpt lat="46.98041" lon="-0.7526">
        <ele>141.0220489502</ele>
        <time>2016-06-08T14:39:00.000Z</time>
      </trkpt>
      <trkpt lat="46.98046" lon="-0.75262">
        <ele>140.90454101562</ele>
        <time>2016-06-08T14:39:03.000Z</time>
      </trkpt>
      <trkpt lat="46.98051" lon="-0.75263">
        <ele>140.93521118164</ele>
        <time>2016-06-08T14:39:05.000Z</time>
      </trkpt>
      <trkpt lat="46.98054" lon="-0.75265">
        <ele>141.30880737305</ele>
        <time>2016-06-08T14:39:08.000Z</time>
      </trkpt>
      <trkpt lat="46.98058" lon="-0.75267">
        <ele>140.23667907715</ele>
        <time>2016-06-08T14:39:11.000Z</time>
      </trkpt>
      <trkpt lat="46.9806" lon="-0.75267">
        <ele>139.71005249023</ele>
        <time>2016-06-08T14:39:14.000Z</time>
      </trkpt>
      <trkpt lat="46.98061" lon="-0.75266">
        <ele>139.63519287109</ele>
        <time>2016-06-08T14:39:17.000Z</time>
      </trkpt>
      <trkpt lat="46.98063" lon="-0.75267">
        <ele>138.99324035645</ele>
        <time>2016-06-08T14:39:21.000Z</time>
      </trkpt>
      <trkpt lat="46.98064" lon="-0.75269">
        <ele>138.29730224609</ele>
        <time>2016-06-08T14:39:24.000Z</time>
      </trkpt>
      <trkpt lat="46.98066" lon="-0.75269">
        <ele>138.58940124512</ele>
        <time>2016-06-08T14:39:30.000Z</time>
      </trkpt>
      <trkpt lat="46.98076" lon="-0.7527">
        <ele>142.34288024902</ele>
        <time>2016-06-08T14:39:33.000Z</time>
      </trkpt>
      <trkpt lat="46.9808" lon="-0.75272">
        <ele>143.35639953613</ele>
        <time>2016-06-08T14:39:35.000Z</time>
      </trkpt>
      <trkpt lat="46.98085" lon="-0.75274">
        <ele>144.77500915527</ele>
        <time>2016-06-08T14:39:38.000Z</time>
      </trkpt>
      <trkpt lat="46.98086" lon="-0.75277">
        <ele>143.98767089844</ele>
        <time>2016-06-08T14:39:40.000Z</time>
      </trkpt>
      <trkpt lat="46.9809" lon="-0.7528">
        <ele>143.04602050781</ele>
        <time>2016-06-08T14:39:42.000Z</time>
      </trkpt>
      <trkpt lat="46.98096" lon="-0.75281">
        <ele>142.35784912109</ele>
        <time>2016-06-08T14:39:45.000Z</time>
      </trkpt>
      <trkpt lat="46.98101" lon="-0.75282">
        <ele>143.31391906738</ele>
        <time>2016-06-08T14:39:49.000Z</time>
      </trkpt>
      <trkpt lat="46.98106" lon="-0.75285">
        <ele>143.2269744873</ele>
        <time>2016-06-08T14:39:52.000Z</time>
      </trkpt>
      <trkpt lat="46.9811" lon="-0.75289">
        <ele>141.22006225586</ele>
        <time>2016-06-08T14:39:54.000Z</time>
      </trkpt>
      <trkpt lat="46.98116" lon="-0.75293">
        <ele>139.07913208008</ele>
        <time>2016-06-08T14:39:57.000Z</time>
      </trkpt>
      <trkpt lat="46.98119" lon="-0.75294">
        <ele>139.6682434082</ele>
        <time>2016-06-08T14:39:59.000Z</time>
      </trkpt>
      <trkpt lat="46.98125" lon="-0.75294">
        <ele>141.45791625977</ele>
        <time>2016-06-08T14:40:02.000Z</time>
      </trkpt>
      <trkpt lat="46.98126" lon="-0.75294">
        <ele>142.44789123535</ele>
        <time>2016-06-08T14:40:04.000Z</time>
      </trkpt>
      <trkpt lat="46.9813" lon="-0.75295">
        <ele>143.4144744873</ele>
        <time>2016-06-08T14:40:09.000Z</time>
      </trkpt>
      <trkpt lat="46.98136" lon="-0.75298">
        <ele>142.24806213379</ele>
        <time>2016-06-08T14:40:12.000Z</time>
      </trkpt>
      <trkpt lat="46.98143" lon="-0.75299">
        <ele>141.61163330078</ele>
        <time>2016-06-08T14:40:16.000Z</time>
      </trkpt>
      <trkpt lat="46.98145" lon="-0.75299">
        <ele>141.85966491699</ele>
        <time>2016-06-08T14:40:18.000Z</time>
      </trkpt>
      <trkpt lat="46.98148" lon="-0.75299">
        <ele>138.90734863281</ele>
        <time>2016-06-08T14:40:21.000Z</time>
      </trkpt>
      <trkpt lat="46.98151" lon="-0.75299">
        <ele>139.72895812988</ele>
        <time>2016-06-08T14:40:25.000Z</time>
      </trkpt>
      <trkpt lat="46.98155" lon="-0.75301">
        <ele>141.55296325684</ele>
        <time>2016-06-08T14:40:27.000Z</time>
      </trkpt>
      <trkpt lat="46.98157" lon="-0.75302">
        <ele>142.27313232422</ele>
        <time>2016-06-08T14:40:30.000Z</time>
      </trkpt>
      <trkpt lat="46.9816" lon="-0.75302">
        <ele>142.94537353516</ele>
        <time>2016-06-08T14:40:33.000Z</time>
      </trkpt>
      <trkpt lat="46.98164" lon="-0.75303">
        <ele>142.82995605469</ele>
        <time>2016-06-08T14:40:36.000Z</time>
      </trkpt>
      <trkpt lat="46.98167" lon="-0.75304">
        <ele>143.11051940918</ele>
        <time>2016-06-08T14:40:38.000Z</time>
      </trkpt>
      <trkpt lat="46.9817" lon="-0.75305">
        <ele>143.01110839844</ele>
        <time>2016-06-08T14:40:40.000Z</time>
      </trkpt>
      <trkpt lat="46.98172" lon="-0.75306">
        <ele>142.97158813477</ele>
        <time>2016-06-08T14:40:42.000Z</time>
      </trkpt>
      <trkpt lat="46.98175" lon="-0.75306">
        <ele>142.26365661621</ele>
        <time>2016-06-08T14:40:45.000Z</time>
      </trkpt>
      <trkpt lat="46.98179" lon="-0.75306">
        <ele>142.66610717773</ele>
        <time>2016-06-08T14:40:47.000Z</time>
      </trkpt>
      <trkpt lat="46.98185" lon="-0.75309">
        <ele>144.06846618652</ele>
        <time>2016-06-08T14:40:51.000Z</time>
      </trkpt>
      <trkpt lat="46.98189" lon="-0.75312">
        <ele>143.62652587891</ele>
        <time>2016-06-08T14:40:53.000Z</time>
      </trkpt>
      <trkpt lat="46.98193" lon="-0.75314">
        <ele>144.88293457031</ele>
        <time>2016-06-08T14:40:55.000Z</time>
      </trkpt>
      <trkpt lat="46.98195" lon="-0.75314">
        <ele>144.9938659668</ele>
        <time>2016-06-08T14:40:58.000Z</time>
      </trkpt>
      <trkpt lat="46.98197" lon="-0.75316">
        <ele>144.0086517334</ele>
        <time>2016-06-08T14:41:00.000Z</time>
      </trkpt>
      <trkpt lat="46.98199" lon="-0.75317">
        <ele>143.79597473145</ele>
        <time>2016-06-08T14:41:03.000Z</time>
      </trkpt>
      <trkpt lat="46.98202" lon="-0.75317">
        <ele>142.51210021973</ele>
        <time>2016-06-08T14:41:07.000Z</time>
      </trkpt>
      <trkpt lat="46.98204" lon="-0.75318">
        <ele>140.94828796387</ele>
        <time>2016-06-08T14:41:09.000Z</time>
      </trkpt>
      <trkpt lat="46.98211" lon="-0.75319">
        <ele>142.1217956543</ele>
        <time>2016-06-08T14:41:12.000Z</time>
      </trkpt>
      <trkpt lat="46.98217" lon="-0.75319">
        <ele>141.59051513672</ele>
        <time>2016-06-08T14:41:15.000Z</time>
      </trkpt>
      <trkpt lat="46.98221" lon="-0.75317">
        <ele>140.17034912109</ele>
        <time>2016-06-08T14:41:18.000Z</time>
      </trkpt>
      <trkpt lat="46.98222" lon="-0.75317">
        <ele>141.1222076416</ele>
        <time>2016-06-08T14:41:20.000Z</time>
      </trkpt>
      <trkpt lat="46.98225" lon="-0.75316">
        <ele>142.67855834961</ele>
        <time>2016-06-08T14:41:22.000Z</time>
      </trkpt>
      <trkpt lat="46.98227" lon="-0.75317">
        <ele>142.99870300293</ele>
        <time>2016-06-08T14:41:24.000Z</time>
      </trkpt>
      <trkpt lat="46.9823" lon="-0.75317">
        <ele>144.81407165527</ele>
        <time>2016-06-08T14:41:27.000Z</time>
      </trkpt>
      <trkpt lat="46.98235" lon="-0.75319">
        <ele>145.69345092773</ele>
        <time>2016-06-08T14:41:30.000Z</time>
      </trkpt>
      <trkpt lat="46.9824" lon="-0.75319">
        <ele>147.42993164062</ele>
        <time>2016-06-08T14:41:33.000Z</time>
      </trkpt>
      <trkpt lat="46.98243" lon="-0.75319">
        <ele>146.73921203613</ele>
        <time>2016-06-08T14:41:35.000Z</time>
      </trkpt>
      <trkpt lat="46.98246" lon="-0.75319">
        <ele>146.86819458008</ele>
        <time>2016-06-08T14:41:38.000Z</time>
      </trkpt>
      <trkpt lat="46.9825" lon="-0.7532">
        <ele>146.55386352539</ele>
        <time>2016-06-08T14:41:40.000Z</time>
      </trkpt>
      <trkpt lat="46.98255" lon="-0.75321">
        <ele>146.38398742676</ele>
        <time>2016-06-08T14:41:43.000Z</time>
      </trkpt>
      <trkpt lat="46.98257" lon="-0.75322">
        <ele>144.90483093262</ele>
        <time>2016-06-08T14:41:45.000Z</time>
      </trkpt>
      <trkpt lat="46.98262" lon="-0.75323">
        <ele>141.32252502441</ele>
        <time>2016-06-08T14:41:48.000Z</time>
      </trkpt>
      <trkpt lat="46.98266" lon="-0.75324">
        <ele>141.57545471191</ele>
        <time>2016-06-08T14:41:51.000Z</time>
      </trkpt>
      <trkpt lat="46.98267" lon="-0.75324">
        <ele>141.88119506836</ele>
        <time>2016-06-08T14:41:53.000Z</time>
      </trkpt>
      <trkpt lat="46.98269" lon="-0.75324">
        <ele>143.02137756348</ele>
        <time>2016-06-08T14:41:55.000Z</time>
      </trkpt>
      <trkpt lat="46.98271" lon="-0.75323">
        <ele>143.76960754395</ele>
        <time>2016-06-08T14:41:57.000Z</time>
      </trkpt>
      <trkpt lat="46.98275" lon="-0.75321">
        <ele>142.20593261719</ele>
        <time>2016-06-08T14:42:00.000Z</time>
      </trkpt>
      <trkpt lat="46.98279" lon="-0.75321">
        <ele>142.45414733887</ele>
        <time>2016-06-08T14:42:03.000Z</time>
      </trkpt>
      <trkpt lat="46.98284" lon="-0.75321">
        <ele>143.38394165039</ele>
        <time>2016-06-08T14:42:06.000Z</time>
      </trkpt>
      <trkpt lat="46.98288" lon="-0.75323">
        <ele>143.20043945312</ele>
        <time>2016-06-08T14:42:08.000Z</time>
      </trkpt>
      <trkpt lat="46.98293" lon="-0.75327">
        <ele>142.23490905762</ele>
        <time>2016-06-08T14:42:11.000Z</time>
      </trkpt>
      <trkpt lat="46.98296" lon="-0.75328">
        <ele>143.76959228516</ele>
        <time>2016-06-08T14:42:13.000Z</time>
      </trkpt>
      <trkpt lat="46.983" lon="-0.7533">
        <ele>142.15679931641</ele>
        <time>2016-06-08T14:42:16.000Z</time>
      </trkpt>
      <trkpt lat="46.98301" lon="-0.75331">
        <ele>142.56134033203</ele>
        <time>2016-06-08T14:42:18.000Z</time>
      </trkpt>
      <trkpt lat="46.98304" lon="-0.75331">
        <ele>142.58950805664</ele>
        <time>2016-06-08T14:42:20.000Z</time>
      </trkpt>
      <trkpt lat="46.98307" lon="-0.75331">
        <ele>140.83905029297</ele>
        <time>2016-06-08T14:42:23.000Z</time>
      </trkpt>
      <trkpt lat="46.98311" lon="-0.75332">
        <ele>140.47557067871</ele>
        <time>2016-06-08T14:42:25.000Z</time>
      </trkpt>
      <trkpt lat="46.98317" lon="-0.75333">
        <ele>142.21740722656</ele>
        <time>2016-06-08T14:42:28.000Z</time>
      </trkpt>
      <trkpt lat="46.9832" lon="-0.75332">
        <ele>143.14859008789</ele>
        <time>2016-06-08T14:42:30.000Z</time>
      </trkpt>
      <trkpt lat="46.98323" lon="-0.75332">
        <ele>142.39265441895</ele>
        <time>2016-06-08T14:42:33.000Z</time>
      </trkpt>
      <trkpt lat="46.98327" lon="-0.75334">
        <ele>140.1349029541</ele>
        <time>2016-06-08T14:42:36.000Z</time>
      </trkpt>
      <trkpt lat="46.9833" lon="-0.75335">
        <ele>139.79476928711</ele>
        <time>2016-06-08T14:42:39.000Z</time>
      </trkpt>
      <trkpt lat="46.98336" lon="-0.75336">
        <ele>137.34222412109</ele>
        <time>2016-06-08T14:42:42.000Z</time>
      </trkpt>
      <trkpt lat="46.98339" lon="-0.75337">
        <ele>136.62768554688</ele>
        <time>2016-06-08T14:42:45.000Z</time>
      </trkpt>
      <trkpt lat="46.98343" lon="-0.75337">
        <ele>138.2657623291</ele>
        <time>2016-06-08T14:42:48.000Z</time>
      </trkpt>
      <trkpt lat="46.98345" lon="-0.75337">
        <ele>138.89739990234</ele>
        <time>2016-06-08T14:42:51.000Z</time>
      </trkpt>
      <trkpt lat="46.98349" lon="-0.75338">
        <ele>138.8892364502</ele>
        <time>2016-06-08T14:42:54.000Z</time>
      </trkpt>
      <trkpt lat="46.98352" lon="-0.75339">
        <ele>139.30752563477</ele>
        <time>2016-06-08T14:42:56.000Z</time>
      </trkpt>
      <trkpt lat="46.98357" lon="-0.75341">
        <ele>139.45304870605</ele>
        <time>2016-06-08T14:42:58.000Z</time>
      </trkpt>
      <trkpt lat="46.98362" lon="-0.75347">
        <ele>140.29295349121</ele>
        <time>2016-06-08T14:43:01.000Z</time>
      </trkpt>
      <trkpt lat="46.98365" lon="-0.7535">
        <ele>140.86824035645</ele>
        <time>2016-06-08T14:43:03.000Z</time>
      </trkpt>
      <trkpt lat="46.98367" lon="-0.75351">
        <ele>141.30574035645</ele>
        <time>2016-06-08T14:43:07.000Z</time>
      </trkpt>
      <trkpt lat="46.98372" lon="-0.75351">
        <ele>140.7583770752</ele>
        <time>2016-06-08T14:43:10.000Z</time>
      </trkpt>
      <trkpt lat="46.98375" lon="-0.75351">
        <ele>139.69055175781</ele>
        <time>2016-06-08T14:43:12.000Z</time>
      </trkpt>
      <trkpt lat="46.98378" lon="-0.75352">
        <ele>139.05670166016</ele>
        <time>2016-06-08T14:43:15.000Z</time>
      </trkpt>
      <trkpt lat="46.98381" lon="-0.75353">
        <ele>140.32925415039</ele>
        <time>2016-06-08T14:43:17.000Z</time>
      </trkpt>
      <trkpt lat="46.98386" lon="-0.75355">
        <ele>140.63673400879</ele>
        <time>2016-06-08T14:43:20.000Z</time>
      </trkpt>
      <trkpt lat="46.98388" lon="-0.75357">
        <ele>140.94033813477</ele>
        <time>2016-06-08T14:43:22.000Z</time>
      </trkpt>
      <trkpt lat="46.98392" lon="-0.75358">
        <ele>142.42872619629</ele>
        <time>2016-06-08T14:43:25.000Z</time>
      </trkpt>
      <trkpt lat="46.98394" lon="-0.7536">
        <ele>141.12013244629</ele>
        <time>2016-06-08T14:43:27.000Z</time>
      </trkpt>
      <trkpt lat="46.98395" lon="-0.7536">
        <ele>140.56207275391</ele>
        <time>2016-06-08T14:43:29.000Z</time>
      </trkpt>
      <trkpt lat="46.98398" lon="-0.75363">
        <ele>139.88461303711</ele>
        <time>2016-06-08T14:43:32.000Z</time>
      </trkpt>
      <trkpt lat="46.98402" lon="-0.75364">
        <ele>140.90951538086</ele>
        <time>2016-06-08T14:43:34.000Z</time>
      </trkpt>
      <trkpt lat="46.98407" lon="-0.75367">
        <ele>140.97868347168</ele>
        <time>2016-06-08T14:43:38.000Z</time>
      </trkpt>
      <trkpt lat="46.98409" lon="-0.75368">
        <ele>141.74757385254</ele>
        <time>2016-06-08T14:43:40.000Z</time>
      </trkpt>
      <trkpt lat="46.98412" lon="-0.7537">
        <ele>141.44473266602</ele>
        <time>2016-06-08T14:43:43.000Z</time>
      </trkpt>
      <trkpt lat="46.98416" lon="-0.7537">
        <ele>141.95613098145</ele>
        <time>2016-06-08T14:43:45.000Z</time>
      </trkpt>
      <trkpt lat="46.98421" lon="-0.75372">
        <ele>143.81881713867</ele>
        <time>2016-06-08T14:43:48.000Z</time>
      </trkpt>
      <trkpt lat="46.98425" lon="-0.75371">
        <ele>144.98666381836</ele>
        <time>2016-06-08T14:43:52.000Z</time>
      </trkpt>
      <trkpt lat="46.98428" lon="-0.75371">
        <ele>145.46391296387</ele>
        <time>2016-06-08T14:43:54.000Z</time>
      </trkpt>
      <trkpt lat="46.98431" lon="-0.75372">
        <ele>146.41778564453</ele>
        <time>2016-06-08T14:43:57.000Z</time>
      </trkpt>
      <trkpt lat="46.98435" lon="-0.75378">
        <ele>146.61784362793</ele>
        <time>2016-06-08T14:44:00.000Z</time>
      </trkpt>
      <trkpt lat="46.9844" lon="-0.75383">
        <ele>143.95455932617</ele>
        <time>2016-06-08T14:44:04.000Z</time>
      </trkpt>
      <trkpt lat="46.98442" lon="-0.75385">
        <ele>142.94102478027</ele>
        <time>2016-06-08T14:44:06.000Z</time>
      </trkpt>
      <trkpt lat="46.98448" lon="-0.75387">
        <ele>142.82647705078</ele>
        <time>2016-06-08T14:44:09.000Z</time>
      </trkpt>
      <trkpt lat="46.98451" lon="-0.7539">
        <ele>143.61917114258</ele>
        <time>2016-06-08T14:44:12.000Z</time>
      </trkpt>
      <trkpt lat="46.98454" lon="-0.75392">
        <ele>143.1086730957</ele>
        <time>2016-06-08T14:44:15.000Z</time>
      </trkpt>
      <trkpt lat="46.98457" lon="-0.75394">
        <ele>142.13905334473</ele>
        <time>2016-06-08T14:44:17.000Z</time>
      </trkpt>
      <trkpt lat="46.98458" lon="-0.75396">
        <ele>141.93367004395</ele>
        <time>2016-06-08T14:44:19.000Z</time>
      </trkpt>
      <trkpt lat="46.98465" lon="-0.754">
        <ele>141.94453430176</ele>
        <time>2016-06-08T14:44:22.000Z</time>
      </trkpt>
      <trkpt lat="46.98471" lon="-0.75403">
        <ele>140.67488098145</ele>
        <time>2016-06-08T14:44:25.000Z</time>
      </trkpt>
      <trkpt lat="46.98474" lon="-0.75405">
        <ele>139.67579650879</ele>
        <time>2016-06-08T14:44:27.000Z</time>
      </trkpt>
      <trkpt lat="46.98476" lon="-0.75406">
        <ele>141.31996154785</ele>
        <time>2016-06-08T14:44:30.000Z</time>
      </trkpt>
      <trkpt lat="46.98479" lon="-0.75407">
        <ele>142.93405151367</ele>
        <time>2016-06-08T14:44:33.000Z</time>
      </trkpt>
      <trkpt lat="46.98483" lon="-0.75409">
        <ele>143.60906982422</ele>
        <time>2016-06-08T14:44:36.000Z</time>
      </trkpt>
      <trkpt lat="46.98486" lon="-0.75412">
        <ele>144.26461791992</ele>
        <time>2016-06-08T14:44:38.000Z</time>
      </trkpt>
      <trkpt lat="46.98489" lon="-0.75414">
        <ele>144.47155761719</ele>
        <time>2016-06-08T14:44:41.000Z</time>
      </trkpt>
      <trkpt lat="46.98495" lon="-0.75417">
        <ele>143.98663330078</ele>
        <time>2016-06-08T14:44:44.000Z</time>
      </trkpt>
      <trkpt lat="46.98499" lon="-0.75418">
        <ele>144.80746459961</ele>
        <time>2016-06-08T14:44:46.000Z</time>
      </trkpt>
      <trkpt lat="46.98501" lon="-0.75418">
        <ele>144.18138122559</ele>
        <time>2016-06-08T14:44:48.000Z</time>
      </trkpt>
      <trkpt lat="46.98505" lon="-0.75419">
        <ele>144.44236755371</ele>
        <time>2016-06-08T14:44:51.000Z</time>
      </trkpt>
      <trkpt lat="46.98508" lon="-0.7542">
        <ele>145.31492614746</ele>
        <time>2016-06-08T14:44:53.000Z</time>
      </trkpt>
      <trkpt lat="46.98512" lon="-0.75419">
        <ele>146.47555541992</ele>
        <time>2016-06-08T14:44:55.000Z</time>
      </trkpt>
      <trkpt lat="46.98517" lon="-0.7542">
        <ele>146.46905517578</ele>
        <time>2016-06-08T14:44:58.000Z</time>
      </trkpt>
      <trkpt lat="46.9852" lon="-0.75425">
        <ele>145.69027709961</ele>
        <time>2016-06-08T14:45:01.000Z</time>
      </trkpt>
      <trkpt lat="46.98524" lon="-0.7543">
        <ele>144.96852111816</ele>
        <time>2016-06-08T14:45:04.000Z</time>
      </trkpt>
      <trkpt lat="46.98528" lon="-0.75432">
        <ele>145.2716217041</ele>
        <time>2016-06-08T14:45:07.000Z</time>
      </trkpt>
      <trkpt lat="46.98531" lon="-0.75435">
        <ele>145.93019104004</ele>
        <time>2016-06-08T14:45:09.000Z</time>
      </trkpt>
      <trkpt lat="46.98535" lon="-0.75437">
        <ele>145.19375610352</ele>
        <time>2016-06-08T14:45:12.000Z</time>
      </trkpt>
      <trkpt lat="46.98537" lon="-0.75437">
        <ele>146.14347839355</ele>
        <time>2016-06-08T14:45:14.000Z</time>
      </trkpt>
      <trkpt lat="46.98542" lon="-0.75436">
        <ele>147.13362121582</ele>
        <time>2016-06-08T14:45:17.000Z</time>
      </trkpt>
      <trkpt lat="46.98546" lon="-0.75438">
        <ele>146.96910095215</ele>
        <time>2016-06-08T14:45:20.000Z</time>
      </trkpt>
      <trkpt lat="46.98549" lon="-0.75439">
        <ele>147.44692993164</ele>
        <time>2016-06-08T14:45:22.000Z</time>
      </trkpt>
      <trkpt lat="46.9855" lon="-0.75442">
        <ele>146.81745910645</ele>
        <time>2016-06-08T14:45:25.000Z</time>
      </trkpt>
      <trkpt lat="46.98554" lon="-0.75445">
        <ele>145.78356933594</ele>
        <time>2016-06-08T14:45:28.000Z</time>
      </trkpt>
      <trkpt lat="46.98557" lon="-0.75447">
        <ele>144.8438873291</ele>
        <time>2016-06-08T14:45:31.000Z</time>
      </trkpt>
      <trkpt lat="46.98561" lon="-0.75447">
        <ele>145.18560791016</ele>
        <time>2016-06-08T14:45:34.000Z</time>
      </trkpt>
      <trkpt lat="46.98563" lon="-0.75447">
        <ele>144.94705200195</ele>
        <time>2016-06-08T14:45:36.000Z</time>
      </trkpt>
      <trkpt lat="46.98566" lon="-0.75452">
        <ele>144.01261901855</ele>
        <time>2016-06-08T14:45:38.000Z</time>
      </trkpt>
      <trkpt lat="46.98571" lon="-0.75456">
        <ele>143.62542724609</ele>
        <time>2016-06-08T14:45:41.000Z</time>
      </trkpt>
      <trkpt lat="46.98574" lon="-0.75459">
        <ele>144.41052246094</ele>
        <time>2016-06-08T14:45:43.000Z</time>
      </trkpt>
      <trkpt lat="46.98577" lon="-0.75461">
        <ele>145.86520385742</ele>
        <time>2016-06-08T14:45:46.000Z</time>
      </trkpt>
      <trkpt lat="46.98582" lon="-0.75464">
        <ele>145.50378417969</ele>
        <time>2016-06-08T14:45:49.000Z</time>
      </trkpt>
      <trkpt lat="46.98585" lon="-0.75467">
        <ele>143.57392883301</ele>
        <time>2016-06-08T14:45:52.000Z</time>
      </trkpt>
      <trkpt lat="46.98589" lon="-0.75466">
        <ele>144.12655639648</ele>
        <time>2016-06-08T14:45:54.000Z</time>
      </trkpt>
      <trkpt lat="46.98592" lon="-0.75464">
        <ele>145.22660827637</ele>
        <time>2016-06-08T14:45:57.000Z</time>
      </trkpt>
      <trkpt lat="46.98594" lon="-0.75464">
        <ele>146.33985900879</ele>
        <time>2016-06-08T14:46:00.000Z</time>
      </trkpt>
      <trkpt lat="46.98597" lon="-0.7547">
        <ele>145.78454589844</ele>
        <time>2016-06-08T14:46:03.000Z</time>
      </trkpt>
      <trkpt lat="46.98602" lon="-0.75472">
        <ele>144.77143859863</ele>
        <time>2016-06-08T14:46:06.000Z</time>
      </trkpt>
      <trkpt lat="46.98606" lon="-0.75473">
        <ele>144.00271606445</ele>
        <time>2016-06-08T14:46:09.000Z</time>
      </trkpt>
      <trkpt lat="46.98611" lon="-0.75476">
        <ele>143.95004272461</ele>
        <time>2016-06-08T14:46:11.000Z</time>
      </trkpt>
      <trkpt lat="46.98616" lon="-0.75478">
        <ele>144.90414428711</ele>
        <time>2016-06-08T14:46:15.000Z</time>
      </trkpt>
      <trkpt lat="46.98618" lon="-0.7548">
        <ele>145.55752563477</ele>
        <time>2016-06-08T14:46:18.000Z</time>
      </trkpt>
      <trkpt lat="46.98621" lon="-0.7548">
        <ele>147.25752258301</ele>
        <time>2016-06-08T14:46:20.000Z</time>
      </trkpt>
      <trkpt lat="46.98624" lon="-0.7548">
        <ele>146.26655578613</ele>
        <time>2016-06-08T14:46:23.000Z</time>
      </trkpt>
      <trkpt lat="46.9863" lon="-0.75479">
        <ele>146.43948364258</ele>
        <time>2016-06-08T14:46:26.000Z</time>
      </trkpt>
      <trkpt lat="46.98635" lon="-0.7548">
        <ele>145.98515319824</ele>
        <time>2016-06-08T14:46:29.000Z</time>
      </trkpt>
      <trkpt lat="46.98641" lon="-0.75485">
        <ele>144.23530578613</ele>
        <time>2016-06-08T14:46:32.000Z</time>
      </trkpt>
      <trkpt lat="46.98647" lon="-0.75486">
        <ele>144.42558288574</ele>
        <time>2016-06-08T14:46:36.000Z</time>
      </trkpt>
      <trkpt lat="46.9865" lon="-0.75487">
        <ele>142.42727661133</ele>
        <time>2016-06-08T14:46:39.000Z</time>
      </trkpt>
      <trkpt lat="46.98653" lon="-0.75488">
        <ele>141.96188354492</ele>
        <time>2016-06-08T14:46:43.000Z</time>
      </trkpt>
      <trkpt lat="46.98654" lon="-0.75488">
        <ele>146.05342102051</ele>
        <time>2016-06-08T14:46:54.000Z</time>
      </trkpt>
      <trkpt lat="46.98655" lon="-0.75488">
        <ele>146.70243835449</ele>
        <time>2016-06-08T14:47:00.000Z</time>
      </trkpt>
      <trkpt lat="46.98657" lon="-0.75489">
        <ele>144.95327758789</ele>
        <time>2016-06-08T14:47:06.000Z</time>
      </trkpt>
      <trkpt lat="46.98659" lon="-0.75492">
        <ele>142.84912109375</ele>
        <time>2016-06-08T14:47:09.000Z</time>
      </trkpt>
      <trkpt lat="46.98662" lon="-0.75497">
        <ele>140.00358581543</ele>
        <time>2016-06-08T14:47:12.000Z</time>
      </trkpt>
      <trkpt lat="46.98663" lon="-0.75502">
        <ele>139.20132446289</ele>
        <time>2016-06-08T14:47:15.000Z</time>
      </trkpt>
      <trkpt lat="46.98663" lon="-0.75506">
        <ele>139.54905700684</ele>
        <time>2016-06-08T14:47:17.000Z</time>
      </trkpt>
      <trkpt lat="46.98662" lon="-0.75513">
        <ele>140.31098937988</ele>
        <time>2016-06-08T14:47:20.000Z</time>
      </trkpt>
      <trkpt lat="46.98661" lon="-0.75516">
        <ele>139.58068847656</ele>
        <time>2016-06-08T14:47:22.000Z</time>
      </trkpt>
      <trkpt lat="46.98659" lon="-0.7552">
        <ele>138.76196289062</ele>
        <time>2016-06-08T14:47:24.000Z</time>
      </trkpt>
      <trkpt lat="46.98659" lon="-0.75526">
        <ele>138.3187713623</ele>
        <time>2016-06-08T14:47:26.000Z</time>
      </trkpt>
      <trkpt lat="46.98655" lon="-0.75531">
        <ele>142.22467041016</ele>
        <time>2016-06-08T14:47:29.000Z</time>
      </trkpt>
      <trkpt lat="46.98655" lon="-0.75537">
        <ele>144.11714172363</ele>
        <time>2016-06-08T14:47:32.000Z</time>
      </trkpt>
      <trkpt lat="46.98655" lon="-0.75543">
        <ele>145.0294342041</ele>
        <time>2016-06-08T14:47:35.000Z</time>
      </trkpt>
      <trkpt lat="46.98653" lon="-0.75551">
        <ele>145.80520629883</ele>
        <time>2016-06-08T14:47:38.000Z</time>
      </trkpt>
      <trkpt lat="46.98653" lon="-0.75558">
        <ele>145.63920593262</ele>
        <time>2016-06-08T14:47:41.000Z</time>
      </trkpt>
      <trkpt lat="46.98653" lon="-0.75562">
        <ele>144.99282836914</ele>
        <time>2016-06-08T14:47:43.000Z</time>
      </trkpt>
      <trkpt lat="46.98653" lon="-0.75567">
        <ele>144.76921081543</ele>
        <time>2016-06-08T14:47:45.000Z</time>
      </trkpt>
      <trkpt lat="46.98652" lon="-0.75574">
        <ele>144.29595947266</ele>
        <time>2016-06-08T14:47:48.000Z</time>
      </trkpt>
      <trkpt lat="46.98652" lon="-0.75581">
        <ele>143.6877746582</ele>
        <time>2016-06-08T14:47:51.000Z</time>
      </trkpt>
      <trkpt lat="46.98651" lon="-0.75588">
        <ele>143.7353515625</ele>
        <time>2016-06-08T14:47:54.000Z</time>
      </trkpt>
      <trkpt lat="46.98652" lon="-0.7559">
        <ele>143.93524169922</ele>
        <time>2016-06-08T14:47:56.000Z</time>
      </trkpt>
      <trkpt lat="46.98653" lon="-0.75597">
        <ele>144.89924621582</ele>
        <time>2016-06-08T14:47:59.000Z</time>
      </trkpt>
      <trkpt lat="46.98653" lon="-0.75602">
        <ele>145.35377502441</ele>
        <time>2016-06-08T14:48:01.000Z</time>
      </trkpt>
      <trkpt lat="46.98655" lon="-0.75608">
        <ele>145.71362304688</ele>
        <time>2016-06-08T14:48:04.000Z</time>
      </trkpt>
      <trkpt lat="46.98655" lon="-0.75612">
        <ele>145.8775177002</ele>
        <time>2016-06-08T14:48:06.000Z</time>
      </trkpt>
      <trkpt lat="46.98654" lon="-0.7562">
        <ele>144.76567077637</ele>
        <time>2016-06-08T14:48:08.000Z</time>
      </trkpt>
      <trkpt lat="46.98651" lon="-0.75631">
        <ele>143.37905883789</ele>
        <time>2016-06-08T14:48:11.000Z</time>
      </trkpt>
      <trkpt lat="46.98651" lon="-0.75637">
        <ele>142.16749572754</ele>
        <time>2016-06-08T14:48:13.000Z</time>
      </trkpt>
      <trkpt lat="46.9865" lon="-0.7564">
        <ele>141.53617858887</ele>
        <time>2016-06-08T14:48:16.000Z</time>
      </trkpt>
      <trkpt lat="46.9865" lon="-0.75643">
        <ele>142.20274353027</ele>
        <time>2016-06-08T14:48:18.000Z</time>
      </trkpt>
      <trkpt lat="46.9865" lon="-0.75646">
        <ele>142.57983398438</ele>
        <time>2016-06-08T14:48:20.000Z</time>
      </trkpt>
      <trkpt lat="46.9865" lon="-0.75656">
        <ele>143.59159851074</ele>
        <time>2016-06-08T14:48:23.000Z</time>
      </trkpt>
      <trkpt lat="46.98653" lon="-0.7566">
        <ele>145.22038269043</ele>
        <time>2016-06-08T14:48:25.000Z</time>
      </trkpt>
      <trkpt lat="46.98652" lon="-0.75666">
        <ele>146.40354919434</ele>
        <time>2016-06-08T14:48:28.000Z</time>
      </trkpt>
      <trkpt lat="46.98652" lon="-0.75671">
        <ele>149.01875305176</ele>
        <time>2016-06-08T14:48:31.000Z</time>
      </trkpt>
      <trkpt lat="46.98652" lon="-0.75674">
        <ele>150.2038269043</ele>
        <time>2016-06-08T14:48:34.000Z</time>
      </trkpt>
      <trkpt lat="46.98653" lon="-0.75682">
        <ele>151.08937072754</ele>
        <time>2016-06-08T14:48:37.000Z</time>
      </trkpt>
      <trkpt lat="46.98654" lon="-0.75686">
        <ele>152.20310974121</ele>
        <time>2016-06-08T14:48:39.000Z</time>
      </trkpt>
      <trkpt lat="46.98655" lon="-0.75691">
        <ele>152.9626159668</ele>
        <time>2016-06-08T14:48:42.000Z</time>
      </trkpt>
      <trkpt lat="46.98657" lon="-0.75696">
        <ele>153.01263427734</ele>
        <time>2016-06-08T14:48:44.000Z</time>
      </trkpt>
      <trkpt lat="46.98655" lon="-0.75704">
        <ele>152.77108764648</ele>
        <time>2016-06-08T14:48:47.000Z</time>
      </trkpt>
      <trkpt lat="46.98653" lon="-0.75712">
        <ele>152.60440063477</ele>
        <time>2016-06-08T14:48:50.000Z</time>
      </trkpt>
      <trkpt lat="46.98653" lon="-0.75718">
        <ele>152.50956726074</ele>
        <time>2016-06-08T14:48:53.000Z</time>
      </trkpt>
      <trkpt lat="46.9865" lon="-0.75727">
        <ele>154.75158691406</ele>
        <time>2016-06-08T14:48:56.000Z</time>
      </trkpt>
      <trkpt lat="46.98647" lon="-0.75735">
        <ele>155.95062255859</ele>
        <time>2016-06-08T14:48:59.000Z</time>
      </trkpt>
      <trkpt lat="46.98646" lon="-0.75743">
        <ele>155.52577209473</ele>
        <time>2016-06-08T14:49:02.000Z</time>
      </trkpt>
      <trkpt lat="46.98645" lon="-0.75746">
        <ele>155.31986999512</ele>
        <time>2016-06-08T14:49:04.000Z</time>
      </trkpt>
      <trkpt lat="46.98645" lon="-0.75754">
        <ele>154.30958557129</ele>
        <time>2016-06-08T14:49:07.000Z</time>
      </trkpt>
      <trkpt lat="46.98645" lon="-0.7576">
        <ele>154.14854431152</ele>
        <time>2016-06-08T14:49:10.000Z</time>
      </trkpt>
      <trkpt lat="46.98645" lon="-0.75763">
        <ele>153.64060974121</ele>
        <time>2016-06-08T14:49:12.000Z</time>
      </trkpt>
      <trkpt lat="46.98645" lon="-0.75767">
        <ele>153.37823486328</ele>
        <time>2016-06-08T14:49:14.000Z</time>
      </trkpt>
      <trkpt lat="46.98643" lon="-0.75772">
        <ele>154.32624816895</ele>
        <time>2016-06-08T14:49:17.000Z</time>
      </trkpt>
      <trkpt lat="46.98641" lon="-0.7578">
        <ele>153.14500427246</ele>
        <time>2016-06-08T14:49:20.000Z</time>
      </trkpt>
      <trkpt lat="46.9864" lon="-0.75787">
        <ele>151.30657958984</ele>
        <time>2016-06-08T14:49:23.000Z</time>
      </trkpt>
      <trkpt lat="46.98639" lon="-0.75791">
        <ele>150.73280334473</ele>
        <time>2016-06-08T14:49:25.000Z</time>
      </trkpt>
      <trkpt lat="46.98637" lon="-0.75799">
        <ele>150.83695983887</ele>
        <time>2016-06-08T14:49:28.000Z</time>
      </trkpt>
      <trkpt lat="46.98636" lon="-0.75803">
        <ele>150.23806762695</ele>
        <time>2016-06-08T14:49:30.000Z</time>
      </trkpt>
      <trkpt lat="46.98634" lon="-0.75811">
        <ele>148.39501953125</ele>
        <time>2016-06-08T14:49:33.000Z</time>
      </trkpt>
      <trkpt lat="46.98634" lon="-0.75816">
        <ele>147.45812988281</ele>
        <time>2016-06-08T14:49:35.000Z</time>
      </trkpt>
      <trkpt lat="46.98634" lon="-0.75822">
        <ele>147.59077453613</ele>
        <time>2016-06-08T14:49:38.000Z</time>
      </trkpt>
      <trkpt lat="46.98634" lon="-0.75825">
        <ele>147.27661132812</ele>
        <time>2016-06-08T14:49:40.000Z</time>
      </trkpt>
      <trkpt lat="46.98632" lon="-0.7583">
        <ele>147.48606872559</ele>
        <time>2016-06-08T14:49:43.000Z</time>
      </trkpt>
      <trkpt lat="46.98629" lon="-0.75836">
        <ele>149.91307067871</ele>
        <time>2016-06-08T14:49:47.000Z</time>
      </trkpt>
      <trkpt lat="46.98626" lon="-0.75843">
        <ele>150.59498596191</ele>
        <time>2016-06-08T14:49:50.000Z</time>
      </trkpt>
      <trkpt lat="46.98626" lon="-0.75846">
        <ele>150.23397827148</ele>
        <time>2016-06-08T14:49:53.000Z</time>
      </trkpt>
      <trkpt lat="46.98625" lon="-0.75851">
        <ele>149.50631713867</ele>
        <time>2016-06-08T14:49:55.000Z</time>
      </trkpt>
      <trkpt lat="46.98624" lon="-0.75857">
        <ele>149.03021240234</ele>
        <time>2016-06-08T14:49:57.000Z</time>
      </trkpt>
      <trkpt lat="46.98619" lon="-0.75861">
        <ele>148.85604858398</ele>
        <time>2016-06-08T14:50:00.000Z</time>
      </trkpt>
      <trkpt lat="46.98616" lon="-0.75867">
        <ele>149.48164367676</ele>
        <time>2016-06-08T14:50:03.000Z</time>
      </trkpt>
      <trkpt lat="46.98611" lon="-0.75875">
        <ele>149.50520324707</ele>
        <time>2016-06-08T14:50:06.000Z</time>
      </trkpt>
      <trkpt lat="46.98612" lon="-0.75881">
        <ele>149.74230957031</ele>
        <time>2016-06-08T14:50:09.000Z</time>
      </trkpt>
      <trkpt lat="46.98613" lon="-0.75883">
        <ele>149.54116821289</ele>
        <time>2016-06-08T14:50:11.000Z</time>
      </trkpt>
      <trkpt lat="46.9861" lon="-0.75891">
        <ele>149.1882019043</ele>
        <time>2016-06-08T14:50:14.000Z</time>
      </trkpt>
      <trkpt lat="46.98609" lon="-0.75895">
        <ele>149.04290771484</ele>
        <time>2016-06-08T14:50:16.000Z</time>
      </trkpt>
      <trkpt lat="46.98608" lon="-0.75902">
        <ele>148.35012817383</ele>
        <time>2016-06-08T14:50:19.000Z</time>
      </trkpt>
      <trkpt lat="46.98608" lon="-0.75907">
        <ele>147.46734619141</ele>
        <time>2016-06-08T14:50:22.000Z</time>
      </trkpt>
      <trkpt lat="46.98608" lon="-0.7591">
        <ele>149.08801269531</ele>
        <time>2016-06-08T14:50:25.000Z</time>
      </trkpt>
      <trkpt lat="46.98605" lon="-0.75914">
        <ele>152.1499786377</ele>
        <time>2016-06-08T14:50:28.000Z</time>
      </trkpt>
      <trkpt lat="46.98605" lon="-0.75918">
        <ele>152.47895812988</ele>
        <time>2016-06-08T14:50:30.000Z</time>
      </trkpt>
      <trkpt lat="46.98603" lon="-0.75922">
        <ele>153.58453369141</ele>
        <time>2016-06-08T14:50:33.000Z</time>
      </trkpt>
      <trkpt lat="46.98603" lon="-0.75926">
        <ele>152.91398620605</ele>
        <time>2016-06-08T14:50:36.000Z</time>
      </trkpt>
      <trkpt lat="46.986" lon="-0.75932">
        <ele>152.65592956543</ele>
        <time>2016-06-08T14:50:38.000Z</time>
      </trkpt>
      <trkpt lat="46.98598" lon="-0.75939">
        <ele>152.65403747559</ele>
        <time>2016-06-08T14:50:41.000Z</time>
      </trkpt>
      <trkpt lat="46.98597" lon="-0.75944">
        <ele>153.26417541504</ele>
        <time>2016-06-08T14:50:43.000Z</time>
      </trkpt>
      <trkpt lat="46.98595" lon="-0.75946">
        <ele>153.98725891113</ele>
        <time>2016-06-08T14:50:46.000Z</time>
      </trkpt>
      <trkpt lat="46.9859" lon="-0.75953">
        <ele>153.53060913086</ele>
        <time>2016-06-08T14:50:49.000Z</time>
      </trkpt>
      <trkpt lat="46.98589" lon="-0.75959">
        <ele>153.55908203125</ele>
        <time>2016-06-08T14:50:51.000Z</time>
      </trkpt>
      <trkpt lat="46.98587" lon="-0.75965">
        <ele>154.34552001953</ele>
        <time>2016-06-08T14:50:54.000Z</time>
      </trkpt>
      <trkpt lat="46.98587" lon="-0.75968">
        <ele>154.64784240723</ele>
        <time>2016-06-08T14:50:57.000Z</time>
      </trkpt>
      <trkpt lat="46.98584" lon="-0.75975">
        <ele>153.57373046875</ele>
        <time>2016-06-08T14:51:00.000Z</time>
      </trkpt>
      <trkpt lat="46.98582" lon="-0.75981">
        <ele>152.30493164062</ele>
        <time>2016-06-08T14:51:02.000Z</time>
      </trkpt>
      <trkpt lat="46.98581" lon="-0.75986">
        <ele>150.84007263184</ele>
        <time>2016-06-08T14:51:04.000Z</time>
      </trkpt>
      <trkpt lat="46.98579" lon="-0.75994">
        <ele>149.61437988281</ele>
        <time>2016-06-08T14:51:07.000Z</time>
      </trkpt>
      <trkpt lat="46.98577" lon="-0.75998">
        <ele>148.99366760254</ele>
        <time>2016-06-08T14:51:10.000Z</time>
      </trkpt>
      <trkpt lat="46.98576" lon="-0.76002">
        <ele>148.99266052246</ele>
        <time>2016-06-08T14:51:12.000Z</time>
      </trkpt>
      <trkpt lat="46.98575" lon="-0.76007">
        <ele>149.66540527344</ele>
        <time>2016-06-08T14:51:15.000Z</time>
      </trkpt>
      <trkpt lat="46.98574" lon="-0.76011">
        <ele>149.82455444336</ele>
        <time>2016-06-08T14:51:17.000Z</time>
      </trkpt>
      <trkpt lat="46.98573" lon="-0.76016">
        <ele>149.54322814941</ele>
        <time>2016-06-08T14:51:20.000Z</time>
      </trkpt>
      <trkpt lat="46.98569" lon="-0.7602">
        <ele>149.39909362793</ele>
        <time>2016-06-08T14:51:22.000Z</time>
      </trkpt>
      <trkpt lat="46.98566" lon="-0.76023">
        <ele>149.43447875977</ele>
        <time>2016-06-08T14:51:24.000Z</time>
      </trkpt>
      <trkpt lat="46.98564" lon="-0.7603">
        <ele>147.39263916016</ele>
        <time>2016-06-08T14:51:27.000Z</time>
      </trkpt>
      <trkpt lat="46.98563" lon="-0.76034">
        <ele>146.48817443848</ele>
        <time>2016-06-08T14:51:29.000Z</time>
      </trkpt>
      <trkpt lat="46.98563" lon="-0.76038">
        <ele>145.91905212402</ele>
        <time>2016-06-08T14:51:32.000Z</time>
      </trkpt>
      <trkpt lat="46.98561" lon="-0.76039">
        <ele>145.98120117188</ele>
        <time>2016-06-08T14:51:35.000Z</time>
      </trkpt>
      <trkpt lat="46.98558" lon="-0.76046">
        <ele>146.3307800293</ele>
        <time>2016-06-08T14:51:38.000Z</time>
      </trkpt>
      <trkpt lat="46.98555" lon="-0.76051">
        <ele>145.64833068848</ele>
        <time>2016-06-08T14:51:40.000Z</time>
      </trkpt>
      <trkpt lat="46.98553" lon="-0.76056">
        <ele>144.58531188965</ele>
        <time>2016-06-08T14:51:43.000Z</time>
      </trkpt>
      <trkpt lat="46.98551" lon="-0.76061">
        <ele>143.58486938477</ele>
        <time>2016-06-08T14:51:45.000Z</time>
      </trkpt>
      <trkpt lat="46.9855" lon="-0.76065">
        <ele>143.90008544922</ele>
        <time>2016-06-08T14:51:48.000Z</time>
      </trkpt>
      <trkpt lat="46.98548" lon="-0.76069">
        <ele>146.29336547852</ele>
        <time>2016-06-08T14:51:51.000Z</time>
      </trkpt>
      <trkpt lat="46.98546" lon="-0.76073">
        <ele>147.99418640137</ele>
        <time>2016-06-08T14:51:54.000Z</time>
      </trkpt>
      <trkpt lat="46.98545" lon="-0.76079">
        <ele>147.33055114746</ele>
        <time>2016-06-08T14:51:57.000Z</time>
      </trkpt>
      <trkpt lat="46.98544" lon="-0.76082">
        <ele>147.74768066406</ele>
        <time>2016-06-08T14:51:59.000Z</time>
      </trkpt>
      <trkpt lat="46.98542" lon="-0.76087">
        <ele>147.43359375</ele>
        <time>2016-06-08T14:52:02.000Z</time>
      </trkpt>
      <trkpt lat="46.98539" lon="-0.76092">
        <ele>147.45668029785</ele>
        <time>2016-06-08T14:52:04.000Z</time>
      </trkpt>
      <trkpt lat="46.98538" lon="-0.76096">
        <ele>147.16926574707</ele>
        <time>2016-06-08T14:52:06.000Z</time>
      </trkpt>
      <trkpt lat="46.98536" lon="-0.76101">
        <ele>147.93043518066</ele>
        <time>2016-06-08T14:52:09.000Z</time>
      </trkpt>
      <trkpt lat="46.98533" lon="-0.76106">
        <ele>148.40338134766</ele>
        <time>2016-06-08T14:52:12.000Z</time>
      </trkpt>
      <trkpt lat="46.98529" lon="-0.76111">
        <ele>147.28479003906</ele>
        <time>2016-06-08T14:52:15.000Z</time>
      </trkpt>
      <trkpt lat="46.98529" lon="-0.76116">
        <ele>147.37686157227</ele>
        <time>2016-06-08T14:52:17.000Z</time>
      </trkpt>
      <trkpt lat="46.98528" lon="-0.7612">
        <ele>146.13830566406</ele>
        <time>2016-06-08T14:52:20.000Z</time>
      </trkpt>
      <trkpt lat="46.98526" lon="-0.76122">
        <ele>145.89587402344</ele>
        <time>2016-06-08T14:52:22.000Z</time>
      </trkpt>
      <trkpt lat="46.98522" lon="-0.76126">
        <ele>145.07606506348</ele>
        <time>2016-06-08T14:52:25.000Z</time>
      </trkpt>
      <trkpt lat="46.9852" lon="-0.76132">
        <ele>144.51182556152</ele>
        <time>2016-06-08T14:52:27.000Z</time>
      </trkpt>
      <trkpt lat="46.98517" lon="-0.76137">
        <ele>144.05741882324</ele>
        <time>2016-06-08T14:52:30.000Z</time>
      </trkpt>
      <trkpt lat="46.9852" lon="-0.76141">
        <ele>144.72720336914</ele>
        <time>2016-06-08T14:52:33.000Z</time>
      </trkpt>
      <trkpt lat="46.98522" lon="-0.76144">
        <ele>143.2498626709</ele>
        <time>2016-06-08T14:52:36.000Z</time>
      </trkpt>
      <trkpt lat="46.98524" lon="-0.76143">
        <ele>143.71354675293</ele>
        <time>2016-06-08T14:52:39.000Z</time>
      </trkpt>
      <trkpt lat="46.98526" lon="-0.76142">
        <ele>144.84559631348</ele>
        <time>2016-06-08T14:52:55.000Z</time>
      </trkpt>
      <trkpt lat="46.98531" lon="-0.76143">
        <ele>143.54901123047</ele>
        <time>2016-06-08T14:52:58.000Z</time>
      </trkpt>
      <trkpt lat="46.98534" lon="-0.76147">
        <ele>143.27641296387</ele>
        <time>2016-06-08T14:53:00.000Z</time>
      </trkpt>
      <trkpt lat="46.98539" lon="-0.76154">
        <ele>142.4683380127</ele>
        <time>2016-06-08T14:53:02.000Z</time>
      </trkpt>
      <trkpt lat="46.98545" lon="-0.76157">
        <ele>143.83773803711</ele>
        <time>2016-06-08T14:53:05.000Z</time>
      </trkpt>
      <trkpt lat="46.9855" lon="-0.7616">
        <ele>143.35623168945</ele>
        <time>2016-06-08T14:53:08.000Z</time>
      </trkpt>
      <trkpt lat="46.98555" lon="-0.76167">
        <ele>141.85369873047</ele>
        <time>2016-06-08T14:53:11.000Z</time>
      </trkpt>
      <trkpt lat="46.98557" lon="-0.76168">
        <ele>141.14895629883</ele>
        <time>2016-06-08T14:53:13.000Z</time>
      </trkpt>
      <trkpt lat="46.9856" lon="-0.76169">
        <ele>140.02789306641</ele>
        <time>2016-06-08T14:53:15.000Z</time>
      </trkpt>
      <trkpt lat="46.98565" lon="-0.76171">
        <ele>142.1131439209</ele>
        <time>2016-06-08T14:53:18.000Z</time>
      </trkpt>
      <trkpt lat="46.98568" lon="-0.76173">
        <ele>141.14395141602</ele>
        <time>2016-06-08T14:53:20.000Z</time>
      </trkpt>
      <trkpt lat="46.98571" lon="-0.76174">
        <ele>140.04902648926</ele>
        <time>2016-06-08T14:53:23.000Z</time>
      </trkpt>
      <trkpt lat="46.98574" lon="-0.76177">
        <ele>139.94975280762</ele>
        <time>2016-06-08T14:53:25.000Z</time>
      </trkpt>
      <trkpt lat="46.98576" lon="-0.76181">
        <ele>139.96640014648</ele>
        <time>2016-06-08T14:53:27.000Z</time>
      </trkpt>
      <trkpt lat="46.98581" lon="-0.76183">
        <ele>138.79028320312</ele>
        <time>2016-06-08T14:53:29.000Z</time>
      </trkpt>
      <trkpt lat="46.98584" lon="-0.76185">
        <ele>137.34187316895</ele>
        <time>2016-06-08T14:53:32.000Z</time>
      </trkpt>
      <trkpt lat="46.98586" lon="-0.76188">
        <ele>136.70050048828</ele>
        <time>2016-06-08T14:53:34.000Z</time>
      </trkpt>
      <trkpt lat="46.98587" lon="-0.7619">
        <ele>136.43991088867</ele>
        <time>2016-06-08T14:53:37.000Z</time>
      </trkpt>
      <trkpt lat="46.98592" lon="-0.76191">
        <ele>137.77253723145</ele>
        <time>2016-06-08T14:53:40.000Z</time>
      </trkpt>
      <trkpt lat="46.98593" lon="-0.7619">
        <ele>139.38597106934</ele>
        <time>2016-06-08T14:53:44.000Z</time>
      </trkpt>
      <trkpt lat="46.98592" lon="-0.7619">
        <ele>139.35707092285</ele>
        <time>2016-06-08T14:53:52.000Z</time>
      </trkpt>
      <trkpt lat="46.98592" lon="-0.7619">
        <ele>144.52880859375</ele>
        <time>2016-06-08T14:54:12.000Z</time>
      </trkpt>
      <trkpt lat="46.98593" lon="-0.76189">
        <ele>136.76443481445</ele>
        <time>2016-06-08T14:54:16.000Z</time>
      </trkpt>
      <trkpt lat="46.98594" lon="-0.76188">
        <ele>137.6587677002</ele>
        <time>2016-06-08T14:54:25.000Z</time>
      </trkpt>
      <trkpt lat="46.98594" lon="-0.76189">
        <ele>135.54249572754</ele>
        <time>2016-06-08T14:54:33.000Z</time>
      </trkpt>
      <trkpt lat="46.98593" lon="-0.76191">
        <ele>134.17977905273</ele>
        <time>2016-06-08T14:54:37.000Z</time>
      </trkpt>
      <trkpt lat="46.98594" lon="-0.76192">
        <ele>133.59614562988</ele>
        <time>2016-06-08T14:54:51.000Z</time>
      </trkpt>
      <trkpt lat="46.98595" lon="-0.76197">
        <ele>134.29713439941</ele>
        <time>2016-06-08T14:54:54.000Z</time>
      </trkpt>
      <trkpt lat="46.98598" lon="-0.76198">
        <ele>134.97380065918</ele>
        <time>2016-06-08T14:54:57.000Z</time>
      </trkpt>
      <trkpt lat="46.98601" lon="-0.76199">
        <ele>134.98802185059</ele>
        <time>2016-06-08T14:55:00.000Z</time>
      </trkpt>
      <trkpt lat="46.98604" lon="-0.76202">
        <ele>136.93632507324</ele>
        <time>2016-06-08T14:55:03.000Z</time>
      </trkpt>
      <trkpt lat="46.98607" lon="-0.76205">
        <ele>137.45820617676</ele>
        <time>2016-06-08T14:55:06.000Z</time>
      </trkpt>
      <trkpt lat="46.98612" lon="-0.76208">
        <ele>138.8482208252</ele>
        <time>2016-06-08T14:55:09.000Z</time>
      </trkpt>
      <trkpt lat="46.98615" lon="-0.7621">
        <ele>139.46792602539</ele>
        <time>2016-06-08T14:55:11.000Z</time>
      </trkpt>
      <trkpt lat="46.98619" lon="-0.76212">
        <ele>139.09741210938</ele>
        <time>2016-06-08T14:55:13.000Z</time>
      </trkpt>
      <trkpt lat="46.98624" lon="-0.76213">
        <ele>137.09262084961</ele>
        <time>2016-06-08T14:55:16.000Z</time>
      </trkpt>
      <trkpt lat="46.98627" lon="-0.76215">
        <ele>136.95581054688</ele>
        <time>2016-06-08T14:55:18.000Z</time>
      </trkpt>
      <trkpt lat="46.98629" lon="-0.76216">
        <ele>137.73770141602</ele>
        <time>2016-06-08T14:55:20.000Z</time>
      </trkpt>
      <trkpt lat="46.98632" lon="-0.76218">
        <ele>138.58630371094</ele>
        <time>2016-06-08T14:55:23.000Z</time>
      </trkpt>
      <trkpt lat="46.98636" lon="-0.76218">
        <ele>140.6845703125</ele>
        <time>2016-06-08T14:55:26.000Z</time>
      </trkpt>
      <trkpt lat="46.98639" lon="-0.76221">
        <ele>139.1999206543</ele>
        <time>2016-06-08T14:55:28.000Z</time>
      </trkpt>
      <trkpt lat="46.98643" lon="-0.76224">
        <ele>138.37280273438</ele>
        <time>2016-06-08T14:55:31.000Z</time>
      </trkpt>
      <trkpt lat="46.98648" lon="-0.76224">
        <ele>136.29196166992</ele>
        <time>2016-06-08T14:55:34.000Z</time>
      </trkpt>
      <trkpt lat="46.98651" lon="-0.76226">
        <ele>136.78382873535</ele>
        <time>2016-06-08T14:55:36.000Z</time>
      </trkpt>
      <trkpt lat="46.98655" lon="-0.76228">
        <ele>136.13917541504</ele>
        <time>2016-06-08T14:55:39.000Z</time>
      </trkpt>
      <trkpt lat="46.98659" lon="-0.76229">
        <ele>134.98945617676</ele>
        <time>2016-06-08T14:55:42.000Z</time>
      </trkpt>
      <trkpt lat="46.98662" lon="-0.76229">
        <ele>137.52735900879</ele>
        <time>2016-06-08T14:55:44.000Z</time>
      </trkpt>
      <trkpt lat="46.98666" lon="-0.76229">
        <ele>139.78881835938</ele>
        <time>2016-06-08T14:55:47.000Z</time>
      </trkpt>
      <trkpt lat="46.98668" lon="-0.76229">
        <ele>140.46708679199</ele>
        <time>2016-06-08T14:55:50.000Z</time>
      </trkpt>
      <trkpt lat="46.98671" lon="-0.7623">
        <ele>140.45054626465</ele>
        <time>2016-06-08T14:55:52.000Z</time>
      </trkpt>
      <trkpt lat="46.98674" lon="-0.7623">
        <ele>140.00831604004</ele>
        <time>2016-06-08T14:55:54.000Z</time>
      </trkpt>
      <trkpt lat="46.98679" lon="-0.76235">
        <ele>138.95878601074</ele>
        <time>2016-06-08T14:55:58.000Z</time>
      </trkpt>
      <trkpt lat="46.98683" lon="-0.76241">
        <ele>138.02955627441</ele>
        <time>2016-06-08T14:56:01.000Z</time>
      </trkpt>
      <trkpt lat="46.98686" lon="-0.76245">
        <ele>138.55697631836</ele>
        <time>2016-06-08T14:56:03.000Z</time>
      </trkpt>
      <trkpt lat="46.9869" lon="-0.76247">
        <ele>138.22430419922</ele>
        <time>2016-06-08T14:56:06.000Z</time>
      </trkpt>
      <trkpt lat="46.98693" lon="-0.76247">
        <ele>138.37023925781</ele>
        <time>2016-06-08T14:56:09.000Z</time>
      </trkpt>
      <trkpt lat="46.98698" lon="-0.76246">
        <ele>140.37139892578</ele>
        <time>2016-06-08T14:56:11.000Z</time>
      </trkpt>
      <trkpt lat="46.98703" lon="-0.7625">
        <ele>140.34536743164</ele>
        <time>2016-06-08T14:56:14.000Z</time>
      </trkpt>
      <trkpt lat="46.98706" lon="-0.76252">
        <ele>140.17681884766</ele>
        <time>2016-06-08T14:56:17.000Z</time>
      </trkpt>
      <trkpt lat="46.98708" lon="-0.76252">
        <ele>139.74554443359</ele>
        <time>2016-06-08T14:56:19.000Z</time>
      </trkpt>
      <trkpt lat="46.98711" lon="-0.76253">
        <ele>137.54162597656</ele>
        <time>2016-06-08T14:56:22.000Z</time>
      </trkpt>
      <trkpt lat="46.98716" lon="-0.76255">
        <ele>138.85147094727</ele>
        <time>2016-06-08T14:56:25.000Z</time>
      </trkpt>
      <trkpt lat="46.98721" lon="-0.76255">
        <ele>139.87129211426</ele>
        <time>2016-06-08T14:56:27.000Z</time>
      </trkpt>
      <trkpt lat="46.98725" lon="-0.76256">
        <ele>138.83567810059</ele>
        <time>2016-06-08T14:56:30.000Z</time>
      </trkpt>
      <trkpt lat="46.98727" lon="-0.76255">
        <ele>137.53840637207</ele>
        <time>2016-06-08T14:56:32.000Z</time>
      </trkpt>
      <trkpt lat="46.98732" lon="-0.76255">
        <ele>135.5873260498</ele>
        <time>2016-06-08T14:56:35.000Z</time>
      </trkpt>
      <trkpt lat="46.98734" lon="-0.76255">
        <ele>136.65914916992</ele>
        <time>2016-06-08T14:56:37.000Z</time>
      </trkpt>
      <trkpt lat="46.98739" lon="-0.76254">
        <ele>136.02905273438</ele>
        <time>2016-06-08T14:56:40.000Z</time>
      </trkpt>
      <trkpt lat="46.98743" lon="-0.76254">
        <ele>134.79772949219</ele>
        <time>2016-06-08T14:56:42.000Z</time>
      </trkpt>
      <trkpt lat="46.98746" lon="-0.76253">
        <ele>132.56510925293</ele>
        <time>2016-06-08T14:56:45.000Z</time>
      </trkpt>
      <trkpt lat="46.9875" lon="-0.76253">
        <ele>130.09579467773</ele>
        <time>2016-06-08T14:56:48.000Z</time>
      </trkpt>
      <trkpt lat="46.98754" lon="-0.76252">
        <ele>130.15299987793</ele>
        <time>2016-06-08T14:56:51.000Z</time>
      </trkpt>
      <trkpt lat="46.98759" lon="-0.7625">
        <ele>128.92034912109</ele>
        <time>2016-06-08T14:56:55.000Z</time>
      </trkpt>
      <trkpt lat="46.98764" lon="-0.7625">
        <ele>128.68542480469</ele>
        <time>2016-06-08T14:56:58.000Z</time>
      </trkpt>
      <trkpt lat="46.98767" lon="-0.76248">
        <ele>128.91273498535</ele>
        <time>2016-06-08T14:57:01.000Z</time>
      </trkpt>
      <trkpt lat="46.98772" lon="-0.76246">
        <ele>129.9051361084</ele>
        <time>2016-06-08T14:57:04.000Z</time>
      </trkpt>
      <trkpt lat="46.98775" lon="-0.76245">
        <ele>129.9899597168</ele>
        <time>2016-06-08T14:57:06.000Z</time>
      </trkpt>
      <trkpt lat="46.9878" lon="-0.76246">
        <ele>128.89384460449</ele>
        <time>2016-06-08T14:57:09.000Z</time>
      </trkpt>
      <trkpt lat="46.98784" lon="-0.76246">
        <ele>128.89656066895</ele>
        <time>2016-06-08T14:57:11.000Z</time>
      </trkpt>
      <trkpt lat="46.9879" lon="-0.76246">
        <ele>129.27729797363</ele>
        <time>2016-06-08T14:57:14.000Z</time>
      </trkpt>
      <trkpt lat="46.98793" lon="-0.76246">
        <ele>128.12641906738</ele>
        <time>2016-06-08T14:57:16.000Z</time>
      </trkpt>
      <trkpt lat="46.98794" lon="-0.76245">
        <ele>127.27046966553</ele>
        <time>2016-06-08T14:57:18.000Z</time>
      </trkpt>
      <trkpt lat="46.98798" lon="-0.76242">
        <ele>127.20736694336</ele>
        <time>2016-06-08T14:57:21.000Z</time>
      </trkpt>
      <trkpt lat="46.98803" lon="-0.76239">
        <ele>128.1397857666</ele>
        <time>2016-06-08T14:57:24.000Z</time>
      </trkpt>
      <trkpt lat="46.98806" lon="-0.76236">
        <ele>128.0118560791</ele>
        <time>2016-06-08T14:57:26.000Z</time>
      </trkpt>
      <trkpt lat="46.98808" lon="-0.76232">
        <ele>127.98310089111</ele>
        <time>2016-06-08T14:57:29.000Z</time>
      </trkpt>
      <trkpt lat="46.98816" lon="-0.7623">
        <ele>128.53129577637</ele>
        <time>2016-06-08T14:57:32.000Z</time>
      </trkpt>
      <trkpt lat="46.9882" lon="-0.76232">
        <ele>128.61000061035</ele>
        <time>2016-06-08T14:57:34.000Z</time>
      </trkpt>
      <trkpt lat="46.98825" lon="-0.76231">
        <ele>128.94296264648</ele>
        <time>2016-06-08T14:57:36.000Z</time>
      </trkpt>
      <trkpt lat="46.98829" lon="-0.76225">
        <ele>128.51528930664</ele>
        <time>2016-06-08T14:57:39.000Z</time>
      </trkpt>
      <trkpt lat="46.98832" lon="-0.7622">
        <ele>128.92953491211</ele>
        <time>2016-06-08T14:57:42.000Z</time>
      </trkpt>
      <trkpt lat="46.98837" lon="-0.76215">
        <ele>128.5147857666</ele>
        <time>2016-06-08T14:57:45.000Z</time>
      </trkpt>
      <trkpt lat="46.98841" lon="-0.7621">
        <ele>127.20589447021</ele>
        <time>2016-06-08T14:57:48.000Z</time>
      </trkpt>
      <trkpt lat="46.98844" lon="-0.76207">
        <ele>126.59214019775</ele>
        <time>2016-06-08T14:57:50.000Z</time>
      </trkpt>
      <trkpt lat="46.98848" lon="-0.76204">
        <ele>124.13683319092</ele>
        <time>2016-06-08T14:57:53.000Z</time>
      </trkpt>
      <trkpt lat="46.98851" lon="-0.76199">
        <ele>122.0394821167</ele>
        <time>2016-06-08T14:57:56.000Z</time>
      </trkpt>
      <trkpt lat="46.98854" lon="-0.76195">
        <ele>120.8572845459</ele>
        <time>2016-06-08T14:57:59.000Z</time>
      </trkpt>
      <trkpt lat="46.98858" lon="-0.76192">
        <ele>120.24380493164</ele>
        <time>2016-06-08T14:58:01.000Z</time>
      </trkpt>
      <trkpt lat="46.98859" lon="-0.76187">
        <ele>120.39079284668</ele>
        <time>2016-06-08T14:58:04.000Z</time>
      </trkpt>
      <trkpt lat="46.98863" lon="-0.76183">
        <ele>118.75621795654</ele>
        <time>2016-06-08T14:58:07.000Z</time>
      </trkpt>
      <trkpt lat="46.98866" lon="-0.76181">
        <ele>118.02907562256</ele>
        <time>2016-06-08T14:58:09.000Z</time>
      </trkpt>
      <trkpt lat="46.98868" lon="-0.76179">
        <ele>117.95873260498</ele>
        <time>2016-06-08T14:58:11.000Z</time>
      </trkpt>
      <trkpt lat="46.98872" lon="-0.76176">
        <ele>117.35871887207</ele>
        <time>2016-06-08T14:58:14.000Z</time>
      </trkpt>
      <trkpt lat="46.98874" lon="-0.7617">
        <ele>115.32329559326</ele>
        <time>2016-06-08T14:58:17.000Z</time>
      </trkpt>
      <trkpt lat="46.98878" lon="-0.76169">
        <ele>112.84393310547</ele>
        <time>2016-06-08T14:58:20.000Z</time>
      </trkpt>
      <trkpt lat="46.98883" lon="-0.76167">
        <ele>115.15927886963</ele>
        <time>2016-06-08T14:58:23.000Z</time>
      </trkpt>
      <trkpt lat="46.98886" lon="-0.76167">
        <ele>115.893699646</ele>
        <time>2016-06-08T14:58:25.000Z</time>
      </trkpt>
      <trkpt lat="46.9889" lon="-0.76168">
        <ele>115.98834228516</ele>
        <time>2016-06-08T14:58:28.000Z</time>
      </trkpt>
      <trkpt lat="46.98891" lon="-0.76166">
        <ele>116.30438995361</ele>
        <time>2016-06-08T14:58:30.000Z</time>
      </trkpt>
      <trkpt lat="46.98891" lon="-0.76162">
        <ele>116.62989044189</ele>
        <time>2016-06-08T14:58:34.000Z</time>
      </trkpt>
      <trkpt lat="46.98891" lon="-0.76158">
        <ele>117.162109375</ele>
        <time>2016-06-08T14:58:37.000Z</time>
      </trkpt>
      <trkpt lat="46.98892" lon="-0.76156">
        <ele>117.00245666504</ele>
        <time>2016-06-08T14:58:40.000Z</time>
      </trkpt>
      <trkpt lat="46.98891" lon="-0.76152">
        <ele>116.10927581787</ele>
        <time>2016-06-08T14:58:42.000Z</time>
      </trkpt>
      <trkpt lat="46.98892" lon="-0.76145">
        <ele>114.88484191895</ele>
        <time>2016-06-08T14:58:45.000Z</time>
      </trkpt>
      <trkpt lat="46.98895" lon="-0.76137">
        <ele>116.39332580566</ele>
        <time>2016-06-08T14:58:48.000Z</time>
      </trkpt>
      <trkpt lat="46.98895" lon="-0.76131">
        <ele>116.74568939209</ele>
        <time>2016-06-08T14:58:51.000Z</time>
      </trkpt>
      <trkpt lat="46.98895" lon="-0.76125">
        <ele>116.95836639404</ele>
        <time>2016-06-08T14:58:55.000Z</time>
      </trkpt>
      <trkpt lat="46.98893" lon="-0.76118">
        <ele>118.83802032471</ele>
        <time>2016-06-08T14:58:57.000Z</time>
      </trkpt>
      <trkpt lat="46.98892" lon="-0.76111">
        <ele>120.86806488037</ele>
        <time>2016-06-08T14:59:00.000Z</time>
      </trkpt>
      <trkpt lat="46.98893" lon="-0.76103">
        <ele>122.10343170166</ele>
        <time>2016-06-08T14:59:02.000Z</time>
      </trkpt>
      <trkpt lat="46.98896" lon="-0.76096">
        <ele>122.44959259033</ele>
        <time>2016-06-08T14:59:05.000Z</time>
      </trkpt>
      <trkpt lat="46.98897" lon="-0.76088">
        <ele>123.71074676514</ele>
        <time>2016-06-08T14:59:08.000Z</time>
      </trkpt>
      <trkpt lat="46.98899" lon="-0.76081">
        <ele>126.49378204346</ele>
        <time>2016-06-08T14:59:11.000Z</time>
      </trkpt>
      <trkpt lat="46.98902" lon="-0.76079">
        <ele>128.41995239258</ele>
        <time>2016-06-08T14:59:13.000Z</time>
      </trkpt>
      <trkpt lat="46.98901" lon="-0.76074">
        <ele>129.21963500977</ele>
        <time>2016-06-08T14:59:16.000Z</time>
      </trkpt>
      <trkpt lat="46.98904" lon="-0.76066">
        <ele>127.42196655273</ele>
        <time>2016-06-08T14:59:19.000Z</time>
      </trkpt>
      <trkpt lat="46.98905" lon="-0.76063">
        <ele>126.50135803223</ele>
        <time>2016-06-08T14:59:21.000Z</time>
      </trkpt>
      <trkpt lat="46.98906" lon="-0.76059">
        <ele>126.60669708252</ele>
        <time>2016-06-08T14:59:23.000Z</time>
      </trkpt>
      <trkpt lat="46.9891" lon="-0.76053">
        <ele>127.47180938721</ele>
        <time>2016-06-08T14:59:26.000Z</time>
      </trkpt>
      <trkpt lat="46.98915" lon="-0.76048">
        <ele>127.94673156738</ele>
        <time>2016-06-08T14:59:29.000Z</time>
      </trkpt>
      <trkpt lat="46.98919" lon="-0.76046">
        <ele>129.30754089355</ele>
        <time>2016-06-08T14:59:32.000Z</time>
      </trkpt>
      <trkpt lat="46.9892" lon="-0.76042">
        <ele>130.52055358887</ele>
        <time>2016-06-08T14:59:35.000Z</time>
      </trkpt>
      <trkpt lat="46.98923" lon="-0.76037">
        <ele>128.9499206543</ele>
        <time>2016-06-08T14:59:39.000Z</time>
      </trkpt>
      <trkpt lat="46.98923" lon="-0.76035">
        <ele>127.42163848877</ele>
        <time>2016-06-08T14:59:41.000Z</time>
      </trkpt>
      <trkpt lat="46.98922" lon="-0.76031">
        <ele>126.00524902344</ele>
        <time>2016-06-08T14:59:44.000Z</time>
      </trkpt>
      <trkpt lat="46.98924" lon="-0.76029">
        <ele>126.12470245361</ele>
        <time>2016-06-08T14:59:46.000Z</time>
      </trkpt>
      <trkpt lat="46.98927" lon="-0.76023">
        <ele>125.99907684326</ele>
        <time>2016-06-08T14:59:49.000Z</time>
      </trkpt>
      <trkpt lat="46.98928" lon="-0.76018">
        <ele>125.41407012939</ele>
        <time>2016-06-08T14:59:51.000Z</time>
      </trkpt>
      <trkpt lat="46.98929" lon="-0.76014">
        <ele>125.65714263916</ele>
        <time>2016-06-08T14:59:53.000Z</time>
      </trkpt>
      <trkpt lat="46.98931" lon="-0.7601">
        <ele>124.59474945068</ele>
        <time>2016-06-08T14:59:56.000Z</time>
      </trkpt>
      <trkpt lat="46.98934" lon="-0.76007">
        <ele>124.63695526123</ele>
        <time>2016-06-08T14:59:58.000Z</time>
      </trkpt>
      <trkpt lat="46.98936" lon="-0.76003">
        <ele>124.57376861572</ele>
        <time>2016-06-08T15:00:00.000Z</time>
      </trkpt>
      <trkpt lat="46.98938" lon="-0.75999">
        <ele>125.14684295654</ele>
        <time>2016-06-08T15:00:02.000Z</time>
      </trkpt>
      <trkpt lat="46.98938" lon="-0.75994">
        <ele>125.76796722412</ele>
        <time>2016-06-08T15:00:05.000Z</time>
      </trkpt>
      <trkpt lat="46.9894" lon="-0.75991">
        <ele>126.95792388916</ele>
        <time>2016-06-08T15:00:07.000Z</time>
      </trkpt>
      <trkpt lat="46.9894" lon="-0.75986">
        <ele>127.55811309814</ele>
        <time>2016-06-08T15:00:09.000Z</time>
      </trkpt>
      <trkpt lat="46.98944" lon="-0.75982">
        <ele>128.93000793457</ele>
        <time>2016-06-08T15:00:12.000Z</time>
      </trkpt>
      <trkpt lat="46.98946" lon="-0.75977">
        <ele>129.31227111816</ele>
        <time>2016-06-08T15:00:16.000Z</time>
      </trkpt>
      <trkpt lat="46.98947" lon="-0.75974">
        <ele>129.41571044922</ele>
        <time>2016-06-08T15:00:18.000Z</time>
      </trkpt>
      <trkpt lat="46.98947" lon="-0.75967">
        <ele>129.43585205078</ele>
        <time>2016-06-08T15:00:21.000Z</time>
      </trkpt>
      <trkpt lat="46.98947" lon="-0.7596">
        <ele>130.36427307129</ele>
        <time>2016-06-08T15:00:24.000Z</time>
      </trkpt>
      <trkpt lat="46.98949" lon="-0.75956">
        <ele>131.66079711914</ele>
        <time>2016-06-08T15:00:27.000Z</time>
      </trkpt>
      <trkpt lat="46.98952" lon="-0.75952">
        <ele>131.29667663574</ele>
        <time>2016-06-08T15:00:30.000Z</time>
      </trkpt>
      <trkpt lat="46.98956" lon="-0.75946">
        <ele>133.38220214844</ele>
        <time>2016-06-08T15:00:33.000Z</time>
      </trkpt>
      <trkpt lat="46.98958" lon="-0.75943">
        <ele>133.92030334473</ele>
        <time>2016-06-08T15:00:35.000Z</time>
      </trkpt>
      <trkpt lat="46.98959" lon="-0.75938">
        <ele>133.40251159668</ele>
        <time>2016-06-08T15:00:38.000Z</time>
      </trkpt>
      <trkpt lat="46.98962" lon="-0.75934">
        <ele>132.94665527344</ele>
        <time>2016-06-08T15:00:40.000Z</time>
      </trkpt>
      <trkpt lat="46.98964" lon="-0.7593">
        <ele>132.98092651367</ele>
        <time>2016-06-08T15:00:43.000Z</time>
      </trkpt>
      <trkpt lat="46.98966" lon="-0.75925">
        <ele>134.03424072266</ele>
        <time>2016-06-08T15:00:46.000Z</time>
      </trkpt>
      <trkpt lat="46.98967" lon="-0.75922">
        <ele>134.88616943359</ele>
        <time>2016-06-08T15:00:48.000Z</time>
      </trkpt>
      <trkpt lat="46.98969" lon="-0.75916">
        <ele>136.67886352539</ele>
        <time>2016-06-08T15:00:51.000Z</time>
      </trkpt>
      <trkpt lat="46.98969" lon="-0.75912">
        <ele>138.54557800293</ele>
        <time>2016-06-08T15:00:53.000Z</time>
      </trkpt>
      <trkpt lat="46.98973" lon="-0.75908">
        <ele>141.40950012207</ele>
        <time>2016-06-08T15:00:56.000Z</time>
      </trkpt>
      <trkpt lat="46.98976" lon="-0.75906">
        <ele>141.81973266602</ele>
        <time>2016-06-08T15:00:59.000Z</time>
      </trkpt>
      <trkpt lat="46.98977" lon="-0.75903">
        <ele>141.5998840332</ele>
        <time>2016-06-08T15:01:02.000Z</time>
      </trkpt>
      <trkpt lat="46.9898" lon="-0.75898">
        <ele>140.07548522949</ele>
        <time>2016-06-08T15:01:05.000Z</time>
      </trkpt>
      <trkpt lat="46.98981" lon="-0.75892">
        <ele>138.65739440918</ele>
        <time>2016-06-08T15:01:08.000Z</time>
      </trkpt>
      <trkpt lat="46.98985" lon="-0.75888">
        <ele>138.89735412598</ele>
        <time>2016-06-08T15:01:12.000Z</time>
      </trkpt>
      <trkpt lat="46.98987" lon="-0.75887">
        <ele>139.31703186035</ele>
        <time>2016-06-08T15:01:14.000Z</time>
      </trkpt>
      <trkpt lat="46.9899" lon="-0.75885">
        <ele>139.87690734863</ele>
        <time>2016-06-08T15:01:17.000Z</time>
      </trkpt>
      <trkpt lat="46.98992" lon="-0.75883">
        <ele>140.54623413086</ele>
        <time>2016-06-08T15:01:19.000Z</time>
      </trkpt>
      <trkpt lat="46.98995" lon="-0.7588">
        <ele>140.03405761719</ele>
        <time>2016-06-08T15:01:21.000Z</time>
      </trkpt>
      <trkpt lat="46.98998" lon="-0.75879">
        <ele>141.6197052002</ele>
        <time>2016-06-08T15:01:23.000Z</time>
      </trkpt>
      <trkpt lat="46.99001" lon="-0.75878">
        <ele>142.92546081543</ele>
        <time>2016-06-08T15:01:25.000Z</time>
      </trkpt>
      <trkpt lat="46.99008" lon="-0.75879">
        <ele>140.36929321289</ele>
        <time>2016-06-08T15:01:28.000Z</time>
      </trkpt>
      <trkpt lat="46.99009" lon="-0.75875">
        <ele>140.6739654541</ele>
        <time>2016-06-08T15:01:31.000Z</time>
      </trkpt>
      <trkpt lat="46.99011" lon="-0.7587">
        <ele>143.33387756348</ele>
        <time>2016-06-08T15:01:35.000Z</time>
      </trkpt>
      <trkpt lat="46.99013" lon="-0.75868">
        <ele>144.52024841309</ele>
        <time>2016-06-08T15:01:37.000Z</time>
      </trkpt>
      <trkpt lat="46.99016" lon="-0.75865">
        <ele>145.17742919922</ele>
        <time>2016-06-08T15:01:40.000Z</time>
      </trkpt>
      <trkpt lat="46.99017" lon="-0.75862">
        <ele>143.85656738281</ele>
        <time>2016-06-08T15:01:42.000Z</time>
      </trkpt>
      <trkpt lat="46.9902" lon="-0.7586">
        <ele>142.29251098633</ele>
        <time>2016-06-08T15:01:44.000Z</time>
      </trkpt>
      <trkpt lat="46.99024" lon="-0.75857">
        <ele>140.98718261719</ele>
        <time>2016-06-08T15:01:47.000Z</time>
      </trkpt>
      <trkpt lat="46.99029" lon="-0.75854">
        <ele>140.35369873047</ele>
        <time>2016-06-08T15:01:50.000Z</time>
      </trkpt>
      <trkpt lat="46.99033" lon="-0.75851">
        <ele>140.63041687012</ele>
        <time>2016-06-08T15:01:53.000Z</time>
      </trkpt>
      <trkpt lat="46.99035" lon="-0.75846">
        <ele>141.33526611328</ele>
        <time>2016-06-08T15:01:56.000Z</time>
      </trkpt>
      <trkpt lat="46.99038" lon="-0.75839">
        <ele>142.75514221191</ele>
        <time>2016-06-08T15:01:59.000Z</time>
      </trkpt>
      <trkpt lat="46.9904" lon="-0.75835">
        <ele>143.94494628906</ele>
        <time>2016-06-08T15:02:02.000Z</time>
      </trkpt>
      <trkpt lat="46.99043" lon="-0.75833">
        <ele>143.6470489502</ele>
        <time>2016-06-08T15:02:04.000Z</time>
      </trkpt>
      <trkpt lat="46.99045" lon="-0.75828">
        <ele>144.77847290039</ele>
        <time>2016-06-08T15:02:07.000Z</time>
      </trkpt>
      <trkpt lat="46.99048" lon="-0.75824">
        <ele>147.67535400391</ele>
        <time>2016-06-08T15:02:10.000Z</time>
      </trkpt>
      <trkpt lat="46.99052" lon="-0.75819">
        <ele>147.56262207031</ele>
        <time>2016-06-08T15:02:13.000Z</time>
      </trkpt>
      <trkpt lat="46.99054" lon="-0.75816">
        <ele>147.71655273438</ele>
        <time>2016-06-08T15:02:16.000Z</time>
      </trkpt>
      <trkpt lat="46.99056" lon="-0.75815">
        <ele>148.49792480469</ele>
        <time>2016-06-08T15:02:18.000Z</time>
      </trkpt>
      <trkpt lat="46.99057" lon="-0.75813">
        <ele>148.48573303223</ele>
        <time>2016-06-08T15:02:20.000Z</time>
      </trkpt>
      <trkpt lat="46.99059" lon="-0.7581">
        <ele>148.11657714844</ele>
        <time>2016-06-08T15:02:23.000Z</time>
      </trkpt>
      <trkpt lat="46.99062" lon="-0.75805">
        <ele>148.47839355469</ele>
        <time>2016-06-08T15:02:26.000Z</time>
      </trkpt>
      <trkpt lat="46.99065" lon="-0.758">
        <ele>148.03189086914</ele>
        <time>2016-06-08T15:02:28.000Z</time>
      </trkpt>
      <trkpt lat="46.99067" lon="-0.75794">
        <ele>147.96142578125</ele>
        <time>2016-06-08T15:02:31.000Z</time>
      </trkpt>
      <trkpt lat="46.9907" lon="-0.75791">
        <ele>147.97985839844</ele>
        <time>2016-06-08T15:02:33.000Z</time>
      </trkpt>
      <trkpt lat="46.99071" lon="-0.7579">
        <ele>147.98463439941</ele>
        <time>2016-06-08T15:02:35.000Z</time>
      </trkpt>
      <trkpt lat="46.99072" lon="-0.75784">
        <ele>149.16201782227</ele>
        <time>2016-06-08T15:02:37.000Z</time>
      </trkpt>
      <trkpt lat="46.99073" lon="-0.75781">
        <ele>149.59613037109</ele>
        <time>2016-06-08T15:02:40.000Z</time>
      </trkpt>
      <trkpt lat="46.99075" lon="-0.75778">
        <ele>149.98425292969</ele>
        <time>2016-06-08T15:02:42.000Z</time>
      </trkpt>
      <trkpt lat="46.99079" lon="-0.75776">
        <ele>150.48585510254</ele>
        <time>2016-06-08T15:02:45.000Z</time>
      </trkpt>
      <trkpt lat="46.99083" lon="-0.75775">
        <ele>149.98384094238</ele>
        <time>2016-06-08T15:02:47.000Z</time>
      </trkpt>
      <trkpt lat="46.99088" lon="-0.75773">
        <ele>147.14294433594</ele>
        <time>2016-06-08T15:02:50.000Z</time>
      </trkpt>
      <trkpt lat="46.99092" lon="-0.75769">
        <ele>147.70681762695</ele>
        <time>2016-06-08T15:02:52.000Z</time>
      </trkpt>
      <trkpt lat="46.99096" lon="-0.75765">
        <ele>149.63191223145</ele>
        <time>2016-06-08T15:02:55.000Z</time>
      </trkpt>
      <trkpt lat="46.99099" lon="-0.75762">
        <ele>150.85090637207</ele>
        <time>2016-06-08T15:02:57.000Z</time>
      </trkpt>
      <trkpt lat="46.991" lon="-0.75761">
        <ele>149.77110290527</ele>
        <time>2016-06-08T15:02:59.000Z</time>
      </trkpt>
      <trkpt lat="46.99104" lon="-0.75758">
        <ele>150.30856323242</ele>
        <time>2016-06-08T15:03:01.000Z</time>
      </trkpt>
      <trkpt lat="46.99107" lon="-0.75756">
        <ele>150.99766540527</ele>
        <time>2016-06-08T15:03:05.000Z</time>
      </trkpt>
      <trkpt lat="46.99112" lon="-0.75754">
        <ele>149.60504150391</ele>
        <time>2016-06-08T15:03:08.000Z</time>
      </trkpt>
      <trkpt lat="46.99115" lon="-0.75752">
        <ele>148.98196411133</ele>
        <time>2016-06-08T15:03:10.000Z</time>
      </trkpt>
      <trkpt lat="46.99118" lon="-0.75745">
        <ele>148.69677734375</ele>
        <time>2016-06-08T15:03:13.000Z</time>
      </trkpt>
      <trkpt lat="46.99119" lon="-0.75741">
        <ele>148.5235748291</ele>
        <time>2016-06-08T15:03:15.000Z</time>
      </trkpt>
      <trkpt lat="46.99122" lon="-0.75736">
        <ele>148.21194458008</ele>
        <time>2016-06-08T15:03:18.000Z</time>
      </trkpt>
      <trkpt lat="46.99125" lon="-0.75733">
        <ele>147.12351989746</ele>
        <time>2016-06-08T15:03:21.000Z</time>
      </trkpt>
      <trkpt lat="46.99128" lon="-0.7573">
        <ele>146.34608459473</ele>
        <time>2016-06-08T15:03:25.000Z</time>
      </trkpt>
      <trkpt lat="46.99131" lon="-0.75727">
        <ele>146.5446472168</ele>
        <time>2016-06-08T15:03:27.000Z</time>
      </trkpt>
      <trkpt lat="46.99134" lon="-0.75724">
        <ele>145.53555297852</ele>
        <time>2016-06-08T15:03:30.000Z</time>
      </trkpt>
      <trkpt lat="46.99137" lon="-0.75723">
        <ele>145.8203125</ele>
        <time>2016-06-08T15:03:32.000Z</time>
      </trkpt>
      <trkpt lat="46.9914" lon="-0.75721">
        <ele>146.82182312012</ele>
        <time>2016-06-08T15:03:34.000Z</time>
      </trkpt>
      <trkpt lat="46.99143" lon="-0.75719">
        <ele>147.47724914551</ele>
        <time>2016-06-08T15:03:37.000Z</time>
      </trkpt>
      <trkpt lat="46.99146" lon="-0.75717">
        <ele>146.64901733398</ele>
        <time>2016-06-08T15:03:39.000Z</time>
      </trkpt>
      <trkpt lat="46.99149" lon="-0.75714">
        <ele>145.70649719238</ele>
        <time>2016-06-08T15:03:42.000Z</time>
      </trkpt>
      <trkpt lat="46.99151" lon="-0.75713">
        <ele>145.24783325195</ele>
        <time>2016-06-08T15:03:44.000Z</time>
      </trkpt>
      <trkpt lat="46.99157" lon="-0.75708">
        <ele>145.92961120605</ele>
        <time>2016-06-08T15:03:47.000Z</time>
      </trkpt>
      <trkpt lat="46.99162" lon="-0.75707">
        <ele>144.81756591797</ele>
        <time>2016-06-08T15:03:49.000Z</time>
      </trkpt>
      <trkpt lat="46.99165" lon="-0.75706">
        <ele>145.53100585938</ele>
        <time>2016-06-08T15:03:51.000Z</time>
      </trkpt>
      <trkpt lat="46.9917" lon="-0.75704">
        <ele>144.72836303711</ele>
        <time>2016-06-08T15:03:54.000Z</time>
      </trkpt>
      <trkpt lat="46.99172" lon="-0.75702">
        <ele>144.4959564209</ele>
        <time>2016-06-08T15:03:56.000Z</time>
      </trkpt>
      <trkpt lat="46.99174" lon="-0.75701">
        <ele>144.12945556641</ele>
        <time>2016-06-08T15:03:58.000Z</time>
      </trkpt>
      <trkpt lat="46.99177" lon="-0.75699">
        <ele>142.81053161621</ele>
        <time>2016-06-08T15:04:01.000Z</time>
      </trkpt>
      <trkpt lat="46.99179" lon="-0.75697">
        <ele>141.50128173828</ele>
        <time>2016-06-08T15:04:04.000Z</time>
      </trkpt>
      <trkpt lat="46.99183" lon="-0.75693">
        <ele>140.99514770508</ele>
        <time>2016-06-08T15:04:07.000Z</time>
      </trkpt>
      <trkpt lat="46.99185" lon="-0.75688">
        <ele>141.24908447266</ele>
        <time>2016-06-08T15:04:10.000Z</time>
      </trkpt>
      <trkpt lat="46.99191" lon="-0.75685">
        <ele>140.03215026855</ele>
        <time>2016-06-08T15:04:13.000Z</time>
      </trkpt>
      <trkpt lat="46.99195" lon="-0.7568">
        <ele>140.15840148926</ele>
        <time>2016-06-08T15:04:16.000Z</time>
      </trkpt>
      <trkpt lat="46.99199" lon="-0.75676">
        <ele>139.22756958008</ele>
        <time>2016-06-08T15:04:19.000Z</time>
      </trkpt>
      <trkpt lat="46.99203" lon="-0.75675">
        <ele>138.95764160156</ele>
        <time>2016-06-08T15:04:21.000Z</time>
      </trkpt>
      <trkpt lat="46.99206" lon="-0.75675">
        <ele>138.28105163574</ele>
        <time>2016-06-08T15:04:23.000Z</time>
      </trkpt>
      <trkpt lat="46.9921" lon="-0.75675">
        <ele>137.29342651367</ele>
        <time>2016-06-08T15:04:27.000Z</time>
      </trkpt>
      <trkpt lat="46.99213" lon="-0.75674">
        <ele>135.84434509277</ele>
        <time>2016-06-08T15:04:29.000Z</time>
      </trkpt>
      <trkpt lat="46.99219" lon="-0.75674">
        <ele>136.76919555664</ele>
        <time>2016-06-08T15:04:32.000Z</time>
      </trkpt>
      <trkpt lat="46.99223" lon="-0.75674">
        <ele>137.85932922363</ele>
        <time>2016-06-08T15:04:34.000Z</time>
      </trkpt>
      <trkpt lat="46.99227" lon="-0.75673">
        <ele>136.62789916992</ele>
        <time>2016-06-08T15:04:37.000Z</time>
      </trkpt>
      <trkpt lat="46.99231" lon="-0.7567">
        <ele>137.46714782715</ele>
        <time>2016-06-08T15:04:40.000Z</time>
      </trkpt>
      <trkpt lat="46.99231" lon="-0.75667">
        <ele>138.57307434082</ele>
        <time>2016-06-08T15:04:42.000Z</time>
      </trkpt>
      <trkpt lat="46.99232" lon="-0.75661">
        <ele>139.83221435547</ele>
        <time>2016-06-08T15:04:45.000Z</time>
      </trkpt>
      <trkpt lat="46.99238" lon="-0.75659">
        <ele>139.62371826172</ele>
        <time>2016-06-08T15:04:48.000Z</time>
      </trkpt>
      <trkpt lat="46.99242" lon="-0.75659">
        <ele>138.63543701172</ele>
        <time>2016-06-08T15:04:51.000Z</time>
      </trkpt>
      <trkpt lat="46.99246" lon="-0.75658">
        <ele>138.35791015625</ele>
        <time>2016-06-08T15:04:55.000Z</time>
      </trkpt>
      <trkpt lat="46.9925" lon="-0.75656">
        <ele>139.19940185547</ele>
        <time>2016-06-08T15:04:58.000Z</time>
      </trkpt>
      <trkpt lat="46.99253" lon="-0.75651">
        <ele>139.06869506836</ele>
        <time>2016-06-08T15:05:01.000Z</time>
      </trkpt>
      <trkpt lat="46.99257" lon="-0.75647">
        <ele>141.04234313965</ele>
        <time>2016-06-08T15:05:04.000Z</time>
      </trkpt>
      <trkpt lat="46.99261" lon="-0.75644">
        <ele>141.17372131348</ele>
        <time>2016-06-08T15:05:06.000Z</time>
      </trkpt>
      <trkpt lat="46.99265" lon="-0.75642">
        <ele>141.85897827148</ele>
        <time>2016-06-08T15:05:09.000Z</time>
      </trkpt>
      <trkpt lat="46.99269" lon="-0.7564">
        <ele>141.97859191895</ele>
        <time>2016-06-08T15:05:12.000Z</time>
      </trkpt>
      <trkpt lat="46.99272" lon="-0.75638">
        <ele>141.64549255371</ele>
        <time>2016-06-08T15:05:14.000Z</time>
      </trkpt>
      <trkpt lat="46.99276" lon="-0.75638">
        <ele>142.61372375488</ele>
        <time>2016-06-08T15:05:16.000Z</time>
      </trkpt>
      <trkpt lat="46.9928" lon="-0.75635">
        <ele>144.2762298584</ele>
        <time>2016-06-08T15:05:19.000Z</time>
      </trkpt>
      <trkpt lat="46.99283" lon="-0.75633">
        <ele>144.27194213867</ele>
        <time>2016-06-08T15:05:22.000Z</time>
      </trkpt>
      <trkpt lat="46.99286" lon="-0.7563">
        <ele>144.73031616211</ele>
        <time>2016-06-08T15:05:24.000Z</time>
      </trkpt>
      <trkpt lat="46.99288" lon="-0.75623">
        <ele>144.44593811035</ele>
        <time>2016-06-08T15:05:27.000Z</time>
      </trkpt>
      <trkpt lat="46.99291" lon="-0.75617">
        <ele>144.69053649902</ele>
        <time>2016-06-08T15:05:30.000Z</time>
      </trkpt>
      <trkpt lat="46.99293" lon="-0.75615">
        <ele>145.59141540527</ele>
        <time>2016-06-08T15:05:32.000Z</time>
      </trkpt>
      <trkpt lat="46.99294" lon="-0.75612">
        <ele>145.32342529297</ele>
        <time>2016-06-08T15:05:35.000Z</time>
      </trkpt>
      <trkpt lat="46.99295" lon="-0.75608">
        <ele>144.58331298828</ele>
        <time>2016-06-08T15:05:37.000Z</time>
      </trkpt>
      <trkpt lat="46.99295" lon="-0.75604">
        <ele>144.31411743164</ele>
        <time>2016-06-08T15:05:40.000Z</time>
      </trkpt>
      <trkpt lat="46.993" lon="-0.756">
        <ele>142.81149291992</ele>
        <time>2016-06-08T15:05:43.000Z</time>
      </trkpt>
      <trkpt lat="46.99302" lon="-0.75596">
        <ele>142.22506713867</ele>
        <time>2016-06-08T15:05:45.000Z</time>
      </trkpt>
      <trkpt lat="46.99303" lon="-0.75589">
        <ele>142.26545715332</ele>
        <time>2016-06-08T15:05:48.000Z</time>
      </trkpt>
      <trkpt lat="46.99303" lon="-0.75586">
        <ele>143.40444946289</ele>
        <time>2016-06-08T15:05:50.000Z</time>
      </trkpt>
      <trkpt lat="46.99303" lon="-0.75581">
        <ele>143.23422241211</ele>
        <time>2016-06-08T15:05:52.000Z</time>
      </trkpt>
      <trkpt lat="46.99304" lon="-0.75576">
        <ele>143.56204223633</ele>
        <time>2016-06-08T15:05:56.000Z</time>
      </trkpt>
      <trkpt lat="46.99306" lon="-0.75571">
        <ele>144.87626647949</ele>
        <time>2016-06-08T15:05:59.000Z</time>
      </trkpt>
      <trkpt lat="46.99306" lon="-0.75567">
        <ele>145.91923522949</ele>
        <time>2016-06-08T15:06:01.000Z</time>
      </trkpt>
      <trkpt lat="46.99308" lon="-0.75561">
        <ele>145.49899291992</ele>
        <time>2016-06-08T15:06:04.000Z</time>
      </trkpt>
      <trkpt lat="46.99308" lon="-0.75557">
        <ele>146.74089050293</ele>
        <time>2016-06-08T15:06:06.000Z</time>
      </trkpt>
      <trkpt lat="46.99308" lon="-0.7555">
        <ele>148.12124633789</ele>
        <time>2016-06-08T15:06:09.000Z</time>
      </trkpt>
      <trkpt lat="46.99307" lon="-0.75546">
        <ele>148.15824890137</ele>
        <time>2016-06-08T15:06:11.000Z</time>
      </trkpt>
      <trkpt lat="46.99308" lon="-0.75542">
        <ele>146.66468811035</ele>
        <time>2016-06-08T15:06:13.000Z</time>
      </trkpt>
      <trkpt lat="46.99309" lon="-0.75535">
        <ele>145.68563842773</ele>
        <time>2016-06-08T15:06:16.000Z</time>
      </trkpt>
      <trkpt lat="46.99309" lon="-0.7553">
        <ele>146.21031188965</ele>
        <time>2016-06-08T15:06:18.000Z</time>
      </trkpt>
      <trkpt lat="46.99308" lon="-0.75522">
        <ele>146.69328308105</ele>
        <time>2016-06-08T15:06:21.000Z</time>
      </trkpt>
      <trkpt lat="46.99305" lon="-0.75516">
        <ele>147.04098510742</ele>
        <time>2016-06-08T15:06:24.000Z</time>
      </trkpt>
      <trkpt lat="46.99302" lon="-0.75509">
        <ele>143.46640014648</ele>
        <time>2016-06-08T15:06:28.000Z</time>
      </trkpt>
      <trkpt lat="46.993" lon="-0.75506">
        <ele>141.27630615234</ele>
        <time>2016-06-08T15:06:31.000Z</time>
      </trkpt>
      <trkpt lat="46.99299" lon="-0.75503">
        <ele>140.99201965332</ele>
        <time>2016-06-08T15:06:33.000Z</time>
      </trkpt>
      <trkpt lat="46.99299" lon="-0.75498">
        <ele>141.38471984863</ele>
        <time>2016-06-08T15:06:36.000Z</time>
      </trkpt>
      <trkpt lat="46.99299" lon="-0.75494">
        <ele>141.73477172852</ele>
        <time>2016-06-08T15:06:38.000Z</time>
      </trkpt>
      <trkpt lat="46.99297" lon="-0.75489">
        <ele>143.18322753906</ele>
        <time>2016-06-08T15:06:40.000Z</time>
      </trkpt>
      <trkpt lat="46.99295" lon="-0.75485">
        <ele>143.89642333984</ele>
        <time>2016-06-08T15:06:43.000Z</time>
      </trkpt>
      <trkpt lat="46.99294" lon="-0.75483">
        <ele>144.40843200684</ele>
        <time>2016-06-08T15:06:45.000Z</time>
      </trkpt>
      <trkpt lat="46.99293" lon="-0.75477">
        <ele>144.6032409668</ele>
        <time>2016-06-08T15:06:48.000Z</time>
      </trkpt>
      <trkpt lat="46.99294" lon="-0.75472">
        <ele>145.1053314209</ele>
        <time>2016-06-08T15:06:50.000Z</time>
      </trkpt>
      <trkpt lat="46.99295" lon="-0.75468">
        <ele>144.31385803223</ele>
        <time>2016-06-08T15:06:53.000Z</time>
      </trkpt>
      <trkpt lat="46.99295" lon="-0.75462">
        <ele>144.16842651367</ele>
        <time>2016-06-08T15:06:56.000Z</time>
      </trkpt>
      <trkpt lat="46.99295" lon="-0.75455">
        <ele>143.73643493652</ele>
        <time>2016-06-08T15:06:59.000Z</time>
      </trkpt>
      <trkpt lat="46.99291" lon="-0.75452">
        <ele>140.75732421875</ele>
        <time>2016-06-08T15:07:02.000Z</time>
      </trkpt>
      <trkpt lat="46.9929" lon="-0.75451">
        <ele>139.9351348877</ele>
        <time>2016-06-08T15:07:04.000Z</time>
      </trkpt>
      <trkpt lat="46.9929" lon="-0.75446">
        <ele>139.34245300293</ele>
        <time>2016-06-08T15:07:07.000Z</time>
      </trkpt>
      <trkpt lat="46.9929" lon="-0.75439">
        <ele>138.62881469727</ele>
        <time>2016-06-08T15:07:10.000Z</time>
      </trkpt>
      <trkpt lat="46.99289" lon="-0.75433">
        <ele>138.61408996582</ele>
        <time>2016-06-08T15:07:13.000Z</time>
      </trkpt>
      <trkpt lat="46.99289" lon="-0.75427">
        <ele>139.29884338379</ele>
        <time>2016-06-08T15:07:16.000Z</time>
      </trkpt>
      <trkpt lat="46.9929" lon="-0.75422">
        <ele>140.72210693359</ele>
        <time>2016-06-08T15:07:19.000Z</time>
      </trkpt>
      <trkpt lat="46.99291" lon="-0.75416">
        <ele>140.4377746582</ele>
        <time>2016-06-08T15:07:21.000Z</time>
      </trkpt>
      <trkpt lat="46.99294" lon="-0.75413">
        <ele>139.2864074707</ele>
        <time>2016-06-08T15:07:24.000Z</time>
      </trkpt>
      <trkpt lat="46.99295" lon="-0.75405">
        <ele>137.68029785156</ele>
        <time>2016-06-08T15:07:27.000Z</time>
      </trkpt>
      <trkpt lat="46.99296" lon="-0.75402">
        <ele>137.26948547363</ele>
        <time>2016-06-08T15:07:29.000Z</time>
      </trkpt>
      <trkpt lat="46.99296" lon="-0.75398">
        <ele>136.9093170166</ele>
        <time>2016-06-08T15:07:32.000Z</time>
      </trkpt>
      <trkpt lat="46.99295" lon="-0.7539">
        <ele>137.01792907715</ele>
        <time>2016-06-08T15:07:35.000Z</time>
      </trkpt>
      <trkpt lat="46.99294" lon="-0.7538">
        <ele>138.50982666016</ele>
        <time>2016-06-08T15:07:38.000Z</time>
      </trkpt>
      <trkpt lat="46.99294" lon="-0.75372">
        <ele>140.56642150879</ele>
        <time>2016-06-08T15:07:41.000Z</time>
      </trkpt>
      <trkpt lat="46.99295" lon="-0.75365">
        <ele>141.97885131836</ele>
        <time>2016-06-08T15:07:45.000Z</time>
      </trkpt>
      <trkpt lat="46.99298" lon="-0.75359">
        <ele>143.45335388184</ele>
        <time>2016-06-08T15:07:48.000Z</time>
      </trkpt>
      <trkpt lat="46.993" lon="-0.75352">
        <ele>143.69987487793</ele>
        <time>2016-06-08T15:07:51.000Z</time>
      </trkpt>
      <trkpt lat="46.993" lon="-0.75349">
        <ele>143.87040710449</ele>
        <time>2016-06-08T15:07:54.000Z</time>
      </trkpt>
      <trkpt lat="46.993" lon="-0.75345">
        <ele>144.40713500977</ele>
        <time>2016-06-08T15:07:57.000Z</time>
      </trkpt>
      <trkpt lat="46.993" lon="-0.7534">
        <ele>144.22236633301</ele>
        <time>2016-06-08T15:08:00.000Z</time>
      </trkpt>
      <trkpt lat="46.993" lon="-0.75331">
        <ele>144.30557250977</ele>
        <time>2016-06-08T15:08:02.000Z</time>
      </trkpt>
      <trkpt lat="46.993" lon="-0.75325">
        <ele>144.76164245605</ele>
        <time>2016-06-08T15:08:04.000Z</time>
      </trkpt>
      <trkpt lat="46.99301" lon="-0.75318">
        <ele>146.59173583984</ele>
        <time>2016-06-08T15:08:07.000Z</time>
      </trkpt>
      <trkpt lat="46.993" lon="-0.75314">
        <ele>147.85325622559</ele>
        <time>2016-06-08T15:08:09.000Z</time>
      </trkpt>
      <trkpt lat="46.99297" lon="-0.75312">
        <ele>148.26020812988</ele>
        <time>2016-06-08T15:08:12.000Z</time>
      </trkpt>
      <trkpt lat="46.99295" lon="-0.7531">
        <ele>146.52388000488</ele>
        <time>2016-06-08T15:08:14.000Z</time>
      </trkpt>
      <trkpt lat="46.99295" lon="-0.75305">
        <ele>144.78225708008</ele>
        <time>2016-06-08T15:08:16.000Z</time>
      </trkpt>
      <trkpt lat="46.99296" lon="-0.75301">
        <ele>142.97381591797</ele>
        <time>2016-06-08T15:08:19.000Z</time>
      </trkpt>
      <trkpt lat="46.99294" lon="-0.75296">
        <ele>143.42979431152</ele>
        <time>2016-06-08T15:08:22.000Z</time>
      </trkpt>
      <trkpt lat="46.99294" lon="-0.75291">
        <ele>145.70477294922</ele>
        <time>2016-06-08T15:08:25.000Z</time>
      </trkpt>
      <trkpt lat="46.99294" lon="-0.7529">
        <ele>146.97122192383</ele>
        <time>2016-06-08T15:08:27.000Z</time>
      </trkpt>
      <trkpt lat="46.99295" lon="-0.75284">
        <ele>147.96748352051</ele>
        <time>2016-06-08T15:08:30.000Z</time>
      </trkpt>
      <trkpt lat="46.99295" lon="-0.75279">
        <ele>148.71903991699</ele>
        <time>2016-06-08T15:08:32.000Z</time>
      </trkpt>
      <trkpt lat="46.99294" lon="-0.75271">
        <ele>150.03002929688</ele>
        <time>2016-06-08T15:08:36.000Z</time>
      </trkpt>
      <trkpt lat="46.99294" lon="-0.75261">
        <ele>148.92565917969</ele>
        <time>2016-06-08T15:08:39.000Z</time>
      </trkpt>
      <trkpt lat="46.99293" lon="-0.75255">
        <ele>148.26745605469</ele>
        <time>2016-06-08T15:08:41.000Z</time>
      </trkpt>
      <trkpt lat="46.99289" lon="-0.75252">
        <ele>147.57849121094</ele>
        <time>2016-06-08T15:08:44.000Z</time>
      </trkpt>
      <trkpt lat="46.9929" lon="-0.75249">
        <ele>148.37606811523</ele>
        <time>2016-06-08T15:08:46.000Z</time>
      </trkpt>
      <trkpt lat="46.9929" lon="-0.75246">
        <ele>148.12315368652</ele>
        <time>2016-06-08T15:08:49.000Z</time>
      </trkpt>
      <trkpt lat="46.99289" lon="-0.75241">
        <ele>147.38870239258</ele>
        <time>2016-06-08T15:08:52.000Z</time>
      </trkpt>
      <trkpt lat="46.99288" lon="-0.75235">
        <ele>146.6650390625</ele>
        <time>2016-06-08T15:08:55.000Z</time>
      </trkpt>
      <trkpt lat="46.99287" lon="-0.75224">
        <ele>146.52450561523</ele>
        <time>2016-06-08T15:08:58.000Z</time>
      </trkpt>
      <trkpt lat="46.99286" lon="-0.75221">
        <ele>146.48608398438</ele>
        <time>2016-06-08T15:09:00.000Z</time>
      </trkpt>
      <trkpt lat="46.99286" lon="-0.75219">
        <ele>146.24894714355</ele>
        <time>2016-06-08T15:09:03.000Z</time>
      </trkpt>
      <trkpt lat="46.99286" lon="-0.75215">
        <ele>146.37110900879</ele>
        <time>2016-06-08T15:09:05.000Z</time>
      </trkpt>
      <trkpt lat="46.99286" lon="-0.75212">
        <ele>146.19412231445</ele>
        <time>2016-06-08T15:09:07.000Z</time>
      </trkpt>
      <trkpt lat="46.99286" lon="-0.75207">
        <ele>146.30131530762</ele>
        <time>2016-06-08T15:09:10.000Z</time>
      </trkpt>
      <trkpt lat="46.99285" lon="-0.75204">
        <ele>146.03596496582</ele>
        <time>2016-06-08T15:09:12.000Z</time>
      </trkpt>
      <trkpt lat="46.99285" lon="-0.75201">
        <ele>146.2054901123</ele>
        <time>2016-06-08T15:09:14.000Z</time>
      </trkpt>
      <trkpt lat="46.99285" lon="-0.75195">
        <ele>145.93574523926</ele>
        <time>2016-06-08T15:09:17.000Z</time>
      </trkpt>
      <trkpt lat="46.99284" lon="-0.75191">
        <ele>145.52673339844</ele>
        <time>2016-06-08T15:09:19.000Z</time>
      </trkpt>
      <trkpt lat="46.99282" lon="-0.75185">
        <ele>145.06797790527</ele>
        <time>2016-06-08T15:09:22.000Z</time>
      </trkpt>
      <trkpt lat="46.99282" lon="-0.75182">
        <ele>145.02072143555</ele>
        <time>2016-06-08T15:09:24.000Z</time>
      </trkpt>
      <trkpt lat="46.99282" lon="-0.75175">
        <ele>145.49934387207</ele>
        <time>2016-06-08T15:09:27.000Z</time>
      </trkpt>
      <trkpt lat="46.99281" lon="-0.75171">
        <ele>146.55867004395</ele>
        <time>2016-06-08T15:09:29.000Z</time>
      </trkpt>
      <trkpt lat="46.9928" lon="-0.75164">
        <ele>147.49803161621</ele>
        <time>2016-06-08T15:09:32.000Z</time>
      </trkpt>
      <trkpt lat="46.9928" lon="-0.75157">
        <ele>147.96130371094</ele>
        <time>2016-06-08T15:09:35.000Z</time>
      </trkpt>
      <trkpt lat="46.9928" lon="-0.75151">
        <ele>148.54359436035</ele>
        <time>2016-06-08T15:09:37.000Z</time>
      </trkpt>
      <trkpt lat="46.99281" lon="-0.75145">
        <ele>149.69635009766</ele>
        <time>2016-06-08T15:09:39.000Z</time>
      </trkpt>
      <trkpt lat="46.99279" lon="-0.75137">
        <ele>151.02737426758</ele>
        <time>2016-06-08T15:09:42.000Z</time>
      </trkpt>
      <trkpt lat="46.99278" lon="-0.75133">
        <ele>151.87094116211</ele>
        <time>2016-06-08T15:09:44.000Z</time>
      </trkpt>
      <trkpt lat="46.99278" lon="-0.75129">
        <ele>153.22994995117</ele>
        <time>2016-06-08T15:09:48.000Z</time>
      </trkpt>
      <trkpt lat="46.99278" lon="-0.7512">
        <ele>154.93949890137</ele>
        <time>2016-06-08T15:09:51.000Z</time>
      </trkpt>
      <trkpt lat="46.99278" lon="-0.75116">
        <ele>155.56242370605</ele>
        <time>2016-06-08T15:09:54.000Z</time>
      </trkpt>
      <trkpt lat="46.99278" lon="-0.75114">
        <ele>155.71607971191</ele>
        <time>2016-06-08T15:09:57.000Z</time>
      </trkpt>
      <trkpt lat="46.99278" lon="-0.75109">
        <ele>155.95129394531</ele>
        <time>2016-06-08T15:09:59.000Z</time>
      </trkpt>
      <trkpt lat="46.99279" lon="-0.75103">
        <ele>156.0909576416</ele>
        <time>2016-06-08T15:10:02.000Z</time>
      </trkpt>
      <trkpt lat="46.99279" lon="-0.75098">
        <ele>155.57092285156</ele>
        <time>2016-06-08T15:10:04.000Z</time>
      </trkpt>
      <trkpt lat="46.9928" lon="-0.75092">
        <ele>154.86154174805</ele>
        <time>2016-06-08T15:10:07.000Z</time>
      </trkpt>
      <trkpt lat="46.99279" lon="-0.75086">
        <ele>154.7561340332</ele>
        <time>2016-06-08T15:10:10.000Z</time>
      </trkpt>
      <trkpt lat="46.99277" lon="-0.75078">
        <ele>155.0004119873</ele>
        <time>2016-06-08T15:10:13.000Z</time>
      </trkpt>
      <trkpt lat="46.99277" lon="-0.75071">
        <ele>155.6364440918</ele>
        <time>2016-06-08T15:10:16.000Z</time>
      </trkpt>
      <trkpt lat="46.99277" lon="-0.75069">
        <ele>155.92323303223</ele>
        <time>2016-06-08T15:10:18.000Z</time>
      </trkpt>
      <trkpt lat="46.99276" lon="-0.75066">
        <ele>156.02931213379</ele>
        <time>2016-06-08T15:10:26.000Z</time>
      </trkpt>
      <trkpt lat="46.99274" lon="-0.7506">
        <ele>154.60321044922</ele>
        <time>2016-06-08T15:10:28.000Z</time>
      </trkpt>
      <trkpt lat="46.99273" lon="-0.7505">
        <ele>154.63732910156</ele>
        <time>2016-06-08T15:10:31.000Z</time>
      </trkpt>
      <trkpt lat="46.99272" lon="-0.75044">
        <ele>154.80563354492</ele>
        <time>2016-06-08T15:10:34.000Z</time>
      </trkpt>
      <trkpt lat="46.99271" lon="-0.75041">
        <ele>154.17810058594</ele>
        <time>2016-06-08T15:10:37.000Z</time>
      </trkpt>
      <trkpt lat="46.99268" lon="-0.75033">
        <ele>153.91424560547</ele>
        <time>2016-06-08T15:10:40.000Z</time>
      </trkpt>
      <trkpt lat="46.99267" lon="-0.75028">
        <ele>154.17140197754</ele>
        <time>2016-06-08T15:10:43.000Z</time>
      </trkpt>
      <trkpt lat="46.99266" lon="-0.75023">
        <ele>153.2936706543</ele>
        <time>2016-06-08T15:10:46.000Z</time>
      </trkpt>
      <trkpt lat="46.99265" lon="-0.75018">
        <ele>152.52442932129</ele>
        <time>2016-06-08T15:10:49.000Z</time>
      </trkpt>
      <trkpt lat="46.99261" lon="-0.75014">
        <ele>153.4610748291</ele>
        <time>2016-06-08T15:10:52.000Z</time>
      </trkpt>
      <trkpt lat="46.99259" lon="-0.75009">
        <ele>153.5290222168</ele>
        <time>2016-06-08T15:10:55.000Z</time>
      </trkpt>
      <trkpt lat="46.99256" lon="-0.75008">
        <ele>154.08888244629</ele>
        <time>2016-06-08T15:10:58.000Z</time>
      </trkpt>
      <trkpt lat="46.99252" lon="-0.75006">
        <ele>155.27908325195</ele>
        <time>2016-06-08T15:11:01.000Z</time>
      </trkpt>
      <trkpt lat="46.9925" lon="-0.75003">
        <ele>155.86227416992</ele>
        <time>2016-06-08T15:11:03.000Z</time>
      </trkpt>
      <trkpt lat="46.99247" lon="-0.74999">
        <ele>157.0832824707</ele>
        <time>2016-06-08T15:11:06.000Z</time>
      </trkpt>
      <trkpt lat="46.99245" lon="-0.74991">
        <ele>155.75239562988</ele>
        <time>2016-06-08T15:11:09.000Z</time>
      </trkpt>
      <trkpt lat="46.99242" lon="-0.74985">
        <ele>154.24644470215</ele>
        <time>2016-06-08T15:11:12.000Z</time>
      </trkpt>
      <trkpt lat="46.9924" lon="-0.74978">
        <ele>153.7932434082</ele>
        <time>2016-06-08T15:11:15.000Z</time>
      </trkpt>
      <trkpt lat="46.9924" lon="-0.74975">
        <ele>154.37707519531</ele>
        <time>2016-06-08T15:11:17.000Z</time>
      </trkpt>
      <trkpt lat="46.99239" lon="-0.74973">
        <ele>155.59062194824</ele>
        <time>2016-06-08T15:11:19.000Z</time>
      </trkpt>
      <trkpt lat="46.99236" lon="-0.74968">
        <ele>154.68270874023</ele>
        <time>2016-06-08T15:11:22.000Z</time>
      </trkpt>
      <trkpt lat="46.99234" lon="-0.74961">
        <ele>152.77337646484</ele>
        <time>2016-06-08T15:11:25.000Z</time>
      </trkpt>
      <trkpt lat="46.99234" lon="-0.74956">
        <ele>152.30760192871</ele>
        <time>2016-06-08T15:11:27.000Z</time>
      </trkpt>
      <trkpt lat="46.99232" lon="-0.74955">
        <ele>152.26385498047</ele>
        <time>2016-06-08T15:11:29.000Z</time>
      </trkpt>
      <trkpt lat="46.9923" lon="-0.74953">
        <ele>152.39706420898</ele>
        <time>2016-06-08T15:11:31.000Z</time>
      </trkpt>
      <trkpt lat="46.99229" lon="-0.7495">
        <ele>152.79278564453</ele>
        <time>2016-06-08T15:11:33.000Z</time>
      </trkpt>
      <trkpt lat="46.99226" lon="-0.74949">
        <ele>153.91967773438</ele>
        <time>2016-06-08T15:11:36.000Z</time>
      </trkpt>
      <trkpt lat="46.99224" lon="-0.74947">
        <ele>154.9129486084</ele>
        <time>2016-06-08T15:11:38.000Z</time>
      </trkpt>
      <trkpt lat="46.99222" lon="-0.74942">
        <ele>155.58793640137</ele>
        <time>2016-06-08T15:11:41.000Z</time>
      </trkpt>
      <trkpt lat="46.99221" lon="-0.74939">
        <ele>155.83337402344</ele>
        <time>2016-06-08T15:11:43.000Z</time>
      </trkpt>
      <trkpt lat="46.99219" lon="-0.74932">
        <ele>155.75843811035</ele>
        <time>2016-06-08T15:11:46.000Z</time>
      </trkpt>
      <trkpt lat="46.99218" lon="-0.74925">
        <ele>155.01930236816</ele>
        <time>2016-06-08T15:11:49.000Z</time>
      </trkpt>
      <trkpt lat="46.99216" lon="-0.74919">
        <ele>154.27958679199</ele>
        <time>2016-06-08T15:11:52.000Z</time>
      </trkpt>
      <trkpt lat="46.99216" lon="-0.74912">
        <ele>154.49879455566</ele>
        <time>2016-06-08T15:11:55.000Z</time>
      </trkpt>
      <trkpt lat="46.99215" lon="-0.74904">
        <ele>156.17095947266</ele>
        <time>2016-06-08T15:11:59.000Z</time>
      </trkpt>
      <trkpt lat="46.99214" lon="-0.74899">
        <ele>157.02046203613</ele>
        <time>2016-06-08T15:12:02.000Z</time>
      </trkpt>
      <trkpt lat="46.99213" lon="-0.74897">
        <ele>157.65705871582</ele>
        <time>2016-06-08T15:12:04.000Z</time>
      </trkpt>
      <trkpt lat="46.99207" lon="-0.74894">
        <ele>158.45497131348</ele>
        <time>2016-06-08T15:12:07.000Z</time>
      </trkpt>
      <trkpt lat="46.99204" lon="-0.74892">
        <ele>157.16766357422</ele>
        <time>2016-06-08T15:12:10.000Z</time>
      </trkpt>
      <trkpt lat="46.99203" lon="-0.7489">
        <ele>157.05279541016</ele>
        <time>2016-06-08T15:12:12.000Z</time>
      </trkpt>
      <trkpt lat="46.99201" lon="-0.74888">
        <ele>157.93473815918</ele>
        <time>2016-06-08T15:12:15.000Z</time>
      </trkpt>
      <trkpt lat="46.992" lon="-0.74879">
        <ele>157.69473266602</ele>
        <time>2016-06-08T15:12:18.000Z</time>
      </trkpt>
      <trkpt lat="46.992" lon="-0.74875">
        <ele>157.85942077637</ele>
        <time>2016-06-08T15:12:20.000Z</time>
      </trkpt>
      <trkpt lat="46.99199" lon="-0.74871">
        <ele>157.23442077637</ele>
        <time>2016-06-08T15:12:22.000Z</time>
      </trkpt>
      <trkpt lat="46.99197" lon="-0.74868">
        <ele>156.41285705566</ele>
        <time>2016-06-08T15:12:26.000Z</time>
      </trkpt>
      <trkpt lat="46.99195" lon="-0.74863">
        <ele>156.31085205078</ele>
        <time>2016-06-08T15:12:29.000Z</time>
      </trkpt>
      <trkpt lat="46.99194" lon="-0.7486">
        <ele>156.6791229248</ele>
        <time>2016-06-08T15:12:32.000Z</time>
      </trkpt>
      <trkpt lat="46.99193" lon="-0.74853">
        <ele>155.74473571777</ele>
        <time>2016-06-08T15:12:34.000Z</time>
      </trkpt>
      <trkpt lat="46.99191" lon="-0.74847">
        <ele>154.34909057617</ele>
        <time>2016-06-08T15:12:37.000Z</time>
      </trkpt>
      <trkpt lat="46.99188" lon="-0.74844">
        <ele>154.00579833984</ele>
        <time>2016-06-08T15:12:40.000Z</time>
      </trkpt>
      <trkpt lat="46.99187" lon="-0.74842">
        <ele>153.02372741699</ele>
        <time>2016-06-08T15:12:42.000Z</time>
      </trkpt>
      <trkpt lat="46.99185" lon="-0.74838">
        <ele>151.17362976074</ele>
        <time>2016-06-08T15:12:45.000Z</time>
      </trkpt>
      <trkpt lat="46.99183" lon="-0.74835">
        <ele>150.87236022949</ele>
        <time>2016-06-08T15:12:48.000Z</time>
      </trkpt>
      <trkpt lat="46.99183" lon="-0.74831">
        <ele>151.77264404297</ele>
        <time>2016-06-08T15:12:51.000Z</time>
      </trkpt>
      <trkpt lat="46.99183" lon="-0.74829">
        <ele>152.38806152344</ele>
        <time>2016-06-08T15:12:53.000Z</time>
      </trkpt>
      <trkpt lat="46.9918" lon="-0.74825">
        <ele>152.30841064453</ele>
        <time>2016-06-08T15:12:56.000Z</time>
      </trkpt>
      <trkpt lat="46.99177" lon="-0.74821">
        <ele>151.7586517334</ele>
        <time>2016-06-08T15:12:58.000Z</time>
      </trkpt>
      <trkpt lat="46.99174" lon="-0.74816">
        <ele>151.12634277344</ele>
        <time>2016-06-08T15:13:01.000Z</time>
      </trkpt>
      <trkpt lat="46.99174" lon="-0.74815">
        <ele>150.2953338623</ele>
        <time>2016-06-08T15:13:03.000Z</time>
      </trkpt>
      <trkpt lat="46.99172" lon="-0.74813">
        <ele>151.65116882324</ele>
        <time>2016-06-08T15:13:08.000Z</time>
      </trkpt>
      <trkpt lat="46.99167" lon="-0.74802">
        <ele>152.88389587402</ele>
        <time>2016-06-08T15:13:11.000Z</time>
      </trkpt>
      <trkpt lat="46.99164" lon="-0.74798">
        <ele>152.5457611084</ele>
        <time>2016-06-08T15:13:14.000Z</time>
      </trkpt>
      <trkpt lat="46.99161" lon="-0.74795">
        <ele>153.35563659668</ele>
        <time>2016-06-08T15:13:16.000Z</time>
      </trkpt>
      <trkpt lat="46.99158" lon="-0.74789">
        <ele>153.31964111328</ele>
        <time>2016-06-08T15:13:19.000Z</time>
      </trkpt>
      <trkpt lat="46.99158" lon="-0.74786">
        <ele>153.16220092773</ele>
        <time>2016-06-08T15:13:22.000Z</time>
      </trkpt>
      <trkpt lat="46.99157" lon="-0.74781">
        <ele>152.37330627441</ele>
        <time>2016-06-08T15:13:25.000Z</time>
      </trkpt>
      <trkpt lat="46.99156" lon="-0.74778">
        <ele>151.59239196777</ele>
        <time>2016-06-08T15:13:27.000Z</time>
      </trkpt>
      <trkpt lat="46.99154" lon="-0.74777">
        <ele>151.34907531738</ele>
        <time>2016-06-08T15:13:31.000Z</time>
      </trkpt>
      <trkpt lat="46.99151" lon="-0.74769">
        <ele>149.44560241699</ele>
        <time>2016-06-08T15:13:34.000Z</time>
      </trkpt>
      <trkpt lat="46.9915" lon="-0.74763">
        <ele>147.73829650879</ele>
        <time>2016-06-08T15:13:36.000Z</time>
      </trkpt>
      <trkpt lat="46.99148" lon="-0.74756">
        <ele>146.41593933105</ele>
        <time>2016-06-08T15:13:39.000Z</time>
      </trkpt>
      <trkpt lat="46.99146" lon="-0.74753">
        <ele>145.31433105469</ele>
        <time>2016-06-08T15:13:41.000Z</time>
      </trkpt>
      <trkpt lat="46.99142" lon="-0.7475">
        <ele>145.20106506348</ele>
        <time>2016-06-08T15:13:44.000Z</time>
      </trkpt>
      <trkpt lat="46.99139" lon="-0.74749">
        <ele>145.43740844727</ele>
        <time>2016-06-08T15:13:46.000Z</time>
      </trkpt>
      <trkpt lat="46.99136" lon="-0.74748">
        <ele>144.67562866211</ele>
        <time>2016-06-08T15:13:49.000Z</time>
      </trkpt>
      <trkpt lat="46.99134" lon="-0.74746">
        <ele>144.14546203613</ele>
        <time>2016-06-08T15:13:51.000Z</time>
      </trkpt>
      <trkpt lat="46.99131" lon="-0.74743">
        <ele>143.50045776367</ele>
        <time>2016-06-08T15:13:54.000Z</time>
      </trkpt>
      <trkpt lat="46.99131" lon="-0.74741">
        <ele>143.69599914551</ele>
        <time>2016-06-08T15:13:57.000Z</time>
      </trkpt>
      <trkpt lat="46.99128" lon="-0.74737">
        <ele>144.55599975586</ele>
        <time>2016-06-08T15:14:00.000Z</time>
      </trkpt>
      <trkpt lat="46.99127" lon="-0.74736">
        <ele>144.3963470459</ele>
        <time>2016-06-08T15:14:02.000Z</time>
      </trkpt>
      <trkpt lat="46.99122" lon="-0.74727">
        <ele>144.93705749512</ele>
        <time>2016-06-08T15:14:05.000Z</time>
      </trkpt>
      <trkpt lat="46.99121" lon="-0.74719">
        <ele>147.17614746094</ele>
        <time>2016-06-08T15:14:08.000Z</time>
      </trkpt>
      <trkpt lat="46.99118" lon="-0.74713">
        <ele>147.3204498291</ele>
        <time>2016-06-08T15:14:12.000Z</time>
      </trkpt>
      <trkpt lat="46.99114" lon="-0.74708">
        <ele>146.12393188477</ele>
        <time>2016-06-08T15:14:15.000Z</time>
      </trkpt>
      <trkpt lat="46.99111" lon="-0.74706">
        <ele>146.20262145996</ele>
        <time>2016-06-08T15:14:19.000Z</time>
      </trkpt>
      <trkpt lat="46.99109" lon="-0.74703">
        <ele>146.1082611084</ele>
        <time>2016-06-08T15:14:21.000Z</time>
      </trkpt>
      <trkpt lat="46.99103" lon="-0.74698">
        <ele>145.8687286377</ele>
        <time>2016-06-08T15:14:24.000Z</time>
      </trkpt>
      <trkpt lat="46.99099" lon="-0.74695">
        <ele>146.34938049316</ele>
        <time>2016-06-08T15:14:26.000Z</time>
      </trkpt>
      <trkpt lat="46.99097" lon="-0.74692">
        <ele>146.10168457031</ele>
        <time>2016-06-08T15:14:30.000Z</time>
      </trkpt>
      <trkpt lat="46.99095" lon="-0.74689">
        <ele>147.51176452637</ele>
        <time>2016-06-08T15:14:32.000Z</time>
      </trkpt>
      <trkpt lat="46.99091" lon="-0.74687">
        <ele>149.30345153809</ele>
        <time>2016-06-08T15:14:35.000Z</time>
      </trkpt>
      <trkpt lat="46.99087" lon="-0.74684">
        <ele>150.61422729492</ele>
        <time>2016-06-08T15:14:39.000Z</time>
      </trkpt>
      <trkpt lat="46.99086" lon="-0.7468">
        <ele>150.86102294922</ele>
        <time>2016-06-08T15:14:42.000Z</time>
      </trkpt>
      <trkpt lat="46.99085" lon="-0.74675">
        <ele>149.93928527832</ele>
        <time>2016-06-08T15:14:45.000Z</time>
      </trkpt>
      <trkpt lat="46.99084" lon="-0.74667">
        <ele>147.19743347168</ele>
        <time>2016-06-08T15:14:48.000Z</time>
      </trkpt>
      <trkpt lat="46.99083" lon="-0.74665">
        <ele>145.66786193848</ele>
        <time>2016-06-08T15:14:50.000Z</time>
      </trkpt>
      <trkpt lat="46.99081" lon="-0.74657">
        <ele>144.59704589844</ele>
        <time>2016-06-08T15:14:53.000Z</time>
      </trkpt>
      <trkpt lat="46.9908" lon="-0.74652">
        <ele>143.75486755371</ele>
        <time>2016-06-08T15:14:56.000Z</time>
      </trkpt>
      <trkpt lat="46.99076" lon="-0.74648">
        <ele>143.08808898926</ele>
        <time>2016-06-08T15:15:00.000Z</time>
      </trkpt>
      <trkpt lat="46.99071" lon="-0.74645">
        <ele>140.71849060059</ele>
        <time>2016-06-08T15:15:03.000Z</time>
      </trkpt>
      <trkpt lat="46.99067" lon="-0.74644">
        <ele>139.20182800293</ele>
        <time>2016-06-08T15:15:06.000Z</time>
      </trkpt>
      <trkpt lat="46.99065" lon="-0.74642">
        <ele>139.97592163086</ele>
        <time>2016-06-08T15:15:09.000Z</time>
      </trkpt>
      <trkpt lat="46.9906" lon="-0.74637">
        <ele>139.58262634277</ele>
        <time>2016-06-08T15:15:12.000Z</time>
      </trkpt>
      <trkpt lat="46.99057" lon="-0.74633">
        <ele>140.59851074219</ele>
        <time>2016-06-08T15:15:14.000Z</time>
      </trkpt>
      <trkpt lat="46.99054" lon="-0.74628">
        <ele>142.08723449707</ele>
        <time>2016-06-08T15:15:17.000Z</time>
      </trkpt>
      <trkpt lat="46.99053" lon="-0.74627">
        <ele>141.66096496582</ele>
        <time>2016-06-08T15:15:20.000Z</time>
      </trkpt>
      <trkpt lat="46.99051" lon="-0.74624">
        <ele>140.39317321777</ele>
        <time>2016-06-08T15:15:24.000Z</time>
      </trkpt>
      <trkpt lat="46.99049" lon="-0.7462">
        <ele>140.38458251953</ele>
        <time>2016-06-08T15:15:28.000Z</time>
      </trkpt>
      <trkpt lat="46.99046" lon="-0.74617">
        <ele>141.26312255859</ele>
        <time>2016-06-08T15:15:30.000Z</time>
      </trkpt>
      <trkpt lat="46.99041" lon="-0.74611">
        <ele>141.32038879395</ele>
        <time>2016-06-08T15:15:33.000Z</time>
      </trkpt>
      <trkpt lat="46.99038" lon="-0.74608">
        <ele>141.49412536621</ele>
        <time>2016-06-08T15:15:35.000Z</time>
      </trkpt>
      <trkpt lat="46.99036" lon="-0.74605">
        <ele>140.29522705078</ele>
        <time>2016-06-08T15:15:37.000Z</time>
      </trkpt>
      <trkpt lat="46.99034" lon="-0.74601">
        <ele>139.43405151367</ele>
        <time>2016-06-08T15:15:40.000Z</time>
      </trkpt>
      <trkpt lat="46.99033" lon="-0.74599">
        <ele>139.42933654785</ele>
        <time>2016-06-08T15:15:42.000Z</time>
      </trkpt>
      <trkpt lat="46.99028" lon="-0.74593">
        <ele>141.14924621582</ele>
        <time>2016-06-08T15:15:46.000Z</time>
      </trkpt>
      <trkpt lat="46.99027" lon="-0.74585">
        <ele>139.91215515137</ele>
        <time>2016-06-08T15:15:49.000Z</time>
      </trkpt>
      <trkpt lat="46.99026" lon="-0.74582">
        <ele>137.90336608887</ele>
        <time>2016-06-08T15:15:52.000Z</time>
      </trkpt>
      <trkpt lat="46.99024" lon="-0.74578">
        <ele>136.48577880859</ele>
        <time>2016-06-08T15:15:54.000Z</time>
      </trkpt>
      <trkpt lat="46.99023" lon="-0.74573">
        <ele>135.38496398926</ele>
        <time>2016-06-08T15:15:56.000Z</time>
      </trkpt>
      <trkpt lat="46.99022" lon="-0.74571">
        <ele>134.46598815918</ele>
        <time>2016-06-08T15:15:58.000Z</time>
      </trkpt>
      <trkpt lat="46.99022" lon="-0.74565">
        <ele>134.19075012207</ele>
        <time>2016-06-08T15:16:02.000Z</time>
      </trkpt>
      <trkpt lat="46.99024" lon="-0.74563">
        <ele>134.8664855957</ele>
        <time>2016-06-08T15:16:05.000Z</time>
      </trkpt>
      <trkpt lat="46.99023" lon="-0.74562">
        <ele>134.3115234375</ele>
        <time>2016-06-08T15:16:07.000Z</time>
      </trkpt>
      <trkpt lat="46.9902" lon="-0.74556">
        <ele>134.88397216797</ele>
        <time>2016-06-08T15:16:10.000Z</time>
      </trkpt>
      <trkpt lat="46.99018" lon="-0.7455">
        <ele>134.0094909668</ele>
        <time>2016-06-08T15:16:13.000Z</time>
      </trkpt>
      <trkpt lat="46.99017" lon="-0.74545">
        <ele>134.83016967773</ele>
        <time>2016-06-08T15:16:15.000Z</time>
      </trkpt>
      <trkpt lat="46.99013" lon="-0.74539">
        <ele>136.71849060059</ele>
        <time>2016-06-08T15:16:18.000Z</time>
      </trkpt>
      <trkpt lat="46.99014" lon="-0.74535">
        <ele>137.76315307617</ele>
        <time>2016-06-08T15:16:21.000Z</time>
      </trkpt>
      <trkpt lat="46.99015" lon="-0.7453">
        <ele>137.95567321777</ele>
        <time>2016-06-08T15:16:24.000Z</time>
      </trkpt>
      <trkpt lat="46.99012" lon="-0.74519">
        <ele>137.40086364746</ele>
        <time>2016-06-08T15:16:27.000Z</time>
      </trkpt>
      <trkpt lat="46.99008" lon="-0.74512">
        <ele>138.52624511719</ele>
        <time>2016-06-08T15:16:30.000Z</time>
      </trkpt>
      <trkpt lat="46.99005" lon="-0.74506">
        <ele>139.60305786133</ele>
        <time>2016-06-08T15:16:33.000Z</time>
      </trkpt>
      <trkpt lat="46.99004" lon="-0.74499">
        <ele>139.64007568359</ele>
        <time>2016-06-08T15:16:36.000Z</time>
      </trkpt>
      <trkpt lat="46.99003" lon="-0.74494">
        <ele>138.92652893066</ele>
        <time>2016-06-08T15:16:38.000Z</time>
      </trkpt>
      <trkpt lat="46.99007" lon="-0.74491">
        <ele>138.54623413086</ele>
        <time>2016-06-08T15:16:41.000Z</time>
      </trkpt>
      <trkpt lat="46.99013" lon="-0.74486">
        <ele>137.67225646973</ele>
        <time>2016-06-08T15:16:44.000Z</time>
      </trkpt>
      <trkpt lat="46.99015" lon="-0.74482">
        <ele>136.52294921875</ele>
        <time>2016-06-08T15:16:46.000Z</time>
      </trkpt>
      <trkpt lat="46.99016" lon="-0.7448">
        <ele>137.00486755371</ele>
        <time>2016-06-08T15:16:48.000Z</time>
      </trkpt>
      <trkpt lat="46.99016" lon="-0.74475">
        <ele>137.52101135254</ele>
        <time>2016-06-08T15:16:51.000Z</time>
      </trkpt>
      <trkpt lat="46.99016" lon="-0.74472">
        <ele>137.33744812012</ele>
        <time>2016-06-08T15:16:53.000Z</time>
      </trkpt>
      <trkpt lat="46.99016" lon="-0.74467">
        <ele>137.22633361816</ele>
        <time>2016-06-08T15:16:55.000Z</time>
      </trkpt>
      <trkpt lat="46.99014" lon="-0.74465">
        <ele>136.2876739502</ele>
        <time>2016-06-08T15:16:57.000Z</time>
      </trkpt>
      <trkpt lat="46.99009" lon="-0.7446">
        <ele>136.67001342773</ele>
        <time>2016-06-08T15:17:00.000Z</time>
      </trkpt>
      <trkpt lat="46.99007" lon="-0.74457">
        <ele>137.94737243652</ele>
        <time>2016-06-08T15:17:02.000Z</time>
      </trkpt>
      <trkpt lat="46.99006" lon="-0.7445">
        <ele>139.33386230469</ele>
        <time>2016-06-08T15:17:05.000Z</time>
      </trkpt>
      <trkpt lat="46.99005" lon="-0.74446">
        <ele>138.99774169922</ele>
        <time>2016-06-08T15:17:07.000Z</time>
      </trkpt>
      <trkpt lat="46.99006" lon="-0.74442">
        <ele>138.04730224609</ele>
        <time>2016-06-08T15:17:10.000Z</time>
      </trkpt>
      <trkpt lat="46.99009" lon="-0.74441">
        <ele>136.80690002441</ele>
        <time>2016-06-08T15:17:13.000Z</time>
      </trkpt>
      <trkpt lat="46.99011" lon="-0.74438">
        <ele>135.900390625</ele>
        <time>2016-06-08T15:17:15.000Z</time>
      </trkpt>
      <trkpt lat="46.99012" lon="-0.74433">
        <ele>136.44451904297</ele>
        <time>2016-06-08T15:17:18.000Z</time>
      </trkpt>
      <trkpt lat="46.99012" lon="-0.74427">
        <ele>136.90548706055</ele>
        <time>2016-06-08T15:17:20.000Z</time>
      </trkpt>
      <trkpt lat="46.99014" lon="-0.74421">
        <ele>137.41310119629</ele>
        <time>2016-06-08T15:17:22.000Z</time>
      </trkpt>
      <trkpt lat="46.99015" lon="-0.74413">
        <ele>137.41200256348</ele>
        <time>2016-06-08T15:17:25.000Z</time>
      </trkpt>
      <trkpt lat="46.99015" lon="-0.74407">
        <ele>136.86029052734</ele>
        <time>2016-06-08T15:17:27.000Z</time>
      </trkpt>
      <trkpt lat="46.99015" lon="-0.74403">
        <ele>136.53712463379</ele>
        <time>2016-06-08T15:17:29.000Z</time>
      </trkpt>
      <trkpt lat="46.99016" lon="-0.74401">
        <ele>136.05833435059</ele>
        <time>2016-06-08T15:17:31.000Z</time>
      </trkpt>
      <trkpt lat="46.99017" lon="-0.74397">
        <ele>134.81329345703</ele>
        <time>2016-06-08T15:17:34.000Z</time>
      </trkpt>
      <trkpt lat="46.99017" lon="-0.74389">
        <ele>134.64822387695</ele>
        <time>2016-06-08T15:17:37.000Z</time>
      </trkpt>
      <trkpt lat="46.99014" lon="-0.74383">
        <ele>135.64245605469</ele>
        <time>2016-06-08T15:17:40.000Z</time>
      </trkpt>
      <trkpt lat="46.99012" lon="-0.74381">
        <ele>136.46604919434</ele>
        <time>2016-06-08T15:17:43.000Z</time>
      </trkpt>
      <trkpt lat="46.99009" lon="-0.74376">
        <ele>138.95460510254</ele>
        <time>2016-06-08T15:17:45.000Z</time>
      </trkpt>
      <trkpt lat="46.99006" lon="-0.74374">
        <ele>140.93420410156</ele>
        <time>2016-06-08T15:17:49.000Z</time>
      </trkpt>
      <trkpt lat="46.99004" lon="-0.74373">
        <ele>140.96530151367</ele>
        <time>2016-06-08T15:17:52.000Z</time>
      </trkpt>
      <trkpt lat="46.99004" lon="-0.74371">
        <ele>140.54405212402</ele>
        <time>2016-06-08T15:17:55.000Z</time>
      </trkpt>
      <trkpt lat="46.99004" lon="-0.74366">
        <ele>141.33067321777</ele>
        <time>2016-06-08T15:17:57.000Z</time>
      </trkpt>
      <trkpt lat="46.99001" lon="-0.74361">
        <ele>142.31884765625</ele>
        <time>2016-06-08T15:18:00.000Z</time>
      </trkpt>
      <trkpt lat="46.98998" lon="-0.74359">
        <ele>142.63195800781</ele>
        <time>2016-06-08T15:18:02.000Z</time>
      </trkpt>
      <trkpt lat="46.98996" lon="-0.74353">
        <ele>145.16973876953</ele>
        <time>2016-06-08T15:18:05.000Z</time>
      </trkpt>
      <trkpt lat="46.98995" lon="-0.74349">
        <ele>145.64251708984</ele>
        <time>2016-06-08T15:18:07.000Z</time>
      </trkpt>
      <trkpt lat="46.98993" lon="-0.74345">
        <ele>145.71368408203</ele>
        <time>2016-06-08T15:18:09.000Z</time>
      </trkpt>
      <trkpt lat="46.98991" lon="-0.74339">
        <ele>144.44812011719</ele>
        <time>2016-06-08T15:18:12.000Z</time>
      </trkpt>
      <trkpt lat="46.98991" lon="-0.74336">
        <ele>143.44047546387</ele>
        <time>2016-06-08T15:18:14.000Z</time>
      </trkpt>
      <trkpt lat="46.98991" lon="-0.74332">
        <ele>143.5539855957</ele>
        <time>2016-06-08T15:18:17.000Z</time>
      </trkpt>
      <trkpt lat="46.98991" lon="-0.74329">
        <ele>143.38616943359</ele>
        <time>2016-06-08T15:18:20.000Z</time>
      </trkpt>
      <trkpt lat="46.9899" lon="-0.74325">
        <ele>142.31727600098</ele>
        <time>2016-06-08T15:18:23.000Z</time>
      </trkpt>
      <trkpt lat="46.98989" lon="-0.74322">
        <ele>140.35931396484</ele>
        <time>2016-06-08T15:18:28.000Z</time>
      </trkpt>
      <trkpt lat="46.98988" lon="-0.7432">
        <ele>139.96803283691</ele>
        <time>2016-06-08T15:18:32.000Z</time>
      </trkpt>
    </trkseg>
  </trk>
</gpx>